<?xml version="1.0" encoding="UTF-8" standalone="no" ?>
<gpx xmlns="http://www.topografix.com/GPX/1/1" xmlns:xsi="http://www.w3.org/2001/XMLSchema-instance" xsi:schemaLocation="http://www.topografix.com/GPX/1/1 http://www.topografix.com/GPX/1/1/gpx.xsd" version="1.1" creator="VisuGPX - https://www.visugpx.com">
  <metadata>
    <name>Auberive (Parc animalier)</name>
  </metadata>
  <trk>
    <name><![CDATA[Randonnée du matin 1]]></name>
    <trkseg>
      <trkpt lat="47.78824" lon="5.06134">
        <ele>325.67</ele>
        <time>2022-05-09T06:59:12Z</time>
      </trkpt>
      <trkpt lat="47.78827" lon="5.06136">
        <ele>325.46</ele>
        <time>2022-05-09T07:01:23Z</time>
      </trkpt>
      <trkpt lat="47.7883" lon="5.06133">
        <ele>325.24</ele>
        <time>2022-05-09T07:03:08Z</time>
      </trkpt>
      <trkpt lat="47.78832" lon="5.06136">
        <ele>325.1</ele>
        <time>2022-05-09T07:04:05Z</time>
      </trkpt>
      <trkpt lat="47.78832" lon="5.06132">
        <ele>325.1</ele>
        <time>2022-05-09T07:08:41Z</time>
      </trkpt>
      <trkpt lat="47.78833" lon="5.06135">
        <ele>325.02</ele>
        <time>2022-05-09T07:12:16Z</time>
      </trkpt>
      <trkpt lat="47.78834" lon="5.06139">
        <ele>325.06</ele>
        <time>2022-05-09T07:12:27Z</time>
      </trkpt>
      <trkpt lat="47.78835" lon="5.06144">
        <ele>325.5</ele>
        <time>2022-05-09T07:12:30Z</time>
      </trkpt>
      <trkpt lat="47.78837" lon="5.06148">
        <ele>325.96</ele>
        <time>2022-05-09T07:12:32Z</time>
      </trkpt>
      <trkpt lat="47.78837" lon="5.06152">
        <ele>326.27</ele>
        <time>2022-05-09T07:12:35Z</time>
      </trkpt>
      <trkpt lat="47.78836" lon="5.06157">
        <ele>326.56</ele>
        <time>2022-05-09T07:12:38Z</time>
      </trkpt>
      <trkpt lat="47.78835" lon="5.06161">
        <ele>326.76</ele>
        <time>2022-05-09T07:12:41Z</time>
      </trkpt>
      <trkpt lat="47.78834" lon="5.06165">
        <ele>326.95</ele>
        <time>2022-05-09T07:12:44Z</time>
      </trkpt>
      <trkpt lat="47.78832" lon="5.06169">
        <ele>327.3</ele>
        <time>2022-05-09T07:12:46Z</time>
      </trkpt>
      <trkpt lat="47.7883" lon="5.06172">
        <ele>327.7</ele>
        <time>2022-05-09T07:12:49Z</time>
      </trkpt>
      <trkpt lat="47.78828" lon="5.06175">
        <ele>328.09</ele>
        <time>2022-05-09T07:12:51Z</time>
      </trkpt>
      <trkpt lat="47.78826" lon="5.06178">
        <ele>328.49</ele>
        <time>2022-05-09T07:12:54Z</time>
      </trkpt>
      <trkpt lat="47.78823" lon="5.06181">
        <ele>328.92</ele>
        <time>2022-05-09T07:12:56Z</time>
      </trkpt>
      <trkpt lat="47.78821" lon="5.06184">
        <ele>329.32</ele>
        <time>2022-05-09T07:12:58Z</time>
      </trkpt>
      <trkpt lat="47.78819" lon="5.06187">
        <ele>329.71</ele>
        <time>2022-05-09T07:13:00Z</time>
      </trkpt>
      <trkpt lat="47.78817" lon="5.06189">
        <ele>330</ele>
        <time>2022-05-09T07:13:03Z</time>
      </trkpt>
      <trkpt lat="47.78815" lon="5.06192">
        <ele>330.4</ele>
        <time>2022-05-09T07:13:05Z</time>
      </trkpt>
      <trkpt lat="47.78813" lon="5.06196">
        <ele>330.9</ele>
        <time>2022-05-09T07:13:08Z</time>
      </trkpt>
      <trkpt lat="47.7881" lon="5.06198">
        <ele>331.18</ele>
        <time>2022-05-09T07:13:10Z</time>
      </trkpt>
      <trkpt lat="47.78807" lon="5.06201">
        <ele>331.47</ele>
        <time>2022-05-09T07:13:13Z</time>
      </trkpt>
      <trkpt lat="47.78805" lon="5.06204">
        <ele>331.65</ele>
        <time>2022-05-09T07:13:15Z</time>
      </trkpt>
      <trkpt lat="47.78803" lon="5.06206">
        <ele>331.65</ele>
        <time>2022-05-09T07:13:18Z</time>
      </trkpt>
      <trkpt lat="47.78801" lon="5.0621">
        <ele>331.79</ele>
        <time>2022-05-09T07:13:22Z</time>
      </trkpt>
      <trkpt lat="47.78799" lon="5.06213">
        <ele>331.86</ele>
        <time>2022-05-09T07:13:25Z</time>
      </trkpt>
      <trkpt lat="47.78797" lon="5.06216">
        <ele>331.94</ele>
        <time>2022-05-09T07:13:27Z</time>
      </trkpt>
      <trkpt lat="47.78795" lon="5.0622">
        <ele>332.08</ele>
        <time>2022-05-09T07:13:30Z</time>
      </trkpt>
      <trkpt lat="47.78793" lon="5.06224">
        <ele>332.36</ele>
        <time>2022-05-09T07:13:32Z</time>
      </trkpt>
      <trkpt lat="47.78791" lon="5.06228">
        <ele>332.77</ele>
        <time>2022-05-09T07:13:35Z</time>
      </trkpt>
      <trkpt lat="47.78789" lon="5.06231">
        <ele>333.01</ele>
        <time>2022-05-09T07:13:38Z</time>
      </trkpt>
      <trkpt lat="47.78787" lon="5.06233">
        <ele>333.09</ele>
        <time>2022-05-09T07:13:40Z</time>
      </trkpt>
      <trkpt lat="47.78784" lon="5.06236">
        <ele>333.16</ele>
        <time>2022-05-09T07:13:43Z</time>
      </trkpt>
      <trkpt lat="47.78781" lon="5.06238">
        <ele>333.07</ele>
        <time>2022-05-09T07:13:45Z</time>
      </trkpt>
      <trkpt lat="47.7878" lon="5.06241">
        <ele>333.3</ele>
        <time>2022-05-09T07:13:48Z</time>
      </trkpt>
      <trkpt lat="47.78778" lon="5.06244">
        <ele>333.38</ele>
        <time>2022-05-09T07:13:51Z</time>
      </trkpt>
      <trkpt lat="47.78775" lon="5.06248">
        <ele>333.71</ele>
        <time>2022-05-09T07:13:54Z</time>
      </trkpt>
      <trkpt lat="47.78773" lon="5.06251">
        <ele>333.93</ele>
        <time>2022-05-09T07:13:56Z</time>
      </trkpt>
      <trkpt lat="47.78771" lon="5.06253">
        <ele>334.05</ele>
        <time>2022-05-09T07:13:59Z</time>
      </trkpt>
      <trkpt lat="47.78769" lon="5.06257">
        <ele>334.36</ele>
        <time>2022-05-09T07:14:02Z</time>
      </trkpt>
      <trkpt lat="47.78766" lon="5.0626">
        <ele>334.5</ele>
        <time>2022-05-09T07:14:04Z</time>
      </trkpt>
      <trkpt lat="47.78764" lon="5.06263">
        <ele>334.68</ele>
        <time>2022-05-09T07:14:07Z</time>
      </trkpt>
      <trkpt lat="47.78762" lon="5.06266">
        <ele>334.83</ele>
        <time>2022-05-09T07:14:10Z</time>
      </trkpt>
      <trkpt lat="47.7876" lon="5.06269">
        <ele>334.97</ele>
        <time>2022-05-09T07:14:13Z</time>
      </trkpt>
      <trkpt lat="47.78758" lon="5.06273">
        <ele>335.18</ele>
        <time>2022-05-09T07:14:16Z</time>
      </trkpt>
      <trkpt lat="47.78756" lon="5.06276">
        <ele>335.29</ele>
        <time>2022-05-09T07:14:18Z</time>
      </trkpt>
      <trkpt lat="47.78754" lon="5.0628">
        <ele>335.44</ele>
        <time>2022-05-09T07:14:23Z</time>
      </trkpt>
      <trkpt lat="47.78752" lon="5.06282">
        <ele>335.44</ele>
        <time>2022-05-09T07:14:25Z</time>
      </trkpt>
      <trkpt lat="47.7875" lon="5.06286">
        <ele>335.59</ele>
        <time>2022-05-09T07:14:30Z</time>
      </trkpt>
      <trkpt lat="47.78748" lon="5.06289">
        <ele>335.71</ele>
        <time>2022-05-09T07:14:33Z</time>
      </trkpt>
      <trkpt lat="47.78747" lon="5.06293">
        <ele>335.93</ele>
        <time>2022-05-09T07:14:36Z</time>
      </trkpt>
      <trkpt lat="47.78744" lon="5.06295">
        <ele>335.89</ele>
        <time>2022-05-09T07:14:39Z</time>
      </trkpt>
      <trkpt lat="47.78741" lon="5.06298">
        <ele>335.9</ele>
        <time>2022-05-09T07:14:42Z</time>
      </trkpt>
      <trkpt lat="47.78738" lon="5.063">
        <ele>335.82</ele>
        <time>2022-05-09T07:14:43Z</time>
      </trkpt>
      <trkpt lat="47.78735" lon="5.06301">
        <ele>335.68</ele>
        <time>2022-05-09T07:14:46Z</time>
      </trkpt>
      <trkpt lat="47.78732" lon="5.06302">
        <ele>335.53</ele>
        <time>2022-05-09T07:14:47Z</time>
      </trkpt>
      <trkpt lat="47.78729" lon="5.06304">
        <ele>335.42</ele>
        <time>2022-05-09T07:14:50Z</time>
      </trkpt>
      <trkpt lat="47.78726" lon="5.06305">
        <ele>335.25</ele>
        <time>2022-05-09T07:14:52Z</time>
      </trkpt>
      <trkpt lat="47.78723" lon="5.06307">
        <ele>335.11</ele>
        <time>2022-05-09T07:14:53Z</time>
      </trkpt>
      <trkpt lat="47.7872" lon="5.06308">
        <ele>335.39</ele>
        <time>2022-05-09T07:14:55Z</time>
      </trkpt>
      <trkpt lat="47.78716" lon="5.0631">
        <ele>335.98</ele>
        <time>2022-05-09T07:14:57Z</time>
      </trkpt>
      <trkpt lat="47.78713" lon="5.06311">
        <ele>336.39</ele>
        <time>2022-05-09T07:14:58Z</time>
      </trkpt>
      <trkpt lat="47.78708" lon="5.06311">
        <ele>337.04</ele>
        <time>2022-05-09T07:15:01Z</time>
      </trkpt>
      <trkpt lat="47.78705" lon="5.06311">
        <ele>337.43</ele>
        <time>2022-05-09T07:15:03Z</time>
      </trkpt>
      <trkpt lat="47.78702" lon="5.06311">
        <ele>337.82</ele>
        <time>2022-05-09T07:15:04Z</time>
      </trkpt>
      <trkpt lat="47.78698" lon="5.06311">
        <ele>338.34</ele>
        <time>2022-05-09T07:15:06Z</time>
      </trkpt>
      <trkpt lat="47.78695" lon="5.06311">
        <ele>338.73</ele>
        <time>2022-05-09T07:15:07Z</time>
      </trkpt>
      <trkpt lat="47.78692" lon="5.06311">
        <ele>338.91</ele>
        <time>2022-05-09T07:15:09Z</time>
      </trkpt>
      <trkpt lat="47.7869" lon="5.06311">
        <ele>339</ele>
        <time>2022-05-09T07:15:10Z</time>
      </trkpt>
      <trkpt lat="47.78686" lon="5.06311">
        <ele>339.17</ele>
        <time>2022-05-09T07:15:12Z</time>
      </trkpt>
      <trkpt lat="47.78683" lon="5.06311">
        <ele>339.3</ele>
        <time>2022-05-09T07:15:13Z</time>
      </trkpt>
      <trkpt lat="47.7868" lon="5.0631">
        <ele>339.44</ele>
        <time>2022-05-09T07:15:15Z</time>
      </trkpt>
      <trkpt lat="47.78677" lon="5.06309">
        <ele>339.58</ele>
        <time>2022-05-09T07:15:19Z</time>
      </trkpt>
      <trkpt lat="47.78675" lon="5.06311">
        <ele>339.64</ele>
        <time>2022-05-09T07:15:22Z</time>
      </trkpt>
      <trkpt lat="47.78672" lon="5.06314">
        <ele>339.75</ele>
        <time>2022-05-09T07:15:26Z</time>
      </trkpt>
      <trkpt lat="47.78672" lon="5.06318">
        <ele>339.72</ele>
        <time>2022-05-09T07:15:31Z</time>
      </trkpt>
      <trkpt lat="47.7867" lon="5.06322">
        <ele>339.81</ele>
        <time>2022-05-09T07:15:33Z</time>
      </trkpt>
      <trkpt lat="47.78669" lon="5.06326">
        <ele>339.85</ele>
        <time>2022-05-09T07:15:36Z</time>
      </trkpt>
      <trkpt lat="47.78667" lon="5.0633">
        <ele>339.98</ele>
        <time>2022-05-09T07:15:38Z</time>
      </trkpt>
      <trkpt lat="47.78666" lon="5.06334">
        <ele>340</ele>
        <time>2022-05-09T07:15:41Z</time>
      </trkpt>
      <trkpt lat="47.78664" lon="5.06339">
        <ele>340.02</ele>
        <time>2022-05-09T07:15:44Z</time>
      </trkpt>
      <trkpt lat="47.78661" lon="5.06342">
        <ele>340.06</ele>
        <time>2022-05-09T07:15:46Z</time>
      </trkpt>
      <trkpt lat="47.78659" lon="5.06346">
        <ele>340.13</ele>
        <time>2022-05-09T07:15:48Z</time>
      </trkpt>
      <trkpt lat="47.78658" lon="5.06349">
        <ele>340.18</ele>
        <time>2022-05-09T07:15:50Z</time>
      </trkpt>
      <trkpt lat="47.78656" lon="5.06353">
        <ele>340.27</ele>
        <time>2022-05-09T07:15:52Z</time>
      </trkpt>
      <trkpt lat="47.78655" lon="5.06358">
        <ele>340.37</ele>
        <time>2022-05-09T07:15:54Z</time>
      </trkpt>
      <trkpt lat="47.78654" lon="5.06362">
        <ele>340.46</ele>
        <time>2022-05-09T07:15:57Z</time>
      </trkpt>
      <trkpt lat="47.78653" lon="5.06367">
        <ele>340.49</ele>
        <time>2022-05-09T07:15:58Z</time>
      </trkpt>
      <trkpt lat="47.78652" lon="5.06371">
        <ele>340.53</ele>
        <time>2022-05-09T07:16:01Z</time>
      </trkpt>
      <trkpt lat="47.78652" lon="5.06376">
        <ele>340.53</ele>
        <time>2022-05-09T07:16:04Z</time>
      </trkpt>
      <trkpt lat="47.7865" lon="5.06381">
        <ele>340.6</ele>
        <time>2022-05-09T07:16:05Z</time>
      </trkpt>
      <trkpt lat="47.78649" lon="5.06386">
        <ele>340.64</ele>
        <time>2022-05-09T07:16:08Z</time>
      </trkpt>
      <trkpt lat="47.78648" lon="5.0639">
        <ele>340.66</ele>
        <time>2022-05-09T07:16:11Z</time>
      </trkpt>
      <trkpt lat="47.78646" lon="5.06395">
        <ele>340.69</ele>
        <time>2022-05-09T07:16:13Z</time>
      </trkpt>
      <trkpt lat="47.78645" lon="5.06399">
        <ele>340.7</ele>
        <time>2022-05-09T07:16:17Z</time>
      </trkpt>
      <trkpt lat="47.78644" lon="5.06403">
        <ele>340.72</ele>
        <time>2022-05-09T07:16:19Z</time>
      </trkpt>
      <trkpt lat="47.78644" lon="5.06407">
        <ele>340.7</ele>
        <time>2022-05-09T07:16:22Z</time>
      </trkpt>
      <trkpt lat="47.78644" lon="5.06412">
        <ele>340.66</ele>
        <time>2022-05-09T07:16:25Z</time>
      </trkpt>
      <trkpt lat="47.78645" lon="5.06416">
        <ele>340.57</ele>
        <time>2022-05-09T07:16:29Z</time>
      </trkpt>
      <trkpt lat="47.78645" lon="5.06421">
        <ele>340.68</ele>
        <time>2022-05-09T07:16:34Z</time>
      </trkpt>
      <trkpt lat="47.78643" lon="5.06426">
        <ele>340.99</ele>
        <time>2022-05-09T07:16:37Z</time>
      </trkpt>
      <trkpt lat="47.78642" lon="5.0643">
        <ele>341.2</ele>
        <time>2022-05-09T07:16:39Z</time>
      </trkpt>
      <trkpt lat="47.7864" lon="5.06434">
        <ele>341.52</ele>
        <time>2022-05-09T07:16:42Z</time>
      </trkpt>
      <trkpt lat="47.78639" lon="5.06438">
        <ele>341.76</ele>
        <time>2022-05-09T07:16:45Z</time>
      </trkpt>
      <trkpt lat="47.78638" lon="5.06442">
        <ele>341.88</ele>
        <time>2022-05-09T07:16:50Z</time>
      </trkpt>
      <trkpt lat="47.78636" lon="5.06445">
        <ele>341.87</ele>
        <time>2022-05-09T07:16:56Z</time>
      </trkpt>
      <trkpt lat="47.78633" lon="5.06447">
        <ele>341.68</ele>
        <time>2022-05-09T07:16:58Z</time>
      </trkpt>
      <trkpt lat="47.7863" lon="5.06449">
        <ele>341.46</ele>
        <time>2022-05-09T07:17:00Z</time>
      </trkpt>
      <trkpt lat="47.78628" lon="5.06452">
        <ele>341.23</ele>
        <time>2022-05-09T07:17:02Z</time>
      </trkpt>
      <trkpt lat="47.78625" lon="5.06456">
        <ele>340.88</ele>
        <time>2022-05-09T07:17:06Z</time>
      </trkpt>
      <trkpt lat="47.78623" lon="5.06459">
        <ele>340.6</ele>
        <time>2022-05-09T07:17:08Z</time>
      </trkpt>
      <trkpt lat="47.78621" lon="5.06462">
        <ele>340.32</ele>
        <time>2022-05-09T07:17:10Z</time>
      </trkpt>
      <trkpt lat="47.78619" lon="5.06465">
        <ele>340.01</ele>
        <time>2022-05-09T07:17:12Z</time>
      </trkpt>
      <trkpt lat="47.78616" lon="5.06468">
        <ele>339.63</ele>
        <time>2022-05-09T07:17:14Z</time>
      </trkpt>
      <trkpt lat="47.78614" lon="5.0647">
        <ele>339.36</ele>
        <time>2022-05-09T07:17:17Z</time>
      </trkpt>
      <trkpt lat="47.78612" lon="5.06474">
        <ele>339.19</ele>
        <time>2022-05-09T07:17:18Z</time>
      </trkpt>
      <trkpt lat="47.78608" lon="5.06477">
        <ele>339.44</ele>
        <time>2022-05-09T07:17:21Z</time>
      </trkpt>
      <trkpt lat="47.78606" lon="5.0648">
        <ele>339.69</ele>
        <time>2022-05-09T07:17:22Z</time>
      </trkpt>
      <trkpt lat="47.78603" lon="5.06482">
        <ele>339.89</ele>
        <time>2022-05-09T07:17:23Z</time>
      </trkpt>
      <trkpt lat="47.78601" lon="5.06485">
        <ele>340.12</ele>
        <time>2022-05-09T07:17:26Z</time>
      </trkpt>
      <trkpt lat="47.78598" lon="5.06488">
        <ele>340.34</ele>
        <time>2022-05-09T07:17:27Z</time>
      </trkpt>
      <trkpt lat="47.78596" lon="5.06491">
        <ele>340.53</ele>
        <time>2022-05-09T07:17:30Z</time>
      </trkpt>
      <trkpt lat="47.78594" lon="5.06494">
        <ele>340.7</ele>
        <time>2022-05-09T07:17:32Z</time>
      </trkpt>
      <trkpt lat="47.78591" lon="5.06496">
        <ele>340.82</ele>
        <time>2022-05-09T07:17:35Z</time>
      </trkpt>
      <trkpt lat="47.78588" lon="5.06498">
        <ele>340.92</ele>
        <time>2022-05-09T07:17:37Z</time>
      </trkpt>
      <trkpt lat="47.78585" lon="5.06499">
        <ele>340.96</ele>
        <time>2022-05-09T07:17:38Z</time>
      </trkpt>
      <trkpt lat="47.78582" lon="5.06499">
        <ele>341.01</ele>
        <time>2022-05-09T07:17:41Z</time>
      </trkpt>
      <trkpt lat="47.78579" lon="5.06498">
        <ele>341.08</ele>
        <time>2022-05-09T07:17:42Z</time>
      </trkpt>
      <trkpt lat="47.78576" lon="5.06497">
        <ele>341.16</ele>
        <time>2022-05-09T07:17:45Z</time>
      </trkpt>
      <trkpt lat="47.78573" lon="5.06496">
        <ele>341.23</ele>
        <time>2022-05-09T07:17:48Z</time>
      </trkpt>
      <trkpt lat="47.7857" lon="5.06495">
        <ele>341.3</ele>
        <time>2022-05-09T07:17:52Z</time>
      </trkpt>
      <trkpt lat="47.78566" lon="5.06495">
        <ele>341.44</ele>
        <time>2022-05-09T07:17:54Z</time>
      </trkpt>
      <trkpt lat="47.78563" lon="5.06494">
        <ele>341.52</ele>
        <time>2022-05-09T07:17:56Z</time>
      </trkpt>
      <trkpt lat="47.78559" lon="5.06493">
        <ele>341.62</ele>
        <time>2022-05-09T07:17:58Z</time>
      </trkpt>
      <trkpt lat="47.78556" lon="5.0649">
        <ele>341.62</ele>
        <time>2022-05-09T07:17:59Z</time>
      </trkpt>
      <trkpt lat="47.78554" lon="5.06487">
        <ele>341.65</ele>
        <time>2022-05-09T07:18:02Z</time>
      </trkpt>
      <trkpt lat="47.78551" lon="5.06483">
        <ele>341.68</ele>
        <time>2022-05-09T07:18:04Z</time>
      </trkpt>
      <trkpt lat="47.78549" lon="5.0648">
        <ele>341.65</ele>
        <time>2022-05-09T07:18:05Z</time>
      </trkpt>
      <trkpt lat="47.78547" lon="5.06476">
        <ele>341.53</ele>
        <time>2022-05-09T07:18:08Z</time>
      </trkpt>
      <trkpt lat="47.78546" lon="5.06471">
        <ele>341.34</ele>
        <time>2022-05-09T07:18:10Z</time>
      </trkpt>
      <trkpt lat="47.78544" lon="5.06468">
        <ele>341.42</ele>
        <time>2022-05-09T07:18:11Z</time>
      </trkpt>
      <trkpt lat="47.78541" lon="5.06466">
        <ele>341.52</ele>
        <time>2022-05-09T07:18:14Z</time>
      </trkpt>
      <trkpt lat="47.78542" lon="5.0647">
        <ele>341.49</ele>
        <time>2022-05-09T07:18:21Z</time>
      </trkpt>
      <trkpt lat="47.78544" lon="5.06474">
        <ele>341.53</ele>
        <time>2022-05-09T07:18:26Z</time>
      </trkpt>
      <trkpt lat="47.78543" lon="5.06478">
        <ele>341.85</ele>
        <time>2022-05-09T07:18:32Z</time>
      </trkpt>
      <trkpt lat="47.78543" lon="5.06483">
        <ele>342.19</ele>
        <time>2022-05-09T07:18:36Z</time>
      </trkpt>
      <trkpt lat="47.78543" lon="5.06488">
        <ele>342.53</ele>
        <time>2022-05-09T07:18:38Z</time>
      </trkpt>
      <trkpt lat="47.78543" lon="5.06494">
        <ele>342.94</ele>
        <time>2022-05-09T07:18:41Z</time>
      </trkpt>
      <trkpt lat="47.78543" lon="5.06499">
        <ele>343.29</ele>
        <time>2022-05-09T07:18:43Z</time>
      </trkpt>
      <trkpt lat="47.78542" lon="5.06504">
        <ele>343.61</ele>
        <time>2022-05-09T07:18:45Z</time>
      </trkpt>
      <trkpt lat="47.78542" lon="5.06508">
        <ele>343.75</ele>
        <time>2022-05-09T07:18:48Z</time>
      </trkpt>
      <trkpt lat="47.78542" lon="5.06512">
        <ele>343.9</ele>
        <time>2022-05-09T07:18:53Z</time>
      </trkpt>
      <trkpt lat="47.78543" lon="5.06516">
        <ele>343.93</ele>
        <time>2022-05-09T07:18:57Z</time>
      </trkpt>
      <trkpt lat="47.78543" lon="5.06521">
        <ele>344.11</ele>
        <time>2022-05-09T07:19:00Z</time>
      </trkpt>
      <trkpt lat="47.78543" lon="5.06526">
        <ele>344.29</ele>
        <time>2022-05-09T07:19:03Z</time>
      </trkpt>
      <trkpt lat="47.78544" lon="5.06532">
        <ele>344.34</ele>
        <time>2022-05-09T07:19:06Z</time>
      </trkpt>
      <trkpt lat="47.78544" lon="5.06536">
        <ele>344.42</ele>
        <time>2022-05-09T07:19:07Z</time>
      </trkpt>
      <trkpt lat="47.78544" lon="5.06542">
        <ele>344.55</ele>
        <time>2022-05-09T07:19:10Z</time>
      </trkpt>
      <trkpt lat="47.78545" lon="5.06546">
        <ele>344.55</ele>
        <time>2022-05-09T07:19:11Z</time>
      </trkpt>
      <trkpt lat="47.78546" lon="5.06551">
        <ele>344.58</ele>
        <time>2022-05-09T07:19:14Z</time>
      </trkpt>
      <trkpt lat="47.78547" lon="5.06555">
        <ele>344.6</ele>
        <time>2022-05-09T07:19:15Z</time>
      </trkpt>
      <trkpt lat="47.78548" lon="5.0656">
        <ele>344.38</ele>
        <time>2022-05-09T07:19:18Z</time>
      </trkpt>
      <trkpt lat="47.78548" lon="5.06565">
        <ele>344.2</ele>
        <time>2022-05-09T07:19:20Z</time>
      </trkpt>
      <trkpt lat="47.78549" lon="5.06569">
        <ele>343.99</ele>
        <time>2022-05-09T07:19:22Z</time>
      </trkpt>
      <trkpt lat="47.78549" lon="5.06573">
        <ele>343.84</ele>
        <time>2022-05-09T07:19:24Z</time>
      </trkpt>
      <trkpt lat="47.78549" lon="5.06578">
        <ele>343.66</ele>
        <time>2022-05-09T07:19:26Z</time>
      </trkpt>
      <trkpt lat="47.7855" lon="5.06583">
        <ele>343.41</ele>
        <time>2022-05-09T07:19:29Z</time>
      </trkpt>
      <trkpt lat="47.7855" lon="5.06588">
        <ele>343.47</ele>
        <time>2022-05-09T07:19:31Z</time>
      </trkpt>
      <trkpt lat="47.78549" lon="5.06592">
        <ele>343.56</ele>
        <time>2022-05-09T07:19:37Z</time>
      </trkpt>
      <trkpt lat="47.78549" lon="5.06597">
        <ele>343.62</ele>
        <time>2022-05-09T07:19:41Z</time>
      </trkpt>
      <trkpt lat="47.78549" lon="5.06601">
        <ele>343.66</ele>
        <time>2022-05-09T07:19:42Z</time>
      </trkpt>
      <trkpt lat="47.78549" lon="5.06607">
        <ele>343.72</ele>
        <time>2022-05-09T07:19:45Z</time>
      </trkpt>
      <trkpt lat="47.78549" lon="5.06612">
        <ele>343.83</ele>
        <time>2022-05-09T07:19:46Z</time>
      </trkpt>
      <trkpt lat="47.78549" lon="5.06617">
        <ele>344.2</ele>
        <time>2022-05-09T07:19:48Z</time>
      </trkpt>
      <trkpt lat="47.7855" lon="5.06622">
        <ele>344.66</ele>
        <time>2022-05-09T07:19:50Z</time>
      </trkpt>
      <trkpt lat="47.7855" lon="5.06627">
        <ele>345.06</ele>
        <time>2022-05-09T07:19:53Z</time>
      </trkpt>
      <trkpt lat="47.7855" lon="5.06633">
        <ele>345.53</ele>
        <time>2022-05-09T07:19:56Z</time>
      </trkpt>
      <trkpt lat="47.78551" lon="5.06637">
        <ele>346.02</ele>
        <time>2022-05-09T07:19:57Z</time>
      </trkpt>
      <trkpt lat="47.78551" lon="5.06642">
        <ele>346.1</ele>
        <time>2022-05-09T07:19:59Z</time>
      </trkpt>
      <trkpt lat="47.78551" lon="5.06646">
        <ele>346.01</ele>
        <time>2022-05-09T07:20:02Z</time>
      </trkpt>
      <trkpt lat="47.78551" lon="5.06651">
        <ele>345.89</ele>
        <time>2022-05-09T07:20:04Z</time>
      </trkpt>
      <trkpt lat="47.78551" lon="5.06655">
        <ele>345.79</ele>
        <time>2022-05-09T07:20:07Z</time>
      </trkpt>
      <trkpt lat="47.7855" lon="5.06659">
        <ele>345.57</ele>
        <time>2022-05-09T07:20:10Z</time>
      </trkpt>
      <trkpt lat="47.7855" lon="5.06664">
        <ele>345.46</ele>
        <time>2022-05-09T07:20:11Z</time>
      </trkpt>
      <trkpt lat="47.7855" lon="5.06669">
        <ele>345.53</ele>
        <time>2022-05-09T07:20:14Z</time>
      </trkpt>
      <trkpt lat="47.78549" lon="5.06673">
        <ele>345.64</ele>
        <time>2022-05-09T07:20:16Z</time>
      </trkpt>
      <trkpt lat="47.78548" lon="5.06678">
        <ele>345.78</ele>
        <time>2022-05-09T07:20:19Z</time>
      </trkpt>
      <trkpt lat="47.78548" lon="5.06683">
        <ele>346.04</ele>
        <time>2022-05-09T07:20:21Z</time>
      </trkpt>
      <trkpt lat="47.78547" lon="5.06688">
        <ele>346.14</ele>
        <time>2022-05-09T07:20:24Z</time>
      </trkpt>
      <trkpt lat="47.78547" lon="5.06693">
        <ele>346.39</ele>
        <time>2022-05-09T07:20:26Z</time>
      </trkpt>
      <trkpt lat="47.78547" lon="5.06698">
        <ele>346.72</ele>
        <time>2022-05-09T07:20:29Z</time>
      </trkpt>
      <trkpt lat="47.78546" lon="5.06703">
        <ele>346.9</ele>
        <time>2022-05-09T07:20:31Z</time>
      </trkpt>
      <trkpt lat="47.78545" lon="5.06707">
        <ele>347</ele>
        <time>2022-05-09T07:20:33Z</time>
      </trkpt>
      <trkpt lat="47.78544" lon="5.06712">
        <ele>347.18</ele>
        <time>2022-05-09T07:20:35Z</time>
      </trkpt>
      <trkpt lat="47.78543" lon="5.06717">
        <ele>347.36</ele>
        <time>2022-05-09T07:20:38Z</time>
      </trkpt>
      <trkpt lat="47.78542" lon="5.06721">
        <ele>347.47</ele>
        <time>2022-05-09T07:20:39Z</time>
      </trkpt>
      <trkpt lat="47.78542" lon="5.06725">
        <ele>347.56</ele>
        <time>2022-05-09T07:20:42Z</time>
      </trkpt>
      <trkpt lat="47.78541" lon="5.0673">
        <ele>347.39</ele>
        <time>2022-05-09T07:20:44Z</time>
      </trkpt>
      <trkpt lat="47.7854" lon="5.06735">
        <ele>347.26</ele>
        <time>2022-05-09T07:20:47Z</time>
      </trkpt>
      <trkpt lat="47.78539" lon="5.06739">
        <ele>347.14</ele>
        <time>2022-05-09T07:20:49Z</time>
      </trkpt>
      <trkpt lat="47.78537" lon="5.06744">
        <ele>346.92</ele>
        <time>2022-05-09T07:20:52Z</time>
      </trkpt>
      <trkpt lat="47.78536" lon="5.06748">
        <ele>346.86</ele>
        <time>2022-05-09T07:20:54Z</time>
      </trkpt>
      <trkpt lat="47.78535" lon="5.06752">
        <ele>346.76</ele>
        <time>2022-05-09T07:20:56Z</time>
      </trkpt>
      <trkpt lat="47.78534" lon="5.06756">
        <ele>346.62</ele>
        <time>2022-05-09T07:20:57Z</time>
      </trkpt>
      <trkpt lat="47.78533" lon="5.0676">
        <ele>346.5</ele>
        <time>2022-05-09T07:21:00Z</time>
      </trkpt>
      <trkpt lat="47.78532" lon="5.06764">
        <ele>346.38</ele>
        <time>2022-05-09T07:21:01Z</time>
      </trkpt>
      <trkpt lat="47.78532" lon="5.06768">
        <ele>346.36</ele>
        <time>2022-05-09T07:21:03Z</time>
      </trkpt>
      <trkpt lat="47.78531" lon="5.06773">
        <ele>346.25</ele>
        <time>2022-05-09T07:21:06Z</time>
      </trkpt>
      <trkpt lat="47.78531" lon="5.06778">
        <ele>346.24</ele>
        <time>2022-05-09T07:21:08Z</time>
      </trkpt>
      <trkpt lat="47.7853" lon="5.06782">
        <ele>346.29</ele>
        <time>2022-05-09T07:21:10Z</time>
      </trkpt>
      <trkpt lat="47.78529" lon="5.06786">
        <ele>346.36</ele>
        <time>2022-05-09T07:21:12Z</time>
      </trkpt>
      <trkpt lat="47.78528" lon="5.06791">
        <ele>346.48</ele>
        <time>2022-05-09T07:21:15Z</time>
      </trkpt>
      <trkpt lat="47.78527" lon="5.06795">
        <ele>346.57</ele>
        <time>2022-05-09T07:21:19Z</time>
      </trkpt>
      <trkpt lat="47.78526" lon="5.06799">
        <ele>346.65</ele>
        <time>2022-05-09T07:21:21Z</time>
      </trkpt>
      <trkpt lat="47.78525" lon="5.06803">
        <ele>346.72</ele>
        <time>2022-05-09T07:21:24Z</time>
      </trkpt>
      <trkpt lat="47.78524" lon="5.06807">
        <ele>346.77</ele>
        <time>2022-05-09T07:21:26Z</time>
      </trkpt>
      <trkpt lat="47.78523" lon="5.06812">
        <ele>346.85</ele>
        <time>2022-05-09T07:21:30Z</time>
      </trkpt>
      <trkpt lat="47.78522" lon="5.06817">
        <ele>346.91</ele>
        <time>2022-05-09T07:21:32Z</time>
      </trkpt>
      <trkpt lat="47.78522" lon="5.06822">
        <ele>347.05</ele>
        <time>2022-05-09T07:21:34Z</time>
      </trkpt>
      <trkpt lat="47.78521" lon="5.06826">
        <ele>347.07</ele>
        <time>2022-05-09T07:21:36Z</time>
      </trkpt>
      <trkpt lat="47.7852" lon="5.0683">
        <ele>347.07</ele>
        <time>2022-05-09T07:21:39Z</time>
      </trkpt>
      <trkpt lat="47.78519" lon="5.06834">
        <ele>347.06</ele>
        <time>2022-05-09T07:21:41Z</time>
      </trkpt>
      <trkpt lat="47.78518" lon="5.06838">
        <ele>347</ele>
        <time>2022-05-09T07:21:44Z</time>
      </trkpt>
      <trkpt lat="47.78518" lon="5.06843">
        <ele>347.07</ele>
        <time>2022-05-09T07:21:47Z</time>
      </trkpt>
      <trkpt lat="47.78518" lon="5.06847">
        <ele>347.12</ele>
        <time>2022-05-09T07:21:49Z</time>
      </trkpt>
      <trkpt lat="47.78518" lon="5.06852">
        <ele>347.18</ele>
        <time>2022-05-09T07:21:52Z</time>
      </trkpt>
      <trkpt lat="47.78518" lon="5.06857">
        <ele>347.24</ele>
        <time>2022-05-09T07:21:55Z</time>
      </trkpt>
      <trkpt lat="47.78518" lon="5.06861">
        <ele>347.29</ele>
        <time>2022-05-09T07:21:59Z</time>
      </trkpt>
      <trkpt lat="47.78518" lon="5.06866">
        <ele>347.36</ele>
        <time>2022-05-09T07:22:02Z</time>
      </trkpt>
      <trkpt lat="47.78517" lon="5.0687">
        <ele>347.35</ele>
        <time>2022-05-09T07:22:06Z</time>
      </trkpt>
      <trkpt lat="47.78516" lon="5.06875">
        <ele>347.36</ele>
        <time>2022-05-09T07:22:09Z</time>
      </trkpt>
      <trkpt lat="47.78515" lon="5.06879">
        <ele>347.38</ele>
        <time>2022-05-09T07:22:12Z</time>
      </trkpt>
      <trkpt lat="47.78515" lon="5.06884">
        <ele>347.46</ele>
        <time>2022-05-09T07:22:14Z</time>
      </trkpt>
      <trkpt lat="47.78514" lon="5.06889">
        <ele>347.5</ele>
        <time>2022-05-09T07:22:16Z</time>
      </trkpt>
      <trkpt lat="47.78514" lon="5.06893">
        <ele>347.5</ele>
        <time>2022-05-09T07:22:19Z</time>
      </trkpt>
      <trkpt lat="47.78513" lon="5.06898">
        <ele>347.47</ele>
        <time>2022-05-09T07:22:21Z</time>
      </trkpt>
      <trkpt lat="47.78513" lon="5.06903">
        <ele>347.47</ele>
        <time>2022-05-09T07:22:24Z</time>
      </trkpt>
      <trkpt lat="47.78513" lon="5.06907">
        <ele>347.47</ele>
        <time>2022-05-09T07:22:26Z</time>
      </trkpt>
      <trkpt lat="47.78513" lon="5.06912">
        <ele>347.47</ele>
        <time>2022-05-09T07:22:29Z</time>
      </trkpt>
      <trkpt lat="47.78513" lon="5.06917">
        <ele>347.46</ele>
        <time>2022-05-09T07:22:31Z</time>
      </trkpt>
      <trkpt lat="47.78513" lon="5.06921">
        <ele>347.39</ele>
        <time>2022-05-09T07:22:33Z</time>
      </trkpt>
      <trkpt lat="47.78513" lon="5.06926">
        <ele>347.31</ele>
        <time>2022-05-09T07:22:36Z</time>
      </trkpt>
      <trkpt lat="47.78514" lon="5.0693">
        <ele>347.26</ele>
        <time>2022-05-09T07:22:38Z</time>
      </trkpt>
      <trkpt lat="47.78514" lon="5.06934">
        <ele>347.19</ele>
        <time>2022-05-09T07:22:40Z</time>
      </trkpt>
      <trkpt lat="47.78515" lon="5.06938">
        <ele>347.13</ele>
        <time>2022-05-09T07:22:42Z</time>
      </trkpt>
      <trkpt lat="47.78515" lon="5.06943">
        <ele>347.03</ele>
        <time>2022-05-09T07:22:45Z</time>
      </trkpt>
      <trkpt lat="47.78516" lon="5.06948">
        <ele>346.93</ele>
        <time>2022-05-09T07:22:47Z</time>
      </trkpt>
      <trkpt lat="47.78517" lon="5.06952">
        <ele>346.83</ele>
        <time>2022-05-09T07:22:49Z</time>
      </trkpt>
      <trkpt lat="47.78517" lon="5.06956">
        <ele>346.75</ele>
        <time>2022-05-09T07:22:51Z</time>
      </trkpt>
      <trkpt lat="47.78518" lon="5.0696">
        <ele>346.64</ele>
        <time>2022-05-09T07:22:53Z</time>
      </trkpt>
      <trkpt lat="47.78519" lon="5.06964">
        <ele>346.52</ele>
        <time>2022-05-09T07:22:56Z</time>
      </trkpt>
      <trkpt lat="47.78519" lon="5.06968">
        <ele>346.42</ele>
        <time>2022-05-09T07:22:58Z</time>
      </trkpt>
      <trkpt lat="47.78519" lon="5.06973">
        <ele>346.31</ele>
        <time>2022-05-09T07:23:00Z</time>
      </trkpt>
      <trkpt lat="47.78519" lon="5.06977">
        <ele>346.26</ele>
        <time>2022-05-09T07:23:03Z</time>
      </trkpt>
      <trkpt lat="47.78518" lon="5.06983">
        <ele>346.22</ele>
        <time>2022-05-09T07:23:06Z</time>
      </trkpt>
      <trkpt lat="47.78518" lon="5.06988">
        <ele>346.15</ele>
        <time>2022-05-09T07:23:07Z</time>
      </trkpt>
      <trkpt lat="47.78518" lon="5.06992">
        <ele>346.1</ele>
        <time>2022-05-09T07:23:09Z</time>
      </trkpt>
      <trkpt lat="47.78518" lon="5.06998">
        <ele>346.03</ele>
        <time>2022-05-09T07:23:11Z</time>
      </trkpt>
      <trkpt lat="47.78518" lon="5.07003">
        <ele>345.93</ele>
        <time>2022-05-09T07:23:13Z</time>
      </trkpt>
      <trkpt lat="47.78518" lon="5.07008">
        <ele>345.81</ele>
        <time>2022-05-09T07:23:15Z</time>
      </trkpt>
      <trkpt lat="47.78518" lon="5.07012">
        <ele>345.72</ele>
        <time>2022-05-09T07:23:17Z</time>
      </trkpt>
      <trkpt lat="47.78518" lon="5.07017">
        <ele>345.6</ele>
        <time>2022-05-09T07:23:19Z</time>
      </trkpt>
      <trkpt lat="47.78518" lon="5.07021">
        <ele>345.51</ele>
        <time>2022-05-09T07:23:23Z</time>
      </trkpt>
      <trkpt lat="47.78517" lon="5.07025">
        <ele>345.45</ele>
        <time>2022-05-09T07:23:26Z</time>
      </trkpt>
      <trkpt lat="47.78517" lon="5.0703">
        <ele>345.36</ele>
        <time>2022-05-09T07:23:30Z</time>
      </trkpt>
      <trkpt lat="47.78516" lon="5.07035">
        <ele>345.31</ele>
        <time>2022-05-09T07:23:32Z</time>
      </trkpt>
      <trkpt lat="47.78517" lon="5.07039">
        <ele>345.23</ele>
        <time>2022-05-09T07:23:36Z</time>
      </trkpt>
      <trkpt lat="47.78516" lon="5.07044">
        <ele>345.18</ele>
        <time>2022-05-09T07:23:38Z</time>
      </trkpt>
      <trkpt lat="47.78516" lon="5.07048">
        <ele>345.12</ele>
        <time>2022-05-09T07:23:42Z</time>
      </trkpt>
      <trkpt lat="47.78516" lon="5.07053">
        <ele>345.04</ele>
        <time>2022-05-09T07:23:44Z</time>
      </trkpt>
      <trkpt lat="47.78516" lon="5.07058">
        <ele>344.79</ele>
        <time>2022-05-09T07:23:46Z</time>
      </trkpt>
      <trkpt lat="47.78516" lon="5.07062">
        <ele>344.44</ele>
        <time>2022-05-09T07:23:48Z</time>
      </trkpt>
      <trkpt lat="47.78516" lon="5.07066">
        <ele>344.09</ele>
        <time>2022-05-09T07:23:50Z</time>
      </trkpt>
      <trkpt lat="47.78516" lon="5.07071">
        <ele>343.65</ele>
        <time>2022-05-09T07:23:53Z</time>
      </trkpt>
      <trkpt lat="47.78515" lon="5.07075">
        <ele>343.28</ele>
        <time>2022-05-09T07:23:55Z</time>
      </trkpt>
      <trkpt lat="47.78515" lon="5.0708">
        <ele>342.84</ele>
        <time>2022-05-09T07:23:59Z</time>
      </trkpt>
      <trkpt lat="47.78514" lon="5.07084">
        <ele>342.48</ele>
        <time>2022-05-09T07:24:01Z</time>
      </trkpt>
      <trkpt lat="47.78514" lon="5.07088">
        <ele>342.33</ele>
        <time>2022-05-09T07:24:04Z</time>
      </trkpt>
      <trkpt lat="47.78513" lon="5.07093">
        <ele>342.16</ele>
        <time>2022-05-09T07:24:06Z</time>
      </trkpt>
      <trkpt lat="47.78511" lon="5.07097">
        <ele>342.11</ele>
        <time>2022-05-09T07:24:08Z</time>
      </trkpt>
      <trkpt lat="47.7851" lon="5.07102">
        <ele>342.06</ele>
        <time>2022-05-09T07:24:11Z</time>
      </trkpt>
      <trkpt lat="47.7851" lon="5.07106">
        <ele>342</ele>
        <time>2022-05-09T07:24:12Z</time>
      </trkpt>
      <trkpt lat="47.7851" lon="5.0711">
        <ele>341.94</ele>
        <time>2022-05-09T07:24:14Z</time>
      </trkpt>
      <trkpt lat="47.7851" lon="5.07115">
        <ele>341.4</ele>
        <time>2022-05-09T07:24:16Z</time>
      </trkpt>
      <trkpt lat="47.7851" lon="5.07119">
        <ele>340.86</ele>
        <time>2022-05-09T07:24:17Z</time>
      </trkpt>
      <trkpt lat="47.7851" lon="5.07124">
        <ele>340.19</ele>
        <time>2022-05-09T07:24:19Z</time>
      </trkpt>
      <trkpt lat="47.78511" lon="5.07129">
        <ele>339.37</ele>
        <time>2022-05-09T07:24:22Z</time>
      </trkpt>
      <trkpt lat="47.78511" lon="5.07133">
        <ele>338.82</ele>
        <time>2022-05-09T07:24:23Z</time>
      </trkpt>
      <trkpt lat="47.78511" lon="5.07137">
        <ele>338.28</ele>
        <time>2022-05-09T07:24:25Z</time>
      </trkpt>
      <trkpt lat="47.78512" lon="5.07142">
        <ele>337.52</ele>
        <time>2022-05-09T07:24:28Z</time>
      </trkpt>
      <trkpt lat="47.78514" lon="5.07145">
        <ele>336.82</ele>
        <time>2022-05-09T07:24:30Z</time>
      </trkpt>
      <trkpt lat="47.78516" lon="5.07149">
        <ele>335.97</ele>
        <time>2022-05-09T07:24:33Z</time>
      </trkpt>
      <trkpt lat="47.78519" lon="5.07152">
        <ele>334.99</ele>
        <time>2022-05-09T07:24:35Z</time>
      </trkpt>
      <trkpt lat="47.78522" lon="5.07154">
        <ele>334.09</ele>
        <time>2022-05-09T07:24:38Z</time>
      </trkpt>
      <trkpt lat="47.78524" lon="5.07157">
        <ele>333.25</ele>
        <time>2022-05-09T07:24:41Z</time>
      </trkpt>
      <trkpt lat="47.78527" lon="5.0716">
        <ele>332.14</ele>
        <time>2022-05-09T07:24:43Z</time>
      </trkpt>
      <trkpt lat="47.78529" lon="5.07163">
        <ele>331.42</ele>
        <time>2022-05-09T07:24:44Z</time>
      </trkpt>
      <trkpt lat="47.78531" lon="5.07165">
        <ele>330.98</ele>
        <time>2022-05-09T07:24:48Z</time>
      </trkpt>
      <trkpt lat="47.78534" lon="5.07168">
        <ele>330.49</ele>
        <time>2022-05-09T07:24:51Z</time>
      </trkpt>
      <trkpt lat="47.78537" lon="5.0717">
        <ele>330.22</ele>
        <time>2022-05-09T07:24:53Z</time>
      </trkpt>
      <trkpt lat="47.78539" lon="5.07172">
        <ele>330.04</ele>
        <time>2022-05-09T07:24:56Z</time>
      </trkpt>
      <trkpt lat="47.78542" lon="5.07175">
        <ele>329.84</ele>
        <time>2022-05-09T07:24:57Z</time>
      </trkpt>
      <trkpt lat="47.78544" lon="5.07177">
        <ele>329.74</ele>
        <time>2022-05-09T07:24:59Z</time>
      </trkpt>
      <trkpt lat="47.78547" lon="5.0718">
        <ele>329.65</ele>
        <time>2022-05-09T07:25:01Z</time>
      </trkpt>
      <trkpt lat="47.78549" lon="5.07182">
        <ele>329.63</ele>
        <time>2022-05-09T07:25:04Z</time>
      </trkpt>
      <trkpt lat="47.78552" lon="5.07184">
        <ele>329.64</ele>
        <time>2022-05-09T07:25:06Z</time>
      </trkpt>
      <trkpt lat="47.78554" lon="5.07187">
        <ele>329.72</ele>
        <time>2022-05-09T07:25:07Z</time>
      </trkpt>
      <trkpt lat="47.78556" lon="5.0719">
        <ele>330.01</ele>
        <time>2022-05-09T07:25:10Z</time>
      </trkpt>
      <trkpt lat="47.78557" lon="5.07194">
        <ele>330.55</ele>
        <time>2022-05-09T07:25:12Z</time>
      </trkpt>
      <trkpt lat="47.78558" lon="5.07199">
        <ele>331.04</ele>
        <time>2022-05-09T07:25:17Z</time>
      </trkpt>
      <trkpt lat="47.78558" lon="5.07204">
        <ele>331.12</ele>
        <time>2022-05-09T07:25:20Z</time>
      </trkpt>
      <trkpt lat="47.78559" lon="5.07208">
        <ele>331.67</ele>
        <time>2022-05-09T07:25:21Z</time>
      </trkpt>
      <trkpt lat="47.78559" lon="5.07213">
        <ele>331.78</ele>
        <time>2022-05-09T07:25:26Z</time>
      </trkpt>
      <trkpt lat="47.78559" lon="5.07217">
        <ele>331.87</ele>
        <time>2022-05-09T07:25:29Z</time>
      </trkpt>
      <trkpt lat="47.78558" lon="5.07221">
        <ele>331.39</ele>
        <time>2022-05-09T07:25:31Z</time>
      </trkpt>
      <trkpt lat="47.78557" lon="5.07226">
        <ele>331.64</ele>
        <time>2022-05-09T07:25:34Z</time>
      </trkpt>
      <trkpt lat="47.78555" lon="5.0723">
        <ele>331.59</ele>
        <time>2022-05-09T07:25:36Z</time>
      </trkpt>
      <trkpt lat="47.78554" lon="5.07235">
        <ele>332.46</ele>
        <time>2022-05-09T07:25:40Z</time>
      </trkpt>
      <trkpt lat="47.78552" lon="5.07239">
        <ele>332.85</ele>
        <time>2022-05-09T07:25:42Z</time>
      </trkpt>
      <trkpt lat="47.78551" lon="5.07243">
        <ele>333.38</ele>
        <time>2022-05-09T07:25:45Z</time>
      </trkpt>
      <trkpt lat="47.7855" lon="5.07248">
        <ele>334.04</ele>
        <time>2022-05-09T07:25:48Z</time>
      </trkpt>
      <trkpt lat="47.78548" lon="5.07253">
        <ele>334.41</ele>
        <time>2022-05-09T07:25:49Z</time>
      </trkpt>
      <trkpt lat="47.78547" lon="5.07256">
        <ele>334.7</ele>
        <time>2022-05-09T07:25:52Z</time>
      </trkpt>
      <trkpt lat="47.78545" lon="5.07261">
        <ele>335.04</ele>
        <time>2022-05-09T07:25:55Z</time>
      </trkpt>
      <trkpt lat="47.78544" lon="5.07266">
        <ele>335.65</ele>
        <time>2022-05-09T07:25:57Z</time>
      </trkpt>
      <trkpt lat="47.78542" lon="5.0727">
        <ele>335.71</ele>
        <time>2022-05-09T07:26:01Z</time>
      </trkpt>
      <trkpt lat="47.7854" lon="5.07273">
        <ele>335.56</ele>
        <time>2022-05-09T07:26:03Z</time>
      </trkpt>
      <trkpt lat="47.78539" lon="5.07277">
        <ele>335.91</ele>
        <time>2022-05-09T07:26:06Z</time>
      </trkpt>
      <trkpt lat="47.78537" lon="5.07281">
        <ele>335.86</ele>
        <time>2022-05-09T07:26:08Z</time>
      </trkpt>
      <trkpt lat="47.78535" lon="5.07285">
        <ele>335.83</ele>
        <time>2022-05-09T07:26:12Z</time>
      </trkpt>
      <trkpt lat="47.78534" lon="5.07291">
        <ele>336.51</ele>
        <time>2022-05-09T07:26:15Z</time>
      </trkpt>
      <trkpt lat="47.78533" lon="5.07295">
        <ele>336.86</ele>
        <time>2022-05-09T07:26:16Z</time>
      </trkpt>
      <trkpt lat="47.78531" lon="5.073">
        <ele>337.07</ele>
        <time>2022-05-09T07:26:18Z</time>
      </trkpt>
      <trkpt lat="47.78529" lon="5.07303">
        <ele>336.94</ele>
        <time>2022-05-09T07:26:20Z</time>
      </trkpt>
      <trkpt lat="47.78527" lon="5.07308">
        <ele>337.21</ele>
        <time>2022-05-09T07:26:23Z</time>
      </trkpt>
      <trkpt lat="47.78526" lon="5.07311">
        <ele>337.44</ele>
        <time>2022-05-09T07:26:26Z</time>
      </trkpt>
      <trkpt lat="47.78524" lon="5.07316">
        <ele>337.69</ele>
        <time>2022-05-09T07:26:29Z</time>
      </trkpt>
      <trkpt lat="47.78522" lon="5.07319">
        <ele>337.55</ele>
        <time>2022-05-09T07:26:31Z</time>
      </trkpt>
      <trkpt lat="47.7852" lon="5.07323">
        <ele>337.55</ele>
        <time>2022-05-09T07:26:34Z</time>
      </trkpt>
      <trkpt lat="47.78518" lon="5.07326">
        <ele>337.35</ele>
        <time>2022-05-09T07:26:35Z</time>
      </trkpt>
      <trkpt lat="47.78517" lon="5.0733">
        <ele>337.61</ele>
        <time>2022-05-09T07:26:37Z</time>
      </trkpt>
      <trkpt lat="47.78515" lon="5.07333">
        <ele>337.35</ele>
        <time>2022-05-09T07:26:41Z</time>
      </trkpt>
      <trkpt lat="47.78514" lon="5.07337">
        <ele>337.7</ele>
        <time>2022-05-09T07:26:45Z</time>
      </trkpt>
      <trkpt lat="47.78512" lon="5.0734">
        <ele>337.49</ele>
        <time>2022-05-09T07:26:48Z</time>
      </trkpt>
      <trkpt lat="47.78511" lon="5.07344">
        <ele>337.8</ele>
        <time>2022-05-09T07:26:51Z</time>
      </trkpt>
      <trkpt lat="47.78509" lon="5.07348">
        <ele>337.69</ele>
        <time>2022-05-09T07:26:55Z</time>
      </trkpt>
      <trkpt lat="47.78508" lon="5.07353">
        <ele>338.12</ele>
        <time>2022-05-09T07:26:57Z</time>
      </trkpt>
      <trkpt lat="47.78506" lon="5.07357">
        <ele>337.94</ele>
        <time>2022-05-09T07:26:58Z</time>
      </trkpt>
      <trkpt lat="47.78505" lon="5.07361">
        <ele>338.14</ele>
        <time>2022-05-09T07:27:01Z</time>
      </trkpt>
      <trkpt lat="47.78502" lon="5.07364">
        <ele>337.67</ele>
        <time>2022-05-09T07:27:05Z</time>
      </trkpt>
      <trkpt lat="47.78501" lon="5.07367">
        <ele>338.11</ele>
        <time>2022-05-09T07:27:08Z</time>
      </trkpt>
      <trkpt lat="47.78499" lon="5.07371">
        <ele>338.54</ele>
        <time>2022-05-09T07:27:10Z</time>
      </trkpt>
      <trkpt lat="47.78497" lon="5.07375">
        <ele>339.03</ele>
        <time>2022-05-09T07:27:13Z</time>
      </trkpt>
      <trkpt lat="47.78496" lon="5.07379">
        <ele>339.77</ele>
        <time>2022-05-09T07:27:16Z</time>
      </trkpt>
      <trkpt lat="47.78494" lon="5.07384">
        <ele>340.37</ele>
        <time>2022-05-09T07:27:20Z</time>
      </trkpt>
      <trkpt lat="47.78492" lon="5.07388">
        <ele>340.61</ele>
        <time>2022-05-09T07:27:21Z</time>
      </trkpt>
      <trkpt lat="47.78491" lon="5.07392">
        <ele>341.26</ele>
        <time>2022-05-09T07:27:24Z</time>
      </trkpt>
      <trkpt lat="47.7849" lon="5.07397">
        <ele>342.19</ele>
        <time>2022-05-09T07:27:27Z</time>
      </trkpt>
      <trkpt lat="47.78489" lon="5.074">
        <ele>342.6</ele>
        <time>2022-05-09T07:27:30Z</time>
      </trkpt>
      <trkpt lat="47.78488" lon="5.07405">
        <ele>343.56</ele>
        <time>2022-05-09T07:27:33Z</time>
      </trkpt>
      <trkpt lat="47.78487" lon="5.0741">
        <ele>344.53</ele>
        <time>2022-05-09T07:27:37Z</time>
      </trkpt>
      <trkpt lat="47.78485" lon="5.07414">
        <ele>344.88</ele>
        <time>2022-05-09T07:27:40Z</time>
      </trkpt>
      <trkpt lat="47.78484" lon="5.07419">
        <ele>345.82</ele>
        <time>2022-05-09T07:27:43Z</time>
      </trkpt>
      <trkpt lat="47.78483" lon="5.07423">
        <ele>346.49</ele>
        <time>2022-05-09T07:27:45Z</time>
      </trkpt>
      <trkpt lat="47.78483" lon="5.07427">
        <ele>347.51</ele>
        <time>2022-05-09T07:27:46Z</time>
      </trkpt>
      <trkpt lat="47.78482" lon="5.07432">
        <ele>348.52</ele>
        <time>2022-05-09T07:27:50Z</time>
      </trkpt>
      <trkpt lat="47.7848" lon="5.07437">
        <ele>349.36</ele>
        <time>2022-05-09T07:27:53Z</time>
      </trkpt>
      <trkpt lat="47.78479" lon="5.07441">
        <ele>350.26</ele>
        <time>2022-05-09T07:27:56Z</time>
      </trkpt>
      <trkpt lat="47.78477" lon="5.07445">
        <ele>350.95</ele>
        <time>2022-05-09T07:27:58Z</time>
      </trkpt>
      <trkpt lat="47.78475" lon="5.0745">
        <ele>351.44</ele>
        <time>2022-05-09T07:28:01Z</time>
      </trkpt>
      <trkpt lat="47.78474" lon="5.07454">
        <ele>351.97</ele>
        <time>2022-05-09T07:28:02Z</time>
      </trkpt>
      <trkpt lat="47.78473" lon="5.07458">
        <ele>352.54</ele>
        <time>2022-05-09T07:28:06Z</time>
      </trkpt>
      <trkpt lat="47.78471" lon="5.07462">
        <ele>352.76</ele>
        <time>2022-05-09T07:28:08Z</time>
      </trkpt>
      <trkpt lat="47.78469" lon="5.07466">
        <ele>352.84</ele>
        <time>2022-05-09T07:28:10Z</time>
      </trkpt>
      <trkpt lat="47.78467" lon="5.07471">
        <ele>353.09</ele>
        <time>2022-05-09T07:28:13Z</time>
      </trkpt>
      <trkpt lat="47.78465" lon="5.07475">
        <ele>352.89</ele>
        <time>2022-05-09T07:28:16Z</time>
      </trkpt>
      <trkpt lat="47.78463" lon="5.07478">
        <ele>352.5</ele>
        <time>2022-05-09T07:28:19Z</time>
      </trkpt>
      <trkpt lat="47.78461" lon="5.07482">
        <ele>352.21</ele>
        <time>2022-05-09T07:28:22Z</time>
      </trkpt>
      <trkpt lat="47.7846" lon="5.07485">
        <ele>352.16</ele>
        <time>2022-05-09T07:28:23Z</time>
      </trkpt>
      <trkpt lat="47.78458" lon="5.07489">
        <ele>351.91</ele>
        <time>2022-05-09T07:28:25Z</time>
      </trkpt>
      <trkpt lat="47.78456" lon="5.07494">
        <ele>351.77</ele>
        <time>2022-05-09T07:28:28Z</time>
      </trkpt>
      <trkpt lat="47.78453" lon="5.07498">
        <ele>351.27</ele>
        <time>2022-05-09T07:28:31Z</time>
      </trkpt>
      <trkpt lat="47.78451" lon="5.07501">
        <ele>350.94</ele>
        <time>2022-05-09T07:28:32Z</time>
      </trkpt>
      <trkpt lat="47.78449" lon="5.07506">
        <ele>350.67</ele>
        <time>2022-05-09T07:28:34Z</time>
      </trkpt>
      <trkpt lat="47.78448" lon="5.07511">
        <ele>350.71</ele>
        <time>2022-05-09T07:28:37Z</time>
      </trkpt>
      <trkpt lat="47.78447" lon="5.07517">
        <ele>350.85</ele>
        <time>2022-05-09T07:28:40Z</time>
      </trkpt>
      <trkpt lat="47.78447" lon="5.07521">
        <ele>351.11</ele>
        <time>2022-05-09T07:28:41Z</time>
      </trkpt>
      <trkpt lat="47.78446" lon="5.07525">
        <ele>351.15</ele>
        <time>2022-05-09T07:28:44Z</time>
      </trkpt>
      <trkpt lat="47.78444" lon="5.0753">
        <ele>351.24</ele>
        <time>2022-05-09T07:28:45Z</time>
      </trkpt>
      <trkpt lat="47.78443" lon="5.07534">
        <ele>351.62</ele>
        <time>2022-05-09T07:28:48Z</time>
      </trkpt>
      <trkpt lat="47.78442" lon="5.07538">
        <ele>352</ele>
        <time>2022-05-09T07:28:49Z</time>
      </trkpt>
      <trkpt lat="47.78441" lon="5.07542">
        <ele>352.36</ele>
        <time>2022-05-09T07:28:51Z</time>
      </trkpt>
      <trkpt lat="47.78439" lon="5.07548">
        <ele>352.79</ele>
        <time>2022-05-09T07:28:54Z</time>
      </trkpt>
      <trkpt lat="47.78438" lon="5.07553">
        <ele>353.26</ele>
        <time>2022-05-09T07:28:56Z</time>
      </trkpt>
      <trkpt lat="47.78436" lon="5.07557">
        <ele>353.35</ele>
        <time>2022-05-09T07:28:58Z</time>
      </trkpt>
      <trkpt lat="47.78434" lon="5.07562">
        <ele>353.53</ele>
        <time>2022-05-09T07:29:01Z</time>
      </trkpt>
      <trkpt lat="47.78432" lon="5.07566">
        <ele>353.61</ele>
        <time>2022-05-09T07:29:03Z</time>
      </trkpt>
      <trkpt lat="47.78431" lon="5.0757">
        <ele>353.91</ele>
        <time>2022-05-09T07:29:06Z</time>
      </trkpt>
      <trkpt lat="47.78429" lon="5.07574">
        <ele>354.03</ele>
        <time>2022-05-09T07:29:08Z</time>
      </trkpt>
      <trkpt lat="47.78428" lon="5.07579">
        <ele>354.48</ele>
        <time>2022-05-09T07:29:12Z</time>
      </trkpt>
      <trkpt lat="47.78427" lon="5.07584">
        <ele>354.93</ele>
        <time>2022-05-09T07:29:15Z</time>
      </trkpt>
      <trkpt lat="47.78427" lon="5.07588">
        <ele>355.34</ele>
        <time>2022-05-09T07:29:17Z</time>
      </trkpt>
      <trkpt lat="47.78426" lon="5.07592">
        <ele>355.61</ele>
        <time>2022-05-09T07:29:19Z</time>
      </trkpt>
      <trkpt lat="47.78426" lon="5.07597">
        <ele>356.15</ele>
        <time>2022-05-09T07:29:22Z</time>
      </trkpt>
      <trkpt lat="47.78425" lon="5.07601">
        <ele>356.47</ele>
        <time>2022-05-09T07:29:24Z</time>
      </trkpt>
      <trkpt lat="47.78424" lon="5.07606">
        <ele>356.94</ele>
        <time>2022-05-09T07:29:26Z</time>
      </trkpt>
      <trkpt lat="47.78424" lon="5.07611">
        <ele>357.52</ele>
        <time>2022-05-09T07:29:29Z</time>
      </trkpt>
      <trkpt lat="47.78422" lon="5.07615">
        <ele>357.61</ele>
        <time>2022-05-09T07:29:31Z</time>
      </trkpt>
      <trkpt lat="47.78422" lon="5.0762">
        <ele>357.9</ele>
        <time>2022-05-09T07:29:34Z</time>
      </trkpt>
      <trkpt lat="47.78421" lon="5.07625">
        <ele>358.16</ele>
        <time>2022-05-09T07:29:36Z</time>
      </trkpt>
      <trkpt lat="47.7842" lon="5.07629">
        <ele>358.37</ele>
        <time>2022-05-09T07:29:39Z</time>
      </trkpt>
      <trkpt lat="47.78419" lon="5.07633">
        <ele>358.61</ele>
        <time>2022-05-09T07:29:41Z</time>
      </trkpt>
      <trkpt lat="47.78418" lon="5.07637">
        <ele>358.87</ele>
        <time>2022-05-09T07:29:42Z</time>
      </trkpt>
      <trkpt lat="47.78418" lon="5.07642">
        <ele>359.23</ele>
        <time>2022-05-09T07:29:45Z</time>
      </trkpt>
      <trkpt lat="47.78417" lon="5.07646">
        <ele>359.52</ele>
        <time>2022-05-09T07:29:47Z</time>
      </trkpt>
      <trkpt lat="47.78417" lon="5.07651">
        <ele>359.88</ele>
        <time>2022-05-09T07:29:50Z</time>
      </trkpt>
      <trkpt lat="47.78417" lon="5.07655">
        <ele>360.17</ele>
        <time>2022-05-09T07:29:52Z</time>
      </trkpt>
      <trkpt lat="47.78416" lon="5.07658">
        <ele>360.29</ele>
        <time>2022-05-09T07:29:56Z</time>
      </trkpt>
      <trkpt lat="47.78416" lon="5.07663">
        <ele>360.66</ele>
        <time>2022-05-09T07:29:59Z</time>
      </trkpt>
      <trkpt lat="47.78415" lon="5.07668">
        <ele>360.91</ele>
        <time>2022-05-09T07:30:02Z</time>
      </trkpt>
      <trkpt lat="47.78414" lon="5.07673">
        <ele>361.15</ele>
        <time>2022-05-09T07:30:05Z</time>
      </trkpt>
      <trkpt lat="47.78413" lon="5.07677">
        <ele>361.3</ele>
        <time>2022-05-09T07:30:08Z</time>
      </trkpt>
      <trkpt lat="47.78413" lon="5.07681">
        <ele>361.57</ele>
        <time>2022-05-09T07:30:10Z</time>
      </trkpt>
      <trkpt lat="47.78412" lon="5.07685">
        <ele>361.71</ele>
        <time>2022-05-09T07:30:13Z</time>
      </trkpt>
      <trkpt lat="47.78411" lon="5.07689">
        <ele>361.83</ele>
        <time>2022-05-09T07:30:15Z</time>
      </trkpt>
      <trkpt lat="47.78411" lon="5.07694">
        <ele>362.16</ele>
        <time>2022-05-09T07:30:19Z</time>
      </trkpt>
      <trkpt lat="47.78409" lon="5.07698">
        <ele>362.12</ele>
        <time>2022-05-09T07:30:21Z</time>
      </trkpt>
      <trkpt lat="47.78408" lon="5.07702">
        <ele>362.21</ele>
        <time>2022-05-09T07:30:25Z</time>
      </trkpt>
      <trkpt lat="47.78406" lon="5.07706">
        <ele>362.14</ele>
        <time>2022-05-09T07:30:28Z</time>
      </trkpt>
      <trkpt lat="47.78405" lon="5.07711">
        <ele>362.26</ele>
        <time>2022-05-09T07:30:30Z</time>
      </trkpt>
      <trkpt lat="47.78405" lon="5.07715">
        <ele>362.49</ele>
        <time>2022-05-09T07:30:33Z</time>
      </trkpt>
      <trkpt lat="47.78405" lon="5.07719">
        <ele>362.72</ele>
        <time>2022-05-09T07:30:36Z</time>
      </trkpt>
      <trkpt lat="47.78404" lon="5.07723">
        <ele>362.76</ele>
        <time>2022-05-09T07:30:38Z</time>
      </trkpt>
      <trkpt lat="47.78403" lon="5.07728">
        <ele>362.85</ele>
        <time>2022-05-09T07:30:40Z</time>
      </trkpt>
      <trkpt lat="47.78402" lon="5.07732">
        <ele>362.9</ele>
        <time>2022-05-09T07:30:43Z</time>
      </trkpt>
      <trkpt lat="47.78401" lon="5.07735">
        <ele>362.9</ele>
        <time>2022-05-09T07:30:45Z</time>
      </trkpt>
      <trkpt lat="47.784" lon="5.07739">
        <ele>362.97</ele>
        <time>2022-05-09T07:30:48Z</time>
      </trkpt>
      <trkpt lat="47.78399" lon="5.07743">
        <ele>363.04</ele>
        <time>2022-05-09T07:30:50Z</time>
      </trkpt>
      <trkpt lat="47.78397" lon="5.07747">
        <ele>362.98</ele>
        <time>2022-05-09T07:30:53Z</time>
      </trkpt>
      <trkpt lat="47.78396" lon="5.07752">
        <ele>363.02</ele>
        <time>2022-05-09T07:30:57Z</time>
      </trkpt>
      <trkpt lat="47.78395" lon="5.07756">
        <ele>362.88</ele>
        <time>2022-05-09T07:30:59Z</time>
      </trkpt>
      <trkpt lat="47.78394" lon="5.07761">
        <ele>362.74</ele>
        <time>2022-05-09T07:31:03Z</time>
      </trkpt>
      <trkpt lat="47.78393" lon="5.07765">
        <ele>362.59</ele>
        <time>2022-05-09T07:31:05Z</time>
      </trkpt>
      <trkpt lat="47.78392" lon="5.07769">
        <ele>362.45</ele>
        <time>2022-05-09T07:31:08Z</time>
      </trkpt>
      <trkpt lat="47.78391" lon="5.07773">
        <ele>362.3</ele>
        <time>2022-05-09T07:31:10Z</time>
      </trkpt>
      <trkpt lat="47.78391" lon="5.07778">
        <ele>362.33</ele>
        <time>2022-05-09T07:31:13Z</time>
      </trkpt>
      <trkpt lat="47.7839" lon="5.07782">
        <ele>362.6</ele>
        <time>2022-05-09T07:31:16Z</time>
      </trkpt>
      <trkpt lat="47.78389" lon="5.07786">
        <ele>362.9</ele>
        <time>2022-05-09T07:31:17Z</time>
      </trkpt>
      <trkpt lat="47.78389" lon="5.07791">
        <ele>363.44</ele>
        <time>2022-05-09T07:31:20Z</time>
      </trkpt>
      <trkpt lat="47.78388" lon="5.07795">
        <ele>363.66</ele>
        <time>2022-05-09T07:31:22Z</time>
      </trkpt>
      <trkpt lat="47.78387" lon="5.078">
        <ele>363.95</ele>
        <time>2022-05-09T07:31:26Z</time>
      </trkpt>
      <trkpt lat="47.78387" lon="5.07805">
        <ele>364.47</ele>
        <time>2022-05-09T07:31:28Z</time>
      </trkpt>
      <trkpt lat="47.78386" lon="5.07809">
        <ele>364.41</ele>
        <time>2022-05-09T07:31:32Z</time>
      </trkpt>
      <trkpt lat="47.78385" lon="5.07813">
        <ele>364.33</ele>
        <time>2022-05-09T07:31:35Z</time>
      </trkpt>
      <trkpt lat="47.78384" lon="5.07816">
        <ele>364.21</ele>
        <time>2022-05-09T07:31:40Z</time>
      </trkpt>
      <trkpt lat="47.78383" lon="5.0782">
        <ele>364.15</ele>
        <time>2022-05-09T07:31:43Z</time>
      </trkpt>
      <trkpt lat="47.78382" lon="5.07825">
        <ele>364.14</ele>
        <time>2022-05-09T07:31:47Z</time>
      </trkpt>
      <trkpt lat="47.78381" lon="5.0783">
        <ele>364.14</ele>
        <time>2022-05-09T07:31:51Z</time>
      </trkpt>
      <trkpt lat="47.78381" lon="5.07834">
        <ele>364.37</ele>
        <time>2022-05-09T07:31:54Z</time>
      </trkpt>
      <trkpt lat="47.7838" lon="5.07838">
        <ele>364.58</ele>
        <time>2022-05-09T07:31:56Z</time>
      </trkpt>
      <trkpt lat="47.7838" lon="5.07842">
        <ele>365.02</ele>
        <time>2022-05-09T07:31:59Z</time>
      </trkpt>
      <trkpt lat="47.78379" lon="5.07846">
        <ele>365.23</ele>
        <time>2022-05-09T07:32:01Z</time>
      </trkpt>
      <trkpt lat="47.78377" lon="5.0785">
        <ele>365.23</ele>
        <time>2022-05-09T07:32:02Z</time>
      </trkpt>
      <trkpt lat="47.78377" lon="5.07855">
        <ele>365.77</ele>
        <time>2022-05-09T07:32:05Z</time>
      </trkpt>
      <trkpt lat="47.78376" lon="5.07859">
        <ele>365.99</ele>
        <time>2022-05-09T07:32:08Z</time>
      </trkpt>
      <trkpt lat="47.78375" lon="5.07863">
        <ele>366</ele>
        <time>2022-05-09T07:32:13Z</time>
      </trkpt>
      <trkpt lat="47.78374" lon="5.07869">
        <ele>365.8</ele>
        <time>2022-05-09T07:32:16Z</time>
      </trkpt>
      <trkpt lat="47.78373" lon="5.07873">
        <ele>365.63</ele>
        <time>2022-05-09T07:32:18Z</time>
      </trkpt>
      <trkpt lat="47.78371" lon="5.07878">
        <ele>365.31</ele>
        <time>2022-05-09T07:32:19Z</time>
      </trkpt>
      <trkpt lat="47.78369" lon="5.07882">
        <ele>365.03</ele>
        <time>2022-05-09T07:32:22Z</time>
      </trkpt>
      <trkpt lat="47.78368" lon="5.07887">
        <ele>364.96</ele>
        <time>2022-05-09T07:32:24Z</time>
      </trkpt>
      <trkpt lat="47.78366" lon="5.07892">
        <ele>364.61</ele>
        <time>2022-05-09T07:32:25Z</time>
      </trkpt>
      <trkpt lat="47.78366" lon="5.07896">
        <ele>364.49</ele>
        <time>2022-05-09T07:32:27Z</time>
      </trkpt>
      <trkpt lat="47.78364" lon="5.07901">
        <ele>364.03</ele>
        <time>2022-05-09T07:32:29Z</time>
      </trkpt>
      <trkpt lat="47.78363" lon="5.07906">
        <ele>363.7</ele>
        <time>2022-05-09T07:32:32Z</time>
      </trkpt>
      <trkpt lat="47.78362" lon="5.0791">
        <ele>363.39</ele>
        <time>2022-05-09T07:32:33Z</time>
      </trkpt>
      <trkpt lat="47.78361" lon="5.07914">
        <ele>363.09</ele>
        <time>2022-05-09T07:32:35Z</time>
      </trkpt>
      <trkpt lat="47.7836" lon="5.07919">
        <ele>363.12</ele>
        <time>2022-05-09T07:32:38Z</time>
      </trkpt>
      <trkpt lat="47.78359" lon="5.07924">
        <ele>363.43</ele>
        <time>2022-05-09T07:32:40Z</time>
      </trkpt>
      <trkpt lat="47.78358" lon="5.07928">
        <ele>363.66</ele>
        <time>2022-05-09T07:32:43Z</time>
      </trkpt>
      <trkpt lat="47.78357" lon="5.07932">
        <ele>363.87</ele>
        <time>2022-05-09T07:32:46Z</time>
      </trkpt>
      <trkpt lat="47.78357" lon="5.07937">
        <ele>364.21</ele>
        <time>2022-05-09T07:32:49Z</time>
      </trkpt>
      <trkpt lat="47.78356" lon="5.07942">
        <ele>364.47</ele>
        <time>2022-05-09T07:32:52Z</time>
      </trkpt>
      <trkpt lat="47.78355" lon="5.07945">
        <ele>364.57</ele>
        <time>2022-05-09T07:32:54Z</time>
      </trkpt>
      <trkpt lat="47.78353" lon="5.0795">
        <ele>364.59</ele>
        <time>2022-05-09T07:32:57Z</time>
      </trkpt>
      <trkpt lat="47.78352" lon="5.07955">
        <ele>364.72</ele>
        <time>2022-05-09T07:32:59Z</time>
      </trkpt>
      <trkpt lat="47.78351" lon="5.07959">
        <ele>364.84</ele>
        <time>2022-05-09T07:33:01Z</time>
      </trkpt>
      <trkpt lat="47.7835" lon="5.07964">
        <ele>365.04</ele>
        <time>2022-05-09T07:33:04Z</time>
      </trkpt>
      <trkpt lat="47.78349" lon="5.07969">
        <ele>365.28</ele>
        <time>2022-05-09T07:33:06Z</time>
      </trkpt>
      <trkpt lat="47.78348" lon="5.07973">
        <ele>365.47</ele>
        <time>2022-05-09T07:33:10Z</time>
      </trkpt>
      <trkpt lat="47.78348" lon="5.07977">
        <ele>365.48</ele>
        <time>2022-05-09T07:33:12Z</time>
      </trkpt>
      <trkpt lat="47.78347" lon="5.07981">
        <ele>365.5</ele>
        <time>2022-05-09T07:33:15Z</time>
      </trkpt>
      <trkpt lat="47.78345" lon="5.07986">
        <ele>365.5</ele>
        <time>2022-05-09T07:33:17Z</time>
      </trkpt>
      <trkpt lat="47.78344" lon="5.07989">
        <ele>365.48</ele>
        <time>2022-05-09T07:33:20Z</time>
      </trkpt>
      <trkpt lat="47.78343" lon="5.07994">
        <ele>365.41</ele>
        <time>2022-05-09T07:33:23Z</time>
      </trkpt>
      <trkpt lat="47.78342" lon="5.07998">
        <ele>365.34</ele>
        <time>2022-05-09T07:33:25Z</time>
      </trkpt>
      <trkpt lat="47.78341" lon="5.08002">
        <ele>365.38</ele>
        <time>2022-05-09T07:33:27Z</time>
      </trkpt>
      <trkpt lat="47.7834" lon="5.08005">
        <ele>365.51</ele>
        <time>2022-05-09T07:33:30Z</time>
      </trkpt>
      <trkpt lat="47.78338" lon="5.08009">
        <ele>365.71</ele>
        <time>2022-05-09T07:33:32Z</time>
      </trkpt>
      <trkpt lat="47.78336" lon="5.08012">
        <ele>365.88</ele>
        <time>2022-05-09T07:33:34Z</time>
      </trkpt>
      <trkpt lat="47.78334" lon="5.08016">
        <ele>366.15</ele>
        <time>2022-05-09T07:33:37Z</time>
      </trkpt>
      <trkpt lat="47.78332" lon="5.08019">
        <ele>366.24</ele>
        <time>2022-05-09T07:33:39Z</time>
      </trkpt>
      <trkpt lat="47.78331" lon="5.08023">
        <ele>366.42</ele>
        <time>2022-05-09T07:33:42Z</time>
      </trkpt>
      <trkpt lat="47.78329" lon="5.08027">
        <ele>366.48</ele>
        <time>2022-05-09T07:33:44Z</time>
      </trkpt>
      <trkpt lat="47.78328" lon="5.08031">
        <ele>366.26</ele>
        <time>2022-05-09T07:33:47Z</time>
      </trkpt>
      <trkpt lat="47.78328" lon="5.08036">
        <ele>366</ele>
        <time>2022-05-09T07:33:50Z</time>
      </trkpt>
      <trkpt lat="47.78327" lon="5.0804">
        <ele>365.74</ele>
        <time>2022-05-09T07:33:53Z</time>
      </trkpt>
      <trkpt lat="47.78326" lon="5.08043">
        <ele>365.55</ele>
        <time>2022-05-09T07:33:55Z</time>
      </trkpt>
      <trkpt lat="47.78325" lon="5.08048">
        <ele>365.3</ele>
        <time>2022-05-09T07:33:59Z</time>
      </trkpt>
      <trkpt lat="47.78323" lon="5.08053">
        <ele>365.08</ele>
        <time>2022-05-09T07:34:01Z</time>
      </trkpt>
      <trkpt lat="47.78322" lon="5.08057">
        <ele>365.01</ele>
        <time>2022-05-09T07:34:04Z</time>
      </trkpt>
      <trkpt lat="47.78321" lon="5.08061">
        <ele>365.02</ele>
        <time>2022-05-09T07:34:06Z</time>
      </trkpt>
      <trkpt lat="47.78319" lon="5.08065">
        <ele>364.99</ele>
        <time>2022-05-09T07:34:09Z</time>
      </trkpt>
      <trkpt lat="47.78318" lon="5.08069">
        <ele>364.95</ele>
        <time>2022-05-09T07:34:11Z</time>
      </trkpt>
      <trkpt lat="47.78316" lon="5.08073">
        <ele>364.84</ele>
        <time>2022-05-09T07:34:14Z</time>
      </trkpt>
      <trkpt lat="47.78316" lon="5.08078">
        <ele>364.8</ele>
        <time>2022-05-09T07:34:17Z</time>
      </trkpt>
      <trkpt lat="47.78315" lon="5.08082">
        <ele>364.7</ele>
        <time>2022-05-09T07:34:20Z</time>
      </trkpt>
      <trkpt lat="47.78313" lon="5.08086">
        <ele>364.52</ele>
        <time>2022-05-09T07:34:21Z</time>
      </trkpt>
      <trkpt lat="47.78312" lon="5.0809">
        <ele>364.39</ele>
        <time>2022-05-09T07:34:24Z</time>
      </trkpt>
      <trkpt lat="47.78311" lon="5.08094">
        <ele>364.23</ele>
        <time>2022-05-09T07:34:27Z</time>
      </trkpt>
      <trkpt lat="47.7831" lon="5.08098">
        <ele>364.05</ele>
        <time>2022-05-09T07:34:29Z</time>
      </trkpt>
      <trkpt lat="47.78309" lon="5.08102">
        <ele>363.83</ele>
        <time>2022-05-09T07:34:32Z</time>
      </trkpt>
      <trkpt lat="47.78308" lon="5.08107">
        <ele>363.55</ele>
        <time>2022-05-09T07:34:36Z</time>
      </trkpt>
      <trkpt lat="47.78306" lon="5.08112">
        <ele>363.17</ele>
        <time>2022-05-09T07:34:39Z</time>
      </trkpt>
      <trkpt lat="47.78305" lon="5.08116">
        <ele>363.48</ele>
        <time>2022-05-09T07:34:41Z</time>
      </trkpt>
      <trkpt lat="47.78304" lon="5.08121">
        <ele>363.9</ele>
        <time>2022-05-09T07:34:45Z</time>
      </trkpt>
      <trkpt lat="47.78303" lon="5.08125">
        <ele>364.18</ele>
        <time>2022-05-09T07:34:48Z</time>
      </trkpt>
      <trkpt lat="47.78301" lon="5.08129">
        <ele>364.29</ele>
        <time>2022-05-09T07:34:50Z</time>
      </trkpt>
      <trkpt lat="47.783" lon="5.08134">
        <ele>364.58</ele>
        <time>2022-05-09T07:34:54Z</time>
      </trkpt>
      <trkpt lat="47.78299" lon="5.08138">
        <ele>364.75</ele>
        <time>2022-05-09T07:34:56Z</time>
      </trkpt>
      <trkpt lat="47.78297" lon="5.08143">
        <ele>364.74</ele>
        <time>2022-05-09T07:35:00Z</time>
      </trkpt>
      <trkpt lat="47.78296" lon="5.08147">
        <ele>364.87</ele>
        <time>2022-05-09T07:35:02Z</time>
      </trkpt>
      <trkpt lat="47.78295" lon="5.08151">
        <ele>365.03</ele>
        <time>2022-05-09T07:35:05Z</time>
      </trkpt>
      <trkpt lat="47.78293" lon="5.08155">
        <ele>365.11</ele>
        <time>2022-05-09T07:35:07Z</time>
      </trkpt>
      <trkpt lat="47.78292" lon="5.08159">
        <ele>365.34</ele>
        <time>2022-05-09T07:35:10Z</time>
      </trkpt>
      <trkpt lat="47.78291" lon="5.08163">
        <ele>365.61</ele>
        <time>2022-05-09T07:35:13Z</time>
      </trkpt>
      <trkpt lat="47.7829" lon="5.08167">
        <ele>365.9</ele>
        <time>2022-05-09T07:35:14Z</time>
      </trkpt>
      <trkpt lat="47.78289" lon="5.08171">
        <ele>366.03</ele>
        <time>2022-05-09T07:35:17Z</time>
      </trkpt>
      <trkpt lat="47.78287" lon="5.08174">
        <ele>366.02</ele>
        <time>2022-05-09T07:35:19Z</time>
      </trkpt>
      <trkpt lat="47.78286" lon="5.08178">
        <ele>366.12</ele>
        <time>2022-05-09T07:35:22Z</time>
      </trkpt>
      <trkpt lat="47.78285" lon="5.08183">
        <ele>366.26</ele>
        <time>2022-05-09T07:35:25Z</time>
      </trkpt>
      <trkpt lat="47.78284" lon="5.08188">
        <ele>366.39</ele>
        <time>2022-05-09T07:35:28Z</time>
      </trkpt>
      <trkpt lat="47.78283" lon="5.08192">
        <ele>366.46</ele>
        <time>2022-05-09T07:35:30Z</time>
      </trkpt>
      <trkpt lat="47.78282" lon="5.08196">
        <ele>366.63</ele>
        <time>2022-05-09T07:35:33Z</time>
      </trkpt>
      <trkpt lat="47.78281" lon="5.082">
        <ele>366.97</ele>
        <time>2022-05-09T07:35:36Z</time>
      </trkpt>
      <trkpt lat="47.7828" lon="5.08205">
        <ele>367.41</ele>
        <time>2022-05-09T07:35:39Z</time>
      </trkpt>
      <trkpt lat="47.78279" lon="5.08209">
        <ele>367.73</ele>
        <time>2022-05-09T07:35:42Z</time>
      </trkpt>
      <trkpt lat="47.78277" lon="5.08213">
        <ele>367.86</ele>
        <time>2022-05-09T07:35:44Z</time>
      </trkpt>
      <trkpt lat="47.78276" lon="5.08217">
        <ele>368.12</ele>
        <time>2022-05-09T07:35:46Z</time>
      </trkpt>
      <trkpt lat="47.78275" lon="5.08221">
        <ele>368.37</ele>
        <time>2022-05-09T07:35:50Z</time>
      </trkpt>
      <trkpt lat="47.78274" lon="5.08226">
        <ele>368.54</ele>
        <time>2022-05-09T07:35:54Z</time>
      </trkpt>
      <trkpt lat="47.78272" lon="5.0823">
        <ele>368.35</ele>
        <time>2022-05-09T07:35:56Z</time>
      </trkpt>
      <trkpt lat="47.78271" lon="5.08235">
        <ele>368.36</ele>
        <time>2022-05-09T07:35:59Z</time>
      </trkpt>
      <trkpt lat="47.78271" lon="5.08239">
        <ele>368.55</ele>
        <time>2022-05-09T07:36:01Z</time>
      </trkpt>
      <trkpt lat="47.7827" lon="5.08244">
        <ele>368.51</ele>
        <time>2022-05-09T07:36:04Z</time>
      </trkpt>
      <trkpt lat="47.78269" lon="5.08248">
        <ele>368.4</ele>
        <time>2022-05-09T07:36:06Z</time>
      </trkpt>
      <trkpt lat="47.78268" lon="5.08253">
        <ele>368.22</ele>
        <time>2022-05-09T07:36:10Z</time>
      </trkpt>
      <trkpt lat="47.78267" lon="5.08257">
        <ele>367.99</ele>
        <time>2022-05-09T07:36:12Z</time>
      </trkpt>
      <trkpt lat="47.78268" lon="5.08261">
        <ele>368.32</ele>
        <time>2022-05-09T07:36:14Z</time>
      </trkpt>
      <trkpt lat="47.78268" lon="5.08266">
        <ele>368.39</ele>
        <time>2022-05-09T07:36:17Z</time>
      </trkpt>
      <trkpt lat="47.78267" lon="5.0827">
        <ele>368.18</ele>
        <time>2022-05-09T07:36:19Z</time>
      </trkpt>
      <trkpt lat="47.78266" lon="5.08275">
        <ele>367.99</ele>
        <time>2022-05-09T07:36:22Z</time>
      </trkpt>
      <trkpt lat="47.78264" lon="5.0828">
        <ele>367.65</ele>
        <time>2022-05-09T07:36:25Z</time>
      </trkpt>
      <trkpt lat="47.78263" lon="5.08284">
        <ele>367.63</ele>
        <time>2022-05-09T07:36:27Z</time>
      </trkpt>
      <trkpt lat="47.78261" lon="5.08288">
        <ele>367.44</ele>
        <time>2022-05-09T07:36:29Z</time>
      </trkpt>
      <trkpt lat="47.7826" lon="5.08293">
        <ele>367.57</ele>
        <time>2022-05-09T07:36:32Z</time>
      </trkpt>
      <trkpt lat="47.7826" lon="5.08297">
        <ele>367.85</ele>
        <time>2022-05-09T07:36:34Z</time>
      </trkpt>
      <trkpt lat="47.78259" lon="5.08301">
        <ele>367.96</ele>
        <time>2022-05-09T07:36:37Z</time>
      </trkpt>
      <trkpt lat="47.78258" lon="5.08305">
        <ele>368.11</ele>
        <time>2022-05-09T07:36:39Z</time>
      </trkpt>
      <trkpt lat="47.78258" lon="5.08309">
        <ele>368.15</ele>
        <time>2022-05-09T07:36:41Z</time>
      </trkpt>
      <trkpt lat="47.78258" lon="5.08313">
        <ele>368.15</ele>
        <time>2022-05-09T07:36:44Z</time>
      </trkpt>
      <trkpt lat="47.78257" lon="5.08318">
        <ele>368.01</ele>
        <time>2022-05-09T07:36:47Z</time>
      </trkpt>
      <trkpt lat="47.78256" lon="5.08323">
        <ele>367.86</ele>
        <time>2022-05-09T07:36:51Z</time>
      </trkpt>
      <trkpt lat="47.78255" lon="5.08327">
        <ele>367.72</ele>
        <time>2022-05-09T07:36:53Z</time>
      </trkpt>
      <trkpt lat="47.78254" lon="5.08331">
        <ele>367.58</ele>
        <time>2022-05-09T07:36:56Z</time>
      </trkpt>
      <trkpt lat="47.78253" lon="5.08336">
        <ele>367.52</ele>
        <time>2022-05-09T07:36:59Z</time>
      </trkpt>
      <trkpt lat="47.78252" lon="5.08341">
        <ele>367.54</ele>
        <time>2022-05-09T07:37:00Z</time>
      </trkpt>
      <trkpt lat="47.78251" lon="5.08344">
        <ele>367.51</ele>
        <time>2022-05-09T07:37:03Z</time>
      </trkpt>
      <trkpt lat="47.7825" lon="5.08348">
        <ele>367.53</ele>
        <time>2022-05-09T07:37:05Z</time>
      </trkpt>
      <trkpt lat="47.7825" lon="5.08354">
        <ele>367.74</ele>
        <time>2022-05-09T07:37:09Z</time>
      </trkpt>
      <trkpt lat="47.78249" lon="5.08359">
        <ele>367.96</ele>
        <time>2022-05-09T07:37:12Z</time>
      </trkpt>
      <trkpt lat="47.78248" lon="5.08362">
        <ele>368.14</ele>
        <time>2022-05-09T07:37:14Z</time>
      </trkpt>
      <trkpt lat="47.78247" lon="5.08368">
        <ele>368.6</ele>
        <time>2022-05-09T07:37:17Z</time>
      </trkpt>
      <trkpt lat="47.78246" lon="5.08372">
        <ele>368.93</ele>
        <time>2022-05-09T07:37:18Z</time>
      </trkpt>
      <trkpt lat="47.78245" lon="5.08377">
        <ele>369.32</ele>
        <time>2022-05-09T07:37:21Z</time>
      </trkpt>
      <trkpt lat="47.78245" lon="5.08382">
        <ele>369.68</ele>
        <time>2022-05-09T07:37:24Z</time>
      </trkpt>
      <trkpt lat="47.78245" lon="5.08387">
        <ele>370.04</ele>
        <time>2022-05-09T07:37:26Z</time>
      </trkpt>
      <trkpt lat="47.78244" lon="5.08391">
        <ele>370.29</ele>
        <time>2022-05-09T07:37:29Z</time>
      </trkpt>
      <trkpt lat="47.78244" lon="5.08396">
        <ele>370.47</ele>
        <time>2022-05-09T07:37:32Z</time>
      </trkpt>
      <trkpt lat="47.78243" lon="5.084">
        <ele>370.65</ele>
        <time>2022-05-09T07:37:35Z</time>
      </trkpt>
      <trkpt lat="47.78244" lon="5.08404">
        <ele>370.76</ele>
        <time>2022-05-09T07:37:37Z</time>
      </trkpt>
      <trkpt lat="47.78244" lon="5.08409">
        <ele>370.94</ele>
        <time>2022-05-09T07:37:41Z</time>
      </trkpt>
      <trkpt lat="47.78244" lon="5.08413">
        <ele>371.08</ele>
        <time>2022-05-09T07:37:43Z</time>
      </trkpt>
      <trkpt lat="47.78243" lon="5.08418">
        <ele>371.35</ele>
        <time>2022-05-09T07:37:47Z</time>
      </trkpt>
      <trkpt lat="47.78243" lon="5.08423">
        <ele>371.71</ele>
        <time>2022-05-09T07:37:49Z</time>
      </trkpt>
      <trkpt lat="47.78242" lon="5.08428">
        <ele>372.1</ele>
        <time>2022-05-09T07:37:53Z</time>
      </trkpt>
      <trkpt lat="47.78242" lon="5.08432">
        <ele>372.39</ele>
        <time>2022-05-09T07:37:55Z</time>
      </trkpt>
      <trkpt lat="47.78243" lon="5.08436">
        <ele>372.64</ele>
        <time>2022-05-09T07:37:57Z</time>
      </trkpt>
      <trkpt lat="47.78243" lon="5.08441">
        <ele>373</ele>
        <time>2022-05-09T07:38:00Z</time>
      </trkpt>
      <trkpt lat="47.78243" lon="5.08445">
        <ele>373.26</ele>
        <time>2022-05-09T07:38:02Z</time>
      </trkpt>
      <trkpt lat="47.78242" lon="5.08449">
        <ele>373.31</ele>
        <time>2022-05-09T07:38:04Z</time>
      </trkpt>
      <trkpt lat="47.78242" lon="5.08454">
        <ele>373.33</ele>
        <time>2022-05-09T07:38:07Z</time>
      </trkpt>
      <trkpt lat="47.78242" lon="5.08458">
        <ele>373.35</ele>
        <time>2022-05-09T07:38:10Z</time>
      </trkpt>
      <trkpt lat="47.78242" lon="5.08462">
        <ele>373.37</ele>
        <time>2022-05-09T07:38:13Z</time>
      </trkpt>
      <trkpt lat="47.78242" lon="5.08466">
        <ele>373.39</ele>
        <time>2022-05-09T07:38:16Z</time>
      </trkpt>
      <trkpt lat="47.78242" lon="5.0847">
        <ele>373.41</ele>
        <time>2022-05-09T07:38:20Z</time>
      </trkpt>
      <trkpt lat="47.78241" lon="5.08474">
        <ele>373.4</ele>
        <time>2022-05-09T07:38:35Z</time>
      </trkpt>
      <trkpt lat="47.78241" lon="5.08478">
        <ele>373.49</ele>
        <time>2022-05-09T07:38:48Z</time>
      </trkpt>
      <trkpt lat="47.78239" lon="5.08481">
        <ele>373.4</ele>
        <time>2022-05-09T07:39:54Z</time>
      </trkpt>
      <trkpt lat="47.78238" lon="5.08485">
        <ele>373.4</ele>
        <time>2022-05-09T07:40:00Z</time>
      </trkpt>
      <trkpt lat="47.78238" lon="5.08489">
        <ele>373.48</ele>
        <time>2022-05-09T07:40:03Z</time>
      </trkpt>
      <trkpt lat="47.78239" lon="5.08493">
        <ele>373.66</ele>
        <time>2022-05-09T07:40:06Z</time>
      </trkpt>
      <trkpt lat="47.78239" lon="5.08498">
        <ele>373.77</ele>
        <time>2022-05-09T07:40:10Z</time>
      </trkpt>
      <trkpt lat="47.78239" lon="5.08502">
        <ele>373.75</ele>
        <time>2022-05-09T07:40:14Z</time>
      </trkpt>
      <trkpt lat="47.78239" lon="5.08507">
        <ele>373.61</ele>
        <time>2022-05-09T07:40:18Z</time>
      </trkpt>
      <trkpt lat="47.78237" lon="5.0851">
        <ele>373.38</ele>
        <time>2022-05-09T07:40:22Z</time>
      </trkpt>
      <trkpt lat="47.78236" lon="5.08513">
        <ele>373.26</ele>
        <time>2022-05-09T07:40:30Z</time>
      </trkpt>
      <trkpt lat="47.78233" lon="5.08516">
        <ele>373.07</ele>
        <time>2022-05-09T07:40:35Z</time>
      </trkpt>
      <trkpt lat="47.7823" lon="5.08519">
        <ele>372.95</ele>
        <time>2022-05-09T07:40:39Z</time>
      </trkpt>
      <trkpt lat="47.78228" lon="5.08521">
        <ele>372.91</ele>
        <time>2022-05-09T07:40:43Z</time>
      </trkpt>
      <trkpt lat="47.78225" lon="5.08523">
        <ele>372.88</ele>
        <time>2022-05-09T07:40:46Z</time>
      </trkpt>
      <trkpt lat="47.78222" lon="5.08525">
        <ele>372.9</ele>
        <time>2022-05-09T07:40:50Z</time>
      </trkpt>
      <trkpt lat="47.78219" lon="5.08526">
        <ele>372.96</ele>
        <time>2022-05-09T07:40:53Z</time>
      </trkpt>
      <trkpt lat="47.78217" lon="5.08528">
        <ele>373</ele>
        <time>2022-05-09T07:40:56Z</time>
      </trkpt>
      <trkpt lat="47.78214" lon="5.0853">
        <ele>372.97</ele>
        <time>2022-05-09T07:41:01Z</time>
      </trkpt>
      <trkpt lat="47.78211" lon="5.08533">
        <ele>372.96</ele>
        <time>2022-05-09T07:41:02Z</time>
      </trkpt>
      <trkpt lat="47.7821" lon="5.08536">
        <ele>372.96</ele>
        <time>2022-05-09T07:41:04Z</time>
      </trkpt>
      <trkpt lat="47.78208" lon="5.08539">
        <ele>373.01</ele>
        <time>2022-05-09T07:41:06Z</time>
      </trkpt>
      <trkpt lat="47.78205" lon="5.08542">
        <ele>373.12</ele>
        <time>2022-05-09T07:41:08Z</time>
      </trkpt>
      <trkpt lat="47.78202" lon="5.08544">
        <ele>373.27</ele>
        <time>2022-05-09T07:41:11Z</time>
      </trkpt>
      <trkpt lat="47.78199" lon="5.08545">
        <ele>373.42</ele>
        <time>2022-05-09T07:41:13Z</time>
      </trkpt>
      <trkpt lat="47.78197" lon="5.08548">
        <ele>373.59</ele>
        <time>2022-05-09T07:41:16Z</time>
      </trkpt>
      <trkpt lat="47.78194" lon="5.0855">
        <ele>373.92</ele>
        <time>2022-05-09T07:41:18Z</time>
      </trkpt>
      <trkpt lat="47.78191" lon="5.08552">
        <ele>374.85</ele>
        <time>2022-05-09T07:41:22Z</time>
      </trkpt>
      <trkpt lat="47.78188" lon="5.08553">
        <ele>375.74</ele>
        <time>2022-05-09T07:41:25Z</time>
      </trkpt>
      <trkpt lat="47.78185" lon="5.08555">
        <ele>376.69</ele>
        <time>2022-05-09T07:41:29Z</time>
      </trkpt>
      <trkpt lat="47.78182" lon="5.08555">
        <ele>377.56</ele>
        <time>2022-05-09T07:41:32Z</time>
      </trkpt>
      <trkpt lat="47.78179" lon="5.08555">
        <ele>378.42</ele>
        <time>2022-05-09T07:41:34Z</time>
      </trkpt>
      <trkpt lat="47.78176" lon="5.08555">
        <ele>379.28</ele>
        <time>2022-05-09T07:41:37Z</time>
      </trkpt>
      <trkpt lat="47.78173" lon="5.08554">
        <ele>380.08</ele>
        <time>2022-05-09T07:41:40Z</time>
      </trkpt>
      <trkpt lat="47.78169" lon="5.08553">
        <ele>381.15</ele>
        <time>2022-05-09T07:41:41Z</time>
      </trkpt>
      <trkpt lat="47.78165" lon="5.08552">
        <ele>381.56</ele>
        <time>2022-05-09T07:41:44Z</time>
      </trkpt>
      <trkpt lat="47.78163" lon="5.08553">
        <ele>381.42</ele>
        <time>2022-05-09T07:41:45Z</time>
      </trkpt>
      <trkpt lat="47.7816" lon="5.08553">
        <ele>381.1</ele>
        <time>2022-05-09T07:41:46Z</time>
      </trkpt>
      <trkpt lat="47.78156" lon="5.08554">
        <ele>380.74</ele>
        <time>2022-05-09T07:41:49Z</time>
      </trkpt>
      <trkpt lat="47.78153" lon="5.08554">
        <ele>380.41</ele>
        <time>2022-05-09T07:41:51Z</time>
      </trkpt>
      <trkpt lat="47.78151" lon="5.08554">
        <ele>380.2</ele>
        <time>2022-05-09T07:41:53Z</time>
      </trkpt>
      <trkpt lat="47.78148" lon="5.08553">
        <ele>379.8</ele>
        <time>2022-05-09T07:41:54Z</time>
      </trkpt>
      <trkpt lat="47.78145" lon="5.08551">
        <ele>379.33</ele>
        <time>2022-05-09T07:41:56Z</time>
      </trkpt>
      <trkpt lat="47.78143" lon="5.0855">
        <ele>379.04</ele>
        <time>2022-05-09T07:41:59Z</time>
      </trkpt>
      <trkpt lat="47.78139" lon="5.08549">
        <ele>378.54</ele>
        <time>2022-05-09T07:42:01Z</time>
      </trkpt>
      <trkpt lat="47.78136" lon="5.08549">
        <ele>378.34</ele>
        <time>2022-05-09T07:42:05Z</time>
      </trkpt>
      <trkpt lat="47.78133" lon="5.08548">
        <ele>378.09</ele>
        <time>2022-05-09T07:42:06Z</time>
      </trkpt>
      <trkpt lat="47.7813" lon="5.08547">
        <ele>377.84</ele>
        <time>2022-05-09T07:42:08Z</time>
      </trkpt>
      <trkpt lat="47.78127" lon="5.08546">
        <ele>377.6</ele>
        <time>2022-05-09T07:42:10Z</time>
      </trkpt>
      <trkpt lat="47.78124" lon="5.08545">
        <ele>377.37</ele>
        <time>2022-05-09T07:42:14Z</time>
      </trkpt>
      <trkpt lat="47.78121" lon="5.08544">
        <ele>377.15</ele>
        <time>2022-05-09T07:42:15Z</time>
      </trkpt>
      <trkpt lat="47.78117" lon="5.08542">
        <ele>376.83</ele>
        <time>2022-05-09T07:42:18Z</time>
      </trkpt>
      <trkpt lat="47.78114" lon="5.08539">
        <ele>376.55</ele>
        <time>2022-05-09T07:42:19Z</time>
      </trkpt>
      <trkpt lat="47.78111" lon="5.08537">
        <ele>376.35</ele>
        <time>2022-05-09T07:42:21Z</time>
      </trkpt>
      <trkpt lat="47.78108" lon="5.08536">
        <ele>376.82</ele>
        <time>2022-05-09T07:42:25Z</time>
      </trkpt>
      <trkpt lat="47.78105" lon="5.08535">
        <ele>377.3</ele>
        <time>2022-05-09T07:42:27Z</time>
      </trkpt>
      <trkpt lat="47.78102" lon="5.08534">
        <ele>377.79</ele>
        <time>2022-05-09T07:42:31Z</time>
      </trkpt>
      <trkpt lat="47.78099" lon="5.08533">
        <ele>378.29</ele>
        <time>2022-05-09T07:42:33Z</time>
      </trkpt>
      <trkpt lat="47.78096" lon="5.08532">
        <ele>378.79</ele>
        <time>2022-05-09T07:42:36Z</time>
      </trkpt>
      <trkpt lat="47.78092" lon="5.08533">
        <ele>379.5</ele>
        <time>2022-05-09T07:42:39Z</time>
      </trkpt>
      <trkpt lat="47.78089" lon="5.08535">
        <ele>380.03</ele>
        <time>2022-05-09T07:42:43Z</time>
      </trkpt>
      <trkpt lat="47.78087" lon="5.08537">
        <ele>380.38</ele>
        <time>2022-05-09T07:42:44Z</time>
      </trkpt>
      <trkpt lat="47.78084" lon="5.0854">
        <ele>380.89</ele>
        <time>2022-05-09T07:42:47Z</time>
      </trkpt>
      <trkpt lat="47.78082" lon="5.08542">
        <ele>380.9</ele>
        <time>2022-05-09T07:42:49Z</time>
      </trkpt>
      <trkpt lat="47.7808" lon="5.08545">
        <ele>380.76</ele>
        <time>2022-05-09T07:42:52Z</time>
      </trkpt>
      <trkpt lat="47.78077" lon="5.08548">
        <ele>380.54</ele>
        <time>2022-05-09T07:42:56Z</time>
      </trkpt>
      <trkpt lat="47.78075" lon="5.0855">
        <ele>380.4</ele>
        <time>2022-05-09T07:42:57Z</time>
      </trkpt>
      <trkpt lat="47.78072" lon="5.08553">
        <ele>380.18</ele>
        <time>2022-05-09T07:43:00Z</time>
      </trkpt>
      <trkpt lat="47.7807" lon="5.08556">
        <ele>380.06</ele>
        <time>2022-05-09T07:43:03Z</time>
      </trkpt>
      <trkpt lat="47.78068" lon="5.08559">
        <ele>380.02</ele>
        <time>2022-05-09T07:43:05Z</time>
      </trkpt>
      <trkpt lat="47.78066" lon="5.08563">
        <ele>380.02</ele>
        <time>2022-05-09T07:43:09Z</time>
      </trkpt>
      <trkpt lat="47.78064" lon="5.08567">
        <ele>380.02</ele>
        <time>2022-05-09T07:43:11Z</time>
      </trkpt>
      <trkpt lat="47.78063" lon="5.08571">
        <ele>380.09</ele>
        <time>2022-05-09T07:43:14Z</time>
      </trkpt>
      <trkpt lat="47.78062" lon="5.08575">
        <ele>380.16</ele>
        <time>2022-05-09T07:43:15Z</time>
      </trkpt>
      <trkpt lat="47.78061" lon="5.08579">
        <ele>380.24</ele>
        <time>2022-05-09T07:43:18Z</time>
      </trkpt>
      <trkpt lat="47.78059" lon="5.08583">
        <ele>380.24</ele>
        <time>2022-05-09T07:43:19Z</time>
      </trkpt>
      <trkpt lat="47.78058" lon="5.08587">
        <ele>380.32</ele>
        <time>2022-05-09T07:43:22Z</time>
      </trkpt>
      <trkpt lat="47.78057" lon="5.08591">
        <ele>380.39</ele>
        <time>2022-05-09T07:43:26Z</time>
      </trkpt>
      <trkpt lat="47.78056" lon="5.08595">
        <ele>380.46</ele>
        <time>2022-05-09T07:43:28Z</time>
      </trkpt>
      <trkpt lat="47.78055" lon="5.086">
        <ele>380.52</ele>
        <time>2022-05-09T07:43:32Z</time>
      </trkpt>
      <trkpt lat="47.78053" lon="5.08604">
        <ele>380.38</ele>
        <time>2022-05-09T07:43:34Z</time>
      </trkpt>
      <trkpt lat="47.78052" lon="5.08608">
        <ele>380.38</ele>
        <time>2022-05-09T07:43:35Z</time>
      </trkpt>
      <trkpt lat="47.78051" lon="5.08611">
        <ele>380.34</ele>
        <time>2022-05-09T07:43:38Z</time>
      </trkpt>
      <trkpt lat="47.7805" lon="5.08615">
        <ele>380.45</ele>
        <time>2022-05-09T07:43:40Z</time>
      </trkpt>
      <trkpt lat="47.78049" lon="5.0862">
        <ele>380.62</ele>
        <time>2022-05-09T07:43:42Z</time>
      </trkpt>
      <trkpt lat="47.78048" lon="5.08625">
        <ele>380.78</ele>
        <time>2022-05-09T07:43:46Z</time>
      </trkpt>
      <trkpt lat="47.78046" lon="5.0863">
        <ele>380.75</ele>
        <time>2022-05-09T07:43:49Z</time>
      </trkpt>
      <trkpt lat="47.78044" lon="5.08634">
        <ele>380.64</ele>
        <time>2022-05-09T07:43:51Z</time>
      </trkpt>
      <trkpt lat="47.78043" lon="5.08638">
        <ele>380.69</ele>
        <time>2022-05-09T07:43:52Z</time>
      </trkpt>
      <trkpt lat="47.78042" lon="5.08642">
        <ele>380.9</ele>
        <time>2022-05-09T07:43:53Z</time>
      </trkpt>
      <trkpt lat="47.78041" lon="5.08646">
        <ele>381.14</ele>
        <time>2022-05-09T07:43:56Z</time>
      </trkpt>
      <trkpt lat="47.78039" lon="5.0865">
        <ele>381.14</ele>
        <time>2022-05-09T07:43:58Z</time>
      </trkpt>
      <trkpt lat="47.78037" lon="5.08652">
        <ele>380.92</ele>
        <time>2022-05-09T07:44:02Z</time>
      </trkpt>
      <trkpt lat="47.78035" lon="5.08655">
        <ele>380.76</ele>
        <time>2022-05-09T07:44:03Z</time>
      </trkpt>
      <trkpt lat="47.78033" lon="5.08659">
        <ele>380.66</ele>
        <time>2022-05-09T07:44:06Z</time>
      </trkpt>
      <trkpt lat="47.78032" lon="5.08663">
        <ele>380.76</ele>
        <time>2022-05-09T07:44:09Z</time>
      </trkpt>
      <trkpt lat="47.78031" lon="5.08667">
        <ele>380.82</ele>
        <time>2022-05-09T07:44:12Z</time>
      </trkpt>
      <trkpt lat="47.7803" lon="5.08671">
        <ele>380.69</ele>
        <time>2022-05-09T07:44:15Z</time>
      </trkpt>
      <trkpt lat="47.78029" lon="5.08676">
        <ele>380.61</ele>
        <time>2022-05-09T07:44:19Z</time>
      </trkpt>
      <trkpt lat="47.78027" lon="5.08679">
        <ele>380.36</ele>
        <time>2022-05-09T07:44:23Z</time>
      </trkpt>
      <trkpt lat="47.78025" lon="5.08683">
        <ele>380.29</ele>
        <time>2022-05-09T07:44:25Z</time>
      </trkpt>
      <trkpt lat="47.78024" lon="5.08687">
        <ele>380.32</ele>
        <time>2022-05-09T07:44:28Z</time>
      </trkpt>
      <trkpt lat="47.78023" lon="5.08693">
        <ele>380.43</ele>
        <time>2022-05-09T07:44:31Z</time>
      </trkpt>
      <trkpt lat="47.78022" lon="5.08698">
        <ele>380.68</ele>
        <time>2022-05-09T07:44:34Z</time>
      </trkpt>
      <trkpt lat="47.78021" lon="5.08702">
        <ele>380.88</ele>
        <time>2022-05-09T07:44:35Z</time>
      </trkpt>
      <trkpt lat="47.78019" lon="5.08706">
        <ele>380.91</ele>
        <time>2022-05-09T07:44:37Z</time>
      </trkpt>
      <trkpt lat="47.78018" lon="5.0871">
        <ele>381.03</ele>
        <time>2022-05-09T07:44:39Z</time>
      </trkpt>
      <trkpt lat="47.78016" lon="5.08714">
        <ele>380.94</ele>
        <time>2022-05-09T07:44:42Z</time>
      </trkpt>
      <trkpt lat="47.78015" lon="5.08718">
        <ele>380.99</ele>
        <time>2022-05-09T07:44:44Z</time>
      </trkpt>
      <trkpt lat="47.78013" lon="5.08722">
        <ele>380.8</ele>
        <time>2022-05-09T07:44:48Z</time>
      </trkpt>
      <trkpt lat="47.78012" lon="5.08726">
        <ele>380.82</ele>
        <time>2022-05-09T07:44:52Z</time>
      </trkpt>
      <trkpt lat="47.7801" lon="5.08729">
        <ele>380.63</ele>
        <time>2022-05-09T07:44:58Z</time>
      </trkpt>
      <trkpt lat="47.78008" lon="5.08732">
        <ele>380.48</ele>
        <time>2022-05-09T07:45:02Z</time>
      </trkpt>
      <trkpt lat="47.78006" lon="5.08737">
        <ele>380.55</ele>
        <time>2022-05-09T07:45:06Z</time>
      </trkpt>
      <trkpt lat="47.78005" lon="5.08741">
        <ele>380.74</ele>
        <time>2022-05-09T07:45:08Z</time>
      </trkpt>
      <trkpt lat="47.78006" lon="5.08746">
        <ele>381.31</ele>
        <time>2022-05-09T07:45:10Z</time>
      </trkpt>
      <trkpt lat="47.78006" lon="5.08751">
        <ele>381.76</ele>
        <time>2022-05-09T07:45:13Z</time>
      </trkpt>
      <trkpt lat="47.78006" lon="5.08756">
        <ele>382.34</ele>
        <time>2022-05-09T07:45:16Z</time>
      </trkpt>
      <trkpt lat="47.78006" lon="5.08761">
        <ele>382.92</ele>
        <time>2022-05-09T07:45:19Z</time>
      </trkpt>
      <trkpt lat="47.78006" lon="5.08767">
        <ele>383.62</ele>
        <time>2022-05-09T07:45:21Z</time>
      </trkpt>
      <trkpt lat="47.78007" lon="5.08771">
        <ele>384.21</ele>
        <time>2022-05-09T07:45:23Z</time>
      </trkpt>
      <trkpt lat="47.78007" lon="5.08776">
        <ele>384.8</ele>
        <time>2022-05-09T07:45:26Z</time>
      </trkpt>
      <trkpt lat="47.78007" lon="5.08781">
        <ele>384.98</ele>
        <time>2022-05-09T07:45:29Z</time>
      </trkpt>
      <trkpt lat="47.78008" lon="5.08785">
        <ele>385.08</ele>
        <time>2022-05-09T07:45:32Z</time>
      </trkpt>
      <trkpt lat="47.78009" lon="5.0879">
        <ele>385.15</ele>
        <time>2022-05-09T07:45:35Z</time>
      </trkpt>
      <trkpt lat="47.7801" lon="5.08794">
        <ele>385.23</ele>
        <time>2022-05-09T07:45:36Z</time>
      </trkpt>
      <trkpt lat="47.78011" lon="5.08799">
        <ele>385.28</ele>
        <time>2022-05-09T07:45:39Z</time>
      </trkpt>
      <trkpt lat="47.78012" lon="5.08804">
        <ele>385.32</ele>
        <time>2022-05-09T07:45:41Z</time>
      </trkpt>
      <trkpt lat="47.78011" lon="5.08809">
        <ele>385.06</ele>
        <time>2022-05-09T07:45:43Z</time>
      </trkpt>
      <trkpt lat="47.78012" lon="5.08815">
        <ele>384.96</ele>
        <time>2022-05-09T07:45:48Z</time>
      </trkpt>
      <trkpt lat="47.78012" lon="5.0882">
        <ele>384.78</ele>
        <time>2022-05-09T07:45:49Z</time>
      </trkpt>
      <trkpt lat="47.78013" lon="5.08824">
        <ele>384.74</ele>
        <time>2022-05-09T07:45:52Z</time>
      </trkpt>
      <trkpt lat="47.78013" lon="5.08828">
        <ele>384.6</ele>
        <time>2022-05-09T07:45:54Z</time>
      </trkpt>
      <trkpt lat="47.78014" lon="5.08832">
        <ele>384.56</ele>
        <time>2022-05-09T07:45:56Z</time>
      </trkpt>
      <trkpt lat="47.78015" lon="5.08837">
        <ele>384.62</ele>
        <time>2022-05-09T07:46:01Z</time>
      </trkpt>
      <trkpt lat="47.78016" lon="5.08842">
        <ele>384.73</ele>
        <time>2022-05-09T07:46:04Z</time>
      </trkpt>
      <trkpt lat="47.78016" lon="5.08846">
        <ele>384.73</ele>
        <time>2022-05-09T07:46:06Z</time>
      </trkpt>
      <trkpt lat="47.78016" lon="5.08852">
        <ele>384.73</ele>
        <time>2022-05-09T07:46:09Z</time>
      </trkpt>
      <trkpt lat="47.78017" lon="5.08856">
        <ele>384.84</ele>
        <time>2022-05-09T07:46:12Z</time>
      </trkpt>
      <trkpt lat="47.78018" lon="5.08861">
        <ele>384.94</ele>
        <time>2022-05-09T07:46:14Z</time>
      </trkpt>
      <trkpt lat="47.78019" lon="5.08866">
        <ele>385.28</ele>
        <time>2022-05-09T07:46:15Z</time>
      </trkpt>
      <trkpt lat="47.78021" lon="5.08871">
        <ele>385.71</ele>
        <time>2022-05-09T07:46:18Z</time>
      </trkpt>
      <trkpt lat="47.78022" lon="5.08874">
        <ele>385.94</ele>
        <time>2022-05-09T07:46:21Z</time>
      </trkpt>
      <trkpt lat="47.78024" lon="5.08879">
        <ele>386.32</ele>
        <time>2022-05-09T07:46:23Z</time>
      </trkpt>
      <trkpt lat="47.78025" lon="5.08883">
        <ele>386.57</ele>
        <time>2022-05-09T07:46:26Z</time>
      </trkpt>
      <trkpt lat="47.78026" lon="5.08887">
        <ele>386.8</ele>
        <time>2022-05-09T07:46:28Z</time>
      </trkpt>
      <trkpt lat="47.78027" lon="5.08892">
        <ele>387.16</ele>
        <time>2022-05-09T07:46:31Z</time>
      </trkpt>
      <trkpt lat="47.78028" lon="5.08896">
        <ele>387.53</ele>
        <time>2022-05-09T07:46:33Z</time>
      </trkpt>
      <trkpt lat="47.78027" lon="5.08901">
        <ele>387.78</ele>
        <time>2022-05-09T07:46:35Z</time>
      </trkpt>
      <trkpt lat="47.78028" lon="5.08905">
        <ele>388.17</ele>
        <time>2022-05-09T07:46:39Z</time>
      </trkpt>
      <trkpt lat="47.78029" lon="5.0891">
        <ele>388.55</ele>
        <time>2022-05-09T07:46:42Z</time>
      </trkpt>
      <trkpt lat="47.7803" lon="5.08915">
        <ele>388.89</ele>
        <time>2022-05-09T07:46:43Z</time>
      </trkpt>
      <trkpt lat="47.7803" lon="5.08919">
        <ele>388.94</ele>
        <time>2022-05-09T07:46:47Z</time>
      </trkpt>
      <trkpt lat="47.7803" lon="5.08923">
        <ele>388.83</ele>
        <time>2022-05-09T07:46:50Z</time>
      </trkpt>
      <trkpt lat="47.78031" lon="5.08927">
        <ele>388.76</ele>
        <time>2022-05-09T07:46:52Z</time>
      </trkpt>
      <trkpt lat="47.78031" lon="5.08932">
        <ele>388.64</ele>
        <time>2022-05-09T07:46:55Z</time>
      </trkpt>
      <trkpt lat="47.78031" lon="5.08937">
        <ele>388.52</ele>
        <time>2022-05-09T07:46:58Z</time>
      </trkpt>
      <trkpt lat="47.78031" lon="5.08942">
        <ele>388.41</ele>
        <time>2022-05-09T07:47:01Z</time>
      </trkpt>
      <trkpt lat="47.78031" lon="5.08948">
        <ele>388.33</ele>
        <time>2022-05-09T07:47:04Z</time>
      </trkpt>
      <trkpt lat="47.78032" lon="5.08954">
        <ele>388.4</ele>
        <time>2022-05-09T07:47:06Z</time>
      </trkpt>
      <trkpt lat="47.78034" lon="5.08963">
        <ele>388.52</ele>
        <time>2022-05-09T07:47:08Z</time>
      </trkpt>
      <trkpt lat="47.78036" lon="5.08967">
        <ele>388.65</ele>
        <time>2022-05-09T07:47:09Z</time>
      </trkpt>
      <trkpt lat="47.78037" lon="5.08972">
        <ele>388.67</ele>
        <time>2022-05-09T07:47:12Z</time>
      </trkpt>
      <trkpt lat="47.78039" lon="5.08976">
        <ele>388.67</ele>
        <time>2022-05-09T07:47:16Z</time>
      </trkpt>
      <trkpt lat="47.7804" lon="5.08981">
        <ele>388.56</ele>
        <time>2022-05-09T07:47:19Z</time>
      </trkpt>
      <trkpt lat="47.78041" lon="5.08985">
        <ele>388.49</ele>
        <time>2022-05-09T07:47:21Z</time>
      </trkpt>
      <trkpt lat="47.78043" lon="5.0899">
        <ele>388.46</ele>
        <time>2022-05-09T07:47:24Z</time>
      </trkpt>
      <trkpt lat="47.78044" lon="5.08995">
        <ele>388.35</ele>
        <time>2022-05-09T07:47:27Z</time>
      </trkpt>
      <trkpt lat="47.78044" lon="5.09">
        <ele>388.17</ele>
        <time>2022-05-09T07:47:30Z</time>
      </trkpt>
      <trkpt lat="47.78044" lon="5.09005">
        <ele>387.99</ele>
        <time>2022-05-09T07:47:32Z</time>
      </trkpt>
      <trkpt lat="47.78045" lon="5.0901">
        <ele>387.88</ele>
        <time>2022-05-09T07:47:37Z</time>
      </trkpt>
      <trkpt lat="47.78045" lon="5.09014">
        <ele>387.74</ele>
        <time>2022-05-09T07:47:39Z</time>
      </trkpt>
      <trkpt lat="47.78046" lon="5.09019">
        <ele>387.63</ele>
        <time>2022-05-09T07:47:43Z</time>
      </trkpt>
      <trkpt lat="47.78047" lon="5.09023">
        <ele>387.56</ele>
        <time>2022-05-09T07:47:46Z</time>
      </trkpt>
      <trkpt lat="47.78047" lon="5.09028">
        <ele>387.39</ele>
        <time>2022-05-09T07:47:48Z</time>
      </trkpt>
      <trkpt lat="47.78047" lon="5.09032">
        <ele>387.54</ele>
        <time>2022-05-09T07:47:51Z</time>
      </trkpt>
      <trkpt lat="47.78047" lon="5.09037">
        <ele>387.72</ele>
        <time>2022-05-09T07:47:55Z</time>
      </trkpt>
      <trkpt lat="47.78048" lon="5.09042">
        <ele>387.97</ele>
        <time>2022-05-09T07:47:58Z</time>
      </trkpt>
      <trkpt lat="47.78049" lon="5.09046">
        <ele>388.18</ele>
        <time>2022-05-09T07:48:00Z</time>
      </trkpt>
      <trkpt lat="47.7805" lon="5.0905">
        <ele>388.4</ele>
        <time>2022-05-09T07:48:02Z</time>
      </trkpt>
      <trkpt lat="47.78051" lon="5.09054">
        <ele>388.62</ele>
        <time>2022-05-09T07:48:05Z</time>
      </trkpt>
      <trkpt lat="47.78052" lon="5.09059">
        <ele>388.74</ele>
        <time>2022-05-09T07:48:07Z</time>
      </trkpt>
      <trkpt lat="47.78052" lon="5.09064">
        <ele>388.74</ele>
        <time>2022-05-09T07:48:10Z</time>
      </trkpt>
      <trkpt lat="47.78053" lon="5.09068">
        <ele>388.82</ele>
        <time>2022-05-09T07:48:12Z</time>
      </trkpt>
      <trkpt lat="47.78054" lon="5.09073">
        <ele>388.89</ele>
        <time>2022-05-09T07:48:15Z</time>
      </trkpt>
      <trkpt lat="47.78055" lon="5.09078">
        <ele>388.96</ele>
        <time>2022-05-09T07:48:18Z</time>
      </trkpt>
      <trkpt lat="47.78056" lon="5.09083">
        <ele>389.11</ele>
        <time>2022-05-09T07:48:19Z</time>
      </trkpt>
      <trkpt lat="47.78058" lon="5.09087">
        <ele>389.56</ele>
        <time>2022-05-09T07:48:23Z</time>
      </trkpt>
      <trkpt lat="47.78059" lon="5.09091">
        <ele>389.7</ele>
        <time>2022-05-09T07:48:26Z</time>
      </trkpt>
      <trkpt lat="47.7806" lon="5.09095">
        <ele>389.78</ele>
        <time>2022-05-09T07:48:27Z</time>
      </trkpt>
      <trkpt lat="47.7806" lon="5.09099">
        <ele>389.67</ele>
        <time>2022-05-09T07:48:30Z</time>
      </trkpt>
      <trkpt lat="47.78061" lon="5.09103">
        <ele>389.68</ele>
        <time>2022-05-09T07:48:32Z</time>
      </trkpt>
      <trkpt lat="47.78062" lon="5.09107">
        <ele>389.64</ele>
        <time>2022-05-09T07:48:34Z</time>
      </trkpt>
      <trkpt lat="47.78062" lon="5.09111">
        <ele>389.47</ele>
        <time>2022-05-09T07:48:36Z</time>
      </trkpt>
      <trkpt lat="47.78063" lon="5.09116">
        <ele>389.28</ele>
        <time>2022-05-09T07:48:39Z</time>
      </trkpt>
      <trkpt lat="47.78064" lon="5.0912">
        <ele>389.16</ele>
        <time>2022-05-09T07:48:41Z</time>
      </trkpt>
      <trkpt lat="47.78064" lon="5.09125">
        <ele>388.91</ele>
        <time>2022-05-09T07:48:44Z</time>
      </trkpt>
      <trkpt lat="47.78065" lon="5.09129">
        <ele>388.83</ele>
        <time>2022-05-09T07:48:45Z</time>
      </trkpt>
      <trkpt lat="47.78065" lon="5.09133">
        <ele>388.64</ele>
        <time>2022-05-09T07:48:47Z</time>
      </trkpt>
      <trkpt lat="47.78066" lon="5.09138">
        <ele>388.54</ele>
        <time>2022-05-09T07:48:49Z</time>
      </trkpt>
      <trkpt lat="47.78067" lon="5.09142">
        <ele>388.49</ele>
        <time>2022-05-09T07:48:51Z</time>
      </trkpt>
      <trkpt lat="47.78069" lon="5.09147">
        <ele>388.5</ele>
        <time>2022-05-09T07:48:53Z</time>
      </trkpt>
      <trkpt lat="47.78069" lon="5.09151">
        <ele>388.29</ele>
        <time>2022-05-09T07:48:56Z</time>
      </trkpt>
      <trkpt lat="47.7807" lon="5.09156">
        <ele>388.14</ele>
        <time>2022-05-09T07:48:59Z</time>
      </trkpt>
      <trkpt lat="47.78071" lon="5.0916">
        <ele>388.04</ele>
        <time>2022-05-09T07:49:00Z</time>
      </trkpt>
      <trkpt lat="47.78071" lon="5.09165">
        <ele>387.76</ele>
        <time>2022-05-09T07:49:03Z</time>
      </trkpt>
      <trkpt lat="47.78072" lon="5.0917">
        <ele>387.8</ele>
        <time>2022-05-09T07:49:05Z</time>
      </trkpt>
      <trkpt lat="47.78073" lon="5.09174">
        <ele>387.95</ele>
        <time>2022-05-09T07:49:08Z</time>
      </trkpt>
      <trkpt lat="47.78074" lon="5.0918">
        <ele>388.15</ele>
        <time>2022-05-09T07:49:11Z</time>
      </trkpt>
      <trkpt lat="47.78075" lon="5.09185">
        <ele>388.36</ele>
        <time>2022-05-09T07:49:13Z</time>
      </trkpt>
      <trkpt lat="47.78076" lon="5.09189">
        <ele>388.59</ele>
        <time>2022-05-09T07:49:15Z</time>
      </trkpt>
      <trkpt lat="47.78076" lon="5.09193">
        <ele>388.66</ele>
        <time>2022-05-09T07:49:17Z</time>
      </trkpt>
      <trkpt lat="47.78077" lon="5.09197">
        <ele>388.77</ele>
        <time>2022-05-09T07:49:21Z</time>
      </trkpt>
      <trkpt lat="47.78078" lon="5.09202">
        <ele>388.77</ele>
        <time>2022-05-09T07:49:24Z</time>
      </trkpt>
      <trkpt lat="47.78079" lon="5.09206">
        <ele>388.8</ele>
        <time>2022-05-09T07:49:26Z</time>
      </trkpt>
      <trkpt lat="47.7808" lon="5.09211">
        <ele>388.8</ele>
        <time>2022-05-09T07:49:29Z</time>
      </trkpt>
      <trkpt lat="47.78081" lon="5.09215">
        <ele>388.84</ele>
        <time>2022-05-09T07:49:33Z</time>
      </trkpt>
      <trkpt lat="47.78081" lon="5.09219">
        <ele>388.7</ele>
        <time>2022-05-09T07:49:35Z</time>
      </trkpt>
      <trkpt lat="47.78082" lon="5.09223">
        <ele>388.76</ele>
        <time>2022-05-09T07:49:38Z</time>
      </trkpt>
      <trkpt lat="47.78083" lon="5.09227">
        <ele>388.94</ele>
        <time>2022-05-09T07:49:40Z</time>
      </trkpt>
      <trkpt lat="47.78084" lon="5.09231">
        <ele>389.11</ele>
        <time>2022-05-09T07:49:42Z</time>
      </trkpt>
      <trkpt lat="47.78085" lon="5.09236">
        <ele>389.27</ele>
        <time>2022-05-09T07:49:44Z</time>
      </trkpt>
      <trkpt lat="47.78085" lon="5.0924">
        <ele>389.26</ele>
        <time>2022-05-09T07:49:47Z</time>
      </trkpt>
      <trkpt lat="47.78086" lon="5.09244">
        <ele>389.4</ele>
        <time>2022-05-09T07:49:48Z</time>
      </trkpt>
      <trkpt lat="47.78087" lon="5.09249">
        <ele>389.53</ele>
        <time>2022-05-09T07:49:50Z</time>
      </trkpt>
      <trkpt lat="47.78087" lon="5.09253">
        <ele>389.42</ele>
        <time>2022-05-09T07:49:52Z</time>
      </trkpt>
      <trkpt lat="47.78088" lon="5.09258">
        <ele>389.38</ele>
        <time>2022-05-09T07:49:55Z</time>
      </trkpt>
      <trkpt lat="47.78089" lon="5.09263">
        <ele>389.35</ele>
        <time>2022-05-09T07:49:57Z</time>
      </trkpt>
      <trkpt lat="47.7809" lon="5.09267">
        <ele>389.35</ele>
        <time>2022-05-09T07:49:59Z</time>
      </trkpt>
      <trkpt lat="47.78091" lon="5.09272">
        <ele>389.31</ele>
        <time>2022-05-09T07:50:02Z</time>
      </trkpt>
      <trkpt lat="47.78092" lon="5.09276">
        <ele>389.31</ele>
        <time>2022-05-09T07:50:05Z</time>
      </trkpt>
      <trkpt lat="47.78092" lon="5.0928">
        <ele>389.08</ele>
        <time>2022-05-09T07:50:07Z</time>
      </trkpt>
      <trkpt lat="47.78093" lon="5.09285">
        <ele>388.88</ele>
        <time>2022-05-09T07:50:10Z</time>
      </trkpt>
      <trkpt lat="47.78093" lon="5.09289">
        <ele>388.6</ele>
        <time>2022-05-09T07:50:12Z</time>
      </trkpt>
      <trkpt lat="47.78094" lon="5.09294">
        <ele>388.46</ele>
        <time>2022-05-09T07:50:14Z</time>
      </trkpt>
      <trkpt lat="47.78094" lon="5.09298">
        <ele>388.19</ele>
        <time>2022-05-09T07:50:17Z</time>
      </trkpt>
      <trkpt lat="47.78095" lon="5.09302">
        <ele>388.16</ele>
        <time>2022-05-09T07:50:19Z</time>
      </trkpt>
      <trkpt lat="47.78096" lon="5.09307">
        <ele>388.13</ele>
        <time>2022-05-09T07:50:22Z</time>
      </trkpt>
      <trkpt lat="47.78097" lon="5.09311">
        <ele>388.24</ele>
        <time>2022-05-09T07:50:24Z</time>
      </trkpt>
      <trkpt lat="47.78098" lon="5.09315">
        <ele>388.39</ele>
        <time>2022-05-09T07:50:25Z</time>
      </trkpt>
      <trkpt lat="47.78099" lon="5.09319">
        <ele>388.59</ele>
        <time>2022-05-09T07:50:28Z</time>
      </trkpt>
      <trkpt lat="47.781" lon="5.09323">
        <ele>388.82</ele>
        <time>2022-05-09T07:50:31Z</time>
      </trkpt>
      <trkpt lat="47.78101" lon="5.09328">
        <ele>389.08</ele>
        <time>2022-05-09T07:50:34Z</time>
      </trkpt>
      <trkpt lat="47.78101" lon="5.09334">
        <ele>389</ele>
        <time>2022-05-09T07:50:37Z</time>
      </trkpt>
      <trkpt lat="47.78102" lon="5.09341">
        <ele>389.39</ele>
        <time>2022-05-09T07:50:41Z</time>
      </trkpt>
      <trkpt lat="47.78103" lon="5.09346">
        <ele>389.79</ele>
        <time>2022-05-09T07:50:42Z</time>
      </trkpt>
      <trkpt lat="47.78104" lon="5.0935">
        <ele>390.18</ele>
        <time>2022-05-09T07:50:44Z</time>
      </trkpt>
      <trkpt lat="47.78105" lon="5.09354">
        <ele>390.58</ele>
        <time>2022-05-09T07:50:48Z</time>
      </trkpt>
      <trkpt lat="47.78106" lon="5.09359">
        <ele>390.98</ele>
        <time>2022-05-09T07:50:50Z</time>
      </trkpt>
      <trkpt lat="47.78106" lon="5.09363">
        <ele>390.74</ele>
        <time>2022-05-09T07:50:52Z</time>
      </trkpt>
      <trkpt lat="47.78107" lon="5.09368">
        <ele>390.49</ele>
        <time>2022-05-09T07:50:54Z</time>
      </trkpt>
      <trkpt lat="47.78107" lon="5.09372">
        <ele>389.98</ele>
        <time>2022-05-09T07:50:58Z</time>
      </trkpt>
      <trkpt lat="47.78108" lon="5.09376">
        <ele>389.8</ele>
        <time>2022-05-09T07:50:59Z</time>
      </trkpt>
      <trkpt lat="47.78108" lon="5.0938">
        <ele>389.28</ele>
        <time>2022-05-09T07:51:01Z</time>
      </trkpt>
      <trkpt lat="47.78109" lon="5.09385">
        <ele>388.92</ele>
        <time>2022-05-09T07:51:03Z</time>
      </trkpt>
      <trkpt lat="47.78109" lon="5.0939">
        <ele>388.23</ele>
        <time>2022-05-09T07:51:07Z</time>
      </trkpt>
      <trkpt lat="47.7811" lon="5.09394">
        <ele>387.94</ele>
        <time>2022-05-09T07:51:09Z</time>
      </trkpt>
      <trkpt lat="47.78111" lon="5.09398">
        <ele>387.65</ele>
        <time>2022-05-09T07:51:11Z</time>
      </trkpt>
      <trkpt lat="47.78112" lon="5.09402">
        <ele>387.27</ele>
        <time>2022-05-09T07:51:13Z</time>
      </trkpt>
      <trkpt lat="47.78113" lon="5.09406">
        <ele>386.89</ele>
        <time>2022-05-09T07:51:16Z</time>
      </trkpt>
      <trkpt lat="47.78114" lon="5.09411">
        <ele>386.4</ele>
        <time>2022-05-09T07:51:19Z</time>
      </trkpt>
      <trkpt lat="47.78115" lon="5.09417">
        <ele>385.79</ele>
        <time>2022-05-09T07:51:22Z</time>
      </trkpt>
      <trkpt lat="47.78116" lon="5.09421">
        <ele>385.36</ele>
        <time>2022-05-09T07:51:23Z</time>
      </trkpt>
      <trkpt lat="47.78118" lon="5.09425">
        <ele>385.21</ele>
        <time>2022-05-09T07:51:26Z</time>
      </trkpt>
      <trkpt lat="47.78119" lon="5.09428">
        <ele>385.01</ele>
        <time>2022-05-09T07:51:28Z</time>
      </trkpt>
      <trkpt lat="47.78121" lon="5.09433">
        <ele>384.82</ele>
        <time>2022-05-09T07:51:30Z</time>
      </trkpt>
      <trkpt lat="47.78122" lon="5.09437">
        <ele>384.55</ele>
        <time>2022-05-09T07:51:31Z</time>
      </trkpt>
      <trkpt lat="47.78123" lon="5.09441">
        <ele>384.31</ele>
        <time>2022-05-09T07:51:35Z</time>
      </trkpt>
      <trkpt lat="47.78125" lon="5.09445">
        <ele>384.4</ele>
        <time>2022-05-09T07:51:38Z</time>
      </trkpt>
      <trkpt lat="47.78126" lon="5.09449">
        <ele>384.02</ele>
        <time>2022-05-09T07:51:41Z</time>
      </trkpt>
      <trkpt lat="47.78127" lon="5.09454">
        <ele>383.48</ele>
        <time>2022-05-09T07:51:45Z</time>
      </trkpt>
      <trkpt lat="47.78128" lon="5.09459">
        <ele>382.97</ele>
        <time>2022-05-09T07:51:48Z</time>
      </trkpt>
      <trkpt lat="47.78129" lon="5.09463">
        <ele>382.65</ele>
        <time>2022-05-09T07:51:50Z</time>
      </trkpt>
      <trkpt lat="47.7813" lon="5.09467">
        <ele>382.35</ele>
        <time>2022-05-09T07:51:53Z</time>
      </trkpt>
      <trkpt lat="47.78131" lon="5.09472">
        <ele>381.91</ele>
        <time>2022-05-09T07:51:55Z</time>
      </trkpt>
      <trkpt lat="47.78132" lon="5.09477">
        <ele>381.45</ele>
        <time>2022-05-09T07:51:58Z</time>
      </trkpt>
      <trkpt lat="47.78134" lon="5.09481">
        <ele>381.54</ele>
        <time>2022-05-09T07:52:00Z</time>
      </trkpt>
      <trkpt lat="47.78136" lon="5.09485">
        <ele>381.6</ele>
        <time>2022-05-09T07:52:03Z</time>
      </trkpt>
      <trkpt lat="47.78137" lon="5.0949">
        <ele>381.1</ele>
        <time>2022-05-09T07:52:05Z</time>
      </trkpt>
      <trkpt lat="47.78137" lon="5.09494">
        <ele>380.39</ele>
        <time>2022-05-09T07:52:08Z</time>
      </trkpt>
      <trkpt lat="47.78139" lon="5.09497">
        <ele>380.59</ele>
        <time>2022-05-09T07:52:10Z</time>
      </trkpt>
      <trkpt lat="47.78141" lon="5.09501">
        <ele>380.94</ele>
        <time>2022-05-09T07:52:13Z</time>
      </trkpt>
      <trkpt lat="47.78142" lon="5.09504">
        <ele>381.26</ele>
        <time>2022-05-09T07:52:14Z</time>
      </trkpt>
      <trkpt lat="47.78144" lon="5.09509">
        <ele>381.89</ele>
        <time>2022-05-09T07:52:17Z</time>
      </trkpt>
      <trkpt lat="47.78146" lon="5.09513">
        <ele>382.5</ele>
        <time>2022-05-09T07:52:20Z</time>
      </trkpt>
      <trkpt lat="47.78148" lon="5.09517">
        <ele>383.05</ele>
        <time>2022-05-09T07:52:22Z</time>
      </trkpt>
      <trkpt lat="47.78149" lon="5.09521">
        <ele>383.15</ele>
        <time>2022-05-09T07:52:26Z</time>
      </trkpt>
      <trkpt lat="47.78151" lon="5.09525">
        <ele>383.59</ele>
        <time>2022-05-09T07:52:29Z</time>
      </trkpt>
      <trkpt lat="47.78152" lon="5.0953">
        <ele>383.4</ele>
        <time>2022-05-09T07:52:31Z</time>
      </trkpt>
      <trkpt lat="47.78153" lon="5.09534">
        <ele>383.18</ele>
        <time>2022-05-09T07:52:32Z</time>
      </trkpt>
      <trkpt lat="47.78154" lon="5.09538">
        <ele>382.97</ele>
        <time>2022-05-09T07:52:34Z</time>
      </trkpt>
      <trkpt lat="47.78155" lon="5.09543">
        <ele>382.61</ele>
        <time>2022-05-09T07:52:36Z</time>
      </trkpt>
      <trkpt lat="47.78156" lon="5.09547">
        <ele>382.39</ele>
        <time>2022-05-09T07:52:38Z</time>
      </trkpt>
      <trkpt lat="47.78157" lon="5.09552">
        <ele>382.03</ele>
        <time>2022-05-09T07:52:40Z</time>
      </trkpt>
      <trkpt lat="47.78158" lon="5.09556">
        <ele>381.84</ele>
        <time>2022-05-09T07:52:42Z</time>
      </trkpt>
      <trkpt lat="47.7816" lon="5.09559">
        <ele>382.29</ele>
        <time>2022-05-09T07:52:45Z</time>
      </trkpt>
      <trkpt lat="47.78162" lon="5.09563">
        <ele>382.69</ele>
        <time>2022-05-09T07:52:47Z</time>
      </trkpt>
      <trkpt lat="47.78163" lon="5.09568">
        <ele>382.67</ele>
        <time>2022-05-09T07:52:50Z</time>
      </trkpt>
      <trkpt lat="47.78164" lon="5.09572">
        <ele>382.74</ele>
        <time>2022-05-09T07:52:52Z</time>
      </trkpt>
      <trkpt lat="47.78166" lon="5.09576">
        <ele>383.25</ele>
        <time>2022-05-09T07:52:54Z</time>
      </trkpt>
      <trkpt lat="47.78167" lon="5.0958">
        <ele>383.31</ele>
        <time>2022-05-09T07:52:56Z</time>
      </trkpt>
      <trkpt lat="47.78168" lon="5.09584">
        <ele>383.21</ele>
        <time>2022-05-09T07:52:58Z</time>
      </trkpt>
      <trkpt lat="47.78169" lon="5.09588">
        <ele>382.99</ele>
        <time>2022-05-09T07:53:00Z</time>
      </trkpt>
      <trkpt lat="47.78171" lon="5.09592">
        <ele>382.95</ele>
        <time>2022-05-09T07:53:03Z</time>
      </trkpt>
      <trkpt lat="47.78172" lon="5.09596">
        <ele>382.7</ele>
        <time>2022-05-09T07:53:06Z</time>
      </trkpt>
      <trkpt lat="47.78172" lon="5.096">
        <ele>382.24</ele>
        <time>2022-05-09T07:53:09Z</time>
      </trkpt>
      <trkpt lat="47.78173" lon="5.09604">
        <ele>381.97</ele>
        <time>2022-05-09T07:53:11Z</time>
      </trkpt>
      <trkpt lat="47.78174" lon="5.09608">
        <ele>381.69</ele>
        <time>2022-05-09T07:53:14Z</time>
      </trkpt>
      <trkpt lat="47.78176" lon="5.09613">
        <ele>381.61</ele>
        <time>2022-05-09T07:53:15Z</time>
      </trkpt>
      <trkpt lat="47.78178" lon="5.09618">
        <ele>381.74</ele>
        <time>2022-05-09T07:53:18Z</time>
      </trkpt>
      <trkpt lat="47.78179" lon="5.09622">
        <ele>381.7</ele>
        <time>2022-05-09T07:53:19Z</time>
      </trkpt>
      <trkpt lat="47.7818" lon="5.09626">
        <ele>381.63</ele>
        <time>2022-05-09T07:53:21Z</time>
      </trkpt>
      <trkpt lat="47.78181" lon="5.0963">
        <ele>381.53</ele>
        <time>2022-05-09T07:53:23Z</time>
      </trkpt>
      <trkpt lat="47.78182" lon="5.09634">
        <ele>381.4</ele>
        <time>2022-05-09T07:53:26Z</time>
      </trkpt>
      <trkpt lat="47.78183" lon="5.09638">
        <ele>381.23</ele>
        <time>2022-05-09T07:53:27Z</time>
      </trkpt>
      <trkpt lat="47.78184" lon="5.09643">
        <ele>381.23</ele>
        <time>2022-05-09T07:53:31Z</time>
      </trkpt>
      <trkpt lat="47.78185" lon="5.09648">
        <ele>381.31</ele>
        <time>2022-05-09T07:53:35Z</time>
      </trkpt>
      <trkpt lat="47.78185" lon="5.09652">
        <ele>381.31</ele>
        <time>2022-05-09T07:53:37Z</time>
      </trkpt>
      <trkpt lat="47.78186" lon="5.09657">
        <ele>381.45</ele>
        <time>2022-05-09T07:53:41Z</time>
      </trkpt>
      <trkpt lat="47.78187" lon="5.09661">
        <ele>381.62</ele>
        <time>2022-05-09T07:53:43Z</time>
      </trkpt>
      <trkpt lat="47.78188" lon="5.09666">
        <ele>381.83</ele>
        <time>2022-05-09T07:53:47Z</time>
      </trkpt>
      <trkpt lat="47.78189" lon="5.0967">
        <ele>381.83</ele>
        <time>2022-05-09T07:53:50Z</time>
      </trkpt>
      <trkpt lat="47.78189" lon="5.09675">
        <ele>381.54</ele>
        <time>2022-05-09T07:53:52Z</time>
      </trkpt>
      <trkpt lat="47.7819" lon="5.09679">
        <ele>381.54</ele>
        <time>2022-05-09T07:53:55Z</time>
      </trkpt>
      <trkpt lat="47.7819" lon="5.09684">
        <ele>381.28</ele>
        <time>2022-05-09T07:53:58Z</time>
      </trkpt>
      <trkpt lat="47.78191" lon="5.09688">
        <ele>381.33</ele>
        <time>2022-05-09T07:54:00Z</time>
      </trkpt>
      <trkpt lat="47.78192" lon="5.09693">
        <ele>381.36</ele>
        <time>2022-05-09T07:54:03Z</time>
      </trkpt>
      <trkpt lat="47.78194" lon="5.09697">
        <ele>381.6</ele>
        <time>2022-05-09T07:54:04Z</time>
      </trkpt>
      <trkpt lat="47.78195" lon="5.09701">
        <ele>381.35</ele>
        <time>2022-05-09T07:54:06Z</time>
      </trkpt>
      <trkpt lat="47.78196" lon="5.09706">
        <ele>380.92</ele>
        <time>2022-05-09T07:54:10Z</time>
      </trkpt>
      <trkpt lat="47.78197" lon="5.0971">
        <ele>380.6</ele>
        <time>2022-05-09T07:54:11Z</time>
      </trkpt>
      <trkpt lat="47.78198" lon="5.09715">
        <ele>380.16</ele>
        <time>2022-05-09T07:54:14Z</time>
      </trkpt>
      <trkpt lat="47.782" lon="5.09718">
        <ele>380.06</ele>
        <time>2022-05-09T07:54:15Z</time>
      </trkpt>
      <trkpt lat="47.78201" lon="5.09723">
        <ele>379.61</ele>
        <time>2022-05-09T07:54:19Z</time>
      </trkpt>
      <trkpt lat="47.78202" lon="5.09727">
        <ele>379.22</ele>
        <time>2022-05-09T07:54:22Z</time>
      </trkpt>
      <trkpt lat="47.78204" lon="5.09731">
        <ele>378.99</ele>
        <time>2022-05-09T07:54:25Z</time>
      </trkpt>
      <trkpt lat="47.78205" lon="5.09735">
        <ele>378.65</ele>
        <time>2022-05-09T07:54:27Z</time>
      </trkpt>
      <trkpt lat="47.78206" lon="5.09739">
        <ele>378.33</ele>
        <time>2022-05-09T07:54:29Z</time>
      </trkpt>
      <trkpt lat="47.78207" lon="5.09744">
        <ele>377.93</ele>
        <time>2022-05-09T07:54:32Z</time>
      </trkpt>
      <trkpt lat="47.78208" lon="5.09749">
        <ele>377.55</ele>
        <time>2022-05-09T07:54:34Z</time>
      </trkpt>
      <trkpt lat="47.78208" lon="5.09753">
        <ele>376.96</ele>
        <time>2022-05-09T07:54:37Z</time>
      </trkpt>
      <trkpt lat="47.78209" lon="5.09757">
        <ele>376.48</ele>
        <time>2022-05-09T07:54:39Z</time>
      </trkpt>
      <trkpt lat="47.7821" lon="5.09761">
        <ele>375.99</ele>
        <time>2022-05-09T07:54:41Z</time>
      </trkpt>
      <trkpt lat="47.78211" lon="5.09765">
        <ele>375.5</ele>
        <time>2022-05-09T07:54:43Z</time>
      </trkpt>
      <trkpt lat="47.78212" lon="5.0977">
        <ele>374.82</ele>
        <time>2022-05-09T07:54:46Z</time>
      </trkpt>
      <trkpt lat="47.78213" lon="5.09775">
        <ele>374.14</ele>
        <time>2022-05-09T07:54:48Z</time>
      </trkpt>
      <trkpt lat="47.78214" lon="5.09779">
        <ele>373.66</ele>
        <time>2022-05-09T07:54:51Z</time>
      </trkpt>
      <trkpt lat="47.78216" lon="5.09785">
        <ele>373.21</ele>
        <time>2022-05-09T07:54:54Z</time>
      </trkpt>
      <trkpt lat="47.78216" lon="5.09789">
        <ele>372.71</ele>
        <time>2022-05-09T07:54:56Z</time>
      </trkpt>
      <trkpt lat="47.78217" lon="5.09794">
        <ele>372.28</ele>
        <time>2022-05-09T07:54:59Z</time>
      </trkpt>
      <trkpt lat="47.78218" lon="5.09799">
        <ele>371.87</ele>
        <time>2022-05-09T07:55:00Z</time>
      </trkpt>
      <trkpt lat="47.78219" lon="5.09804">
        <ele>371.48</ele>
        <time>2022-05-09T07:55:03Z</time>
      </trkpt>
      <trkpt lat="47.7822" lon="5.09808">
        <ele>371.08</ele>
        <time>2022-05-09T07:55:05Z</time>
      </trkpt>
      <trkpt lat="47.78222" lon="5.09812">
        <ele>370.79</ele>
        <time>2022-05-09T07:55:06Z</time>
      </trkpt>
      <trkpt lat="47.78223" lon="5.09816">
        <ele>370.39</ele>
        <time>2022-05-09T07:55:09Z</time>
      </trkpt>
      <trkpt lat="47.78224" lon="5.0982">
        <ele>370.04</ele>
        <time>2022-05-09T07:55:13Z</time>
      </trkpt>
      <trkpt lat="47.78225" lon="5.09825">
        <ele>369.54</ele>
        <time>2022-05-09T07:55:16Z</time>
      </trkpt>
      <trkpt lat="47.78226" lon="5.0983">
        <ele>369.06</ele>
        <time>2022-05-09T07:55:21Z</time>
      </trkpt>
      <trkpt lat="47.78226" lon="5.09834">
        <ele>368.42</ele>
        <time>2022-05-09T07:55:24Z</time>
      </trkpt>
      <trkpt lat="47.78227" lon="5.09838">
        <ele>368.39</ele>
        <time>2022-05-09T07:55:26Z</time>
      </trkpt>
      <trkpt lat="47.78228" lon="5.09843">
        <ele>368.24</ele>
        <time>2022-05-09T07:55:29Z</time>
      </trkpt>
      <trkpt lat="47.78228" lon="5.09848">
        <ele>367.7</ele>
        <time>2022-05-09T07:55:31Z</time>
      </trkpt>
      <trkpt lat="47.78229" lon="5.09853">
        <ele>367.56</ele>
        <time>2022-05-09T07:55:34Z</time>
      </trkpt>
      <trkpt lat="47.78229" lon="5.09857">
        <ele>367.13</ele>
        <time>2022-05-09T07:55:37Z</time>
      </trkpt>
      <trkpt lat="47.7823" lon="5.09861">
        <ele>367.09</ele>
        <time>2022-05-09T07:55:39Z</time>
      </trkpt>
      <trkpt lat="47.78232" lon="5.09864">
        <ele>367.59</ele>
        <time>2022-05-09T07:55:40Z</time>
      </trkpt>
      <trkpt lat="47.78233" lon="5.09868">
        <ele>367.58</ele>
        <time>2022-05-09T07:55:43Z</time>
      </trkpt>
      <trkpt lat="47.78234" lon="5.09873">
        <ele>367.45</ele>
        <time>2022-05-09T07:55:45Z</time>
      </trkpt>
      <trkpt lat="47.78234" lon="5.09877">
        <ele>367.03</ele>
        <time>2022-05-09T07:55:48Z</time>
      </trkpt>
      <trkpt lat="47.78235" lon="5.09881">
        <ele>366.97</ele>
        <time>2022-05-09T07:55:50Z</time>
      </trkpt>
      <trkpt lat="47.78235" lon="5.09886">
        <ele>366.44</ele>
        <time>2022-05-09T07:55:53Z</time>
      </trkpt>
      <trkpt lat="47.78236" lon="5.09891">
        <ele>366.46</ele>
        <time>2022-05-09T07:55:54Z</time>
      </trkpt>
      <trkpt lat="47.78237" lon="5.09895">
        <ele>366.8</ele>
        <time>2022-05-09T07:55:56Z</time>
      </trkpt>
      <trkpt lat="47.78238" lon="5.099">
        <ele>367.17</ele>
        <time>2022-05-09T07:55:59Z</time>
      </trkpt>
      <trkpt lat="47.78239" lon="5.09906">
        <ele>367.56</ele>
        <time>2022-05-09T07:56:03Z</time>
      </trkpt>
      <trkpt lat="47.7824" lon="5.09911">
        <ele>367.98</ele>
        <time>2022-05-09T07:56:04Z</time>
      </trkpt>
      <trkpt lat="47.78241" lon="5.09915">
        <ele>368.41</ele>
        <time>2022-05-09T07:56:08Z</time>
      </trkpt>
      <trkpt lat="47.78243" lon="5.0992">
        <ele>369.35</ele>
        <time>2022-05-09T07:56:10Z</time>
      </trkpt>
      <trkpt lat="47.78244" lon="5.09924">
        <ele>369.89</ele>
        <time>2022-05-09T07:56:13Z</time>
      </trkpt>
      <trkpt lat="47.78245" lon="5.09928">
        <ele>370.43</ele>
        <time>2022-05-09T07:56:15Z</time>
      </trkpt>
      <trkpt lat="47.78247" lon="5.09932">
        <ele>371.36</ele>
        <time>2022-05-09T07:56:17Z</time>
      </trkpt>
      <trkpt lat="47.78248" lon="5.09937">
        <ele>371.94</ele>
        <time>2022-05-09T07:56:19Z</time>
      </trkpt>
      <trkpt lat="47.7825" lon="5.09942">
        <ele>372.91</ele>
        <time>2022-05-09T07:56:22Z</time>
      </trkpt>
      <trkpt lat="47.78251" lon="5.09946">
        <ele>373.21</ele>
        <time>2022-05-09T07:56:23Z</time>
      </trkpt>
      <trkpt lat="47.78252" lon="5.09951">
        <ele>373.42</ele>
        <time>2022-05-09T07:56:27Z</time>
      </trkpt>
      <trkpt lat="47.78254" lon="5.09954">
        <ele>373.81</ele>
        <time>2022-05-09T07:56:29Z</time>
      </trkpt>
      <trkpt lat="47.78255" lon="5.09958">
        <ele>373.99</ele>
        <time>2022-05-09T07:56:32Z</time>
      </trkpt>
      <trkpt lat="47.78257" lon="5.09963">
        <ele>374.34</ele>
        <time>2022-05-09T07:56:34Z</time>
      </trkpt>
      <trkpt lat="47.78258" lon="5.09967">
        <ele>374.49</ele>
        <time>2022-05-09T07:56:37Z</time>
      </trkpt>
      <trkpt lat="47.7826" lon="5.09971">
        <ele>374.82</ele>
        <time>2022-05-09T07:56:38Z</time>
      </trkpt>
      <trkpt lat="47.78261" lon="5.09976">
        <ele>374.82</ele>
        <time>2022-05-09T07:56:41Z</time>
      </trkpt>
      <trkpt lat="47.78263" lon="5.09982">
        <ele>374.85</ele>
        <time>2022-05-09T07:56:44Z</time>
      </trkpt>
      <trkpt lat="47.78265" lon="5.09986">
        <ele>374.9</ele>
        <time>2022-05-09T07:56:45Z</time>
      </trkpt>
      <trkpt lat="47.78266" lon="5.0999">
        <ele>374.77</ele>
        <time>2022-05-09T07:56:47Z</time>
      </trkpt>
      <trkpt lat="47.78268" lon="5.09995">
        <ele>374.65</ele>
        <time>2022-05-09T07:56:50Z</time>
      </trkpt>
      <trkpt lat="47.78269" lon="5.09999">
        <ele>374.44</ele>
        <time>2022-05-09T07:56:53Z</time>
      </trkpt>
      <trkpt lat="47.78271" lon="5.10002">
        <ele>374.3</ele>
        <time>2022-05-09T07:56:55Z</time>
      </trkpt>
      <trkpt lat="47.78273" lon="5.10007">
        <ele>373.9</ele>
        <time>2022-05-09T07:56:58Z</time>
      </trkpt>
      <trkpt lat="47.78274" lon="5.10011">
        <ele>373.54</ele>
        <time>2022-05-09T07:57:02Z</time>
      </trkpt>
      <trkpt lat="47.78276" lon="5.10015">
        <ele>373.25</ele>
        <time>2022-05-09T07:57:05Z</time>
      </trkpt>
      <trkpt lat="47.78278" lon="5.10018">
        <ele>373.1</ele>
        <time>2022-05-09T07:57:09Z</time>
      </trkpt>
      <trkpt lat="47.78281" lon="5.10021">
        <ele>373.4</ele>
        <time>2022-05-09T07:57:11Z</time>
      </trkpt>
      <trkpt lat="47.78283" lon="5.10024">
        <ele>373.51</ele>
        <time>2022-05-09T07:57:13Z</time>
      </trkpt>
      <trkpt lat="47.78286" lon="5.10026">
        <ele>373.95</ele>
        <time>2022-05-09T07:57:17Z</time>
      </trkpt>
      <trkpt lat="47.78288" lon="5.10029">
        <ele>374.13</ele>
        <time>2022-05-09T07:57:19Z</time>
      </trkpt>
      <trkpt lat="47.78291" lon="5.10031">
        <ele>374.63</ele>
        <time>2022-05-09T07:57:22Z</time>
      </trkpt>
      <trkpt lat="47.78294" lon="5.10034">
        <ele>375.02</ele>
        <time>2022-05-09T07:57:25Z</time>
      </trkpt>
      <trkpt lat="47.78296" lon="5.10036">
        <ele>375.25</ele>
        <time>2022-05-09T07:57:27Z</time>
      </trkpt>
      <trkpt lat="47.78298" lon="5.10039">
        <ele>375.38</ele>
        <time>2022-05-09T07:57:30Z</time>
      </trkpt>
      <trkpt lat="47.78301" lon="5.10042">
        <ele>375.65</ele>
        <time>2022-05-09T07:57:36Z</time>
      </trkpt>
      <trkpt lat="47.78303" lon="5.10044">
        <ele>375.8</ele>
        <time>2022-05-09T07:57:39Z</time>
      </trkpt>
      <trkpt lat="47.78306" lon="5.10046">
        <ele>376.06</ele>
        <time>2022-05-09T07:57:41Z</time>
      </trkpt>
      <trkpt lat="47.78309" lon="5.10048">
        <ele>376.06</ele>
        <time>2022-05-09T07:57:45Z</time>
      </trkpt>
      <trkpt lat="47.78312" lon="5.1005">
        <ele>376.06</ele>
        <time>2022-05-09T07:57:47Z</time>
      </trkpt>
      <trkpt lat="47.78315" lon="5.10052">
        <ele>376.06</ele>
        <time>2022-05-09T07:57:50Z</time>
      </trkpt>
      <trkpt lat="47.78318" lon="5.10052">
        <ele>376.28</ele>
        <time>2022-05-09T07:57:53Z</time>
      </trkpt>
      <trkpt lat="47.78321" lon="5.10053">
        <ele>376.39</ele>
        <time>2022-05-09T07:57:55Z</time>
      </trkpt>
      <trkpt lat="47.78324" lon="5.10054">
        <ele>376.5</ele>
        <time>2022-05-09T07:57:58Z</time>
      </trkpt>
      <trkpt lat="47.78327" lon="5.10055">
        <ele>376.6</ele>
        <time>2022-05-09T07:57:59Z</time>
      </trkpt>
      <trkpt lat="47.78331" lon="5.10056">
        <ele>376.81</ele>
        <time>2022-05-09T07:58:01Z</time>
      </trkpt>
      <trkpt lat="47.78333" lon="5.10056">
        <ele>376.96</ele>
        <time>2022-05-09T07:58:04Z</time>
      </trkpt>
      <trkpt lat="47.78336" lon="5.10056">
        <ele>377.47</ele>
        <time>2022-05-09T07:58:11Z</time>
      </trkpt>
      <trkpt lat="47.78339" lon="5.10059">
        <ele>377.92</ele>
        <time>2022-05-09T07:58:14Z</time>
      </trkpt>
      <trkpt lat="47.78341" lon="5.10061">
        <ele>378.24</ele>
        <time>2022-05-09T07:58:20Z</time>
      </trkpt>
      <trkpt lat="47.78343" lon="5.10064">
        <ele>378.54</ele>
        <time>2022-05-09T07:58:36Z</time>
      </trkpt>
      <trkpt lat="47.78345" lon="5.10069">
        <ele>378.82</ele>
        <time>2022-05-09T07:58:49Z</time>
      </trkpt>
      <trkpt lat="47.78347" lon="5.10071">
        <ele>379.18</ele>
        <time>2022-05-09T07:59:21Z</time>
      </trkpt>
      <trkpt lat="47.7835" lon="5.10072">
        <ele>379.76</ele>
        <time>2022-05-09T07:59:25Z</time>
      </trkpt>
      <trkpt lat="47.78349" lon="5.10077">
        <ele>379.48</ele>
        <time>2022-05-09T07:59:44Z</time>
      </trkpt>
      <trkpt lat="47.7835" lon="5.10081">
        <ele>379.63</ele>
        <time>2022-05-09T07:59:50Z</time>
      </trkpt>
      <trkpt lat="47.78351" lon="5.10087">
        <ele>379.61</ele>
        <time>2022-05-09T08:00:04Z</time>
      </trkpt>
      <trkpt lat="47.78354" lon="5.10088">
        <ele>380.13</ele>
        <time>2022-05-09T08:00:11Z</time>
      </trkpt>
      <trkpt lat="47.78354" lon="5.10084">
        <ele>380.42</ele>
        <time>2022-05-09T08:01:18Z</time>
      </trkpt>
      <trkpt lat="47.78356" lon="5.10081">
        <ele>380.91</ele>
        <time>2022-05-09T08:01:22Z</time>
      </trkpt>
      <trkpt lat="47.78359" lon="5.10079">
        <ele>381.56</ele>
        <time>2022-05-09T08:01:34Z</time>
      </trkpt>
      <trkpt lat="47.78361" lon="5.10077">
        <ele>381.98</ele>
        <time>2022-05-09T08:01:41Z</time>
      </trkpt>
      <trkpt lat="47.78364" lon="5.10077">
        <ele>382.04</ele>
        <time>2022-05-09T08:01:45Z</time>
      </trkpt>
      <trkpt lat="47.78367" lon="5.10078">
        <ele>382.03</ele>
        <time>2022-05-09T08:01:49Z</time>
      </trkpt>
      <trkpt lat="47.7837" lon="5.10078">
        <ele>382.05</ele>
        <time>2022-05-09T08:01:52Z</time>
      </trkpt>
      <trkpt lat="47.78374" lon="5.10077">
        <ele>382.17</ele>
        <time>2022-05-09T08:01:56Z</time>
      </trkpt>
      <trkpt lat="47.78377" lon="5.10076">
        <ele>382.33</ele>
        <time>2022-05-09T08:01:58Z</time>
      </trkpt>
      <trkpt lat="47.7838" lon="5.10075">
        <ele>382.54</ele>
        <time>2022-05-09T08:02:02Z</time>
      </trkpt>
      <trkpt lat="47.78383" lon="5.10075">
        <ele>382.63</ele>
        <time>2022-05-09T08:02:04Z</time>
      </trkpt>
      <trkpt lat="47.78386" lon="5.10075">
        <ele>382.72</ele>
        <time>2022-05-09T08:02:05Z</time>
      </trkpt>
      <trkpt lat="47.78389" lon="5.10074">
        <ele>383</ele>
        <time>2022-05-09T08:02:10Z</time>
      </trkpt>
      <trkpt lat="47.78392" lon="5.10073">
        <ele>382.88</ele>
        <time>2022-05-09T08:02:14Z</time>
      </trkpt>
      <trkpt lat="47.78395" lon="5.10072">
        <ele>382.74</ele>
        <time>2022-05-09T08:02:18Z</time>
      </trkpt>
      <trkpt lat="47.78398" lon="5.10071">
        <ele>382.57</ele>
        <time>2022-05-09T08:02:21Z</time>
      </trkpt>
      <trkpt lat="47.78401" lon="5.1007">
        <ele>382.38</ele>
        <time>2022-05-09T08:02:24Z</time>
      </trkpt>
      <trkpt lat="47.78404" lon="5.10069">
        <ele>382.17</ele>
        <time>2022-05-09T08:02:25Z</time>
      </trkpt>
      <trkpt lat="47.78407" lon="5.10068">
        <ele>381.93</ele>
        <time>2022-05-09T08:02:27Z</time>
      </trkpt>
      <trkpt lat="47.7841" lon="5.10067">
        <ele>381.67</ele>
        <time>2022-05-09T08:02:30Z</time>
      </trkpt>
      <trkpt lat="47.78413" lon="5.10066">
        <ele>381.38</ele>
        <time>2022-05-09T08:02:33Z</time>
      </trkpt>
      <trkpt lat="47.78416" lon="5.10065">
        <ele>381.08</ele>
        <time>2022-05-09T08:02:35Z</time>
      </trkpt>
      <trkpt lat="47.78419" lon="5.10064">
        <ele>381</ele>
        <time>2022-05-09T08:02:36Z</time>
      </trkpt>
      <trkpt lat="47.78422" lon="5.10063">
        <ele>381</ele>
        <time>2022-05-09T08:02:41Z</time>
      </trkpt>
      <trkpt lat="47.78426" lon="5.10063">
        <ele>380.86</ele>
        <time>2022-05-09T08:02:44Z</time>
      </trkpt>
      <trkpt lat="47.78429" lon="5.10062">
        <ele>380.86</ele>
        <time>2022-05-09T08:02:45Z</time>
      </trkpt>
      <trkpt lat="47.78432" lon="5.10062">
        <ele>380.75</ele>
        <time>2022-05-09T08:02:47Z</time>
      </trkpt>
      <trkpt lat="47.78435" lon="5.10061">
        <ele>380.75</ele>
        <time>2022-05-09T08:02:52Z</time>
      </trkpt>
      <trkpt lat="47.78438" lon="5.10059">
        <ele>380.86</ele>
        <time>2022-05-09T08:02:58Z</time>
      </trkpt>
      <trkpt lat="47.78441" lon="5.10059">
        <ele>380.75</ele>
        <time>2022-05-09T08:03:01Z</time>
      </trkpt>
      <trkpt lat="47.78444" lon="5.1006">
        <ele>380.54</ele>
        <time>2022-05-09T08:03:03Z</time>
      </trkpt>
      <trkpt lat="47.78448" lon="5.10062">
        <ele>380.5</ele>
        <time>2022-05-09T08:03:06Z</time>
      </trkpt>
      <trkpt lat="47.78451" lon="5.10062">
        <ele>380.67</ele>
        <time>2022-05-09T08:03:08Z</time>
      </trkpt>
      <trkpt lat="47.78454" lon="5.10062">
        <ele>380.83</ele>
        <time>2022-05-09T08:03:11Z</time>
      </trkpt>
      <trkpt lat="47.78457" lon="5.10062">
        <ele>381</ele>
        <time>2022-05-09T08:03:16Z</time>
      </trkpt>
      <trkpt lat="47.7846" lon="5.10061">
        <ele>381.31</ele>
        <time>2022-05-09T08:03:18Z</time>
      </trkpt>
      <trkpt lat="47.78463" lon="5.1006">
        <ele>381.64</ele>
        <time>2022-05-09T08:03:21Z</time>
      </trkpt>
      <trkpt lat="47.78466" lon="5.1006">
        <ele>381.82</ele>
        <time>2022-05-09T08:03:23Z</time>
      </trkpt>
      <trkpt lat="47.78469" lon="5.1006">
        <ele>382.01</ele>
        <time>2022-05-09T08:03:27Z</time>
      </trkpt>
      <trkpt lat="47.78472" lon="5.10059">
        <ele>382.37</ele>
        <time>2022-05-09T08:03:29Z</time>
      </trkpt>
      <trkpt lat="47.78476" lon="5.10058">
        <ele>382.9</ele>
        <time>2022-05-09T08:03:33Z</time>
      </trkpt>
      <trkpt lat="47.78479" lon="5.10057">
        <ele>383.3</ele>
        <time>2022-05-09T08:03:36Z</time>
      </trkpt>
      <trkpt lat="47.78482" lon="5.10055">
        <ele>383.79</ele>
        <time>2022-05-09T08:03:38Z</time>
      </trkpt>
      <trkpt lat="47.78486" lon="5.10054">
        <ele>384.22</ele>
        <time>2022-05-09T08:03:41Z</time>
      </trkpt>
      <trkpt lat="47.78489" lon="5.10053">
        <ele>384.56</ele>
        <time>2022-05-09T08:03:42Z</time>
      </trkpt>
      <trkpt lat="47.78492" lon="5.10051">
        <ele>385.01</ele>
        <time>2022-05-09T08:03:45Z</time>
      </trkpt>
      <trkpt lat="47.78495" lon="5.10049">
        <ele>385.43</ele>
        <time>2022-05-09T08:03:47Z</time>
      </trkpt>
      <trkpt lat="47.78498" lon="5.10046">
        <ele>385.94</ele>
        <time>2022-05-09T08:03:50Z</time>
      </trkpt>
      <trkpt lat="47.78501" lon="5.10045">
        <ele>386.27</ele>
        <time>2022-05-09T08:03:52Z</time>
      </trkpt>
      <trkpt lat="47.78503" lon="5.10042">
        <ele>386.84</ele>
        <time>2022-05-09T08:03:55Z</time>
      </trkpt>
      <trkpt lat="47.78506" lon="5.1004">
        <ele>387.42</ele>
        <time>2022-05-09T08:03:57Z</time>
      </trkpt>
      <trkpt lat="47.78509" lon="5.10038">
        <ele>387.99</ele>
        <time>2022-05-09T08:04:00Z</time>
      </trkpt>
      <trkpt lat="47.78512" lon="5.10037">
        <ele>388.44</ele>
        <time>2022-05-09T08:04:04Z</time>
      </trkpt>
      <trkpt lat="47.78515" lon="5.10036">
        <ele>388.89</ele>
        <time>2022-05-09T08:04:07Z</time>
      </trkpt>
      <trkpt lat="47.78518" lon="5.10036">
        <ele>389.25</ele>
        <time>2022-05-09T08:04:10Z</time>
      </trkpt>
      <trkpt lat="47.78521" lon="5.10035">
        <ele>389.68</ele>
        <time>2022-05-09T08:04:12Z</time>
      </trkpt>
      <trkpt lat="47.78524" lon="5.10035">
        <ele>390.04</ele>
        <time>2022-05-09T08:04:14Z</time>
      </trkpt>
      <trkpt lat="47.78527" lon="5.10035">
        <ele>390.39</ele>
        <time>2022-05-09T08:04:15Z</time>
      </trkpt>
      <trkpt lat="47.78531" lon="5.10036">
        <ele>390.67</ele>
        <time>2022-05-09T08:04:19Z</time>
      </trkpt>
      <trkpt lat="47.78533" lon="5.10036">
        <ele>390.84</ele>
        <time>2022-05-09T08:04:21Z</time>
      </trkpt>
      <trkpt lat="47.78536" lon="5.10037">
        <ele>391.03</ele>
        <time>2022-05-09T08:04:24Z</time>
      </trkpt>
      <trkpt lat="47.78539" lon="5.10037">
        <ele>391.28</ele>
        <time>2022-05-09T08:04:28Z</time>
      </trkpt>
      <trkpt lat="47.78542" lon="5.10037">
        <ele>391.53</ele>
        <time>2022-05-09T08:04:32Z</time>
      </trkpt>
      <trkpt lat="47.78545" lon="5.10038">
        <ele>391.73</ele>
        <time>2022-05-09T08:04:36Z</time>
      </trkpt>
      <trkpt lat="47.78547" lon="5.10035">
        <ele>392.04</ele>
        <time>2022-05-09T08:04:43Z</time>
      </trkpt>
      <trkpt lat="47.78548" lon="5.10031">
        <ele>392.31</ele>
        <time>2022-05-09T08:04:47Z</time>
      </trkpt>
      <trkpt lat="47.78548" lon="5.10027">
        <ele>392.46</ele>
        <time>2022-05-09T08:04:52Z</time>
      </trkpt>
      <trkpt lat="47.78548" lon="5.10023">
        <ele>392.5</ele>
        <time>2022-05-09T08:04:56Z</time>
      </trkpt>
      <trkpt lat="47.78548" lon="5.10019">
        <ele>392.54</ele>
        <time>2022-05-09T08:05:00Z</time>
      </trkpt>
      <trkpt lat="47.78548" lon="5.10014">
        <ele>392.59</ele>
        <time>2022-05-09T08:05:03Z</time>
      </trkpt>
      <trkpt lat="47.78548" lon="5.1001">
        <ele>392.63</ele>
        <time>2022-05-09T08:05:07Z</time>
      </trkpt>
      <trkpt lat="47.78548" lon="5.10005">
        <ele>392.68</ele>
        <time>2022-05-09T08:05:13Z</time>
      </trkpt>
      <trkpt lat="47.78547" lon="5.10001">
        <ele>392.68</ele>
        <time>2022-05-09T08:05:17Z</time>
      </trkpt>
      <trkpt lat="47.78545" lon="5.09997">
        <ele>392.72</ele>
        <time>2022-05-09T08:05:21Z</time>
      </trkpt>
      <trkpt lat="47.78544" lon="5.09994">
        <ele>392.82</ele>
        <time>2022-05-09T08:05:30Z</time>
      </trkpt>
      <trkpt lat="47.78544" lon="5.0999">
        <ele>392.97</ele>
        <time>2022-05-09T08:05:35Z</time>
      </trkpt>
      <trkpt lat="47.78542" lon="5.09986">
        <ele>393.24</ele>
        <time>2022-05-09T08:05:41Z</time>
      </trkpt>
      <trkpt lat="47.7854" lon="5.09982">
        <ele>393.61</ele>
        <time>2022-05-09T08:05:44Z</time>
      </trkpt>
      <trkpt lat="47.78538" lon="5.0998">
        <ele>393.92</ele>
        <time>2022-05-09T08:05:48Z</time>
      </trkpt>
      <trkpt lat="47.78535" lon="5.09978">
        <ele>394.4</ele>
        <time>2022-05-09T08:05:51Z</time>
      </trkpt>
      <trkpt lat="47.78534" lon="5.09975">
        <ele>394.82</ele>
        <time>2022-05-09T08:05:54Z</time>
      </trkpt>
      <trkpt lat="47.78532" lon="5.09971">
        <ele>395.67</ele>
        <time>2022-05-09T08:05:59Z</time>
      </trkpt>
      <trkpt lat="47.78532" lon="5.09967">
        <ele>396.59</ele>
        <time>2022-05-09T08:06:03Z</time>
      </trkpt>
      <trkpt lat="47.78531" lon="5.09963">
        <ele>397.71</ele>
        <time>2022-05-09T08:06:06Z</time>
      </trkpt>
      <trkpt lat="47.78531" lon="5.09957">
        <ele>399.12</ele>
        <time>2022-05-09T08:06:10Z</time>
      </trkpt>
      <trkpt lat="47.78531" lon="5.09952">
        <ele>400.29</ele>
        <time>2022-05-09T08:06:16Z</time>
      </trkpt>
      <trkpt lat="47.78532" lon="5.09948">
        <ele>400.97</ele>
        <time>2022-05-09T08:06:18Z</time>
      </trkpt>
      <trkpt lat="47.78533" lon="5.09943">
        <ele>401.89</ele>
        <time>2022-05-09T08:06:22Z</time>
      </trkpt>
      <trkpt lat="47.78535" lon="5.0994">
        <ele>402.12</ele>
        <time>2022-05-09T08:06:23Z</time>
      </trkpt>
      <trkpt lat="47.78536" lon="5.09936">
        <ele>402.88</ele>
        <time>2022-05-09T08:06:25Z</time>
      </trkpt>
      <trkpt lat="47.78538" lon="5.09932">
        <ele>403.31</ele>
        <time>2022-05-09T08:06:28Z</time>
      </trkpt>
      <trkpt lat="47.7854" lon="5.09929">
        <ele>403.44</ele>
        <time>2022-05-09T08:06:30Z</time>
      </trkpt>
      <trkpt lat="47.78543" lon="5.09927">
        <ele>402.95</ele>
        <time>2022-05-09T08:06:35Z</time>
      </trkpt>
      <trkpt lat="47.78546" lon="5.09925">
        <ele>402.43</ele>
        <time>2022-05-09T08:06:39Z</time>
      </trkpt>
      <trkpt lat="47.78548" lon="5.09923">
        <ele>402.23</ele>
        <time>2022-05-09T08:06:41Z</time>
      </trkpt>
      <trkpt lat="47.78551" lon="5.09921">
        <ele>401.65</ele>
        <time>2022-05-09T08:06:46Z</time>
      </trkpt>
      <trkpt lat="47.78554" lon="5.09921">
        <ele>400.61</ele>
        <time>2022-05-09T08:06:52Z</time>
      </trkpt>
      <trkpt lat="47.78557" lon="5.09919">
        <ele>400.4</ele>
        <time>2022-05-09T08:06:55Z</time>
      </trkpt>
      <trkpt lat="47.7856" lon="5.09919">
        <ele>400.19</ele>
        <time>2022-05-09T08:06:57Z</time>
      </trkpt>
      <trkpt lat="47.78563" lon="5.09919">
        <ele>399.98</ele>
        <time>2022-05-09T08:07:00Z</time>
      </trkpt>
      <trkpt lat="47.78566" lon="5.09919">
        <ele>399.78</ele>
        <time>2022-05-09T08:07:02Z</time>
      </trkpt>
      <trkpt lat="47.78569" lon="5.09919">
        <ele>399.57</ele>
        <time>2022-05-09T08:07:05Z</time>
      </trkpt>
      <trkpt lat="47.78572" lon="5.09917">
        <ele>399.75</ele>
        <time>2022-05-09T08:07:09Z</time>
      </trkpt>
      <trkpt lat="47.78574" lon="5.09914">
        <ele>400.63</ele>
        <time>2022-05-09T08:07:12Z</time>
      </trkpt>
      <trkpt lat="47.78576" lon="5.09912">
        <ele>401.17</ele>
        <time>2022-05-09T08:07:14Z</time>
      </trkpt>
      <trkpt lat="47.7858" lon="5.09911">
        <ele>401.15</ele>
        <time>2022-05-09T08:07:18Z</time>
      </trkpt>
      <trkpt lat="47.78583" lon="5.09911">
        <ele>400.87</ele>
        <time>2022-05-09T08:07:20Z</time>
      </trkpt>
      <trkpt lat="47.78586" lon="5.09911">
        <ele>401.01</ele>
        <time>2022-05-09T08:07:26Z</time>
      </trkpt>
      <trkpt lat="47.78589" lon="5.0991">
        <ele>401.52</ele>
        <time>2022-05-09T08:07:34Z</time>
      </trkpt>
      <trkpt lat="47.78591" lon="5.09909">
        <ele>401.96</ele>
        <time>2022-05-09T08:07:40Z</time>
      </trkpt>
      <trkpt lat="47.78594" lon="5.09907">
        <ele>402.77</ele>
        <time>2022-05-09T08:07:45Z</time>
      </trkpt>
      <trkpt lat="47.78597" lon="5.09906">
        <ele>403.25</ele>
        <time>2022-05-09T08:07:48Z</time>
      </trkpt>
      <trkpt lat="47.78599" lon="5.09904">
        <ele>403.97</ele>
        <time>2022-05-09T08:07:51Z</time>
      </trkpt>
      <trkpt lat="47.78602" lon="5.09902">
        <ele>404.74</ele>
        <time>2022-05-09T08:07:53Z</time>
      </trkpt>
      <trkpt lat="47.78605" lon="5.09901">
        <ele>405.2</ele>
        <time>2022-05-09T08:07:55Z</time>
      </trkpt>
      <trkpt lat="47.78608" lon="5.09901">
        <ele>405.35</ele>
        <time>2022-05-09T08:07:59Z</time>
      </trkpt>
      <trkpt lat="47.78611" lon="5.09901">
        <ele>405.51</ele>
        <time>2022-05-09T08:08:03Z</time>
      </trkpt>
      <trkpt lat="47.78615" lon="5.09902">
        <ele>405.92</ele>
        <time>2022-05-09T08:08:06Z</time>
      </trkpt>
      <trkpt lat="47.78618" lon="5.09901">
        <ele>406.75</ele>
        <time>2022-05-09T08:08:09Z</time>
      </trkpt>
      <trkpt lat="47.78621" lon="5.09899">
        <ele>407.87</ele>
        <time>2022-05-09T08:08:12Z</time>
      </trkpt>
      <trkpt lat="47.78623" lon="5.09896">
        <ele>409.09</ele>
        <time>2022-05-09T08:08:20Z</time>
      </trkpt>
      <trkpt lat="47.78626" lon="5.09896">
        <ele>409.63</ele>
        <time>2022-05-09T08:08:24Z</time>
      </trkpt>
      <trkpt lat="47.78629" lon="5.09897">
        <ele>409.88</ele>
        <time>2022-05-09T08:08:28Z</time>
      </trkpt>
      <trkpt lat="47.78632" lon="5.09896">
        <ele>410.71</ele>
        <time>2022-05-09T08:08:32Z</time>
      </trkpt>
      <trkpt lat="47.78635" lon="5.09895">
        <ele>411.54</ele>
        <time>2022-05-09T08:08:36Z</time>
      </trkpt>
      <trkpt lat="47.78638" lon="5.09894">
        <ele>412.37</ele>
        <time>2022-05-09T08:08:38Z</time>
      </trkpt>
      <trkpt lat="47.7864" lon="5.09893">
        <ele>413.09</ele>
        <time>2022-05-09T08:08:41Z</time>
      </trkpt>
      <trkpt lat="47.78643" lon="5.09892">
        <ele>414.07</ele>
        <time>2022-05-09T08:08:46Z</time>
      </trkpt>
      <trkpt lat="47.78646" lon="5.0989">
        <ele>415.27</ele>
        <time>2022-05-09T08:08:52Z</time>
      </trkpt>
      <trkpt lat="47.78648" lon="5.09887">
        <ele>416.24</ele>
        <time>2022-05-09T08:08:56Z</time>
      </trkpt>
      <trkpt lat="47.78651" lon="5.09886">
        <ele>417</ele>
        <time>2022-05-09T08:09:04Z</time>
      </trkpt>
      <trkpt lat="47.78654" lon="5.09887">
        <ele>417.49</ele>
        <time>2022-05-09T08:09:09Z</time>
      </trkpt>
      <trkpt lat="47.78657" lon="5.09887">
        <ele>418.12</ele>
        <time>2022-05-09T08:09:14Z</time>
      </trkpt>
      <trkpt lat="47.7866" lon="5.09886">
        <ele>418.84</ele>
        <time>2022-05-09T08:09:17Z</time>
      </trkpt>
      <trkpt lat="47.78663" lon="5.09885">
        <ele>419.54</ele>
        <time>2022-05-09T08:09:21Z</time>
      </trkpt>
      <trkpt lat="47.78666" lon="5.09886">
        <ele>420.07</ele>
        <time>2022-05-09T08:09:27Z</time>
      </trkpt>
      <trkpt lat="47.78669" lon="5.09885">
        <ele>420.82</ele>
        <time>2022-05-09T08:09:31Z</time>
      </trkpt>
      <trkpt lat="47.78671" lon="5.09884">
        <ele>421.37</ele>
        <time>2022-05-09T08:09:34Z</time>
      </trkpt>
      <trkpt lat="47.78674" lon="5.09883">
        <ele>422.18</ele>
        <time>2022-05-09T08:09:40Z</time>
      </trkpt>
      <trkpt lat="47.78678" lon="5.09883">
        <ele>423.13</ele>
        <time>2022-05-09T08:09:45Z</time>
      </trkpt>
      <trkpt lat="47.7868" lon="5.09881">
        <ele>423.86</ele>
        <time>2022-05-09T08:09:48Z</time>
      </trkpt>
      <trkpt lat="47.78683" lon="5.0988">
        <ele>424.73</ele>
        <time>2022-05-09T08:09:54Z</time>
      </trkpt>
      <trkpt lat="47.78686" lon="5.0988">
        <ele>425.48</ele>
        <time>2022-05-09T08:09:58Z</time>
      </trkpt>
      <trkpt lat="47.78689" lon="5.0988">
        <ele>426.24</ele>
        <time>2022-05-09T08:10:05Z</time>
      </trkpt>
      <trkpt lat="47.78692" lon="5.09878">
        <ele>427.33</ele>
        <time>2022-05-09T08:10:09Z</time>
      </trkpt>
      <trkpt lat="47.78694" lon="5.09877">
        <ele>428.02</ele>
        <time>2022-05-09T08:10:22Z</time>
      </trkpt>
      <trkpt lat="47.78697" lon="5.09875">
        <ele>429.47</ele>
        <time>2022-05-09T08:10:34Z</time>
      </trkpt>
      <trkpt lat="47.787" lon="5.09874">
        <ele>430.76</ele>
        <time>2022-05-09T08:10:40Z</time>
      </trkpt>
      <trkpt lat="47.78702" lon="5.09873">
        <ele>431.66</ele>
        <time>2022-05-09T08:10:47Z</time>
      </trkpt>
      <trkpt lat="47.78705" lon="5.09873">
        <ele>432.77</ele>
        <time>2022-05-09T08:10:53Z</time>
      </trkpt>
      <trkpt lat="47.78708" lon="5.09872">
        <ele>434.01</ele>
        <time>2022-05-09T08:10:59Z</time>
      </trkpt>
      <trkpt lat="47.78711" lon="5.09873">
        <ele>434.99</ele>
        <time>2022-05-09T08:11:04Z</time>
      </trkpt>
      <trkpt lat="47.78714" lon="5.09873">
        <ele>436.1</ele>
        <time>2022-05-09T08:11:08Z</time>
      </trkpt>
      <trkpt lat="47.78717" lon="5.09873">
        <ele>437.21</ele>
        <time>2022-05-09T08:11:12Z</time>
      </trkpt>
      <trkpt lat="47.7872" lon="5.09874">
        <ele>438.24</ele>
        <time>2022-05-09T08:11:17Z</time>
      </trkpt>
      <trkpt lat="47.78722" lon="5.09873">
        <ele>439.06</ele>
        <time>2022-05-09T08:11:38Z</time>
      </trkpt>
      <trkpt lat="47.78725" lon="5.09873">
        <ele>439.9</ele>
        <time>2022-05-09T08:11:43Z</time>
      </trkpt>
      <trkpt lat="47.78728" lon="5.09872">
        <ele>440.8</ele>
        <time>2022-05-09T08:11:48Z</time>
      </trkpt>
      <trkpt lat="47.78731" lon="5.09871">
        <ele>441.7</ele>
        <time>2022-05-09T08:11:51Z</time>
      </trkpt>
      <trkpt lat="47.78734" lon="5.09872">
        <ele>442.44</ele>
        <time>2022-05-09T08:11:55Z</time>
      </trkpt>
      <trkpt lat="47.78737" lon="5.09872">
        <ele>443.26</ele>
        <time>2022-05-09T08:12:00Z</time>
      </trkpt>
      <trkpt lat="47.78739" lon="5.0987">
        <ele>444</ele>
        <time>2022-05-09T08:12:06Z</time>
      </trkpt>
      <trkpt lat="47.78741" lon="5.09868">
        <ele>444.74</ele>
        <time>2022-05-09T08:12:20Z</time>
      </trkpt>
      <trkpt lat="47.78744" lon="5.09867">
        <ele>445.68</ele>
        <time>2022-05-09T08:12:27Z</time>
      </trkpt>
      <trkpt lat="47.78747" lon="5.09867">
        <ele>446.52</ele>
        <time>2022-05-09T08:12:33Z</time>
      </trkpt>
      <trkpt lat="47.7875" lon="5.09866">
        <ele>447.47</ele>
        <time>2022-05-09T08:12:39Z</time>
      </trkpt>
      <trkpt lat="47.78752" lon="5.09865">
        <ele>448.01</ele>
        <time>2022-05-09T08:12:46Z</time>
      </trkpt>
      <trkpt lat="47.78756" lon="5.09866">
        <ele>448.77</ele>
        <time>2022-05-09T08:12:52Z</time>
      </trkpt>
      <trkpt lat="47.78758" lon="5.09867">
        <ele>449.09</ele>
        <time>2022-05-09T08:13:01Z</time>
      </trkpt>
      <trkpt lat="47.78761" lon="5.09866">
        <ele>449.85</ele>
        <time>2022-05-09T08:13:07Z</time>
      </trkpt>
      <trkpt lat="47.78764" lon="5.09866">
        <ele>450.5</ele>
        <time>2022-05-09T08:13:15Z</time>
      </trkpt>
      <trkpt lat="47.78767" lon="5.09866">
        <ele>451.14</ele>
        <time>2022-05-09T08:13:20Z</time>
      </trkpt>
      <trkpt lat="47.78769" lon="5.09865">
        <ele>451.68</ele>
        <time>2022-05-09T08:13:24Z</time>
      </trkpt>
      <trkpt lat="47.78772" lon="5.09863">
        <ele>452.55</ele>
        <time>2022-05-09T08:13:28Z</time>
      </trkpt>
      <trkpt lat="47.78774" lon="5.09861">
        <ele>453.18</ele>
        <time>2022-05-09T08:13:31Z</time>
      </trkpt>
      <trkpt lat="47.78777" lon="5.09859">
        <ele>453.76</ele>
        <time>2022-05-09T08:13:35Z</time>
      </trkpt>
      <trkpt lat="47.7878" lon="5.09859">
        <ele>453.94</ele>
        <time>2022-05-09T08:13:39Z</time>
      </trkpt>
      <trkpt lat="47.78782" lon="5.09859">
        <ele>453.96</ele>
        <time>2022-05-09T08:13:43Z</time>
      </trkpt>
      <trkpt lat="47.78785" lon="5.09858">
        <ele>453.98</ele>
        <time>2022-05-09T08:13:46Z</time>
      </trkpt>
      <trkpt lat="47.78788" lon="5.09857">
        <ele>454.02</ele>
        <time>2022-05-09T08:13:51Z</time>
      </trkpt>
      <trkpt lat="47.78791" lon="5.09854">
        <ele>454.11</ele>
        <time>2022-05-09T08:13:57Z</time>
      </trkpt>
      <trkpt lat="47.78793" lon="5.09853">
        <ele>454.19</ele>
        <time>2022-05-09T08:13:59Z</time>
      </trkpt>
      <trkpt lat="47.78796" lon="5.09853">
        <ele>454.28</ele>
        <time>2022-05-09T08:14:02Z</time>
      </trkpt>
      <trkpt lat="47.78799" lon="5.09852">
        <ele>454.42</ele>
        <time>2022-05-09T08:14:09Z</time>
      </trkpt>
      <trkpt lat="47.78802" lon="5.0985">
        <ele>454.65</ele>
        <time>2022-05-09T08:14:15Z</time>
      </trkpt>
      <trkpt lat="47.78805" lon="5.09848">
        <ele>454.92</ele>
        <time>2022-05-09T08:14:18Z</time>
      </trkpt>
      <trkpt lat="47.78808" lon="5.09846">
        <ele>455.08</ele>
        <time>2022-05-09T08:14:22Z</time>
      </trkpt>
      <trkpt lat="47.7881" lon="5.09845">
        <ele>455.13</ele>
        <time>2022-05-09T08:14:25Z</time>
      </trkpt>
      <trkpt lat="47.78813" lon="5.09847">
        <ele>455.01</ele>
        <time>2022-05-09T08:14:29Z</time>
      </trkpt>
      <trkpt lat="47.78815" lon="5.0985">
        <ele>454.87</ele>
        <time>2022-05-09T08:14:33Z</time>
      </trkpt>
      <trkpt lat="47.78817" lon="5.09854">
        <ele>454.71</ele>
        <time>2022-05-09T08:14:38Z</time>
      </trkpt>
      <trkpt lat="47.78819" lon="5.09857">
        <ele>454.64</ele>
        <time>2022-05-09T08:14:41Z</time>
      </trkpt>
      <trkpt lat="47.78821" lon="5.0986">
        <ele>454.59</ele>
        <time>2022-05-09T08:14:44Z</time>
      </trkpt>
      <trkpt lat="47.78822" lon="5.09865">
        <ele>454.25</ele>
        <time>2022-05-09T08:14:49Z</time>
      </trkpt>
      <trkpt lat="47.78823" lon="5.09869">
        <ele>453.95</ele>
        <time>2022-05-09T08:14:52Z</time>
      </trkpt>
      <trkpt lat="47.78824" lon="5.09873">
        <ele>453.66</ele>
        <time>2022-05-09T08:14:57Z</time>
      </trkpt>
      <trkpt lat="47.78824" lon="5.09877">
        <ele>453.33</ele>
        <time>2022-05-09T08:14:58Z</time>
      </trkpt>
      <trkpt lat="47.78825" lon="5.09881">
        <ele>453.05</ele>
        <time>2022-05-09T08:15:06Z</time>
      </trkpt>
      <trkpt lat="47.78826" lon="5.09886">
        <ele>452.71</ele>
        <time>2022-05-09T08:15:48Z</time>
      </trkpt>
      <trkpt lat="47.78827" lon="5.09889">
        <ele>452.54</ele>
        <time>2022-05-09T08:15:51Z</time>
      </trkpt>
      <trkpt lat="47.78827" lon="5.09893">
        <ele>452.32</ele>
        <time>2022-05-09T08:16:08Z</time>
      </trkpt>
      <trkpt lat="47.78824" lon="5.09891">
        <ele>452.23</ele>
        <time>2022-05-09T08:16:12Z</time>
      </trkpt>
      <trkpt lat="47.78822" lon="5.09887">
        <ele>452.35</ele>
        <time>2022-05-09T08:16:19Z</time>
      </trkpt>
      <trkpt lat="47.78822" lon="5.09883">
        <ele>452.69</ele>
        <time>2022-05-09T08:16:22Z</time>
      </trkpt>
      <trkpt lat="47.78821" lon="5.09879">
        <ele>452.98</ele>
        <time>2022-05-09T08:16:28Z</time>
      </trkpt>
      <trkpt lat="47.78821" lon="5.09874">
        <ele>453.42</ele>
        <time>2022-05-09T08:16:34Z</time>
      </trkpt>
      <trkpt lat="47.78821" lon="5.0987">
        <ele>453.77</ele>
        <time>2022-05-09T08:16:47Z</time>
      </trkpt>
      <trkpt lat="47.78822" lon="5.09865">
        <ele>454.25</ele>
        <time>2022-05-09T08:17:20Z</time>
      </trkpt>
      <trkpt lat="47.78821" lon="5.09859">
        <ele>454.62</ele>
        <time>2022-05-09T08:17:23Z</time>
      </trkpt>
      <trkpt lat="47.78821" lon="5.09855">
        <ele>454.75</ele>
        <time>2022-05-09T08:17:31Z</time>
      </trkpt>
      <trkpt lat="47.7882" lon="5.09851">
        <ele>454.87</ele>
        <time>2022-05-09T08:18:58Z</time>
      </trkpt>
      <trkpt lat="47.78822" lon="5.09854">
        <ele>454.8</ele>
        <time>2022-05-09T08:20:00Z</time>
      </trkpt>
      <trkpt lat="47.78823" lon="5.0985">
        <ele>454.93</ele>
        <time>2022-05-09T08:20:12Z</time>
      </trkpt>
      <trkpt lat="47.78825" lon="5.09847">
        <ele>455</ele>
        <time>2022-05-09T08:20:17Z</time>
      </trkpt>
      <trkpt lat="47.78827" lon="5.09844">
        <ele>455.05</ele>
        <time>2022-05-09T08:20:22Z</time>
      </trkpt>
      <trkpt lat="47.7883" lon="5.09843">
        <ele>455.04</ele>
        <time>2022-05-09T08:20:27Z</time>
      </trkpt>
      <trkpt lat="47.78833" lon="5.09842">
        <ele>455</ele>
        <time>2022-05-09T08:20:31Z</time>
      </trkpt>
      <trkpt lat="47.78835" lon="5.0984">
        <ele>455.01</ele>
        <time>2022-05-09T08:20:34Z</time>
      </trkpt>
      <trkpt lat="47.78838" lon="5.09839">
        <ele>455.03</ele>
        <time>2022-05-09T08:20:37Z</time>
      </trkpt>
      <trkpt lat="47.78841" lon="5.09838">
        <ele>455.05</ele>
        <time>2022-05-09T08:20:42Z</time>
      </trkpt>
      <trkpt lat="47.78844" lon="5.09837">
        <ele>455.05</ele>
        <time>2022-05-09T08:20:46Z</time>
      </trkpt>
      <trkpt lat="47.78847" lon="5.09836">
        <ele>455.05</ele>
        <time>2022-05-09T08:20:50Z</time>
      </trkpt>
      <trkpt lat="47.7885" lon="5.09835">
        <ele>455.04</ele>
        <time>2022-05-09T08:20:53Z</time>
      </trkpt>
      <trkpt lat="47.78853" lon="5.09835">
        <ele>455.04</ele>
        <time>2022-05-09T08:20:55Z</time>
      </trkpt>
      <trkpt lat="47.78856" lon="5.09834">
        <ele>455.02</ele>
        <time>2022-05-09T08:20:58Z</time>
      </trkpt>
      <trkpt lat="47.78858" lon="5.09833">
        <ele>455</ele>
        <time>2022-05-09T08:21:02Z</time>
      </trkpt>
      <trkpt lat="47.78861" lon="5.09831">
        <ele>455</ele>
        <time>2022-05-09T08:21:03Z</time>
      </trkpt>
      <trkpt lat="47.78864" lon="5.0983">
        <ele>455.22</ele>
        <time>2022-05-09T08:21:07Z</time>
      </trkpt>
      <trkpt lat="47.78868" lon="5.0983">
        <ele>455.53</ele>
        <time>2022-05-09T08:21:11Z</time>
      </trkpt>
      <trkpt lat="47.7887" lon="5.0983">
        <ele>455.68</ele>
        <time>2022-05-09T08:21:13Z</time>
      </trkpt>
      <trkpt lat="47.78874" lon="5.09829">
        <ele>456</ele>
        <time>2022-05-09T08:21:16Z</time>
      </trkpt>
      <trkpt lat="47.78877" lon="5.09827">
        <ele>456.27</ele>
        <time>2022-05-09T08:21:19Z</time>
      </trkpt>
      <trkpt lat="47.7888" lon="5.09826">
        <ele>456.54</ele>
        <time>2022-05-09T08:21:22Z</time>
      </trkpt>
      <trkpt lat="47.78882" lon="5.09825">
        <ele>456.73</ele>
        <time>2022-05-09T08:21:23Z</time>
      </trkpt>
      <trkpt lat="47.78885" lon="5.09823">
        <ele>457.04</ele>
        <time>2022-05-09T08:21:28Z</time>
      </trkpt>
      <trkpt lat="47.78888" lon="5.09822">
        <ele>457.33</ele>
        <time>2022-05-09T08:21:30Z</time>
      </trkpt>
      <trkpt lat="47.78891" lon="5.09821">
        <ele>457.56</ele>
        <time>2022-05-09T08:21:34Z</time>
      </trkpt>
      <trkpt lat="47.78894" lon="5.0982">
        <ele>457.76</ele>
        <time>2022-05-09T08:21:37Z</time>
      </trkpt>
      <trkpt lat="47.78897" lon="5.09819">
        <ele>457.95</ele>
        <time>2022-05-09T08:21:41Z</time>
      </trkpt>
      <trkpt lat="47.789" lon="5.09818">
        <ele>458.13</ele>
        <time>2022-05-09T08:21:43Z</time>
      </trkpt>
      <trkpt lat="47.78903" lon="5.09818">
        <ele>458.29</ele>
        <time>2022-05-09T08:21:47Z</time>
      </trkpt>
      <trkpt lat="47.78906" lon="5.09818">
        <ele>458.44</ele>
        <time>2022-05-09T08:21:50Z</time>
      </trkpt>
      <trkpt lat="47.78908" lon="5.09818">
        <ele>458.55</ele>
        <time>2022-05-09T08:21:52Z</time>
      </trkpt>
      <trkpt lat="47.78912" lon="5.09818">
        <ele>458.76</ele>
        <time>2022-05-09T08:21:56Z</time>
      </trkpt>
      <trkpt lat="47.78915" lon="5.09818">
        <ele>458.91</ele>
        <time>2022-05-09T08:21:58Z</time>
      </trkpt>
      <trkpt lat="47.78918" lon="5.09816">
        <ele>459.17</ele>
        <time>2022-05-09T08:22:00Z</time>
      </trkpt>
      <trkpt lat="47.78922" lon="5.09816">
        <ele>459.7</ele>
        <time>2022-05-09T08:22:03Z</time>
      </trkpt>
      <trkpt lat="47.78924" lon="5.09815">
        <ele>459.97</ele>
        <time>2022-05-09T08:22:06Z</time>
      </trkpt>
      <trkpt lat="47.78927" lon="5.09814">
        <ele>460.37</ele>
        <time>2022-05-09T08:22:10Z</time>
      </trkpt>
      <trkpt lat="47.7893" lon="5.09812">
        <ele>460.81</ele>
        <time>2022-05-09T08:22:14Z</time>
      </trkpt>
      <trkpt lat="47.78933" lon="5.09812">
        <ele>461.22</ele>
        <time>2022-05-09T08:22:17Z</time>
      </trkpt>
      <trkpt lat="47.78936" lon="5.09811">
        <ele>461.65</ele>
        <time>2022-05-09T08:22:21Z</time>
      </trkpt>
      <trkpt lat="47.78939" lon="5.09809">
        <ele>462.12</ele>
        <time>2022-05-09T08:22:24Z</time>
      </trkpt>
      <trkpt lat="47.78942" lon="5.09808">
        <ele>462.57</ele>
        <time>2022-05-09T08:22:28Z</time>
      </trkpt>
      <trkpt lat="47.78945" lon="5.09808">
        <ele>462.93</ele>
        <time>2022-05-09T08:22:32Z</time>
      </trkpt>
      <trkpt lat="47.78948" lon="5.09807">
        <ele>463.08</ele>
        <time>2022-05-09T08:22:34Z</time>
      </trkpt>
      <trkpt lat="47.78951" lon="5.09806">
        <ele>463.22</ele>
        <time>2022-05-09T08:22:39Z</time>
      </trkpt>
      <trkpt lat="47.78954" lon="5.09806">
        <ele>463.33</ele>
        <time>2022-05-09T08:22:41Z</time>
      </trkpt>
      <trkpt lat="47.78958" lon="5.09806">
        <ele>463.47</ele>
        <time>2022-05-09T08:22:46Z</time>
      </trkpt>
      <trkpt lat="47.78961" lon="5.09805">
        <ele>463.58</ele>
        <time>2022-05-09T08:22:48Z</time>
      </trkpt>
      <trkpt lat="47.78964" lon="5.09804">
        <ele>463.67</ele>
        <time>2022-05-09T08:22:50Z</time>
      </trkpt>
      <trkpt lat="47.78967" lon="5.09803">
        <ele>463.78</ele>
        <time>2022-05-09T08:22:52Z</time>
      </trkpt>
      <trkpt lat="47.7897" lon="5.09802">
        <ele>463.9</ele>
        <time>2022-05-09T08:22:54Z</time>
      </trkpt>
      <trkpt lat="47.78973" lon="5.09801">
        <ele>464.06</ele>
        <time>2022-05-09T08:22:56Z</time>
      </trkpt>
      <trkpt lat="47.78976" lon="5.098">
        <ele>464.3</ele>
        <time>2022-05-09T08:23:00Z</time>
      </trkpt>
      <trkpt lat="47.78979" lon="5.09799">
        <ele>464.55</ele>
        <time>2022-05-09T08:23:03Z</time>
      </trkpt>
      <trkpt lat="47.78982" lon="5.09797">
        <ele>464.81</ele>
        <time>2022-05-09T08:23:06Z</time>
      </trkpt>
      <trkpt lat="47.78985" lon="5.09797">
        <ele>465.06</ele>
        <time>2022-05-09T08:23:07Z</time>
      </trkpt>
      <trkpt lat="47.78987" lon="5.09796">
        <ele>465.25</ele>
        <time>2022-05-09T08:23:09Z</time>
      </trkpt>
      <trkpt lat="47.78991" lon="5.09795">
        <ele>465.61</ele>
        <time>2022-05-09T08:23:12Z</time>
      </trkpt>
      <trkpt lat="47.78994" lon="5.09795">
        <ele>465.87</ele>
        <time>2022-05-09T08:23:16Z</time>
      </trkpt>
      <trkpt lat="47.78997" lon="5.09794">
        <ele>466.16</ele>
        <time>2022-05-09T08:23:21Z</time>
      </trkpt>
      <trkpt lat="47.79" lon="5.09793">
        <ele>466.45</ele>
        <time>2022-05-09T08:23:23Z</time>
      </trkpt>
      <trkpt lat="47.79003" lon="5.09792">
        <ele>466.76</ele>
        <time>2022-05-09T08:23:26Z</time>
      </trkpt>
      <trkpt lat="47.79006" lon="5.09791">
        <ele>467.07</ele>
        <time>2022-05-09T08:23:29Z</time>
      </trkpt>
      <trkpt lat="47.79009" lon="5.09789">
        <ele>467.44</ele>
        <time>2022-05-09T08:23:31Z</time>
      </trkpt>
      <trkpt lat="47.79012" lon="5.09787">
        <ele>467.82</ele>
        <time>2022-05-09T08:23:35Z</time>
      </trkpt>
      <trkpt lat="47.79015" lon="5.09786">
        <ele>468.16</ele>
        <time>2022-05-09T08:23:38Z</time>
      </trkpt>
      <trkpt lat="47.79017" lon="5.09785">
        <ele>468.42</ele>
        <time>2022-05-09T08:23:40Z</time>
      </trkpt>
      <trkpt lat="47.7902" lon="5.09785">
        <ele>468.71</ele>
        <time>2022-05-09T08:23:44Z</time>
      </trkpt>
      <trkpt lat="47.79024" lon="5.09786">
        <ele>469.04</ele>
        <time>2022-05-09T08:23:48Z</time>
      </trkpt>
      <trkpt lat="47.79026" lon="5.09786">
        <ele>469.23</ele>
        <time>2022-05-09T08:23:51Z</time>
      </trkpt>
      <trkpt lat="47.7903" lon="5.09786">
        <ele>469.35</ele>
        <time>2022-05-09T08:23:53Z</time>
      </trkpt>
      <trkpt lat="47.79032" lon="5.09785">
        <ele>469.37</ele>
        <time>2022-05-09T08:23:56Z</time>
      </trkpt>
      <trkpt lat="47.79035" lon="5.09782">
        <ele>469.48</ele>
        <time>2022-05-09T08:23:59Z</time>
      </trkpt>
      <trkpt lat="47.79037" lon="5.09781">
        <ele>469.47</ele>
        <time>2022-05-09T08:24:08Z</time>
      </trkpt>
      <trkpt lat="47.7904" lon="5.09779">
        <ele>469.49</ele>
        <time>2022-05-09T08:24:13Z</time>
      </trkpt>
      <trkpt lat="47.79042" lon="5.09775">
        <ele>469.44</ele>
        <time>2022-05-09T08:24:16Z</time>
      </trkpt>
      <trkpt lat="47.79043" lon="5.09771">
        <ele>469.34</ele>
        <time>2022-05-09T08:24:19Z</time>
      </trkpt>
      <trkpt lat="47.79044" lon="5.09767">
        <ele>469.25</ele>
        <time>2022-05-09T08:24:22Z</time>
      </trkpt>
      <trkpt lat="47.79045" lon="5.09763">
        <ele>469.18</ele>
        <time>2022-05-09T08:24:25Z</time>
      </trkpt>
      <trkpt lat="47.79047" lon="5.09759">
        <ele>469.1</ele>
        <time>2022-05-09T08:24:27Z</time>
      </trkpt>
      <trkpt lat="47.79048" lon="5.09755">
        <ele>469.05</ele>
        <time>2022-05-09T08:24:29Z</time>
      </trkpt>
      <trkpt lat="47.7905" lon="5.0975">
        <ele>469</ele>
        <time>2022-05-09T08:24:33Z</time>
      </trkpt>
      <trkpt lat="47.79052" lon="5.09746">
        <ele>469</ele>
        <time>2022-05-09T08:24:36Z</time>
      </trkpt>
      <trkpt lat="47.79053" lon="5.09742">
        <ele>469</ele>
        <time>2022-05-09T08:24:38Z</time>
      </trkpt>
      <trkpt lat="47.79054" lon="5.09737">
        <ele>469</ele>
        <time>2022-05-09T08:24:40Z</time>
      </trkpt>
      <trkpt lat="47.79055" lon="5.09733">
        <ele>469</ele>
        <time>2022-05-09T08:24:44Z</time>
      </trkpt>
      <trkpt lat="47.79057" lon="5.0973">
        <ele>468.84</ele>
        <time>2022-05-09T08:24:46Z</time>
      </trkpt>
      <trkpt lat="47.79059" lon="5.09726">
        <ele>468.63</ele>
        <time>2022-05-09T08:24:50Z</time>
      </trkpt>
      <trkpt lat="47.7906" lon="5.09721">
        <ele>468.48</ele>
        <time>2022-05-09T08:24:53Z</time>
      </trkpt>
      <trkpt lat="47.79061" lon="5.09717">
        <ele>468.26</ele>
        <time>2022-05-09T08:24:56Z</time>
      </trkpt>
      <trkpt lat="47.79062" lon="5.09712">
        <ele>468.02</ele>
        <time>2022-05-09T08:24:59Z</time>
      </trkpt>
      <trkpt lat="47.79063" lon="5.09708">
        <ele>467.82</ele>
        <time>2022-05-09T08:25:01Z</time>
      </trkpt>
      <trkpt lat="47.79063" lon="5.09704">
        <ele>467.72</ele>
        <time>2022-05-09T08:25:04Z</time>
      </trkpt>
      <trkpt lat="47.79064" lon="5.097">
        <ele>467.53</ele>
        <time>2022-05-09T08:25:06Z</time>
      </trkpt>
      <trkpt lat="47.79065" lon="5.09696">
        <ele>467.36</ele>
        <time>2022-05-09T08:25:08Z</time>
      </trkpt>
      <trkpt lat="47.79066" lon="5.09692">
        <ele>467.25</ele>
        <time>2022-05-09T08:25:11Z</time>
      </trkpt>
      <trkpt lat="47.79067" lon="5.09687">
        <ele>467.18</ele>
        <time>2022-05-09T08:25:14Z</time>
      </trkpt>
      <trkpt lat="47.79068" lon="5.09683">
        <ele>467.1</ele>
        <time>2022-05-09T08:25:16Z</time>
      </trkpt>
      <trkpt lat="47.79068" lon="5.09679">
        <ele>467.1</ele>
        <time>2022-05-09T08:25:19Z</time>
      </trkpt>
      <trkpt lat="47.79069" lon="5.09674">
        <ele>467.03</ele>
        <time>2022-05-09T08:25:21Z</time>
      </trkpt>
      <trkpt lat="47.7907" lon="5.0967">
        <ele>466.96</ele>
        <time>2022-05-09T08:25:23Z</time>
      </trkpt>
      <trkpt lat="47.79071" lon="5.09666">
        <ele>466.9</ele>
        <time>2022-05-09T08:25:27Z</time>
      </trkpt>
      <trkpt lat="47.79071" lon="5.09661">
        <ele>467</ele>
        <time>2022-05-09T08:25:32Z</time>
      </trkpt>
      <trkpt lat="47.79072" lon="5.09656">
        <ele>467.04</ele>
        <time>2022-05-09T08:25:35Z</time>
      </trkpt>
      <trkpt lat="47.79073" lon="5.09651">
        <ele>467.1</ele>
        <time>2022-05-09T08:25:38Z</time>
      </trkpt>
      <trkpt lat="47.79074" lon="5.09647">
        <ele>467.14</ele>
        <time>2022-05-09T08:25:41Z</time>
      </trkpt>
      <trkpt lat="47.79074" lon="5.09643">
        <ele>467.24</ele>
        <time>2022-05-09T08:25:44Z</time>
      </trkpt>
      <trkpt lat="47.79076" lon="5.09639">
        <ele>467.26</ele>
        <time>2022-05-09T08:25:48Z</time>
      </trkpt>
      <trkpt lat="47.79077" lon="5.09635">
        <ele>467.37</ele>
        <time>2022-05-09T08:25:50Z</time>
      </trkpt>
      <trkpt lat="47.79078" lon="5.0963">
        <ele>467.51</ele>
        <time>2022-05-09T08:25:53Z</time>
      </trkpt>
      <trkpt lat="47.79079" lon="5.09626">
        <ele>467.62</ele>
        <time>2022-05-09T08:25:56Z</time>
      </trkpt>
      <trkpt lat="47.7908" lon="5.09621">
        <ele>467.76</ele>
        <time>2022-05-09T08:25:57Z</time>
      </trkpt>
      <trkpt lat="47.7908" lon="5.09617">
        <ele>467.91</ele>
        <time>2022-05-09T08:26:00Z</time>
      </trkpt>
      <trkpt lat="47.79081" lon="5.09612">
        <ele>468.05</ele>
        <time>2022-05-09T08:26:03Z</time>
      </trkpt>
      <trkpt lat="47.79083" lon="5.09608">
        <ele>468.12</ele>
        <time>2022-05-09T08:26:06Z</time>
      </trkpt>
      <trkpt lat="47.79084" lon="5.09603">
        <ele>468.26</ele>
        <time>2022-05-09T08:26:09Z</time>
      </trkpt>
      <trkpt lat="47.79085" lon="5.096">
        <ele>468.32</ele>
        <time>2022-05-09T08:26:12Z</time>
      </trkpt>
      <trkpt lat="47.79086" lon="5.09595">
        <ele>468.43</ele>
        <time>2022-05-09T08:26:15Z</time>
      </trkpt>
      <trkpt lat="47.79087" lon="5.09591">
        <ele>468.5</ele>
        <time>2022-05-09T08:26:18Z</time>
      </trkpt>
      <trkpt lat="47.79089" lon="5.09587">
        <ele>468.49</ele>
        <time>2022-05-09T08:26:20Z</time>
      </trkpt>
      <trkpt lat="47.7909" lon="5.09583">
        <ele>468.54</ele>
        <time>2022-05-09T08:26:23Z</time>
      </trkpt>
      <trkpt lat="47.79091" lon="5.09579">
        <ele>468.72</ele>
        <time>2022-05-09T08:26:26Z</time>
      </trkpt>
      <trkpt lat="47.79092" lon="5.09573">
        <ele>469</ele>
        <time>2022-05-09T08:26:29Z</time>
      </trkpt>
      <trkpt lat="47.79093" lon="5.09568">
        <ele>469.22</ele>
        <time>2022-05-09T08:26:32Z</time>
      </trkpt>
      <trkpt lat="47.79093" lon="5.09564">
        <ele>469.45</ele>
        <time>2022-05-09T08:26:34Z</time>
      </trkpt>
      <trkpt lat="47.79093" lon="5.09559">
        <ele>469.75</ele>
        <time>2022-05-09T08:26:37Z</time>
      </trkpt>
      <trkpt lat="47.79093" lon="5.09555">
        <ele>469.92</ele>
        <time>2022-05-09T08:26:39Z</time>
      </trkpt>
      <trkpt lat="47.79094" lon="5.09549">
        <ele>469.47</ele>
        <time>2022-05-09T08:26:43Z</time>
      </trkpt>
      <trkpt lat="47.79095" lon="5.09545">
        <ele>469.14</ele>
        <time>2022-05-09T08:26:45Z</time>
      </trkpt>
      <trkpt lat="47.79096" lon="5.0954">
        <ele>468.77</ele>
        <time>2022-05-09T08:26:47Z</time>
      </trkpt>
      <trkpt lat="47.79097" lon="5.09536">
        <ele>468.46</ele>
        <time>2022-05-09T08:26:50Z</time>
      </trkpt>
      <trkpt lat="47.79098" lon="5.09532">
        <ele>468.17</ele>
        <time>2022-05-09T08:26:52Z</time>
      </trkpt>
      <trkpt lat="47.79099" lon="5.09527">
        <ele>467.86</ele>
        <time>2022-05-09T08:26:56Z</time>
      </trkpt>
      <trkpt lat="47.791" lon="5.09524">
        <ele>467.72</ele>
        <time>2022-05-09T08:26:57Z</time>
      </trkpt>
      <trkpt lat="47.79102" lon="5.0952">
        <ele>467.47</ele>
        <time>2022-05-09T08:26:59Z</time>
      </trkpt>
      <trkpt lat="47.79102" lon="5.09516">
        <ele>467.37</ele>
        <time>2022-05-09T08:27:02Z</time>
      </trkpt>
      <trkpt lat="47.79104" lon="5.0951">
        <ele>467.04</ele>
        <time>2022-05-09T08:27:05Z</time>
      </trkpt>
      <trkpt lat="47.79105" lon="5.09506">
        <ele>466.83</ele>
        <time>2022-05-09T08:27:08Z</time>
      </trkpt>
      <trkpt lat="47.79106" lon="5.09502">
        <ele>466.61</ele>
        <time>2022-05-09T08:27:09Z</time>
      </trkpt>
      <trkpt lat="47.79107" lon="5.09498">
        <ele>466.3</ele>
        <time>2022-05-09T08:27:13Z</time>
      </trkpt>
      <trkpt lat="47.79108" lon="5.09494">
        <ele>465.9</ele>
        <time>2022-05-09T08:27:15Z</time>
      </trkpt>
      <trkpt lat="47.7911" lon="5.0949">
        <ele>465.4</ele>
        <time>2022-05-09T08:27:19Z</time>
      </trkpt>
      <trkpt lat="47.79111" lon="5.09486">
        <ele>465</ele>
        <time>2022-05-09T08:27:22Z</time>
      </trkpt>
      <trkpt lat="47.79112" lon="5.09482">
        <ele>464.65</ele>
        <time>2022-05-09T08:27:23Z</time>
      </trkpt>
      <trkpt lat="47.79113" lon="5.09478">
        <ele>464.29</ele>
        <time>2022-05-09T08:27:26Z</time>
      </trkpt>
      <trkpt lat="47.79114" lon="5.09474">
        <ele>463.93</ele>
        <time>2022-05-09T08:27:27Z</time>
      </trkpt>
      <trkpt lat="47.79115" lon="5.0947">
        <ele>463.66</ele>
        <time>2022-05-09T08:27:30Z</time>
      </trkpt>
      <trkpt lat="47.79117" lon="5.09465">
        <ele>463.43</ele>
        <time>2022-05-09T08:27:34Z</time>
      </trkpt>
      <trkpt lat="47.79118" lon="5.09461">
        <ele>463.3</ele>
        <time>2022-05-09T08:27:37Z</time>
      </trkpt>
      <trkpt lat="47.7912" lon="5.09456">
        <ele>463.15</ele>
        <time>2022-05-09T08:27:40Z</time>
      </trkpt>
      <trkpt lat="47.79121" lon="5.09452">
        <ele>463.08</ele>
        <time>2022-05-09T08:27:42Z</time>
      </trkpt>
      <trkpt lat="47.79121" lon="5.09448">
        <ele>463.04</ele>
        <time>2022-05-09T08:27:45Z</time>
      </trkpt>
      <trkpt lat="47.79122" lon="5.09443">
        <ele>463.04</ele>
        <time>2022-05-09T08:27:48Z</time>
      </trkpt>
      <trkpt lat="47.79122" lon="5.09438">
        <ele>463.19</ele>
        <time>2022-05-09T08:27:51Z</time>
      </trkpt>
      <trkpt lat="47.79123" lon="5.09434">
        <ele>463.27</ele>
        <time>2022-05-09T08:27:53Z</time>
      </trkpt>
      <trkpt lat="47.79124" lon="5.0943">
        <ele>463.32</ele>
        <time>2022-05-09T08:27:57Z</time>
      </trkpt>
      <trkpt lat="47.79125" lon="5.09426">
        <ele>463.33</ele>
        <time>2022-05-09T08:27:59Z</time>
      </trkpt>
      <trkpt lat="47.79127" lon="5.09422">
        <ele>463.23</ele>
        <time>2022-05-09T08:28:02Z</time>
      </trkpt>
      <trkpt lat="47.79127" lon="5.09417">
        <ele>463.28</ele>
        <time>2022-05-09T08:28:04Z</time>
      </trkpt>
      <trkpt lat="47.79128" lon="5.09412">
        <ele>463.31</ele>
        <time>2022-05-09T08:28:08Z</time>
      </trkpt>
      <trkpt lat="47.79129" lon="5.09407">
        <ele>463.32</ele>
        <time>2022-05-09T08:28:11Z</time>
      </trkpt>
      <trkpt lat="47.7913" lon="5.09403">
        <ele>463.27</ele>
        <time>2022-05-09T08:28:13Z</time>
      </trkpt>
      <trkpt lat="47.79131" lon="5.09398">
        <ele>463.23</ele>
        <time>2022-05-09T08:28:16Z</time>
      </trkpt>
      <trkpt lat="47.79132" lon="5.09394">
        <ele>463.15</ele>
        <time>2022-05-09T08:28:17Z</time>
      </trkpt>
      <trkpt lat="47.79133" lon="5.0939">
        <ele>463.04</ele>
        <time>2022-05-09T08:28:21Z</time>
      </trkpt>
      <trkpt lat="47.79133" lon="5.09385">
        <ele>463.06</ele>
        <time>2022-05-09T08:28:23Z</time>
      </trkpt>
      <trkpt lat="47.79134" lon="5.09381">
        <ele>462.88</ele>
        <time>2022-05-09T08:28:26Z</time>
      </trkpt>
      <trkpt lat="47.79135" lon="5.09377">
        <ele>462.7</ele>
        <time>2022-05-09T08:28:29Z</time>
      </trkpt>
      <trkpt lat="47.79136" lon="5.09372">
        <ele>462.52</ele>
        <time>2022-05-09T08:28:32Z</time>
      </trkpt>
      <trkpt lat="47.79137" lon="5.09368">
        <ele>462.34</ele>
        <time>2022-05-09T08:28:35Z</time>
      </trkpt>
      <trkpt lat="47.79138" lon="5.09364">
        <ele>462.16</ele>
        <time>2022-05-09T08:28:38Z</time>
      </trkpt>
      <trkpt lat="47.79139" lon="5.0936">
        <ele>462</ele>
        <time>2022-05-09T08:28:41Z</time>
      </trkpt>
      <trkpt lat="47.79139" lon="5.09355">
        <ele>462</ele>
        <time>2022-05-09T08:28:45Z</time>
      </trkpt>
      <trkpt lat="47.79139" lon="5.09351">
        <ele>462</ele>
        <time>2022-05-09T08:28:48Z</time>
      </trkpt>
      <trkpt lat="47.79139" lon="5.09346">
        <ele>462</ele>
        <time>2022-05-09T08:28:50Z</time>
      </trkpt>
      <trkpt lat="47.79139" lon="5.09341">
        <ele>462</ele>
        <time>2022-05-09T08:28:55Z</time>
      </trkpt>
      <trkpt lat="47.7914" lon="5.09337">
        <ele>462.01</ele>
        <time>2022-05-09T08:28:57Z</time>
      </trkpt>
      <trkpt lat="47.79141" lon="5.09331">
        <ele>461.91</ele>
        <time>2022-05-09T08:29:01Z</time>
      </trkpt>
      <trkpt lat="47.79142" lon="5.09327">
        <ele>461.75</ele>
        <time>2022-05-09T08:29:03Z</time>
      </trkpt>
      <trkpt lat="47.79143" lon="5.09323">
        <ele>461.57</ele>
        <time>2022-05-09T08:29:06Z</time>
      </trkpt>
      <trkpt lat="47.79144" lon="5.09319">
        <ele>461.39</ele>
        <time>2022-05-09T08:29:08Z</time>
      </trkpt>
      <trkpt lat="47.79146" lon="5.09315">
        <ele>461.17</ele>
        <time>2022-05-09T08:29:10Z</time>
      </trkpt>
      <trkpt lat="47.79147" lon="5.09311">
        <ele>460.96</ele>
        <time>2022-05-09T08:29:13Z</time>
      </trkpt>
      <trkpt lat="47.79148" lon="5.09306">
        <ele>460.69</ele>
        <time>2022-05-09T08:29:16Z</time>
      </trkpt>
      <trkpt lat="47.79149" lon="5.09302">
        <ele>460.76</ele>
        <time>2022-05-09T08:29:18Z</time>
      </trkpt>
      <trkpt lat="47.79151" lon="5.09297">
        <ele>460.87</ele>
        <time>2022-05-09T08:29:21Z</time>
      </trkpt>
      <trkpt lat="47.79152" lon="5.09293">
        <ele>460.98</ele>
        <time>2022-05-09T08:29:24Z</time>
      </trkpt>
      <trkpt lat="47.79153" lon="5.09289">
        <ele>461.09</ele>
        <time>2022-05-09T08:29:25Z</time>
      </trkpt>
      <trkpt lat="47.79154" lon="5.09285">
        <ele>461.2</ele>
        <time>2022-05-09T08:29:28Z</time>
      </trkpt>
      <trkpt lat="47.79155" lon="5.09281">
        <ele>461.3</ele>
        <time>2022-05-09T08:29:31Z</time>
      </trkpt>
      <trkpt lat="47.79155" lon="5.09276">
        <ele>461.38</ele>
        <time>2022-05-09T08:29:33Z</time>
      </trkpt>
      <trkpt lat="47.79156" lon="5.09272">
        <ele>461.26</ele>
        <time>2022-05-09T08:29:36Z</time>
      </trkpt>
      <trkpt lat="47.79157" lon="5.09268">
        <ele>461.12</ele>
        <time>2022-05-09T08:29:40Z</time>
      </trkpt>
      <trkpt lat="47.79158" lon="5.09264">
        <ele>460.97</ele>
        <time>2022-05-09T08:29:43Z</time>
      </trkpt>
      <trkpt lat="47.79159" lon="5.0926">
        <ele>460.81</ele>
        <time>2022-05-09T08:29:45Z</time>
      </trkpt>
      <trkpt lat="47.79159" lon="5.09256">
        <ele>460.71</ele>
        <time>2022-05-09T08:29:48Z</time>
      </trkpt>
      <trkpt lat="47.7916" lon="5.09251">
        <ele>460.51</ele>
        <time>2022-05-09T08:29:51Z</time>
      </trkpt>
      <trkpt lat="47.79161" lon="5.09247">
        <ele>460.34</ele>
        <time>2022-05-09T08:29:54Z</time>
      </trkpt>
      <trkpt lat="47.79162" lon="5.09242">
        <ele>460.14</ele>
        <time>2022-05-09T08:29:58Z</time>
      </trkpt>
      <trkpt lat="47.79164" lon="5.09238">
        <ele>459.84</ele>
        <time>2022-05-09T08:30:01Z</time>
      </trkpt>
      <trkpt lat="47.79164" lon="5.09234">
        <ele>459.73</ele>
        <time>2022-05-09T08:30:04Z</time>
      </trkpt>
      <trkpt lat="47.79164" lon="5.0923">
        <ele>459.61</ele>
        <time>2022-05-09T08:30:07Z</time>
      </trkpt>
      <trkpt lat="47.79165" lon="5.09225">
        <ele>459.33</ele>
        <time>2022-05-09T08:30:08Z</time>
      </trkpt>
      <trkpt lat="47.79165" lon="5.09221">
        <ele>459.24</ele>
        <time>2022-05-09T08:30:11Z</time>
      </trkpt>
      <trkpt lat="47.79166" lon="5.09217">
        <ele>459.1</ele>
        <time>2022-05-09T08:30:14Z</time>
      </trkpt>
      <trkpt lat="47.79168" lon="5.09213">
        <ele>458.94</ele>
        <time>2022-05-09T08:30:16Z</time>
      </trkpt>
      <trkpt lat="47.79169" lon="5.09209">
        <ele>458.88</ele>
        <time>2022-05-09T08:30:19Z</time>
      </trkpt>
      <trkpt lat="47.7917" lon="5.09205">
        <ele>458.81</ele>
        <time>2022-05-09T08:30:22Z</time>
      </trkpt>
      <trkpt lat="47.79171" lon="5.092">
        <ele>458.72</ele>
        <time>2022-05-09T08:30:25Z</time>
      </trkpt>
      <trkpt lat="47.79173" lon="5.09196">
        <ele>458.56</ele>
        <time>2022-05-09T08:30:26Z</time>
      </trkpt>
      <trkpt lat="47.79174" lon="5.09191">
        <ele>458.07</ele>
        <time>2022-05-09T08:30:29Z</time>
      </trkpt>
      <trkpt lat="47.79175" lon="5.09186">
        <ele>457.46</ele>
        <time>2022-05-09T08:30:32Z</time>
      </trkpt>
      <trkpt lat="47.79176" lon="5.09183">
        <ele>457.1</ele>
        <time>2022-05-09T08:30:33Z</time>
      </trkpt>
      <trkpt lat="47.79178" lon="5.09179">
        <ele>456.64</ele>
        <time>2022-05-09T08:30:36Z</time>
      </trkpt>
      <trkpt lat="47.79179" lon="5.09175">
        <ele>456.24</ele>
        <time>2022-05-09T08:30:40Z</time>
      </trkpt>
      <trkpt lat="47.7918" lon="5.09171">
        <ele>455.88</ele>
        <time>2022-05-09T08:30:43Z</time>
      </trkpt>
      <trkpt lat="47.7918" lon="5.09166">
        <ele>455.44</ele>
        <time>2022-05-09T08:30:45Z</time>
      </trkpt>
      <trkpt lat="47.7918" lon="5.09162">
        <ele>455.23</ele>
        <time>2022-05-09T08:30:48Z</time>
      </trkpt>
      <trkpt lat="47.79181" lon="5.09157">
        <ele>454.99</ele>
        <time>2022-05-09T08:30:51Z</time>
      </trkpt>
      <trkpt lat="47.79182" lon="5.09152">
        <ele>454.73</ele>
        <time>2022-05-09T08:30:53Z</time>
      </trkpt>
      <trkpt lat="47.79183" lon="5.09148">
        <ele>454.52</ele>
        <time>2022-05-09T08:30:57Z</time>
      </trkpt>
      <trkpt lat="47.79185" lon="5.09144">
        <ele>454.31</ele>
        <time>2022-05-09T08:30:59Z</time>
      </trkpt>
      <trkpt lat="47.79186" lon="5.0914">
        <ele>454.07</ele>
        <time>2022-05-09T08:31:02Z</time>
      </trkpt>
      <trkpt lat="47.79187" lon="5.09135">
        <ele>453.78</ele>
        <time>2022-05-09T08:31:04Z</time>
      </trkpt>
      <trkpt lat="47.79188" lon="5.09131">
        <ele>453.58</ele>
        <time>2022-05-09T08:31:08Z</time>
      </trkpt>
      <trkpt lat="47.79189" lon="5.09126">
        <ele>453.35</ele>
        <time>2022-05-09T08:31:11Z</time>
      </trkpt>
      <trkpt lat="47.7919" lon="5.09122">
        <ele>453.2</ele>
        <time>2022-05-09T08:31:14Z</time>
      </trkpt>
      <trkpt lat="47.79191" lon="5.09119">
        <ele>453.11</ele>
        <time>2022-05-09T08:31:20Z</time>
      </trkpt>
      <trkpt lat="47.79191" lon="5.09114">
        <ele>452.88</ele>
        <time>2022-05-09T08:31:32Z</time>
      </trkpt>
      <trkpt lat="47.7919" lon="5.0911">
        <ele>452.67</ele>
        <time>2022-05-09T08:32:21Z</time>
      </trkpt>
      <trkpt lat="47.79191" lon="5.09106">
        <ele>452.71</ele>
        <time>2022-05-09T08:32:25Z</time>
      </trkpt>
      <trkpt lat="47.7919" lon="5.09101">
        <ele>452.56</ele>
        <time>2022-05-09T08:32:29Z</time>
      </trkpt>
      <trkpt lat="47.79188" lon="5.09098">
        <ele>452.32</ele>
        <time>2022-05-09T08:32:31Z</time>
      </trkpt>
      <trkpt lat="47.79186" lon="5.09096">
        <ele>452.06</ele>
        <time>2022-05-09T08:32:37Z</time>
      </trkpt>
      <trkpt lat="47.79183" lon="5.09094">
        <ele>451.67</ele>
        <time>2022-05-09T08:32:43Z</time>
      </trkpt>
      <trkpt lat="47.7918" lon="5.09092">
        <ele>451.24</ele>
        <time>2022-05-09T08:32:48Z</time>
      </trkpt>
      <trkpt lat="47.79178" lon="5.09091">
        <ele>450.96</ele>
        <time>2022-05-09T08:32:51Z</time>
      </trkpt>
      <trkpt lat="47.79175" lon="5.09089">
        <ele>450.49</ele>
        <time>2022-05-09T08:32:54Z</time>
      </trkpt>
      <trkpt lat="47.79172" lon="5.09088">
        <ele>450.04</ele>
        <time>2022-05-09T08:32:55Z</time>
      </trkpt>
      <trkpt lat="47.79169" lon="5.09087">
        <ele>449.58</ele>
        <time>2022-05-09T08:32:58Z</time>
      </trkpt>
      <trkpt lat="47.79166" lon="5.09086">
        <ele>449.31</ele>
        <time>2022-05-09T08:32:59Z</time>
      </trkpt>
      <trkpt lat="47.79164" lon="5.09084">
        <ele>449.53</ele>
        <time>2022-05-09T08:33:02Z</time>
      </trkpt>
      <trkpt lat="47.79161" lon="5.09081">
        <ele>449.83</ele>
        <time>2022-05-09T08:33:04Z</time>
      </trkpt>
      <trkpt lat="47.79159" lon="5.09078">
        <ele>449.94</ele>
        <time>2022-05-09T08:33:05Z</time>
      </trkpt>
      <trkpt lat="47.79157" lon="5.09075">
        <ele>450.04</ele>
        <time>2022-05-09T08:33:08Z</time>
      </trkpt>
      <trkpt lat="47.79155" lon="5.09071">
        <ele>450.03</ele>
        <time>2022-05-09T08:33:11Z</time>
      </trkpt>
      <trkpt lat="47.79155" lon="5.09067">
        <ele>449.68</ele>
        <time>2022-05-09T08:33:13Z</time>
      </trkpt>
      <trkpt lat="47.79156" lon="5.09062">
        <ele>449.09</ele>
        <time>2022-05-09T08:33:15Z</time>
      </trkpt>
      <trkpt lat="47.79157" lon="5.09058">
        <ele>448.6</ele>
        <time>2022-05-09T08:33:18Z</time>
      </trkpt>
      <trkpt lat="47.79158" lon="5.09053">
        <ele>448.16</ele>
        <time>2022-05-09T08:33:22Z</time>
      </trkpt>
      <trkpt lat="47.79159" lon="5.09049">
        <ele>447.91</ele>
        <time>2022-05-09T08:33:24Z</time>
      </trkpt>
      <trkpt lat="47.79159" lon="5.09045">
        <ele>447.79</ele>
        <time>2022-05-09T08:33:27Z</time>
      </trkpt>
      <trkpt lat="47.7916" lon="5.0904">
        <ele>447.56</ele>
        <time>2022-05-09T08:33:29Z</time>
      </trkpt>
      <trkpt lat="47.79161" lon="5.09035">
        <ele>447.36</ele>
        <time>2022-05-09T08:33:32Z</time>
      </trkpt>
      <trkpt lat="47.79161" lon="5.0903">
        <ele>447.25</ele>
        <time>2022-05-09T08:33:34Z</time>
      </trkpt>
      <trkpt lat="47.79162" lon="5.09025">
        <ele>446.85</ele>
        <time>2022-05-09T08:33:38Z</time>
      </trkpt>
      <trkpt lat="47.79163" lon="5.09021">
        <ele>446.37</ele>
        <time>2022-05-09T08:33:41Z</time>
      </trkpt>
      <trkpt lat="47.79164" lon="5.09017">
        <ele>445.89</ele>
        <time>2022-05-09T08:33:44Z</time>
      </trkpt>
      <trkpt lat="47.79165" lon="5.09013">
        <ele>445.43</ele>
        <time>2022-05-09T08:33:47Z</time>
      </trkpt>
      <trkpt lat="47.79166" lon="5.09008">
        <ele>444.87</ele>
        <time>2022-05-09T08:33:49Z</time>
      </trkpt>
      <trkpt lat="47.79167" lon="5.09004">
        <ele>444.46</ele>
        <time>2022-05-09T08:33:51Z</time>
      </trkpt>
      <trkpt lat="47.79168" lon="5.08999">
        <ele>444.11</ele>
        <time>2022-05-09T08:33:53Z</time>
      </trkpt>
      <trkpt lat="47.79169" lon="5.08995">
        <ele>444.06</ele>
        <time>2022-05-09T08:33:55Z</time>
      </trkpt>
      <trkpt lat="47.7917" lon="5.0899">
        <ele>443.96</ele>
        <time>2022-05-09T08:33:57Z</time>
      </trkpt>
      <trkpt lat="47.7917" lon="5.08986">
        <ele>443.8</ele>
        <time>2022-05-09T08:34:00Z</time>
      </trkpt>
      <trkpt lat="47.79171" lon="5.08981">
        <ele>443.68</ele>
        <time>2022-05-09T08:34:02Z</time>
      </trkpt>
      <trkpt lat="47.79173" lon="5.08977">
        <ele>443.67</ele>
        <time>2022-05-09T08:34:06Z</time>
      </trkpt>
      <trkpt lat="47.79174" lon="5.08972">
        <ele>443.52</ele>
        <time>2022-05-09T08:34:08Z</time>
      </trkpt>
      <trkpt lat="47.79175" lon="5.08969">
        <ele>443.5</ele>
        <time>2022-05-09T08:34:10Z</time>
      </trkpt>
      <trkpt lat="47.79177" lon="5.08964">
        <ele>443.41</ele>
        <time>2022-05-09T08:34:14Z</time>
      </trkpt>
      <trkpt lat="47.79177" lon="5.0896">
        <ele>443.25</ele>
        <time>2022-05-09T08:34:16Z</time>
      </trkpt>
      <trkpt lat="47.79178" lon="5.08956">
        <ele>443.1</ele>
        <time>2022-05-09T08:34:17Z</time>
      </trkpt>
      <trkpt lat="47.79179" lon="5.0895">
        <ele>442.82</ele>
        <time>2022-05-09T08:34:20Z</time>
      </trkpt>
      <trkpt lat="47.7918" lon="5.08945">
        <ele>442.55</ele>
        <time>2022-05-09T08:34:22Z</time>
      </trkpt>
      <trkpt lat="47.79181" lon="5.0894">
        <ele>442.56</ele>
        <time>2022-05-09T08:34:23Z</time>
      </trkpt>
      <trkpt lat="47.79182" lon="5.08936">
        <ele>442.58</ele>
        <time>2022-05-09T08:34:25Z</time>
      </trkpt>
      <trkpt lat="47.79183" lon="5.08931">
        <ele>442.61</ele>
        <time>2022-05-09T08:34:26Z</time>
      </trkpt>
      <trkpt lat="47.79185" lon="5.08927">
        <ele>442.55</ele>
        <time>2022-05-09T08:34:28Z</time>
      </trkpt>
      <trkpt lat="47.79186" lon="5.08923">
        <ele>442.54</ele>
        <time>2022-05-09T08:34:32Z</time>
      </trkpt>
      <trkpt lat="47.79187" lon="5.08919">
        <ele>442.51</ele>
        <time>2022-05-09T08:34:34Z</time>
      </trkpt>
      <trkpt lat="47.79188" lon="5.08915">
        <ele>442.54</ele>
        <time>2022-05-09T08:34:37Z</time>
      </trkpt>
      <trkpt lat="47.79189" lon="5.08911">
        <ele>442.64</ele>
        <time>2022-05-09T08:34:39Z</time>
      </trkpt>
      <trkpt lat="47.79191" lon="5.08906">
        <ele>442.68</ele>
        <time>2022-05-09T08:34:42Z</time>
      </trkpt>
      <trkpt lat="47.79192" lon="5.08901">
        <ele>442.79</ele>
        <time>2022-05-09T08:34:43Z</time>
      </trkpt>
      <trkpt lat="47.79193" lon="5.08897">
        <ele>442.85</ele>
        <time>2022-05-09T08:34:45Z</time>
      </trkpt>
      <trkpt lat="47.79194" lon="5.08892">
        <ele>442.93</ele>
        <time>2022-05-09T08:34:46Z</time>
      </trkpt>
      <trkpt lat="47.79194" lon="5.08887">
        <ele>443.18</ele>
        <time>2022-05-09T08:34:48Z</time>
      </trkpt>
      <trkpt lat="47.79194" lon="5.08882">
        <ele>443.54</ele>
        <time>2022-05-09T08:34:51Z</time>
      </trkpt>
      <trkpt lat="47.79195" lon="5.08877">
        <ele>443.88</ele>
        <time>2022-05-09T08:34:53Z</time>
      </trkpt>
      <trkpt lat="47.79196" lon="5.08873">
        <ele>444.19</ele>
        <time>2022-05-09T08:34:55Z</time>
      </trkpt>
      <trkpt lat="47.79198" lon="5.08868">
        <ele>444.57</ele>
        <time>2022-05-09T08:34:57Z</time>
      </trkpt>
      <trkpt lat="47.79199" lon="5.08863">
        <ele>444.89</ele>
        <time>2022-05-09T08:34:59Z</time>
      </trkpt>
      <trkpt lat="47.79199" lon="5.08858">
        <ele>444.98</ele>
        <time>2022-05-09T08:35:01Z</time>
      </trkpt>
      <trkpt lat="47.79201" lon="5.08853">
        <ele>444.93</ele>
        <time>2022-05-09T08:35:04Z</time>
      </trkpt>
      <trkpt lat="47.79202" lon="5.08848">
        <ele>444.87</ele>
        <time>2022-05-09T08:35:06Z</time>
      </trkpt>
      <trkpt lat="47.79203" lon="5.08844">
        <ele>444.81</ele>
        <time>2022-05-09T08:35:08Z</time>
      </trkpt>
      <trkpt lat="47.79205" lon="5.08839">
        <ele>444.7</ele>
        <time>2022-05-09T08:35:10Z</time>
      </trkpt>
      <trkpt lat="47.79206" lon="5.08834">
        <ele>444.59</ele>
        <time>2022-05-09T08:35:13Z</time>
      </trkpt>
      <trkpt lat="47.79207" lon="5.08829">
        <ele>444.63</ele>
        <time>2022-05-09T08:35:15Z</time>
      </trkpt>
      <trkpt lat="47.79209" lon="5.08825">
        <ele>444.62</ele>
        <time>2022-05-09T08:35:16Z</time>
      </trkpt>
      <trkpt lat="47.7921" lon="5.0882">
        <ele>444.65</ele>
        <time>2022-05-09T08:35:19Z</time>
      </trkpt>
      <trkpt lat="47.79211" lon="5.08817">
        <ele>444.64</ele>
        <time>2022-05-09T08:35:20Z</time>
      </trkpt>
      <trkpt lat="47.79212" lon="5.08812">
        <ele>444.65</ele>
        <time>2022-05-09T08:35:22Z</time>
      </trkpt>
      <trkpt lat="47.79214" lon="5.08808">
        <ele>444.57</ele>
        <time>2022-05-09T08:35:24Z</time>
      </trkpt>
      <trkpt lat="47.79215" lon="5.08803">
        <ele>444.57</ele>
        <time>2022-05-09T08:35:27Z</time>
      </trkpt>
      <trkpt lat="47.79216" lon="5.08799">
        <ele>444.55</ele>
        <time>2022-05-09T08:35:29Z</time>
      </trkpt>
      <trkpt lat="47.79217" lon="5.08795">
        <ele>444.52</ele>
        <time>2022-05-09T08:35:31Z</time>
      </trkpt>
      <trkpt lat="47.79217" lon="5.0879">
        <ele>444.59</ele>
        <time>2022-05-09T08:35:33Z</time>
      </trkpt>
      <trkpt lat="47.79218" lon="5.08786">
        <ele>444.52</ele>
        <time>2022-05-09T08:35:35Z</time>
      </trkpt>
      <trkpt lat="47.79219" lon="5.08781">
        <ele>444.44</ele>
        <time>2022-05-09T08:35:37Z</time>
      </trkpt>
      <trkpt lat="47.7922" lon="5.08777">
        <ele>444.35</ele>
        <time>2022-05-09T08:35:40Z</time>
      </trkpt>
      <trkpt lat="47.79222" lon="5.08772">
        <ele>444.24</ele>
        <time>2022-05-09T08:35:42Z</time>
      </trkpt>
      <trkpt lat="47.79223" lon="5.08768">
        <ele>444.43</ele>
        <time>2022-05-09T08:35:44Z</time>
      </trkpt>
      <trkpt lat="47.79224" lon="5.08763">
        <ele>444.73</ele>
        <time>2022-05-09T08:35:46Z</time>
      </trkpt>
      <trkpt lat="47.79225" lon="5.08759">
        <ele>445.01</ele>
        <time>2022-05-09T08:35:48Z</time>
      </trkpt>
      <trkpt lat="47.79226" lon="5.08755">
        <ele>445.32</ele>
        <time>2022-05-09T08:35:50Z</time>
      </trkpt>
      <trkpt lat="47.79227" lon="5.08751">
        <ele>445.64</ele>
        <time>2022-05-09T08:35:52Z</time>
      </trkpt>
      <trkpt lat="47.79229" lon="5.08746">
        <ele>446.16</ele>
        <time>2022-05-09T08:35:54Z</time>
      </trkpt>
      <trkpt lat="47.7923" lon="5.08742">
        <ele>446.45</ele>
        <time>2022-05-09T08:35:56Z</time>
      </trkpt>
      <trkpt lat="47.79231" lon="5.08738">
        <ele>446.72</ele>
        <time>2022-05-09T08:35:59Z</time>
      </trkpt>
      <trkpt lat="47.79232" lon="5.08734">
        <ele>446.95</ele>
        <time>2022-05-09T08:36:00Z</time>
      </trkpt>
      <trkpt lat="47.79234" lon="5.08729">
        <ele>447.25</ele>
        <time>2022-05-09T08:36:02Z</time>
      </trkpt>
      <trkpt lat="47.79235" lon="5.08724">
        <ele>447.42</ele>
        <time>2022-05-09T08:36:04Z</time>
      </trkpt>
      <trkpt lat="47.79236" lon="5.08719">
        <ele>447.44</ele>
        <time>2022-05-09T08:36:07Z</time>
      </trkpt>
      <trkpt lat="47.79237" lon="5.08715">
        <ele>447.38</ele>
        <time>2022-05-09T08:36:08Z</time>
      </trkpt>
      <trkpt lat="47.79237" lon="5.08711">
        <ele>447.29</ele>
        <time>2022-05-09T08:36:10Z</time>
      </trkpt>
      <trkpt lat="47.79238" lon="5.08707">
        <ele>447.18</ele>
        <time>2022-05-09T08:36:11Z</time>
      </trkpt>
      <trkpt lat="47.79239" lon="5.08702">
        <ele>447.01</ele>
        <time>2022-05-09T08:36:14Z</time>
      </trkpt>
      <trkpt lat="47.7924" lon="5.08697">
        <ele>446.8</ele>
        <time>2022-05-09T08:36:16Z</time>
      </trkpt>
      <trkpt lat="47.79241" lon="5.08692">
        <ele>446.74</ele>
        <time>2022-05-09T08:36:19Z</time>
      </trkpt>
      <trkpt lat="47.79242" lon="5.08688">
        <ele>446.81</ele>
        <time>2022-05-09T08:36:20Z</time>
      </trkpt>
      <trkpt lat="47.79243" lon="5.08683">
        <ele>446.92</ele>
        <time>2022-05-09T08:36:22Z</time>
      </trkpt>
      <trkpt lat="47.79243" lon="5.08678">
        <ele>447.1</ele>
        <time>2022-05-09T08:36:25Z</time>
      </trkpt>
      <trkpt lat="47.79244" lon="5.08674">
        <ele>447.17</ele>
        <time>2022-05-09T08:36:26Z</time>
      </trkpt>
      <trkpt lat="47.79246" lon="5.0867">
        <ele>447.17</ele>
        <time>2022-05-09T08:36:29Z</time>
      </trkpt>
      <trkpt lat="47.79247" lon="5.08666">
        <ele>447.24</ele>
        <time>2022-05-09T08:36:30Z</time>
      </trkpt>
      <trkpt lat="47.79248" lon="5.08662">
        <ele>447.32</ele>
        <time>2022-05-09T08:36:32Z</time>
      </trkpt>
      <trkpt lat="47.7925" lon="5.08656">
        <ele>447.38</ele>
        <time>2022-05-09T08:36:35Z</time>
      </trkpt>
      <trkpt lat="47.79251" lon="5.08652">
        <ele>447.65</ele>
        <time>2022-05-09T08:36:37Z</time>
      </trkpt>
      <trkpt lat="47.79251" lon="5.08648">
        <ele>447.78</ele>
        <time>2022-05-09T08:36:39Z</time>
      </trkpt>
      <trkpt lat="47.79253" lon="5.08645">
        <ele>448.07</ele>
        <time>2022-05-09T08:36:41Z</time>
      </trkpt>
      <trkpt lat="47.79254" lon="5.08641">
        <ele>448.24</ele>
        <time>2022-05-09T08:36:44Z</time>
      </trkpt>
      <trkpt lat="47.79255" lon="5.08637">
        <ele>448.47</ele>
        <time>2022-05-09T08:36:46Z</time>
      </trkpt>
      <trkpt lat="47.79256" lon="5.08633">
        <ele>448.76</ele>
        <time>2022-05-09T08:36:48Z</time>
      </trkpt>
      <trkpt lat="47.79257" lon="5.08628">
        <ele>449.09</ele>
        <time>2022-05-09T08:36:50Z</time>
      </trkpt>
      <trkpt lat="47.79259" lon="5.08624">
        <ele>449.37</ele>
        <time>2022-05-09T08:36:52Z</time>
      </trkpt>
      <trkpt lat="47.7926" lon="5.0862">
        <ele>449.59</ele>
        <time>2022-05-09T08:36:54Z</time>
      </trkpt>
      <trkpt lat="47.79261" lon="5.08616">
        <ele>449.79</ele>
        <time>2022-05-09T08:36:56Z</time>
      </trkpt>
      <trkpt lat="47.79263" lon="5.08612">
        <ele>449.97</ele>
        <time>2022-05-09T08:36:58Z</time>
      </trkpt>
      <trkpt lat="47.79264" lon="5.08608">
        <ele>450.06</ele>
        <time>2022-05-09T08:37:01Z</time>
      </trkpt>
      <trkpt lat="47.79265" lon="5.08604">
        <ele>450.14</ele>
        <time>2022-05-09T08:37:03Z</time>
      </trkpt>
      <trkpt lat="47.79266" lon="5.086">
        <ele>450.23</ele>
        <time>2022-05-09T08:37:05Z</time>
      </trkpt>
      <trkpt lat="47.79267" lon="5.08596">
        <ele>450.33</ele>
        <time>2022-05-09T08:37:07Z</time>
      </trkpt>
      <trkpt lat="47.79268" lon="5.08591">
        <ele>450.47</ele>
        <time>2022-05-09T08:37:10Z</time>
      </trkpt>
      <trkpt lat="47.79269" lon="5.08587">
        <ele>450.59</ele>
        <time>2022-05-09T08:37:12Z</time>
      </trkpt>
      <trkpt lat="47.7927" lon="5.08583">
        <ele>450.74</ele>
        <time>2022-05-09T08:37:14Z</time>
      </trkpt>
      <trkpt lat="47.79271" lon="5.08578">
        <ele>450.99</ele>
        <time>2022-05-09T08:37:16Z</time>
      </trkpt>
      <trkpt lat="47.79272" lon="5.08574">
        <ele>451.2</ele>
        <time>2022-05-09T08:37:18Z</time>
      </trkpt>
      <trkpt lat="47.79273" lon="5.0857">
        <ele>451.39</ele>
        <time>2022-05-09T08:37:21Z</time>
      </trkpt>
      <trkpt lat="47.79274" lon="5.08565">
        <ele>451.61</ele>
        <time>2022-05-09T08:37:24Z</time>
      </trkpt>
      <trkpt lat="47.79276" lon="5.0856">
        <ele>451.83</ele>
        <time>2022-05-09T08:37:25Z</time>
      </trkpt>
      <trkpt lat="47.79277" lon="5.08555">
        <ele>452.02</ele>
        <time>2022-05-09T08:37:28Z</time>
      </trkpt>
      <trkpt lat="47.79278" lon="5.0855">
        <ele>452.22</ele>
        <time>2022-05-09T08:37:31Z</time>
      </trkpt>
      <trkpt lat="47.7928" lon="5.08546">
        <ele>452.56</ele>
        <time>2022-05-09T08:37:33Z</time>
      </trkpt>
      <trkpt lat="47.79281" lon="5.08543">
        <ele>452.75</ele>
        <time>2022-05-09T08:37:36Z</time>
      </trkpt>
      <trkpt lat="47.79283" lon="5.08538">
        <ele>453.08</ele>
        <time>2022-05-09T08:37:38Z</time>
      </trkpt>
      <trkpt lat="47.79284" lon="5.08534">
        <ele>453.27</ele>
        <time>2022-05-09T08:37:40Z</time>
      </trkpt>
      <trkpt lat="47.79285" lon="5.0853">
        <ele>453.46</ele>
        <time>2022-05-09T08:37:43Z</time>
      </trkpt>
      <trkpt lat="47.79286" lon="5.08526">
        <ele>453.73</ele>
        <time>2022-05-09T08:37:45Z</time>
      </trkpt>
      <trkpt lat="47.79287" lon="5.08522">
        <ele>454.08</ele>
        <time>2022-05-09T08:37:47Z</time>
      </trkpt>
      <trkpt lat="47.79287" lon="5.08518">
        <ele>454.37</ele>
        <time>2022-05-09T08:37:49Z</time>
      </trkpt>
      <trkpt lat="47.79288" lon="5.08513">
        <ele>454.74</ele>
        <time>2022-05-09T08:37:52Z</time>
      </trkpt>
      <trkpt lat="47.79289" lon="5.08509">
        <ele>455.02</ele>
        <time>2022-05-09T08:37:55Z</time>
      </trkpt>
      <trkpt lat="47.7929" lon="5.08505">
        <ele>455.26</ele>
        <time>2022-05-09T08:37:57Z</time>
      </trkpt>
      <trkpt lat="47.79291" lon="5.08501">
        <ele>455.47</ele>
        <time>2022-05-09T08:38:00Z</time>
      </trkpt>
      <trkpt lat="47.79292" lon="5.08497">
        <ele>455.71</ele>
        <time>2022-05-09T08:38:02Z</time>
      </trkpt>
      <trkpt lat="47.79294" lon="5.08493">
        <ele>455.96</ele>
        <time>2022-05-09T08:38:04Z</time>
      </trkpt>
      <trkpt lat="47.79295" lon="5.08489">
        <ele>456.27</ele>
        <time>2022-05-09T08:38:07Z</time>
      </trkpt>
      <trkpt lat="47.79297" lon="5.08486">
        <ele>456.51</ele>
        <time>2022-05-09T08:38:09Z</time>
      </trkpt>
      <trkpt lat="47.79298" lon="5.08482">
        <ele>456.86</ele>
        <time>2022-05-09T08:38:11Z</time>
      </trkpt>
      <trkpt lat="47.793" lon="5.08477">
        <ele>457.35</ele>
        <time>2022-05-09T08:38:13Z</time>
      </trkpt>
      <trkpt lat="47.79301" lon="5.08473">
        <ele>457.76</ele>
        <time>2022-05-09T08:38:15Z</time>
      </trkpt>
      <trkpt lat="47.79303" lon="5.08468">
        <ele>457.92</ele>
        <time>2022-05-09T08:38:18Z</time>
      </trkpt>
      <trkpt lat="47.79303" lon="5.08464">
        <ele>457.94</ele>
        <time>2022-05-09T08:38:19Z</time>
      </trkpt>
      <trkpt lat="47.79303" lon="5.0846">
        <ele>457.95</ele>
        <time>2022-05-09T08:38:21Z</time>
      </trkpt>
      <trkpt lat="47.79304" lon="5.08455">
        <ele>457.98</ele>
        <time>2022-05-09T08:38:23Z</time>
      </trkpt>
      <trkpt lat="47.79305" lon="5.0845">
        <ele>458</ele>
        <time>2022-05-09T08:38:25Z</time>
      </trkpt>
      <trkpt lat="47.79306" lon="5.08446">
        <ele>457.97</ele>
        <time>2022-05-09T08:38:28Z</time>
      </trkpt>
      <trkpt lat="47.79307" lon="5.08441">
        <ele>457.52</ele>
        <time>2022-05-09T08:38:31Z</time>
      </trkpt>
      <trkpt lat="47.79308" lon="5.08437">
        <ele>457</ele>
        <time>2022-05-09T08:38:34Z</time>
      </trkpt>
      <trkpt lat="47.79308" lon="5.08433">
        <ele>456.55</ele>
        <time>2022-05-09T08:38:38Z</time>
      </trkpt>
      <trkpt lat="47.79309" lon="5.08428">
        <ele>455.9</ele>
        <time>2022-05-09T08:38:41Z</time>
      </trkpt>
      <trkpt lat="47.79309" lon="5.08424">
        <ele>455.45</ele>
        <time>2022-05-09T08:38:44Z</time>
      </trkpt>
      <trkpt lat="47.79311" lon="5.08419">
        <ele>454.68</ele>
        <time>2022-05-09T08:38:45Z</time>
      </trkpt>
      <trkpt lat="47.79311" lon="5.08414">
        <ele>453.95</ele>
        <time>2022-05-09T08:38:48Z</time>
      </trkpt>
      <trkpt lat="47.79313" lon="5.08409">
        <ele>452.89</ele>
        <time>2022-05-09T08:38:51Z</time>
      </trkpt>
      <trkpt lat="47.79314" lon="5.08404">
        <ele>451.95</ele>
        <time>2022-05-09T08:38:54Z</time>
      </trkpt>
      <trkpt lat="47.79315" lon="5.08401">
        <ele>451.35</ele>
        <time>2022-05-09T08:38:56Z</time>
      </trkpt>
      <trkpt lat="47.79316" lon="5.08396">
        <ele>450.43</ele>
        <time>2022-05-09T08:38:59Z</time>
      </trkpt>
      <trkpt lat="47.79317" lon="5.08392">
        <ele>449.69</ele>
        <time>2022-05-09T08:39:01Z</time>
      </trkpt>
      <trkpt lat="47.79318" lon="5.08388">
        <ele>449.07</ele>
        <time>2022-05-09T08:39:03Z</time>
      </trkpt>
      <trkpt lat="47.79319" lon="5.08384">
        <ele>448.86</ele>
        <time>2022-05-09T08:39:05Z</time>
      </trkpt>
      <trkpt lat="47.7932" lon="5.08378">
        <ele>448.57</ele>
        <time>2022-05-09T08:39:08Z</time>
      </trkpt>
      <trkpt lat="47.79322" lon="5.08373">
        <ele>448.24</ele>
        <time>2022-05-09T08:39:10Z</time>
      </trkpt>
      <trkpt lat="47.79323" lon="5.0837">
        <ele>448.06</ele>
        <time>2022-05-09T08:39:11Z</time>
      </trkpt>
      <trkpt lat="47.79325" lon="5.08365">
        <ele>447.74</ele>
        <time>2022-05-09T08:39:14Z</time>
      </trkpt>
      <trkpt lat="47.79327" lon="5.08361">
        <ele>447.45</ele>
        <time>2022-05-09T08:39:15Z</time>
      </trkpt>
      <trkpt lat="47.79328" lon="5.08357">
        <ele>447.24</ele>
        <time>2022-05-09T08:39:17Z</time>
      </trkpt>
      <trkpt lat="47.7933" lon="5.08352">
        <ele>446.91</ele>
        <time>2022-05-09T08:39:21Z</time>
      </trkpt>
      <trkpt lat="47.79331" lon="5.08348">
        <ele>446.7</ele>
        <time>2022-05-09T08:39:23Z</time>
      </trkpt>
      <trkpt lat="47.79332" lon="5.08343">
        <ele>446.44</ele>
        <time>2022-05-09T08:39:25Z</time>
      </trkpt>
      <trkpt lat="47.79333" lon="5.08339">
        <ele>446.23</ele>
        <time>2022-05-09T08:39:27Z</time>
      </trkpt>
      <trkpt lat="47.79334" lon="5.08334">
        <ele>445.93</ele>
        <time>2022-05-09T08:39:31Z</time>
      </trkpt>
      <trkpt lat="47.79334" lon="5.0833">
        <ele>445.66</ele>
        <time>2022-05-09T08:39:33Z</time>
      </trkpt>
      <trkpt lat="47.79336" lon="5.08326">
        <ele>445.06</ele>
        <time>2022-05-09T08:39:34Z</time>
      </trkpt>
      <trkpt lat="47.79337" lon="5.08321">
        <ele>444.53</ele>
        <time>2022-05-09T08:39:36Z</time>
      </trkpt>
      <trkpt lat="47.79338" lon="5.08317">
        <ele>444.05</ele>
        <time>2022-05-09T08:39:38Z</time>
      </trkpt>
      <trkpt lat="47.7934" lon="5.08312">
        <ele>443.32</ele>
        <time>2022-05-09T08:39:40Z</time>
      </trkpt>
      <trkpt lat="47.79341" lon="5.08308">
        <ele>442.82</ele>
        <time>2022-05-09T08:39:42Z</time>
      </trkpt>
      <trkpt lat="47.79342" lon="5.08303">
        <ele>442.19</ele>
        <time>2022-05-09T08:39:45Z</time>
      </trkpt>
      <trkpt lat="47.79343" lon="5.08299">
        <ele>441.63</ele>
        <time>2022-05-09T08:39:46Z</time>
      </trkpt>
      <trkpt lat="47.79344" lon="5.08295">
        <ele>441.09</ele>
        <time>2022-05-09T08:39:48Z</time>
      </trkpt>
      <trkpt lat="47.79345" lon="5.0829">
        <ele>440.46</ele>
        <time>2022-05-09T08:39:49Z</time>
      </trkpt>
      <trkpt lat="47.79345" lon="5.08286">
        <ele>440.08</ele>
        <time>2022-05-09T08:39:52Z</time>
      </trkpt>
      <trkpt lat="47.79347" lon="5.0828">
        <ele>439.23</ele>
        <time>2022-05-09T08:39:55Z</time>
      </trkpt>
      <trkpt lat="47.79348" lon="5.08277">
        <ele>438.83</ele>
        <time>2022-05-09T08:39:56Z</time>
      </trkpt>
      <trkpt lat="47.79349" lon="5.08272">
        <ele>438.33</ele>
        <time>2022-05-09T08:39:59Z</time>
      </trkpt>
      <trkpt lat="47.7935" lon="5.08267">
        <ele>437.82</ele>
        <time>2022-05-09T08:40:01Z</time>
      </trkpt>
      <trkpt lat="47.7935" lon="5.08263">
        <ele>437.54</ele>
        <time>2022-05-09T08:40:04Z</time>
      </trkpt>
      <trkpt lat="47.79351" lon="5.08258">
        <ele>437.03</ele>
        <time>2022-05-09T08:40:07Z</time>
      </trkpt>
      <trkpt lat="47.79353" lon="5.08254">
        <ele>436.46</ele>
        <time>2022-05-09T08:40:08Z</time>
      </trkpt>
      <trkpt lat="47.79354" lon="5.08249">
        <ele>436.02</ele>
        <time>2022-05-09T08:40:10Z</time>
      </trkpt>
      <trkpt lat="47.79356" lon="5.08242">
        <ele>435.74</ele>
        <time>2022-05-09T08:40:13Z</time>
      </trkpt>
      <trkpt lat="47.79357" lon="5.08237">
        <ele>435.59</ele>
        <time>2022-05-09T08:40:14Z</time>
      </trkpt>
      <trkpt lat="47.79358" lon="5.08233">
        <ele>435.45</ele>
        <time>2022-05-09T08:40:16Z</time>
      </trkpt>
      <trkpt lat="47.79359" lon="5.08229">
        <ele>435.3</ele>
        <time>2022-05-09T08:40:18Z</time>
      </trkpt>
      <trkpt lat="47.7936" lon="5.08224">
        <ele>435.16</ele>
        <time>2022-05-09T08:40:20Z</time>
      </trkpt>
      <trkpt lat="47.79362" lon="5.0822">
        <ele>434.85</ele>
        <time>2022-05-09T08:40:21Z</time>
      </trkpt>
      <trkpt lat="47.79364" lon="5.08216">
        <ele>434.62</ele>
        <time>2022-05-09T08:40:23Z</time>
      </trkpt>
      <trkpt lat="47.79365" lon="5.08211">
        <ele>434.36</ele>
        <time>2022-05-09T08:40:26Z</time>
      </trkpt>
      <trkpt lat="47.79366" lon="5.08207">
        <ele>434.19</ele>
        <time>2022-05-09T08:40:27Z</time>
      </trkpt>
      <trkpt lat="47.79367" lon="5.08202">
        <ele>434.01</ele>
        <time>2022-05-09T08:40:30Z</time>
      </trkpt>
      <trkpt lat="47.79368" lon="5.08198">
        <ele>433.9</ele>
        <time>2022-05-09T08:40:32Z</time>
      </trkpt>
      <trkpt lat="47.79369" lon="5.08193">
        <ele>433.81</ele>
        <time>2022-05-09T08:40:34Z</time>
      </trkpt>
      <trkpt lat="47.7937" lon="5.08189">
        <ele>433.83</ele>
        <time>2022-05-09T08:40:39Z</time>
      </trkpt>
      <trkpt lat="47.79372" lon="5.08185">
        <ele>433.97</ele>
        <time>2022-05-09T08:40:40Z</time>
      </trkpt>
      <trkpt lat="47.79373" lon="5.08181">
        <ele>434.01</ele>
        <time>2022-05-09T08:40:43Z</time>
      </trkpt>
      <trkpt lat="47.79374" lon="5.08177">
        <ele>434.06</ele>
        <time>2022-05-09T08:40:45Z</time>
      </trkpt>
      <trkpt lat="47.79374" lon="5.08173">
        <ele>433.98</ele>
        <time>2022-05-09T08:40:48Z</time>
      </trkpt>
      <trkpt lat="47.79376" lon="5.08167">
        <ele>434.15</ele>
        <time>2022-05-09T08:40:52Z</time>
      </trkpt>
      <trkpt lat="47.79377" lon="5.08163">
        <ele>434.29</ele>
        <time>2022-05-09T08:40:53Z</time>
      </trkpt>
      <trkpt lat="47.79377" lon="5.08158">
        <ele>434.29</ele>
        <time>2022-05-09T08:40:55Z</time>
      </trkpt>
      <trkpt lat="47.79378" lon="5.08154">
        <ele>434.43</ele>
        <time>2022-05-09T08:40:57Z</time>
      </trkpt>
      <trkpt lat="47.79379" lon="5.0815">
        <ele>434.58</ele>
        <time>2022-05-09T08:40:59Z</time>
      </trkpt>
      <trkpt lat="47.79379" lon="5.08146">
        <ele>434.58</ele>
        <time>2022-05-09T08:41:01Z</time>
      </trkpt>
      <trkpt lat="47.7938" lon="5.08142">
        <ele>434.72</ele>
        <time>2022-05-09T08:41:03Z</time>
      </trkpt>
      <trkpt lat="47.7938" lon="5.08138">
        <ele>434.69</ele>
        <time>2022-05-09T08:41:04Z</time>
      </trkpt>
      <trkpt lat="47.7938" lon="5.08133">
        <ele>434.5</ele>
        <time>2022-05-09T08:41:07Z</time>
      </trkpt>
      <trkpt lat="47.79381" lon="5.08128">
        <ele>434.41</ele>
        <time>2022-05-09T08:41:09Z</time>
      </trkpt>
      <trkpt lat="47.79381" lon="5.08123">
        <ele>434.21</ele>
        <time>2022-05-09T08:41:12Z</time>
      </trkpt>
      <trkpt lat="47.79382" lon="5.08118">
        <ele>434.06</ele>
        <time>2022-05-09T08:41:14Z</time>
      </trkpt>
      <trkpt lat="47.79382" lon="5.08113">
        <ele>433.84</ele>
        <time>2022-05-09T08:41:17Z</time>
      </trkpt>
      <trkpt lat="47.79383" lon="5.08109">
        <ele>433.65</ele>
        <time>2022-05-09T08:41:19Z</time>
      </trkpt>
      <trkpt lat="47.79384" lon="5.08105">
        <ele>433.42</ele>
        <time>2022-05-09T08:41:21Z</time>
      </trkpt>
      <trkpt lat="47.79386" lon="5.08101">
        <ele>433.21</ele>
        <time>2022-05-09T08:41:23Z</time>
      </trkpt>
      <trkpt lat="47.79387" lon="5.08097">
        <ele>432.95</ele>
        <time>2022-05-09T08:41:26Z</time>
      </trkpt>
      <trkpt lat="47.79389" lon="5.08093">
        <ele>432.71</ele>
        <time>2022-05-09T08:41:27Z</time>
      </trkpt>
      <trkpt lat="47.7939" lon="5.08089">
        <ele>432.53</ele>
        <time>2022-05-09T08:41:30Z</time>
      </trkpt>
      <trkpt lat="47.79391" lon="5.08085">
        <ele>432.35</ele>
        <time>2022-05-09T08:41:33Z</time>
      </trkpt>
      <trkpt lat="47.79392" lon="5.08081">
        <ele>432.33</ele>
        <time>2022-05-09T08:41:37Z</time>
      </trkpt>
      <trkpt lat="47.79394" lon="5.08077">
        <ele>432.51</ele>
        <time>2022-05-09T08:41:40Z</time>
      </trkpt>
      <trkpt lat="47.79394" lon="5.08072">
        <ele>432.48</ele>
        <time>2022-05-09T08:41:47Z</time>
      </trkpt>
      <trkpt lat="47.79393" lon="5.08068">
        <ele>432.36</ele>
        <time>2022-05-09T08:41:54Z</time>
      </trkpt>
      <trkpt lat="47.79393" lon="5.08064">
        <ele>432.34</ele>
        <time>2022-05-09T08:42:06Z</time>
      </trkpt>
      <trkpt lat="47.79393" lon="5.0806">
        <ele>432.32</ele>
        <time>2022-05-09T08:42:51Z</time>
      </trkpt>
      <trkpt lat="47.79392" lon="5.08055">
        <ele>432.23</ele>
        <time>2022-05-09T08:42:55Z</time>
      </trkpt>
      <trkpt lat="47.79392" lon="5.08051">
        <ele>432.24</ele>
        <time>2022-05-09T08:42:59Z</time>
      </trkpt>
      <trkpt lat="47.79391" lon="5.08045">
        <ele>432.18</ele>
        <time>2022-05-09T08:43:03Z</time>
      </trkpt>
      <trkpt lat="47.7939" lon="5.08041">
        <ele>432.1</ele>
        <time>2022-05-09T08:43:07Z</time>
      </trkpt>
      <trkpt lat="47.7939" lon="5.08037">
        <ele>432.11</ele>
        <time>2022-05-09T08:43:09Z</time>
      </trkpt>
      <trkpt lat="47.79388" lon="5.08033">
        <ele>431.96</ele>
        <time>2022-05-09T08:43:13Z</time>
      </trkpt>
      <trkpt lat="47.79388" lon="5.08028">
        <ele>431.97</ele>
        <time>2022-05-09T08:43:15Z</time>
      </trkpt>
      <trkpt lat="47.79387" lon="5.08024">
        <ele>431.68</ele>
        <time>2022-05-09T08:43:17Z</time>
      </trkpt>
      <trkpt lat="47.79386" lon="5.0802">
        <ele>431.39</ele>
        <time>2022-05-09T08:43:20Z</time>
      </trkpt>
      <trkpt lat="47.79385" lon="5.08016">
        <ele>431.13</ele>
        <time>2022-05-09T08:43:23Z</time>
      </trkpt>
      <trkpt lat="47.79383" lon="5.08013">
        <ele>430.95</ele>
        <time>2022-05-09T08:43:25Z</time>
      </trkpt>
      <trkpt lat="47.79382" lon="5.08008">
        <ele>430.68</ele>
        <time>2022-05-09T08:43:27Z</time>
      </trkpt>
      <trkpt lat="47.79382" lon="5.08003">
        <ele>430.41</ele>
        <time>2022-05-09T08:43:29Z</time>
      </trkpt>
      <trkpt lat="47.79381" lon="5.07999">
        <ele>430.24</ele>
        <time>2022-05-09T08:43:31Z</time>
      </trkpt>
      <trkpt lat="47.7938" lon="5.07995">
        <ele>430.09</ele>
        <time>2022-05-09T08:43:33Z</time>
      </trkpt>
      <trkpt lat="47.79379" lon="5.07989">
        <ele>429.79</ele>
        <time>2022-05-09T08:43:36Z</time>
      </trkpt>
      <trkpt lat="47.79378" lon="5.07985">
        <ele>429.55</ele>
        <time>2022-05-09T08:43:38Z</time>
      </trkpt>
      <trkpt lat="47.79377" lon="5.0798">
        <ele>429.2</ele>
        <time>2022-05-09T08:43:41Z</time>
      </trkpt>
      <trkpt lat="47.79376" lon="5.07976">
        <ele>428.86</ele>
        <time>2022-05-09T08:43:44Z</time>
      </trkpt>
      <trkpt lat="47.79375" lon="5.07972">
        <ele>428.51</ele>
        <time>2022-05-09T08:43:47Z</time>
      </trkpt>
      <trkpt lat="47.79375" lon="5.07968">
        <ele>428.65</ele>
        <time>2022-05-09T08:43:50Z</time>
      </trkpt>
      <trkpt lat="47.79374" lon="5.07962">
        <ele>428.79</ele>
        <time>2022-05-09T08:43:53Z</time>
      </trkpt>
      <trkpt lat="47.79374" lon="5.07958">
        <ele>428.94</ele>
        <time>2022-05-09T08:43:55Z</time>
      </trkpt>
      <trkpt lat="47.79373" lon="5.07952">
        <ele>429.12</ele>
        <time>2022-05-09T08:43:58Z</time>
      </trkpt>
      <trkpt lat="47.79373" lon="5.07948">
        <ele>429.28</ele>
        <time>2022-05-09T08:44:01Z</time>
      </trkpt>
      <trkpt lat="47.79371" lon="5.07943">
        <ele>429.37</ele>
        <time>2022-05-09T08:44:02Z</time>
      </trkpt>
      <trkpt lat="47.7937" lon="5.0794">
        <ele>429.37</ele>
        <time>2022-05-09T08:44:04Z</time>
      </trkpt>
      <trkpt lat="47.79368" lon="5.07935">
        <ele>429.33</ele>
        <time>2022-05-09T08:44:06Z</time>
      </trkpt>
      <trkpt lat="47.79366" lon="5.07931">
        <ele>429.26</ele>
        <time>2022-05-09T08:44:10Z</time>
      </trkpt>
      <trkpt lat="47.79365" lon="5.07928">
        <ele>429.22</ele>
        <time>2022-05-09T08:44:11Z</time>
      </trkpt>
      <trkpt lat="47.79363" lon="5.07923">
        <ele>429.12</ele>
        <time>2022-05-09T08:44:13Z</time>
      </trkpt>
      <trkpt lat="47.79362" lon="5.07919">
        <ele>429.06</ele>
        <time>2022-05-09T08:44:16Z</time>
      </trkpt>
      <trkpt lat="47.7936" lon="5.07916">
        <ele>428.69</ele>
        <time>2022-05-09T08:44:18Z</time>
      </trkpt>
      <trkpt lat="47.79359" lon="5.07912">
        <ele>428.05</ele>
        <time>2022-05-09T08:44:20Z</time>
      </trkpt>
      <trkpt lat="47.79357" lon="5.07906">
        <ele>427.02</ele>
        <time>2022-05-09T08:44:23Z</time>
      </trkpt>
      <trkpt lat="47.79356" lon="5.07903">
        <ele>426.51</ele>
        <time>2022-05-09T08:44:24Z</time>
      </trkpt>
      <trkpt lat="47.79355" lon="5.07899">
        <ele>425.91</ele>
        <time>2022-05-09T08:44:27Z</time>
      </trkpt>
      <trkpt lat="47.79353" lon="5.07894">
        <ele>425.04</ele>
        <time>2022-05-09T08:44:29Z</time>
      </trkpt>
      <trkpt lat="47.79352" lon="5.0789">
        <ele>424.47</ele>
        <time>2022-05-09T08:44:31Z</time>
      </trkpt>
      <trkpt lat="47.79351" lon="5.07885">
        <ele>424.28</ele>
        <time>2022-05-09T08:44:34Z</time>
      </trkpt>
      <trkpt lat="47.7935" lon="5.07881">
        <ele>424.23</ele>
        <time>2022-05-09T08:44:36Z</time>
      </trkpt>
      <trkpt lat="47.79348" lon="5.07877">
        <ele>424.04</ele>
        <time>2022-05-09T08:44:38Z</time>
      </trkpt>
      <trkpt lat="47.79346" lon="5.07873">
        <ele>423.9</ele>
        <time>2022-05-09T08:44:40Z</time>
      </trkpt>
      <trkpt lat="47.79345" lon="5.07868">
        <ele>423.97</ele>
        <time>2022-05-09T08:44:43Z</time>
      </trkpt>
      <trkpt lat="47.79343" lon="5.07864">
        <ele>423.91</ele>
        <time>2022-05-09T08:44:44Z</time>
      </trkpt>
      <trkpt lat="47.79342" lon="5.07859">
        <ele>424.06</ele>
        <time>2022-05-09T08:44:47Z</time>
      </trkpt>
      <trkpt lat="47.7934" lon="5.07856">
        <ele>424.04</ele>
        <time>2022-05-09T08:44:48Z</time>
      </trkpt>
      <trkpt lat="47.79338" lon="5.07852">
        <ele>424.1</ele>
        <time>2022-05-09T08:44:50Z</time>
      </trkpt>
      <trkpt lat="47.79337" lon="5.07849">
        <ele>424.21</ele>
        <time>2022-05-09T08:44:52Z</time>
      </trkpt>
      <trkpt lat="47.79335" lon="5.07845">
        <ele>424.31</ele>
        <time>2022-05-09T08:44:55Z</time>
      </trkpt>
      <trkpt lat="47.79333" lon="5.07841">
        <ele>424.38</ele>
        <time>2022-05-09T08:44:57Z</time>
      </trkpt>
      <trkpt lat="47.79331" lon="5.07837">
        <ele>424.29</ele>
        <time>2022-05-09T08:44:59Z</time>
      </trkpt>
      <trkpt lat="47.79329" lon="5.07834">
        <ele>424.16</ele>
        <time>2022-05-09T08:45:01Z</time>
      </trkpt>
      <trkpt lat="47.79328" lon="5.0783">
        <ele>424.33</ele>
        <time>2022-05-09T08:45:05Z</time>
      </trkpt>
      <trkpt lat="47.79326" lon="5.07825">
        <ele>424.44</ele>
        <time>2022-05-09T08:45:08Z</time>
      </trkpt>
      <trkpt lat="47.79324" lon="5.07822">
        <ele>424.41</ele>
        <time>2022-05-09T08:45:09Z</time>
      </trkpt>
      <trkpt lat="47.79322" lon="5.07819">
        <ele>424.41</ele>
        <time>2022-05-09T08:45:12Z</time>
      </trkpt>
      <trkpt lat="47.7932" lon="5.07816">
        <ele>424.45</ele>
        <time>2022-05-09T08:45:13Z</time>
      </trkpt>
      <trkpt lat="47.79318" lon="5.07812">
        <ele>424.62</ele>
        <time>2022-05-09T08:45:15Z</time>
      </trkpt>
      <trkpt lat="47.79316" lon="5.07808">
        <ele>424.84</ele>
        <time>2022-05-09T08:45:18Z</time>
      </trkpt>
      <trkpt lat="47.79314" lon="5.07804">
        <ele>425.01</ele>
        <time>2022-05-09T08:45:20Z</time>
      </trkpt>
      <trkpt lat="47.79313" lon="5.07801">
        <ele>425.09</ele>
        <time>2022-05-09T08:45:23Z</time>
      </trkpt>
      <trkpt lat="47.79311" lon="5.07797">
        <ele>425.14</ele>
        <time>2022-05-09T08:45:24Z</time>
      </trkpt>
      <trkpt lat="47.7931" lon="5.07794">
        <ele>425.25</ele>
        <time>2022-05-09T08:45:26Z</time>
      </trkpt>
      <trkpt lat="47.79307" lon="5.0779">
        <ele>425.25</ele>
        <time>2022-05-09T08:45:28Z</time>
      </trkpt>
      <trkpt lat="47.79305" lon="5.07787">
        <ele>425.11</ele>
        <time>2022-05-09T08:45:30Z</time>
      </trkpt>
      <trkpt lat="47.79303" lon="5.07783">
        <ele>424.55</ele>
        <time>2022-05-09T08:45:32Z</time>
      </trkpt>
      <trkpt lat="47.79301" lon="5.0778">
        <ele>423.9</ele>
        <time>2022-05-09T08:45:34Z</time>
      </trkpt>
      <trkpt lat="47.79299" lon="5.07777">
        <ele>423.19</ele>
        <time>2022-05-09T08:45:37Z</time>
      </trkpt>
      <trkpt lat="47.79297" lon="5.07773">
        <ele>422.46</ele>
        <time>2022-05-09T08:45:39Z</time>
      </trkpt>
      <trkpt lat="47.79295" lon="5.0777">
        <ele>421.76</ele>
        <time>2022-05-09T08:45:41Z</time>
      </trkpt>
      <trkpt lat="47.79294" lon="5.07766">
        <ele>421.54</ele>
        <time>2022-05-09T08:45:43Z</time>
      </trkpt>
      <trkpt lat="47.79293" lon="5.07761">
        <ele>421.4</ele>
        <time>2022-05-09T08:45:48Z</time>
      </trkpt>
      <trkpt lat="47.79291" lon="5.07757">
        <ele>420.89</ele>
        <time>2022-05-09T08:45:49Z</time>
      </trkpt>
      <trkpt lat="47.79289" lon="5.07753">
        <ele>420.44</ele>
        <time>2022-05-09T08:45:51Z</time>
      </trkpt>
      <trkpt lat="47.79288" lon="5.07749">
        <ele>420.44</ele>
        <time>2022-05-09T08:45:53Z</time>
      </trkpt>
      <trkpt lat="47.79286" lon="5.07744">
        <ele>420.49</ele>
        <time>2022-05-09T08:45:55Z</time>
      </trkpt>
      <trkpt lat="47.79284" lon="5.0774">
        <ele>420.49</ele>
        <time>2022-05-09T08:45:58Z</time>
      </trkpt>
      <trkpt lat="47.79281" lon="5.07736">
        <ele>420.33</ele>
        <time>2022-05-09T08:46:01Z</time>
      </trkpt>
      <trkpt lat="47.79279" lon="5.07733">
        <ele>420.35</ele>
        <time>2022-05-09T08:46:03Z</time>
      </trkpt>
      <trkpt lat="47.79277" lon="5.0773">
        <ele>420.21</ele>
        <time>2022-05-09T08:46:04Z</time>
      </trkpt>
      <trkpt lat="47.79275" lon="5.07726">
        <ele>419.92</ele>
        <time>2022-05-09T08:46:07Z</time>
      </trkpt>
      <trkpt lat="47.79274" lon="5.07722">
        <ele>420.13</ele>
        <time>2022-05-09T08:46:09Z</time>
      </trkpt>
      <trkpt lat="47.79272" lon="5.07717">
        <ele>419.88</ele>
        <time>2022-05-09T08:46:11Z</time>
      </trkpt>
      <trkpt lat="47.79271" lon="5.07713">
        <ele>419.99</ele>
        <time>2022-05-09T08:46:13Z</time>
      </trkpt>
      <trkpt lat="47.79269" lon="5.0771">
        <ele>419.48</ele>
        <time>2022-05-09T08:46:17Z</time>
      </trkpt>
      <trkpt lat="47.79267" lon="5.07706">
        <ele>419.13</ele>
        <time>2022-05-09T08:46:18Z</time>
      </trkpt>
      <trkpt lat="47.79265" lon="5.07702">
        <ele>418.81</ele>
        <time>2022-05-09T08:46:20Z</time>
      </trkpt>
      <trkpt lat="47.79264" lon="5.07698">
        <ele>418.98</ele>
        <time>2022-05-09T08:46:22Z</time>
      </trkpt>
      <trkpt lat="47.79262" lon="5.07694">
        <ele>418.64</ele>
        <time>2022-05-09T08:46:25Z</time>
      </trkpt>
      <trkpt lat="47.79261" lon="5.0769">
        <ele>418.4</ele>
        <time>2022-05-09T08:46:27Z</time>
      </trkpt>
      <trkpt lat="47.7926" lon="5.07686">
        <ele>418.18</ele>
        <time>2022-05-09T08:46:29Z</time>
      </trkpt>
      <trkpt lat="47.79258" lon="5.07681">
        <ele>417.57</ele>
        <time>2022-05-09T08:46:31Z</time>
      </trkpt>
      <trkpt lat="47.79256" lon="5.07677">
        <ele>416.93</ele>
        <time>2022-05-09T08:46:33Z</time>
      </trkpt>
      <trkpt lat="47.79254" lon="5.07673">
        <ele>416.3</ele>
        <time>2022-05-09T08:46:36Z</time>
      </trkpt>
      <trkpt lat="47.79252" lon="5.07669">
        <ele>415.7</ele>
        <time>2022-05-09T08:46:38Z</time>
      </trkpt>
      <trkpt lat="47.79251" lon="5.07665">
        <ele>415.55</ele>
        <time>2022-05-09T08:46:40Z</time>
      </trkpt>
      <trkpt lat="47.7925" lon="5.07661">
        <ele>415.41</ele>
        <time>2022-05-09T08:46:42Z</time>
      </trkpt>
      <trkpt lat="47.79248" lon="5.07656">
        <ele>414.91</ele>
        <time>2022-05-09T08:46:44Z</time>
      </trkpt>
      <trkpt lat="47.79247" lon="5.07652">
        <ele>414.82</ele>
        <time>2022-05-09T08:46:46Z</time>
      </trkpt>
      <trkpt lat="47.79246" lon="5.07648">
        <ele>414.76</ele>
        <time>2022-05-09T08:46:49Z</time>
      </trkpt>
      <trkpt lat="47.79244" lon="5.07644">
        <ele>414.35</ele>
        <time>2022-05-09T08:46:51Z</time>
      </trkpt>
      <trkpt lat="47.79242" lon="5.07642">
        <ele>413.8</ele>
        <time>2022-05-09T08:46:53Z</time>
      </trkpt>
      <trkpt lat="47.7924" lon="5.07639">
        <ele>413.39</ele>
        <time>2022-05-09T08:46:54Z</time>
      </trkpt>
      <trkpt lat="47.79238" lon="5.07635">
        <ele>412.94</ele>
        <time>2022-05-09T08:46:57Z</time>
      </trkpt>
      <trkpt lat="47.79236" lon="5.07631">
        <ele>412.53</ele>
        <time>2022-05-09T08:46:59Z</time>
      </trkpt>
      <trkpt lat="47.79235" lon="5.07625">
        <ele>412.64</ele>
        <time>2022-05-09T08:47:03Z</time>
      </trkpt>
      <trkpt lat="47.79233" lon="5.0762">
        <ele>412.39</ele>
        <time>2022-05-09T08:47:05Z</time>
      </trkpt>
      <trkpt lat="47.79232" lon="5.07616">
        <ele>412.41</ele>
        <time>2022-05-09T08:47:06Z</time>
      </trkpt>
      <trkpt lat="47.79231" lon="5.07612">
        <ele>412.45</ele>
        <time>2022-05-09T08:47:08Z</time>
      </trkpt>
      <trkpt lat="47.7923" lon="5.07608">
        <ele>412.24</ele>
        <time>2022-05-09T08:47:10Z</time>
      </trkpt>
      <trkpt lat="47.79228" lon="5.07604">
        <ele>411.66</ele>
        <time>2022-05-09T08:47:11Z</time>
      </trkpt>
      <trkpt lat="47.79226" lon="5.07601">
        <ele>411.09</ele>
        <time>2022-05-09T08:47:13Z</time>
      </trkpt>
      <trkpt lat="47.79226" lon="5.07597">
        <ele>411.09</ele>
        <time>2022-05-09T08:47:15Z</time>
      </trkpt>
      <trkpt lat="47.79225" lon="5.07592">
        <ele>410.8</ele>
        <time>2022-05-09T08:47:20Z</time>
      </trkpt>
      <trkpt lat="47.79223" lon="5.07588">
        <ele>410.22</ele>
        <time>2022-05-09T08:47:22Z</time>
      </trkpt>
      <trkpt lat="47.79222" lon="5.07584">
        <ele>409.94</ele>
        <time>2022-05-09T08:47:23Z</time>
      </trkpt>
      <trkpt lat="47.7922" lon="5.07581">
        <ele>409.44</ele>
        <time>2022-05-09T08:47:25Z</time>
      </trkpt>
      <trkpt lat="47.79218" lon="5.07576">
        <ele>408.94</ele>
        <time>2022-05-09T08:47:27Z</time>
      </trkpt>
      <trkpt lat="47.79217" lon="5.07572">
        <ele>408.68</ele>
        <time>2022-05-09T08:47:30Z</time>
      </trkpt>
      <trkpt lat="47.79216" lon="5.07567">
        <ele>408.43</ele>
        <time>2022-05-09T08:47:32Z</time>
      </trkpt>
      <trkpt lat="47.79215" lon="5.07563">
        <ele>408.18</ele>
        <time>2022-05-09T08:47:33Z</time>
      </trkpt>
      <trkpt lat="47.79214" lon="5.07557">
        <ele>407.93</ele>
        <time>2022-05-09T08:47:36Z</time>
      </trkpt>
      <trkpt lat="47.79213" lon="5.07552">
        <ele>407.76</ele>
        <time>2022-05-09T08:47:38Z</time>
      </trkpt>
      <trkpt lat="47.79213" lon="5.07547">
        <ele>407.88</ele>
        <time>2022-05-09T08:47:40Z</time>
      </trkpt>
      <trkpt lat="47.79213" lon="5.07543">
        <ele>407.98</ele>
        <time>2022-05-09T08:47:42Z</time>
      </trkpt>
      <trkpt lat="47.79213" lon="5.07539">
        <ele>408.07</ele>
        <time>2022-05-09T08:47:47Z</time>
      </trkpt>
      <trkpt lat="47.79213" lon="5.07533">
        <ele>408.22</ele>
        <time>2022-05-09T08:47:51Z</time>
      </trkpt>
      <trkpt lat="47.79212" lon="5.07528">
        <ele>408.05</ele>
        <time>2022-05-09T08:47:53Z</time>
      </trkpt>
      <trkpt lat="47.79212" lon="5.07523">
        <ele>407.88</ele>
        <time>2022-05-09T08:47:54Z</time>
      </trkpt>
      <trkpt lat="47.79212" lon="5.07519">
        <ele>407.74</ele>
        <time>2022-05-09T08:47:57Z</time>
      </trkpt>
      <trkpt lat="47.79213" lon="5.07515">
        <ele>407.88</ele>
        <time>2022-05-09T08:48:00Z</time>
      </trkpt>
      <trkpt lat="47.79213" lon="5.07508">
        <ele>407.63</ele>
        <time>2022-05-09T08:48:03Z</time>
      </trkpt>
      <trkpt lat="47.79213" lon="5.07503">
        <ele>407.45</ele>
        <time>2022-05-09T08:48:05Z</time>
      </trkpt>
      <trkpt lat="47.79213" lon="5.07499">
        <ele>407.38</ele>
        <time>2022-05-09T08:48:06Z</time>
      </trkpt>
      <trkpt lat="47.79213" lon="5.07494">
        <ele>407.56</ele>
        <time>2022-05-09T08:48:08Z</time>
      </trkpt>
      <trkpt lat="47.79213" lon="5.0749">
        <ele>407.7</ele>
        <time>2022-05-09T08:48:10Z</time>
      </trkpt>
      <trkpt lat="47.79212" lon="5.07485">
        <ele>407.6</ele>
        <time>2022-05-09T08:48:13Z</time>
      </trkpt>
      <trkpt lat="47.79212" lon="5.0748">
        <ele>407.78</ele>
        <time>2022-05-09T08:48:16Z</time>
      </trkpt>
      <trkpt lat="47.79213" lon="5.07476">
        <ele>408.21</ele>
        <time>2022-05-09T08:48:19Z</time>
      </trkpt>
      <trkpt lat="47.79214" lon="5.07471">
        <ele>408.72</ele>
        <time>2022-05-09T08:48:22Z</time>
      </trkpt>
      <trkpt lat="47.79215" lon="5.07466">
        <ele>409.37</ele>
        <time>2022-05-09T08:48:24Z</time>
      </trkpt>
      <trkpt lat="47.79215" lon="5.07461">
        <ele>409.73</ele>
        <time>2022-05-09T08:48:27Z</time>
      </trkpt>
      <trkpt lat="47.79216" lon="5.07456">
        <ele>410.38</ele>
        <time>2022-05-09T08:48:28Z</time>
      </trkpt>
      <trkpt lat="47.79215" lon="5.07451">
        <ele>410.45</ele>
        <time>2022-05-09T08:48:31Z</time>
      </trkpt>
      <trkpt lat="47.79214" lon="5.07447">
        <ele>410.45</ele>
        <time>2022-05-09T08:48:32Z</time>
      </trkpt>
      <trkpt lat="47.79213" lon="5.07442">
        <ele>410.49</ele>
        <time>2022-05-09T08:48:35Z</time>
      </trkpt>
      <trkpt lat="47.79212" lon="5.07438">
        <ele>410.43</ele>
        <time>2022-05-09T08:48:37Z</time>
      </trkpt>
      <trkpt lat="47.7921" lon="5.07434">
        <ele>410.07</ele>
        <time>2022-05-09T08:48:39Z</time>
      </trkpt>
      <trkpt lat="47.79208" lon="5.0743">
        <ele>409.68</ele>
        <time>2022-05-09T08:48:41Z</time>
      </trkpt>
      <trkpt lat="47.79207" lon="5.07426">
        <ele>409.58</ele>
        <time>2022-05-09T08:48:44Z</time>
      </trkpt>
      <trkpt lat="47.79206" lon="5.07421">
        <ele>409.52</ele>
        <time>2022-05-09T08:48:48Z</time>
      </trkpt>
      <trkpt lat="47.79204" lon="5.07417">
        <ele>409.08</ele>
        <time>2022-05-09T08:48:50Z</time>
      </trkpt>
      <trkpt lat="47.79202" lon="5.07414">
        <ele>408.81</ele>
        <time>2022-05-09T08:48:53Z</time>
      </trkpt>
      <trkpt lat="47.792" lon="5.07411">
        <ele>408.58</ele>
        <time>2022-05-09T08:48:55Z</time>
      </trkpt>
      <trkpt lat="47.79198" lon="5.07408">
        <ele>408.36</ele>
        <time>2022-05-09T08:48:57Z</time>
      </trkpt>
      <trkpt lat="47.79196" lon="5.07406">
        <ele>408.02</ele>
        <time>2022-05-09T08:49:03Z</time>
      </trkpt>
      <trkpt lat="47.79193" lon="5.07402">
        <ele>407.6</ele>
        <time>2022-05-09T08:49:05Z</time>
      </trkpt>
      <trkpt lat="47.7919" lon="5.074">
        <ele>406.86</ele>
        <time>2022-05-09T08:49:06Z</time>
      </trkpt>
      <trkpt lat="47.79188" lon="5.07397">
        <ele>406.71</ele>
        <time>2022-05-09T08:49:08Z</time>
      </trkpt>
      <trkpt lat="47.79186" lon="5.07394">
        <ele>406.61</ele>
        <time>2022-05-09T08:49:09Z</time>
      </trkpt>
      <trkpt lat="47.79184" lon="5.07391">
        <ele>406.57</ele>
        <time>2022-05-09T08:49:11Z</time>
      </trkpt>
      <trkpt lat="47.79181" lon="5.07388">
        <ele>406.23</ele>
        <time>2022-05-09T08:49:13Z</time>
      </trkpt>
      <trkpt lat="47.79179" lon="5.07385">
        <ele>405.96</ele>
        <time>2022-05-09T08:49:16Z</time>
      </trkpt>
      <trkpt lat="47.79176" lon="5.07383">
        <ele>405.25</ele>
        <time>2022-05-09T08:49:18Z</time>
      </trkpt>
      <trkpt lat="47.79173" lon="5.0738">
        <ele>404.61</ele>
        <time>2022-05-09T08:49:20Z</time>
      </trkpt>
      <trkpt lat="47.79171" lon="5.07378">
        <ele>404.15</ele>
        <time>2022-05-09T08:49:22Z</time>
      </trkpt>
      <trkpt lat="47.79168" lon="5.07375">
        <ele>403.43</ele>
        <time>2022-05-09T08:49:24Z</time>
      </trkpt>
      <trkpt lat="47.79166" lon="5.07373">
        <ele>402.97</ele>
        <time>2022-05-09T08:49:26Z</time>
      </trkpt>
      <trkpt lat="47.79163" lon="5.07371">
        <ele>402.46</ele>
        <time>2022-05-09T08:49:29Z</time>
      </trkpt>
      <trkpt lat="47.7916" lon="5.07369">
        <ele>402.13</ele>
        <time>2022-05-09T08:49:30Z</time>
      </trkpt>
      <trkpt lat="47.79158" lon="5.07368">
        <ele>401.95</ele>
        <time>2022-05-09T08:49:32Z</time>
      </trkpt>
      <trkpt lat="47.79154" lon="5.07365">
        <ele>402.04</ele>
        <time>2022-05-09T08:49:36Z</time>
      </trkpt>
      <trkpt lat="47.79152" lon="5.07364">
        <ele>402.08</ele>
        <time>2022-05-09T08:49:38Z</time>
      </trkpt>
      <trkpt lat="47.79149" lon="5.07362">
        <ele>402.42</ele>
        <time>2022-05-09T08:49:40Z</time>
      </trkpt>
      <trkpt lat="47.79146" lon="5.07361">
        <ele>402.54</ele>
        <time>2022-05-09T08:49:42Z</time>
      </trkpt>
      <trkpt lat="47.79143" lon="5.07359">
        <ele>402.81</ele>
        <time>2022-05-09T08:49:44Z</time>
      </trkpt>
      <trkpt lat="47.7914" lon="5.07356">
        <ele>403.22</ele>
        <time>2022-05-09T08:49:46Z</time>
      </trkpt>
      <trkpt lat="47.79138" lon="5.07354">
        <ele>403.27</ele>
        <time>2022-05-09T08:49:49Z</time>
      </trkpt>
      <trkpt lat="47.79135" lon="5.07351">
        <ele>403.01</ele>
        <time>2022-05-09T08:49:51Z</time>
      </trkpt>
      <trkpt lat="47.79132" lon="5.07349">
        <ele>402.52</ele>
        <time>2022-05-09T08:49:52Z</time>
      </trkpt>
      <trkpt lat="47.79129" lon="5.07347">
        <ele>402.02</ele>
        <time>2022-05-09T08:49:54Z</time>
      </trkpt>
      <trkpt lat="47.79127" lon="5.07346">
        <ele>401.61</ele>
        <time>2022-05-09T08:49:58Z</time>
      </trkpt>
      <trkpt lat="47.79124" lon="5.07343">
        <ele>401.27</ele>
        <time>2022-05-09T08:50:00Z</time>
      </trkpt>
      <trkpt lat="47.79121" lon="5.07341">
        <ele>400.73</ele>
        <time>2022-05-09T08:50:03Z</time>
      </trkpt>
      <trkpt lat="47.79119" lon="5.07338">
        <ele>400.67</ele>
        <time>2022-05-09T08:50:04Z</time>
      </trkpt>
      <trkpt lat="47.79116" lon="5.07336">
        <ele>400.09</ele>
        <time>2022-05-09T08:50:06Z</time>
      </trkpt>
      <trkpt lat="47.79114" lon="5.07335">
        <ele>399.63</ele>
        <time>2022-05-09T08:50:11Z</time>
      </trkpt>
      <trkpt lat="47.79111" lon="5.07332">
        <ele>399.28</ele>
        <time>2022-05-09T08:50:14Z</time>
      </trkpt>
      <trkpt lat="47.79109" lon="5.07328">
        <ele>400.03</ele>
        <time>2022-05-09T08:50:18Z</time>
      </trkpt>
      <trkpt lat="47.79107" lon="5.07326">
        <ele>400.32</ele>
        <time>2022-05-09T08:50:20Z</time>
      </trkpt>
      <trkpt lat="47.79105" lon="5.07324">
        <ele>400.57</ele>
        <time>2022-05-09T08:50:21Z</time>
      </trkpt>
      <trkpt lat="47.79101" lon="5.07322">
        <ele>400.64</ele>
        <time>2022-05-09T08:50:25Z</time>
      </trkpt>
      <trkpt lat="47.79099" lon="5.0732">
        <ele>400.82</ele>
        <time>2022-05-09T08:50:27Z</time>
      </trkpt>
      <trkpt lat="47.79096" lon="5.07319">
        <ele>400.71</ele>
        <time>2022-05-09T08:50:30Z</time>
      </trkpt>
      <trkpt lat="47.79093" lon="5.07318">
        <ele>400.58</ele>
        <time>2022-05-09T08:50:35Z</time>
      </trkpt>
      <trkpt lat="47.7909" lon="5.07318">
        <ele>400.29</ele>
        <time>2022-05-09T08:50:38Z</time>
      </trkpt>
      <trkpt lat="47.79087" lon="5.07317">
        <ele>400.13</ele>
        <time>2022-05-09T08:50:41Z</time>
      </trkpt>
      <trkpt lat="47.79084" lon="5.07317">
        <ele>399.83</ele>
        <time>2022-05-09T08:50:44Z</time>
      </trkpt>
      <trkpt lat="47.79081" lon="5.07318">
        <ele>399.07</ele>
        <time>2022-05-09T08:50:46Z</time>
      </trkpt>
      <trkpt lat="47.79078" lon="5.07318">
        <ele>398.31</ele>
        <time>2022-05-09T08:50:48Z</time>
      </trkpt>
      <trkpt lat="47.79074" lon="5.07318">
        <ele>397.3</ele>
        <time>2022-05-09T08:50:50Z</time>
      </trkpt>
      <trkpt lat="47.79071" lon="5.07319">
        <ele>396.44</ele>
        <time>2022-05-09T08:50:53Z</time>
      </trkpt>
      <trkpt lat="47.79067" lon="5.07319">
        <ele>395.43</ele>
        <time>2022-05-09T08:50:56Z</time>
      </trkpt>
      <trkpt lat="47.79064" lon="5.07319">
        <ele>394.68</ele>
        <time>2022-05-09T08:50:58Z</time>
      </trkpt>
      <trkpt lat="47.79061" lon="5.07318">
        <ele>394.03</ele>
        <time>2022-05-09T08:50:59Z</time>
      </trkpt>
      <trkpt lat="47.79058" lon="5.07318">
        <ele>393.27</ele>
        <time>2022-05-09T08:51:01Z</time>
      </trkpt>
      <trkpt lat="47.79055" lon="5.07318">
        <ele>392.52</ele>
        <time>2022-05-09T08:51:04Z</time>
      </trkpt>
      <trkpt lat="47.79052" lon="5.07319">
        <ele>391.66</ele>
        <time>2022-05-09T08:51:06Z</time>
      </trkpt>
      <trkpt lat="47.79049" lon="5.07319">
        <ele>390.9</ele>
        <time>2022-05-09T08:51:08Z</time>
      </trkpt>
      <trkpt lat="47.79045" lon="5.07319">
        <ele>389.9</ele>
        <time>2022-05-09T08:51:11Z</time>
      </trkpt>
      <trkpt lat="47.79042" lon="5.07319">
        <ele>389.15</ele>
        <time>2022-05-09T08:51:14Z</time>
      </trkpt>
      <trkpt lat="47.79039" lon="5.07319">
        <ele>388.4</ele>
        <time>2022-05-09T08:51:16Z</time>
      </trkpt>
      <trkpt lat="47.79036" lon="5.0732">
        <ele>387.48</ele>
        <time>2022-05-09T08:51:18Z</time>
      </trkpt>
      <trkpt lat="47.79032" lon="5.0732">
        <ele>386.47</ele>
        <time>2022-05-09T08:51:20Z</time>
      </trkpt>
      <trkpt lat="47.79029" lon="5.07319">
        <ele>385.89</ele>
        <time>2022-05-09T08:51:22Z</time>
      </trkpt>
      <trkpt lat="47.79026" lon="5.07319">
        <ele>385.29</ele>
        <time>2022-05-09T08:51:24Z</time>
      </trkpt>
      <trkpt lat="47.79022" lon="5.07318">
        <ele>384.83</ele>
        <time>2022-05-09T08:51:26Z</time>
      </trkpt>
      <trkpt lat="47.7902" lon="5.07317">
        <ele>384.7</ele>
        <time>2022-05-09T08:51:28Z</time>
      </trkpt>
      <trkpt lat="47.79017" lon="5.07317">
        <ele>384.23</ele>
        <time>2022-05-09T08:51:30Z</time>
      </trkpt>
      <trkpt lat="47.79014" lon="5.07317">
        <ele>383.75</ele>
        <time>2022-05-09T08:51:31Z</time>
      </trkpt>
      <trkpt lat="47.79011" lon="5.07316">
        <ele>383.48</ele>
        <time>2022-05-09T08:51:33Z</time>
      </trkpt>
      <trkpt lat="47.79008" lon="5.07315">
        <ele>383.21</ele>
        <time>2022-05-09T08:51:36Z</time>
      </trkpt>
      <trkpt lat="47.79006" lon="5.07314">
        <ele>383.11</ele>
        <time>2022-05-09T08:51:38Z</time>
      </trkpt>
      <trkpt lat="47.79003" lon="5.07312">
        <ele>383.07</ele>
        <time>2022-05-09T08:51:40Z</time>
      </trkpt>
      <trkpt lat="47.79" lon="5.0731">
        <ele>383.04</ele>
        <time>2022-05-09T08:51:42Z</time>
      </trkpt>
      <trkpt lat="47.78997" lon="5.07309">
        <ele>382.82</ele>
        <time>2022-05-09T08:51:43Z</time>
      </trkpt>
      <trkpt lat="47.78994" lon="5.07308">
        <ele>382.61</ele>
        <time>2022-05-09T08:51:46Z</time>
      </trkpt>
      <trkpt lat="47.78991" lon="5.07306">
        <ele>382.61</ele>
        <time>2022-05-09T08:51:47Z</time>
      </trkpt>
      <trkpt lat="47.78988" lon="5.07304">
        <ele>382.75</ele>
        <time>2022-05-09T08:51:50Z</time>
      </trkpt>
      <trkpt lat="47.78985" lon="5.07302">
        <ele>382.92</ele>
        <time>2022-05-09T08:51:52Z</time>
      </trkpt>
      <trkpt lat="47.78982" lon="5.073">
        <ele>383.08</ele>
        <time>2022-05-09T08:51:54Z</time>
      </trkpt>
      <trkpt lat="47.7898" lon="5.07298">
        <ele>383.37</ele>
        <time>2022-05-09T08:51:56Z</time>
      </trkpt>
      <trkpt lat="47.78977" lon="5.07296">
        <ele>383.5</ele>
        <time>2022-05-09T08:51:58Z</time>
      </trkpt>
      <trkpt lat="47.78974" lon="5.07293">
        <ele>383.9</ele>
        <time>2022-05-09T08:52:01Z</time>
      </trkpt>
      <trkpt lat="47.78972" lon="5.07291">
        <ele>384.13</ele>
        <time>2022-05-09T08:52:04Z</time>
      </trkpt>
      <trkpt lat="47.78969" lon="5.07288">
        <ele>384.07</ele>
        <time>2022-05-09T08:52:06Z</time>
      </trkpt>
      <trkpt lat="47.78966" lon="5.07286">
        <ele>383.66</ele>
        <time>2022-05-09T08:52:08Z</time>
      </trkpt>
      <trkpt lat="47.78964" lon="5.07284">
        <ele>383.51</ele>
        <time>2022-05-09T08:52:11Z</time>
      </trkpt>
      <trkpt lat="47.78961" lon="5.07282">
        <ele>382.99</ele>
        <time>2022-05-09T08:52:14Z</time>
      </trkpt>
      <trkpt lat="47.78959" lon="5.07279">
        <ele>382.97</ele>
        <time>2022-05-09T08:52:21Z</time>
      </trkpt>
      <trkpt lat="47.78957" lon="5.07275">
        <ele>382.73</ele>
        <time>2022-05-09T08:52:27Z</time>
      </trkpt>
      <trkpt lat="47.78956" lon="5.07271">
        <ele>382.69</ele>
        <time>2022-05-09T08:52:35Z</time>
      </trkpt>
      <trkpt lat="47.78954" lon="5.07269">
        <ele>382.17</ele>
        <time>2022-05-09T08:54:20Z</time>
      </trkpt>
      <trkpt lat="47.78951" lon="5.07266">
        <ele>381.43</ele>
        <time>2022-05-09T08:54:33Z</time>
      </trkpt>
      <trkpt lat="47.78952" lon="5.07261">
        <ele>382.2</ele>
        <time>2022-05-09T08:54:38Z</time>
      </trkpt>
      <trkpt lat="47.78952" lon="5.07257">
        <ele>382.56</ele>
        <time>2022-05-09T08:54:41Z</time>
      </trkpt>
      <trkpt lat="47.78949" lon="5.07256">
        <ele>381.73</ele>
        <time>2022-05-09T08:56:38Z</time>
      </trkpt>
      <trkpt lat="47.78946" lon="5.07256">
        <ele>380.82</ele>
        <time>2022-05-09T08:58:07Z</time>
      </trkpt>
      <trkpt lat="47.78944" lon="5.07254">
        <ele>380.47</ele>
        <time>2022-05-09T08:58:13Z</time>
      </trkpt>
      <trkpt lat="47.78941" lon="5.07252">
        <ele>380.05</ele>
        <time>2022-05-09T08:58:14Z</time>
      </trkpt>
      <trkpt lat="47.78939" lon="5.07249">
        <ele>379.92</ele>
        <time>2022-05-09T08:58:16Z</time>
      </trkpt>
      <trkpt lat="47.78936" lon="5.07248">
        <ele>379.37</ele>
        <time>2022-05-09T08:58:19Z</time>
      </trkpt>
      <trkpt lat="47.78933" lon="5.07246">
        <ele>378.9</ele>
        <time>2022-05-09T08:58:22Z</time>
      </trkpt>
      <trkpt lat="47.7893" lon="5.07244">
        <ele>378.42</ele>
        <time>2022-05-09T08:58:24Z</time>
      </trkpt>
      <trkpt lat="47.78928" lon="5.07241">
        <ele>378.23</ele>
        <time>2022-05-09T08:58:27Z</time>
      </trkpt>
      <trkpt lat="47.78926" lon="5.07238">
        <ele>378.03</ele>
        <time>2022-05-09T08:58:29Z</time>
      </trkpt>
      <trkpt lat="47.78924" lon="5.07234">
        <ele>377.89</ele>
        <time>2022-05-09T08:58:31Z</time>
      </trkpt>
      <trkpt lat="47.78922" lon="5.07231">
        <ele>377.65</ele>
        <time>2022-05-09T08:58:34Z</time>
      </trkpt>
      <trkpt lat="47.7892" lon="5.07227">
        <ele>377.48</ele>
        <time>2022-05-09T08:58:36Z</time>
      </trkpt>
      <trkpt lat="47.78919" lon="5.07224">
        <ele>377.45</ele>
        <time>2022-05-09T08:58:39Z</time>
      </trkpt>
      <trkpt lat="47.78917" lon="5.07221">
        <ele>377.04</ele>
        <time>2022-05-09T08:58:40Z</time>
      </trkpt>
      <trkpt lat="47.78914" lon="5.07217">
        <ele>375.92</ele>
        <time>2022-05-09T08:58:42Z</time>
      </trkpt>
      <trkpt lat="47.78912" lon="5.07213">
        <ele>375.21</ele>
        <time>2022-05-09T08:58:45Z</time>
      </trkpt>
      <trkpt lat="47.7891" lon="5.0721">
        <ele>374.58</ele>
        <time>2022-05-09T08:58:46Z</time>
      </trkpt>
      <trkpt lat="47.78907" lon="5.07206">
        <ele>373.75</ele>
        <time>2022-05-09T08:58:49Z</time>
      </trkpt>
      <trkpt lat="47.78904" lon="5.07203">
        <ele>373.01</ele>
        <time>2022-05-09T08:58:50Z</time>
      </trkpt>
      <trkpt lat="47.78902" lon="5.072">
        <ele>372.61</ele>
        <time>2022-05-09T08:58:53Z</time>
      </trkpt>
      <trkpt lat="47.78899" lon="5.07196">
        <ele>372.1</ele>
        <time>2022-05-09T08:58:55Z</time>
      </trkpt>
      <trkpt lat="47.78897" lon="5.07193">
        <ele>371.65</ele>
        <time>2022-05-09T08:58:56Z</time>
      </trkpt>
      <trkpt lat="47.78896" lon="5.07189">
        <ele>371.14</ele>
        <time>2022-05-09T08:58:59Z</time>
      </trkpt>
      <trkpt lat="47.78895" lon="5.07185">
        <ele>370.64</ele>
        <time>2022-05-09T08:59:01Z</time>
      </trkpt>
      <trkpt lat="47.78894" lon="5.07179">
        <ele>369.99</ele>
        <time>2022-05-09T08:59:04Z</time>
      </trkpt>
      <trkpt lat="47.78893" lon="5.07174">
        <ele>369.42</ele>
        <time>2022-05-09T08:59:05Z</time>
      </trkpt>
      <trkpt lat="47.78893" lon="5.0717">
        <ele>369.13</ele>
        <time>2022-05-09T08:59:07Z</time>
      </trkpt>
      <trkpt lat="47.78893" lon="5.07166">
        <ele>368.84</ele>
        <time>2022-05-09T08:59:10Z</time>
      </trkpt>
      <trkpt lat="47.78892" lon="5.07161">
        <ele>368.29</ele>
        <time>2022-05-09T08:59:12Z</time>
      </trkpt>
      <trkpt lat="47.7889" lon="5.07156">
        <ele>367.49</ele>
        <time>2022-05-09T08:59:14Z</time>
      </trkpt>
      <trkpt lat="47.78889" lon="5.07152">
        <ele>366.97</ele>
        <time>2022-05-09T08:59:16Z</time>
      </trkpt>
      <trkpt lat="47.78888" lon="5.07147">
        <ele>366.38</ele>
        <time>2022-05-09T08:59:19Z</time>
      </trkpt>
      <trkpt lat="47.78887" lon="5.07142">
        <ele>365.81</ele>
        <time>2022-05-09T08:59:21Z</time>
      </trkpt>
      <trkpt lat="47.78886" lon="5.07138">
        <ele>365.44</ele>
        <time>2022-05-09T08:59:24Z</time>
      </trkpt>
      <trkpt lat="47.78884" lon="5.07133">
        <ele>365.41</ele>
        <time>2022-05-09T08:59:26Z</time>
      </trkpt>
      <trkpt lat="47.78884" lon="5.07129">
        <ele>365.72</ele>
        <time>2022-05-09T08:59:27Z</time>
      </trkpt>
      <trkpt lat="47.78883" lon="5.07125">
        <ele>365.83</ele>
        <time>2022-05-09T08:59:29Z</time>
      </trkpt>
      <trkpt lat="47.78882" lon="5.07121">
        <ele>365.96</ele>
        <time>2022-05-09T08:59:32Z</time>
      </trkpt>
      <trkpt lat="47.7888" lon="5.07116">
        <ele>365.99</ele>
        <time>2022-05-09T08:59:34Z</time>
      </trkpt>
      <trkpt lat="47.78879" lon="5.07113">
        <ele>366.06</ele>
        <time>2022-05-09T08:59:36Z</time>
      </trkpt>
      <trkpt lat="47.78878" lon="5.07109">
        <ele>366.16</ele>
        <time>2022-05-09T08:59:39Z</time>
      </trkpt>
      <trkpt lat="47.78878" lon="5.07104">
        <ele>366.45</ele>
        <time>2022-05-09T08:59:42Z</time>
      </trkpt>
      <trkpt lat="47.78877" lon="5.07099">
        <ele>366.55</ele>
        <time>2022-05-09T08:59:44Z</time>
      </trkpt>
      <trkpt lat="47.78876" lon="5.07095">
        <ele>366.57</ele>
        <time>2022-05-09T08:59:47Z</time>
      </trkpt>
      <trkpt lat="47.78875" lon="5.07091">
        <ele>366.59</ele>
        <time>2022-05-09T08:59:50Z</time>
      </trkpt>
      <trkpt lat="47.78874" lon="5.07086">
        <ele>366.64</ele>
        <time>2022-05-09T08:59:53Z</time>
      </trkpt>
      <trkpt lat="47.78873" lon="5.07082">
        <ele>366.56</ele>
        <time>2022-05-09T08:59:54Z</time>
      </trkpt>
      <trkpt lat="47.78873" lon="5.07078">
        <ele>366.54</ele>
        <time>2022-05-09T08:59:55Z</time>
      </trkpt>
      <trkpt lat="47.78872" lon="5.07073">
        <ele>366.27</ele>
        <time>2022-05-09T08:59:59Z</time>
      </trkpt>
      <trkpt lat="47.78871" lon="5.07069">
        <ele>365.99</ele>
        <time>2022-05-09T09:00:01Z</time>
      </trkpt>
      <trkpt lat="47.78871" lon="5.07065">
        <ele>365.95</ele>
        <time>2022-05-09T09:00:04Z</time>
      </trkpt>
      <trkpt lat="47.78871" lon="5.0706">
        <ele>365.89</ele>
        <time>2022-05-09T09:00:06Z</time>
      </trkpt>
      <trkpt lat="47.7887" lon="5.07055">
        <ele>365.53</ele>
        <time>2022-05-09T09:00:08Z</time>
      </trkpt>
      <trkpt lat="47.78868" lon="5.0705">
        <ele>364.73</ele>
        <time>2022-05-09T09:00:11Z</time>
      </trkpt>
      <trkpt lat="47.78866" lon="5.07047">
        <ele>364.05</ele>
        <time>2022-05-09T09:00:14Z</time>
      </trkpt>
      <trkpt lat="47.78864" lon="5.07043">
        <ele>363.33</ele>
        <time>2022-05-09T09:00:16Z</time>
      </trkpt>
      <trkpt lat="47.78863" lon="5.07038">
        <ele>362.87</ele>
        <time>2022-05-09T09:00:18Z</time>
      </trkpt>
      <trkpt lat="47.78862" lon="5.07033">
        <ele>362.42</ele>
        <time>2022-05-09T09:00:20Z</time>
      </trkpt>
      <trkpt lat="47.78861" lon="5.07028">
        <ele>361.98</ele>
        <time>2022-05-09T09:00:22Z</time>
      </trkpt>
      <trkpt lat="47.78861" lon="5.07024">
        <ele>361.84</ele>
        <time>2022-05-09T09:00:24Z</time>
      </trkpt>
      <trkpt lat="47.7886" lon="5.07019">
        <ele>361.42</ele>
        <time>2022-05-09T09:00:27Z</time>
      </trkpt>
      <trkpt lat="47.78859" lon="5.07015">
        <ele>361.04</ele>
        <time>2022-05-09T09:00:29Z</time>
      </trkpt>
      <trkpt lat="47.78859" lon="5.07011">
        <ele>360.91</ele>
        <time>2022-05-09T09:00:32Z</time>
      </trkpt>
      <trkpt lat="47.78858" lon="5.07007">
        <ele>360.55</ele>
        <time>2022-05-09T09:00:34Z</time>
      </trkpt>
      <trkpt lat="47.78858" lon="5.07002">
        <ele>360.39</ele>
        <time>2022-05-09T09:00:37Z</time>
      </trkpt>
      <trkpt lat="47.78858" lon="5.06997">
        <ele>360.23</ele>
        <time>2022-05-09T09:00:39Z</time>
      </trkpt>
      <trkpt lat="47.78857" lon="5.0699">
        <ele>359.81</ele>
        <time>2022-05-09T09:00:42Z</time>
      </trkpt>
      <trkpt lat="47.78857" lon="5.06986">
        <ele>359.68</ele>
        <time>2022-05-09T09:00:43Z</time>
      </trkpt>
      <trkpt lat="47.78857" lon="5.06981">
        <ele>359.53</ele>
        <time>2022-05-09T09:00:45Z</time>
      </trkpt>
      <trkpt lat="47.78858" lon="5.06976">
        <ele>359.56</ele>
        <time>2022-05-09T09:00:48Z</time>
      </trkpt>
      <trkpt lat="47.78857" lon="5.06972">
        <ele>359.24</ele>
        <time>2022-05-09T09:00:50Z</time>
      </trkpt>
      <trkpt lat="47.78857" lon="5.06967">
        <ele>358.88</ele>
        <time>2022-05-09T09:00:52Z</time>
      </trkpt>
      <trkpt lat="47.78857" lon="5.06963">
        <ele>358.6</ele>
        <time>2022-05-09T09:00:55Z</time>
      </trkpt>
      <trkpt lat="47.78857" lon="5.06959">
        <ele>358.31</ele>
        <time>2022-05-09T09:00:57Z</time>
      </trkpt>
      <trkpt lat="47.78857" lon="5.06954">
        <ele>357.95</ele>
        <time>2022-05-09T09:00:59Z</time>
      </trkpt>
      <trkpt lat="47.78856" lon="5.0695">
        <ele>357.48</ele>
        <time>2022-05-09T09:01:02Z</time>
      </trkpt>
      <trkpt lat="47.78856" lon="5.06945">
        <ele>357.12</ele>
        <time>2022-05-09T09:01:04Z</time>
      </trkpt>
      <trkpt lat="47.78855" lon="5.06938">
        <ele>356.9</ele>
        <time>2022-05-09T09:01:08Z</time>
      </trkpt>
      <trkpt lat="47.78855" lon="5.06934">
        <ele>356.9</ele>
        <time>2022-05-09T09:01:10Z</time>
      </trkpt>
      <trkpt lat="47.78855" lon="5.06929">
        <ele>356.9</ele>
        <time>2022-05-09T09:01:13Z</time>
      </trkpt>
      <trkpt lat="47.78855" lon="5.06924">
        <ele>356.9</ele>
        <time>2022-05-09T09:01:17Z</time>
      </trkpt>
      <trkpt lat="47.78855" lon="5.0692">
        <ele>356.9</ele>
        <time>2022-05-09T09:01:21Z</time>
      </trkpt>
      <trkpt lat="47.78854" lon="5.06916">
        <ele>356.7</ele>
        <time>2022-05-09T09:01:25Z</time>
      </trkpt>
      <trkpt lat="47.78854" lon="5.06911">
        <ele>356.57</ele>
        <time>2022-05-09T09:01:27Z</time>
      </trkpt>
      <trkpt lat="47.78854" lon="5.06905">
        <ele>356.41</ele>
        <time>2022-05-09T09:01:30Z</time>
      </trkpt>
      <trkpt lat="47.78854" lon="5.069">
        <ele>356.27</ele>
        <time>2022-05-09T09:01:32Z</time>
      </trkpt>
      <trkpt lat="47.78854" lon="5.06895">
        <ele>356.14</ele>
        <time>2022-05-09T09:01:34Z</time>
      </trkpt>
      <trkpt lat="47.78853" lon="5.0689">
        <ele>355.86</ele>
        <time>2022-05-09T09:01:37Z</time>
      </trkpt>
      <trkpt lat="47.78854" lon="5.06886">
        <ele>355.9</ele>
        <time>2022-05-09T09:01:38Z</time>
      </trkpt>
      <trkpt lat="47.78854" lon="5.0688">
        <ele>355.74</ele>
        <time>2022-05-09T09:01:41Z</time>
      </trkpt>
      <trkpt lat="47.78855" lon="5.06874">
        <ele>355.7</ele>
        <time>2022-05-09T09:01:43Z</time>
      </trkpt>
      <trkpt lat="47.78855" lon="5.0687">
        <ele>355.59</ele>
        <time>2022-05-09T09:01:44Z</time>
      </trkpt>
      <trkpt lat="47.78855" lon="5.06866">
        <ele>355.48</ele>
        <time>2022-05-09T09:01:46Z</time>
      </trkpt>
      <trkpt lat="47.78856" lon="5.06862">
        <ele>355.47</ele>
        <time>2022-05-09T09:01:48Z</time>
      </trkpt>
      <trkpt lat="47.78856" lon="5.06857">
        <ele>355.3</ele>
        <time>2022-05-09T09:01:49Z</time>
      </trkpt>
      <trkpt lat="47.78856" lon="5.06852">
        <ele>355.12</ele>
        <time>2022-05-09T09:01:52Z</time>
      </trkpt>
      <trkpt lat="47.78856" lon="5.06847">
        <ele>354.94</ele>
        <time>2022-05-09T09:01:53Z</time>
      </trkpt>
      <trkpt lat="47.78856" lon="5.06842">
        <ele>354.76</ele>
        <time>2022-05-09T09:01:55Z</time>
      </trkpt>
      <trkpt lat="47.78856" lon="5.06838">
        <ele>354.62</ele>
        <time>2022-05-09T09:01:58Z</time>
      </trkpt>
      <trkpt lat="47.78855" lon="5.06833">
        <ele>354.33</ele>
        <time>2022-05-09T09:02:00Z</time>
      </trkpt>
      <trkpt lat="47.78855" lon="5.06828">
        <ele>354.15</ele>
        <time>2022-05-09T09:02:05Z</time>
      </trkpt>
      <trkpt lat="47.78854" lon="5.06823">
        <ele>353.86</ele>
        <time>2022-05-09T09:02:07Z</time>
      </trkpt>
      <trkpt lat="47.78854" lon="5.06819">
        <ele>353.72</ele>
        <time>2022-05-09T09:02:10Z</time>
      </trkpt>
      <trkpt lat="47.78854" lon="5.06814">
        <ele>353.54</ele>
        <time>2022-05-09T09:02:13Z</time>
      </trkpt>
      <trkpt lat="47.78853" lon="5.06809">
        <ele>353.25</ele>
        <time>2022-05-09T09:02:15Z</time>
      </trkpt>
      <trkpt lat="47.78853" lon="5.06805">
        <ele>353.11</ele>
        <time>2022-05-09T09:02:18Z</time>
      </trkpt>
      <trkpt lat="47.78853" lon="5.06801">
        <ele>353.01</ele>
        <time>2022-05-09T09:02:20Z</time>
      </trkpt>
      <trkpt lat="47.78853" lon="5.06796">
        <ele>352.88</ele>
        <time>2022-05-09T09:02:24Z</time>
      </trkpt>
      <trkpt lat="47.78853" lon="5.06792">
        <ele>352.78</ele>
        <time>2022-05-09T09:02:26Z</time>
      </trkpt>
      <trkpt lat="47.78853" lon="5.06786">
        <ele>352.63</ele>
        <time>2022-05-09T09:02:29Z</time>
      </trkpt>
      <trkpt lat="47.78853" lon="5.06781">
        <ele>352.5</ele>
        <time>2022-05-09T09:02:31Z</time>
      </trkpt>
      <trkpt lat="47.78853" lon="5.06776">
        <ele>352.43</ele>
        <time>2022-05-09T09:02:33Z</time>
      </trkpt>
      <trkpt lat="47.78853" lon="5.06771">
        <ele>352.49</ele>
        <time>2022-05-09T09:02:35Z</time>
      </trkpt>
      <trkpt lat="47.78853" lon="5.06766">
        <ele>352.54</ele>
        <time>2022-05-09T09:02:37Z</time>
      </trkpt>
      <trkpt lat="47.78853" lon="5.06761">
        <ele>352.59</ele>
        <time>2022-05-09T09:02:39Z</time>
      </trkpt>
      <trkpt lat="47.78853" lon="5.06757">
        <ele>352.63</ele>
        <time>2022-05-09T09:02:43Z</time>
      </trkpt>
      <trkpt lat="47.78853" lon="5.06751">
        <ele>352.7</ele>
        <time>2022-05-09T09:02:46Z</time>
      </trkpt>
      <trkpt lat="47.78853" lon="5.06747">
        <ele>352.46</ele>
        <time>2022-05-09T09:02:48Z</time>
      </trkpt>
      <trkpt lat="47.78853" lon="5.06743">
        <ele>352.13</ele>
        <time>2022-05-09T09:02:50Z</time>
      </trkpt>
      <trkpt lat="47.78852" lon="5.06738">
        <ele>351.67</ele>
        <time>2022-05-09T09:02:53Z</time>
      </trkpt>
      <trkpt lat="47.78852" lon="5.06733">
        <ele>351.25</ele>
        <time>2022-05-09T09:02:54Z</time>
      </trkpt>
      <trkpt lat="47.78853" lon="5.06729">
        <ele>350.98</ele>
        <time>2022-05-09T09:02:56Z</time>
      </trkpt>
      <trkpt lat="47.78852" lon="5.06725">
        <ele>350.58</ele>
        <time>2022-05-09T09:02:58Z</time>
      </trkpt>
      <trkpt lat="47.78852" lon="5.06721">
        <ele>350.26</ele>
        <time>2022-05-09T09:02:59Z</time>
      </trkpt>
      <trkpt lat="47.78853" lon="5.06715">
        <ele>349.9</ele>
        <time>2022-05-09T09:03:01Z</time>
      </trkpt>
      <trkpt lat="47.78853" lon="5.06711">
        <ele>349.61</ele>
        <time>2022-05-09T09:03:03Z</time>
      </trkpt>
      <trkpt lat="47.78853" lon="5.06706">
        <ele>349.25</ele>
        <time>2022-05-09T09:03:06Z</time>
      </trkpt>
      <trkpt lat="47.78852" lon="5.067">
        <ele>348.74</ele>
        <time>2022-05-09T09:03:09Z</time>
      </trkpt>
      <trkpt lat="47.78853" lon="5.06696">
        <ele>348.53</ele>
        <time>2022-05-09T09:03:10Z</time>
      </trkpt>
      <trkpt lat="47.78854" lon="5.06691">
        <ele>348.49</ele>
        <time>2022-05-09T09:03:12Z</time>
      </trkpt>
      <trkpt lat="47.78854" lon="5.06687">
        <ele>348.49</ele>
        <time>2022-05-09T09:03:14Z</time>
      </trkpt>
      <trkpt lat="47.78855" lon="5.06682">
        <ele>348.56</ele>
        <time>2022-05-09T09:03:16Z</time>
      </trkpt>
      <trkpt lat="47.78855" lon="5.06676">
        <ele>348.56</ele>
        <time>2022-05-09T09:03:19Z</time>
      </trkpt>
      <trkpt lat="47.78856" lon="5.06672">
        <ele>348.63</ele>
        <time>2022-05-09T09:03:21Z</time>
      </trkpt>
      <trkpt lat="47.78857" lon="5.06668">
        <ele>348.7</ele>
        <time>2022-05-09T09:03:22Z</time>
      </trkpt>
      <trkpt lat="47.78857" lon="5.06663">
        <ele>348.61</ele>
        <time>2022-05-09T09:03:24Z</time>
      </trkpt>
      <trkpt lat="47.78857" lon="5.06659">
        <ele>348.51</ele>
        <time>2022-05-09T09:03:27Z</time>
      </trkpt>
      <trkpt lat="47.78858" lon="5.06654">
        <ele>348.42</ele>
        <time>2022-05-09T09:03:29Z</time>
      </trkpt>
      <trkpt lat="47.78858" lon="5.06648">
        <ele>348.25</ele>
        <time>2022-05-09T09:03:32Z</time>
      </trkpt>
      <trkpt lat="47.78858" lon="5.06643">
        <ele>348.11</ele>
        <time>2022-05-09T09:03:34Z</time>
      </trkpt>
      <trkpt lat="47.78859" lon="5.06639">
        <ele>348</ele>
        <time>2022-05-09T09:03:36Z</time>
      </trkpt>
      <trkpt lat="47.78859" lon="5.06634">
        <ele>348.01</ele>
        <time>2022-05-09T09:03:40Z</time>
      </trkpt>
      <trkpt lat="47.78859" lon="5.06629">
        <ele>348.03</ele>
        <time>2022-05-09T09:03:42Z</time>
      </trkpt>
      <trkpt lat="47.7886" lon="5.06625">
        <ele>348.02</ele>
        <time>2022-05-09T09:03:46Z</time>
      </trkpt>
      <trkpt lat="47.78861" lon="5.06619">
        <ele>348</ele>
        <time>2022-05-09T09:03:49Z</time>
      </trkpt>
      <trkpt lat="47.78861" lon="5.06615">
        <ele>348</ele>
        <time>2022-05-09T09:03:51Z</time>
      </trkpt>
      <trkpt lat="47.78862" lon="5.0661">
        <ele>348.1</ele>
        <time>2022-05-09T09:03:53Z</time>
      </trkpt>
      <trkpt lat="47.78862" lon="5.06605">
        <ele>348.28</ele>
        <time>2022-05-09T09:03:56Z</time>
      </trkpt>
      <trkpt lat="47.78863" lon="5.06601">
        <ele>348.48</ele>
        <time>2022-05-09T09:03:58Z</time>
      </trkpt>
      <trkpt lat="47.78863" lon="5.06596">
        <ele>348.64</ele>
        <time>2022-05-09T09:04:01Z</time>
      </trkpt>
      <trkpt lat="47.78864" lon="5.06591">
        <ele>348.86</ele>
        <time>2022-05-09T09:04:03Z</time>
      </trkpt>
      <trkpt lat="47.78865" lon="5.06587">
        <ele>349.03</ele>
        <time>2022-05-09T09:04:05Z</time>
      </trkpt>
      <trkpt lat="47.78865" lon="5.06583">
        <ele>349.11</ele>
        <time>2022-05-09T09:04:07Z</time>
      </trkpt>
      <trkpt lat="47.78866" lon="5.06577">
        <ele>348.68</ele>
        <time>2022-05-09T09:04:11Z</time>
      </trkpt>
      <trkpt lat="47.78867" lon="5.06572">
        <ele>348.31</ele>
        <time>2022-05-09T09:04:14Z</time>
      </trkpt>
      <trkpt lat="47.78867" lon="5.06568">
        <ele>347.99</ele>
        <time>2022-05-09T09:04:16Z</time>
      </trkpt>
      <trkpt lat="47.78868" lon="5.06563">
        <ele>347.6</ele>
        <time>2022-05-09T09:04:18Z</time>
      </trkpt>
      <trkpt lat="47.78869" lon="5.06559">
        <ele>347.28</ele>
        <time>2022-05-09T09:04:19Z</time>
      </trkpt>
      <trkpt lat="47.7887" lon="5.06555">
        <ele>346.92</ele>
        <time>2022-05-09T09:04:22Z</time>
      </trkpt>
      <trkpt lat="47.78871" lon="5.0655">
        <ele>346.21</ele>
        <time>2022-05-09T09:04:24Z</time>
      </trkpt>
      <trkpt lat="47.78871" lon="5.06546">
        <ele>345.65</ele>
        <time>2022-05-09T09:04:26Z</time>
      </trkpt>
      <trkpt lat="47.78871" lon="5.06541">
        <ele>344.94</ele>
        <time>2022-05-09T09:04:29Z</time>
      </trkpt>
      <trkpt lat="47.78872" lon="5.06537">
        <ele>344.45</ele>
        <time>2022-05-09T09:04:33Z</time>
      </trkpt>
      <trkpt lat="47.78872" lon="5.06532">
        <ele>343.76</ele>
        <time>2022-05-09T09:04:35Z</time>
      </trkpt>
      <trkpt lat="47.78873" lon="5.06528">
        <ele>343.31</ele>
        <time>2022-05-09T09:04:39Z</time>
      </trkpt>
      <trkpt lat="47.78874" lon="5.06523">
        <ele>342.88</ele>
        <time>2022-05-09T09:04:41Z</time>
      </trkpt>
      <trkpt lat="47.78873" lon="5.06519">
        <ele>342.34</ele>
        <time>2022-05-09T09:04:44Z</time>
      </trkpt>
      <trkpt lat="47.78874" lon="5.06515">
        <ele>342.01</ele>
        <time>2022-05-09T09:04:46Z</time>
      </trkpt>
      <trkpt lat="47.78875" lon="5.0651">
        <ele>341.58</ele>
        <time>2022-05-09T09:04:49Z</time>
      </trkpt>
      <trkpt lat="47.78876" lon="5.06506">
        <ele>341.26</ele>
        <time>2022-05-09T09:04:51Z</time>
      </trkpt>
      <trkpt lat="47.78877" lon="5.065">
        <ele>340.72</ele>
        <time>2022-05-09T09:04:54Z</time>
      </trkpt>
      <trkpt lat="47.78878" lon="5.06495">
        <ele>340.57</ele>
        <time>2022-05-09T09:04:55Z</time>
      </trkpt>
      <trkpt lat="47.78879" lon="5.06491">
        <ele>340.49</ele>
        <time>2022-05-09T09:04:57Z</time>
      </trkpt>
      <trkpt lat="47.7888" lon="5.06486">
        <ele>340.37</ele>
        <time>2022-05-09T09:04:59Z</time>
      </trkpt>
      <trkpt lat="47.78881" lon="5.06482">
        <ele>340.32</ele>
        <time>2022-05-09T09:05:00Z</time>
      </trkpt>
      <trkpt lat="47.78882" lon="5.06478">
        <ele>340.27</ele>
        <time>2022-05-09T09:05:02Z</time>
      </trkpt>
      <trkpt lat="47.78884" lon="5.06475">
        <ele>340.41</ele>
        <time>2022-05-09T09:05:04Z</time>
      </trkpt>
      <trkpt lat="47.78885" lon="5.0647">
        <ele>340.36</ele>
        <time>2022-05-09T09:05:05Z</time>
      </trkpt>
      <trkpt lat="47.78888" lon="5.06464">
        <ele>340.58</ele>
        <time>2022-05-09T09:05:09Z</time>
      </trkpt>
      <trkpt lat="47.7889" lon="5.06461">
        <ele>340.72</ele>
        <time>2022-05-09T09:05:10Z</time>
      </trkpt>
      <trkpt lat="47.78892" lon="5.06456">
        <ele>340.73</ele>
        <time>2022-05-09T09:05:13Z</time>
      </trkpt>
      <trkpt lat="47.78894" lon="5.06453">
        <ele>340.79</ele>
        <time>2022-05-09T09:05:14Z</time>
      </trkpt>
      <trkpt lat="47.78897" lon="5.06449">
        <ele>340.84</ele>
        <time>2022-05-09T09:05:17Z</time>
      </trkpt>
      <trkpt lat="47.78899" lon="5.06446">
        <ele>340.82</ele>
        <time>2022-05-09T09:05:18Z</time>
      </trkpt>
      <trkpt lat="47.78902" lon="5.06443">
        <ele>340.89</ele>
        <time>2022-05-09T09:05:21Z</time>
      </trkpt>
      <trkpt lat="47.78905" lon="5.06439">
        <ele>340.96</ele>
        <time>2022-05-09T09:05:24Z</time>
      </trkpt>
      <trkpt lat="47.78907" lon="5.06436">
        <ele>341</ele>
        <time>2022-05-09T09:05:25Z</time>
      </trkpt>
      <trkpt lat="47.78909" lon="5.06433">
        <ele>341.04</ele>
        <time>2022-05-09T09:05:26Z</time>
      </trkpt>
      <trkpt lat="47.78911" lon="5.0643">
        <ele>341.07</ele>
        <time>2022-05-09T09:05:29Z</time>
      </trkpt>
      <trkpt lat="47.78913" lon="5.06427">
        <ele>341.11</ele>
        <time>2022-05-09T09:05:31Z</time>
      </trkpt>
      <trkpt lat="47.78915" lon="5.06423">
        <ele>341.11</ele>
        <time>2022-05-09T09:05:34Z</time>
      </trkpt>
      <trkpt lat="47.78917" lon="5.06419">
        <ele>341.1</ele>
        <time>2022-05-09T09:05:36Z</time>
      </trkpt>
      <trkpt lat="47.78919" lon="5.06416">
        <ele>341.08</ele>
        <time>2022-05-09T09:05:39Z</time>
      </trkpt>
      <trkpt lat="47.78921" lon="5.06412">
        <ele>341.16</ele>
        <time>2022-05-09T09:05:41Z</time>
      </trkpt>
      <trkpt lat="47.78923" lon="5.06408">
        <ele>341.23</ele>
        <time>2022-05-09T09:05:43Z</time>
      </trkpt>
      <trkpt lat="47.78924" lon="5.06404">
        <ele>341.26</ele>
        <time>2022-05-09T09:05:45Z</time>
      </trkpt>
      <trkpt lat="47.78926" lon="5.064">
        <ele>341.34</ele>
        <time>2022-05-09T09:05:46Z</time>
      </trkpt>
      <trkpt lat="47.78928" lon="5.06396">
        <ele>341.41</ele>
        <time>2022-05-09T09:05:49Z</time>
      </trkpt>
      <trkpt lat="47.7893" lon="5.06393">
        <ele>341.48</ele>
        <time>2022-05-09T09:05:51Z</time>
      </trkpt>
      <trkpt lat="47.78932" lon="5.06389">
        <ele>341.55</ele>
        <time>2022-05-09T09:05:54Z</time>
      </trkpt>
      <trkpt lat="47.78934" lon="5.06385">
        <ele>341.61</ele>
        <time>2022-05-09T09:05:56Z</time>
      </trkpt>
      <trkpt lat="47.78935" lon="5.06382">
        <ele>341.66</ele>
        <time>2022-05-09T09:05:58Z</time>
      </trkpt>
      <trkpt lat="47.78937" lon="5.06378">
        <ele>341.81</ele>
        <time>2022-05-09T09:06:01Z</time>
      </trkpt>
      <trkpt lat="47.7894" lon="5.06375">
        <ele>342.1</ele>
        <time>2022-05-09T09:06:03Z</time>
      </trkpt>
      <trkpt lat="47.78942" lon="5.06371">
        <ele>342.39</ele>
        <time>2022-05-09T09:06:06Z</time>
      </trkpt>
      <trkpt lat="47.78944" lon="5.06368">
        <ele>342.7</ele>
        <time>2022-05-09T09:06:08Z</time>
      </trkpt>
      <trkpt lat="47.78946" lon="5.06365">
        <ele>343.03</ele>
        <time>2022-05-09T09:06:09Z</time>
      </trkpt>
      <trkpt lat="47.78948" lon="5.06362">
        <ele>343.35</ele>
        <time>2022-05-09T09:06:11Z</time>
      </trkpt>
      <trkpt lat="47.78949" lon="5.06358">
        <ele>343.73</ele>
        <time>2022-05-09T09:06:13Z</time>
      </trkpt>
      <trkpt lat="47.78951" lon="5.06354">
        <ele>344.28</ele>
        <time>2022-05-09T09:06:16Z</time>
      </trkpt>
      <trkpt lat="47.78952" lon="5.06351">
        <ele>344.64</ele>
        <time>2022-05-09T09:06:18Z</time>
      </trkpt>
      <trkpt lat="47.78954" lon="5.06347">
        <ele>345.22</ele>
        <time>2022-05-09T09:06:20Z</time>
      </trkpt>
      <trkpt lat="47.78956" lon="5.06344">
        <ele>345.74</ele>
        <time>2022-05-09T09:06:23Z</time>
      </trkpt>
      <trkpt lat="47.78958" lon="5.0634">
        <ele>346.35</ele>
        <time>2022-05-09T09:06:25Z</time>
      </trkpt>
      <trkpt lat="47.7896" lon="5.06336">
        <ele>346.99</ele>
        <time>2022-05-09T09:06:27Z</time>
      </trkpt>
      <trkpt lat="47.78962" lon="5.06333">
        <ele>347.53</ele>
        <time>2022-05-09T09:06:29Z</time>
      </trkpt>
      <trkpt lat="47.78964" lon="5.06329">
        <ele>347.86</ele>
        <time>2022-05-09T09:06:31Z</time>
      </trkpt>
      <trkpt lat="47.78966" lon="5.06326">
        <ele>348.16</ele>
        <time>2022-05-09T09:06:34Z</time>
      </trkpt>
      <trkpt lat="47.78968" lon="5.06323">
        <ele>348.45</ele>
        <time>2022-05-09T09:06:36Z</time>
      </trkpt>
      <trkpt lat="47.7897" lon="5.06319">
        <ele>348.72</ele>
        <time>2022-05-09T09:06:39Z</time>
      </trkpt>
      <trkpt lat="47.78972" lon="5.06316">
        <ele>348.97</ele>
        <time>2022-05-09T09:06:41Z</time>
      </trkpt>
      <trkpt lat="47.78974" lon="5.06313">
        <ele>349.24</ele>
        <time>2022-05-09T09:06:44Z</time>
      </trkpt>
      <trkpt lat="47.78976" lon="5.0631">
        <ele>349.52</ele>
        <time>2022-05-09T09:06:47Z</time>
      </trkpt>
      <trkpt lat="47.78978" lon="5.06307">
        <ele>349.82</ele>
        <time>2022-05-09T09:06:49Z</time>
      </trkpt>
      <trkpt lat="47.7898" lon="5.06303">
        <ele>350.19</ele>
        <time>2022-05-09T09:06:53Z</time>
      </trkpt>
      <trkpt lat="47.78982" lon="5.063">
        <ele>350.54</ele>
        <time>2022-05-09T09:06:55Z</time>
      </trkpt>
      <trkpt lat="47.78984" lon="5.06297">
        <ele>350.87</ele>
        <time>2022-05-09T09:06:58Z</time>
      </trkpt>
      <trkpt lat="47.78986" lon="5.06294">
        <ele>351.19</ele>
        <time>2022-05-09T09:07:02Z</time>
      </trkpt>
      <trkpt lat="47.78988" lon="5.06291">
        <ele>351.5</ele>
        <time>2022-05-09T09:07:04Z</time>
      </trkpt>
      <trkpt lat="47.7899" lon="5.06288">
        <ele>351.79</ele>
        <time>2022-05-09T09:07:06Z</time>
      </trkpt>
      <trkpt lat="47.78992" lon="5.06285">
        <ele>352.06</ele>
        <time>2022-05-09T09:07:08Z</time>
      </trkpt>
      <trkpt lat="47.78994" lon="5.06281">
        <ele>352.33</ele>
        <time>2022-05-09T09:07:10Z</time>
      </trkpt>
      <trkpt lat="47.78997" lon="5.06278">
        <ele>352.68</ele>
        <time>2022-05-09T09:07:13Z</time>
      </trkpt>
      <trkpt lat="47.78998" lon="5.06274">
        <ele>352.66</ele>
        <time>2022-05-09T09:07:19Z</time>
      </trkpt>
      <trkpt lat="47.79001" lon="5.0627">
        <ele>352.75</ele>
        <time>2022-05-09T09:07:22Z</time>
      </trkpt>
      <trkpt lat="47.79002" lon="5.06267">
        <ele>352.7</ele>
        <time>2022-05-09T09:07:24Z</time>
      </trkpt>
      <trkpt lat="47.79004" lon="5.06264">
        <ele>352.72</ele>
        <time>2022-05-09T09:07:26Z</time>
      </trkpt>
      <trkpt lat="47.79006" lon="5.06261">
        <ele>352.79</ele>
        <time>2022-05-09T09:07:29Z</time>
      </trkpt>
      <trkpt lat="47.79008" lon="5.06258">
        <ele>352.9</ele>
        <time>2022-05-09T09:07:31Z</time>
      </trkpt>
      <trkpt lat="47.7901" lon="5.06255">
        <ele>353.07</ele>
        <time>2022-05-09T09:07:37Z</time>
      </trkpt>
      <trkpt lat="47.79012" lon="5.06251">
        <ele>353.29</ele>
        <time>2022-05-09T09:07:39Z</time>
      </trkpt>
      <trkpt lat="47.79014" lon="5.06248">
        <ele>353.55</ele>
        <time>2022-05-09T09:07:41Z</time>
      </trkpt>
      <trkpt lat="47.79016" lon="5.06245">
        <ele>353.83</ele>
        <time>2022-05-09T09:07:43Z</time>
      </trkpt>
      <trkpt lat="47.79018" lon="5.06242">
        <ele>354.13</ele>
        <time>2022-05-09T09:07:45Z</time>
      </trkpt>
      <trkpt lat="47.7902" lon="5.06239">
        <ele>354.45</ele>
        <time>2022-05-09T09:07:47Z</time>
      </trkpt>
      <trkpt lat="47.79023" lon="5.06235">
        <ele>354.93</ele>
        <time>2022-05-09T09:07:49Z</time>
      </trkpt>
      <trkpt lat="47.79025" lon="5.06232">
        <ele>355.28</ele>
        <time>2022-05-09T09:07:53Z</time>
      </trkpt>
      <trkpt lat="47.79027" lon="5.06229">
        <ele>355.65</ele>
        <time>2022-05-09T09:07:55Z</time>
      </trkpt>
      <trkpt lat="47.79029" lon="5.06225">
        <ele>355.74</ele>
        <time>2022-05-09T09:07:57Z</time>
      </trkpt>
      <trkpt lat="47.79031" lon="5.06222">
        <ele>355.51</ele>
        <time>2022-05-09T09:07:59Z</time>
      </trkpt>
      <trkpt lat="47.79033" lon="5.06219">
        <ele>354.83</ele>
        <time>2022-05-09T09:08:01Z</time>
      </trkpt>
      <trkpt lat="47.79035" lon="5.06216">
        <ele>354.18</ele>
        <time>2022-05-09T09:08:03Z</time>
      </trkpt>
      <trkpt lat="47.79038" lon="5.06213">
        <ele>353.44</ele>
        <time>2022-05-09T09:08:05Z</time>
      </trkpt>
      <trkpt lat="47.7904" lon="5.0621">
        <ele>352.87</ele>
        <time>2022-05-09T09:08:07Z</time>
      </trkpt>
      <trkpt lat="47.79043" lon="5.06208">
        <ele>352.32</ele>
        <time>2022-05-09T09:08:09Z</time>
      </trkpt>
      <trkpt lat="47.79045" lon="5.06206">
        <ele>351.91</ele>
        <time>2022-05-09T09:08:14Z</time>
      </trkpt>
      <trkpt lat="47.79048" lon="5.06203">
        <ele>351.33</ele>
        <time>2022-05-09T09:08:16Z</time>
      </trkpt>
      <trkpt lat="47.79051" lon="5.062">
        <ele>350.79</ele>
        <time>2022-05-09T09:08:18Z</time>
      </trkpt>
      <trkpt lat="47.79053" lon="5.06198">
        <ele>350.46</ele>
        <time>2022-05-09T09:08:21Z</time>
      </trkpt>
      <trkpt lat="47.79055" lon="5.06195">
        <ele>350.08</ele>
        <time>2022-05-09T09:08:23Z</time>
      </trkpt>
      <trkpt lat="47.79057" lon="5.06192">
        <ele>349.87</ele>
        <time>2022-05-09T09:08:25Z</time>
      </trkpt>
      <trkpt lat="47.7906" lon="5.06189">
        <ele>349.77</ele>
        <time>2022-05-09T09:08:28Z</time>
      </trkpt>
      <trkpt lat="47.79063" lon="5.06187">
        <ele>349.71</ele>
        <time>2022-05-09T09:08:30Z</time>
      </trkpt>
      <trkpt lat="47.79065" lon="5.06184">
        <ele>349.38</ele>
        <time>2022-05-09T09:08:34Z</time>
      </trkpt>
      <trkpt lat="47.79067" lon="5.06182">
        <ele>349.15</ele>
        <time>2022-05-09T09:08:36Z</time>
      </trkpt>
      <trkpt lat="47.79069" lon="5.06179">
        <ele>348.71</ele>
        <time>2022-05-09T09:08:39Z</time>
      </trkpt>
      <trkpt lat="47.79072" lon="5.06177">
        <ele>348.4</ele>
        <time>2022-05-09T09:08:41Z</time>
      </trkpt>
      <trkpt lat="47.79074" lon="5.06174">
        <ele>347.83</ele>
        <time>2022-05-09T09:08:45Z</time>
      </trkpt>
      <trkpt lat="47.79076" lon="5.06172">
        <ele>347.41</ele>
        <time>2022-05-09T09:08:47Z</time>
      </trkpt>
      <trkpt lat="47.79079" lon="5.06169">
        <ele>346.69</ele>
        <time>2022-05-09T09:08:50Z</time>
      </trkpt>
      <trkpt lat="47.79082" lon="5.06167">
        <ele>346.13</ele>
        <time>2022-05-09T09:08:51Z</time>
      </trkpt>
      <trkpt lat="47.79084" lon="5.06164">
        <ele>345.91</ele>
        <time>2022-05-09T09:08:53Z</time>
      </trkpt>
      <trkpt lat="47.79086" lon="5.06161">
        <ele>346.1</ele>
        <time>2022-05-09T09:08:57Z</time>
      </trkpt>
      <trkpt lat="47.79089" lon="5.06159">
        <ele>346.56</ele>
        <time>2022-05-09T09:08:59Z</time>
      </trkpt>
      <trkpt lat="47.79092" lon="5.06157">
        <ele>346.9</ele>
        <time>2022-05-09T09:09:02Z</time>
      </trkpt>
      <trkpt lat="47.79095" lon="5.06154">
        <ele>346.88</ele>
        <time>2022-05-09T09:09:05Z</time>
      </trkpt>
      <trkpt lat="47.79098" lon="5.06152">
        <ele>346.94</ele>
        <time>2022-05-09T09:09:07Z</time>
      </trkpt>
      <trkpt lat="47.79101" lon="5.06149">
        <ele>346.58</ele>
        <time>2022-05-09T09:09:10Z</time>
      </trkpt>
      <trkpt lat="47.79104" lon="5.06147">
        <ele>346.36</ele>
        <time>2022-05-09T09:09:12Z</time>
      </trkpt>
      <trkpt lat="47.79106" lon="5.06143">
        <ele>345.23</ele>
        <time>2022-05-09T09:09:14Z</time>
      </trkpt>
      <trkpt lat="47.79109" lon="5.0614">
        <ele>344.34</ele>
        <time>2022-05-09T09:09:16Z</time>
      </trkpt>
      <trkpt lat="47.79111" lon="5.06136">
        <ele>343.89</ele>
        <time>2022-05-09T09:09:18Z</time>
      </trkpt>
      <trkpt lat="47.79113" lon="5.06134">
        <ele>344.35</ele>
        <time>2022-05-09T09:09:22Z</time>
      </trkpt>
      <trkpt lat="47.79116" lon="5.06132">
        <ele>345.03</ele>
        <time>2022-05-09T09:09:23Z</time>
      </trkpt>
      <trkpt lat="47.79119" lon="5.06129">
        <ele>345.49</ele>
        <time>2022-05-09T09:09:25Z</time>
      </trkpt>
      <trkpt lat="47.79122" lon="5.06127">
        <ele>345.93</ele>
        <time>2022-05-09T09:09:27Z</time>
      </trkpt>
      <trkpt lat="47.79124" lon="5.06125">
        <ele>346.05</ele>
        <time>2022-05-09T09:09:30Z</time>
      </trkpt>
      <trkpt lat="47.79127" lon="5.06123">
        <ele>346.29</ele>
        <time>2022-05-09T09:09:32Z</time>
      </trkpt>
      <trkpt lat="47.7913" lon="5.0612">
        <ele>346.2</ele>
        <time>2022-05-09T09:09:35Z</time>
      </trkpt>
      <trkpt lat="47.79132" lon="5.06117">
        <ele>345.83</ele>
        <time>2022-05-09T09:09:36Z</time>
      </trkpt>
      <trkpt lat="47.79135" lon="5.06114">
        <ele>345.45</ele>
        <time>2022-05-09T09:09:37Z</time>
      </trkpt>
      <trkpt lat="47.79138" lon="5.06111">
        <ele>344.93</ele>
        <time>2022-05-09T09:09:39Z</time>
      </trkpt>
      <trkpt lat="47.79141" lon="5.06108">
        <ele>344.57</ele>
        <time>2022-05-09T09:09:42Z</time>
      </trkpt>
      <trkpt lat="47.79144" lon="5.06105">
        <ele>344.13</ele>
        <time>2022-05-09T09:09:43Z</time>
      </trkpt>
      <trkpt lat="47.79147" lon="5.06103">
        <ele>343.8</ele>
        <time>2022-05-09T09:09:45Z</time>
      </trkpt>
      <trkpt lat="47.7915" lon="5.06101">
        <ele>343.51</ele>
        <time>2022-05-09T09:09:46Z</time>
      </trkpt>
      <trkpt lat="47.79153" lon="5.06099">
        <ele>343.27</ele>
        <time>2022-05-09T09:09:49Z</time>
      </trkpt>
      <trkpt lat="47.79156" lon="5.06097">
        <ele>343.07</ele>
        <time>2022-05-09T09:09:51Z</time>
      </trkpt>
      <trkpt lat="47.79159" lon="5.06096">
        <ele>342.92</ele>
        <time>2022-05-09T09:09:52Z</time>
      </trkpt>
      <trkpt lat="47.79162" lon="5.06095">
        <ele>342.79</ele>
        <time>2022-05-09T09:09:55Z</time>
      </trkpt>
      <trkpt lat="47.79164" lon="5.06093">
        <ele>342.75</ele>
        <time>2022-05-09T09:09:57Z</time>
      </trkpt>
      <trkpt lat="47.79167" lon="5.06092">
        <ele>342.74</ele>
        <time>2022-05-09T09:09:59Z</time>
      </trkpt>
      <trkpt lat="47.7917" lon="5.06091">
        <ele>343.22</ele>
        <time>2022-05-09T09:10:02Z</time>
      </trkpt>
      <trkpt lat="47.79173" lon="5.0609">
        <ele>343.66</ele>
        <time>2022-05-09T09:10:03Z</time>
      </trkpt>
      <trkpt lat="47.79176" lon="5.06088">
        <ele>344.07</ele>
        <time>2022-05-09T09:10:05Z</time>
      </trkpt>
      <trkpt lat="47.7918" lon="5.06087">
        <ele>344.56</ele>
        <time>2022-05-09T09:10:08Z</time>
      </trkpt>
      <trkpt lat="47.79183" lon="5.06086">
        <ele>344.89</ele>
        <time>2022-05-09T09:10:09Z</time>
      </trkpt>
      <trkpt lat="47.79186" lon="5.06084">
        <ele>345.13</ele>
        <time>2022-05-09T09:10:11Z</time>
      </trkpt>
      <trkpt lat="47.79189" lon="5.06083">
        <ele>345.38</ele>
        <time>2022-05-09T09:10:13Z</time>
      </trkpt>
      <trkpt lat="47.79192" lon="5.0608">
        <ele>345.31</ele>
        <time>2022-05-09T09:10:15Z</time>
      </trkpt>
      <trkpt lat="47.79196" lon="5.06077">
        <ele>345.07</ele>
        <time>2022-05-09T09:10:17Z</time>
      </trkpt>
      <trkpt lat="47.79199" lon="5.06073">
        <ele>344.53</ele>
        <time>2022-05-09T09:10:19Z</time>
      </trkpt>
      <trkpt lat="47.792" lon="5.0607">
        <ele>344.17</ele>
        <time>2022-05-09T09:10:21Z</time>
      </trkpt>
      <trkpt lat="47.79202" lon="5.06066">
        <ele>343.74</ele>
        <time>2022-05-09T09:10:23Z</time>
      </trkpt>
      <trkpt lat="47.79204" lon="5.06062">
        <ele>343.38</ele>
        <time>2022-05-09T09:10:25Z</time>
      </trkpt>
      <trkpt lat="47.79205" lon="5.06058">
        <ele>343.01</ele>
        <time>2022-05-09T09:10:28Z</time>
      </trkpt>
      <trkpt lat="47.79206" lon="5.06054">
        <ele>342.67</ele>
        <time>2022-05-09T09:10:30Z</time>
      </trkpt>
      <trkpt lat="47.79208" lon="5.0605">
        <ele>342.38</ele>
        <time>2022-05-09T09:10:32Z</time>
      </trkpt>
      <trkpt lat="47.79208" lon="5.06046">
        <ele>341.95</ele>
        <time>2022-05-09T09:10:35Z</time>
      </trkpt>
      <trkpt lat="47.79208" lon="5.06042">
        <ele>341.52</ele>
        <time>2022-05-09T09:10:37Z</time>
      </trkpt>
      <trkpt lat="47.79208" lon="5.06037">
        <ele>340.99</ele>
        <time>2022-05-09T09:10:39Z</time>
      </trkpt>
      <trkpt lat="47.79208" lon="5.06033">
        <ele>340.56</ele>
        <time>2022-05-09T09:10:41Z</time>
      </trkpt>
      <trkpt lat="47.79208" lon="5.06029">
        <ele>340.13</ele>
        <time>2022-05-09T09:10:44Z</time>
      </trkpt>
      <trkpt lat="47.79208" lon="5.06024">
        <ele>339.66</ele>
        <time>2022-05-09T09:10:46Z</time>
      </trkpt>
      <trkpt lat="47.79207" lon="5.0602">
        <ele>339.29</ele>
        <time>2022-05-09T09:10:48Z</time>
      </trkpt>
      <trkpt lat="47.79206" lon="5.06015">
        <ele>338.81</ele>
        <time>2022-05-09T09:10:51Z</time>
      </trkpt>
      <trkpt lat="47.79205" lon="5.0601">
        <ele>338.32</ele>
        <time>2022-05-09T09:10:53Z</time>
      </trkpt>
      <trkpt lat="47.79205" lon="5.06005">
        <ele>337.85</ele>
        <time>2022-05-09T09:10:55Z</time>
      </trkpt>
      <trkpt lat="47.79205" lon="5.06">
        <ele>337.38</ele>
        <time>2022-05-09T09:10:57Z</time>
      </trkpt>
      <trkpt lat="47.79206" lon="5.05996">
        <ele>337.04</ele>
        <time>2022-05-09T09:11:00Z</time>
      </trkpt>
      <trkpt lat="47.79207" lon="5.05991">
        <ele>336.63</ele>
        <time>2022-05-09T09:11:02Z</time>
      </trkpt>
      <trkpt lat="47.79209" lon="5.05986">
        <ele>336.28</ele>
        <time>2022-05-09T09:11:05Z</time>
      </trkpt>
      <trkpt lat="47.79211" lon="5.05983">
        <ele>336.12</ele>
        <time>2022-05-09T09:11:08Z</time>
      </trkpt>
      <trkpt lat="47.79214" lon="5.05981">
        <ele>336.13</ele>
        <time>2022-05-09T09:11:10Z</time>
      </trkpt>
      <trkpt lat="47.79216" lon="5.05979">
        <ele>336.09</ele>
        <time>2022-05-09T09:11:13Z</time>
      </trkpt>
      <trkpt lat="47.79219" lon="5.05976">
        <ele>336.06</ele>
        <time>2022-05-09T09:11:15Z</time>
      </trkpt>
      <trkpt lat="47.79222" lon="5.05975">
        <ele>336.18</ele>
        <time>2022-05-09T09:11:17Z</time>
      </trkpt>
      <trkpt lat="47.79224" lon="5.05974">
        <ele>336.19</ele>
        <time>2022-05-09T09:11:19Z</time>
      </trkpt>
      <trkpt lat="47.79227" lon="5.05973">
        <ele>336.22</ele>
        <time>2022-05-09T09:11:22Z</time>
      </trkpt>
      <trkpt lat="47.79229" lon="5.0597">
        <ele>336.12</ele>
        <time>2022-05-09T09:11:23Z</time>
      </trkpt>
      <trkpt lat="47.79232" lon="5.05967">
        <ele>336.11</ele>
        <time>2022-05-09T09:11:26Z</time>
      </trkpt>
      <trkpt lat="47.79235" lon="5.05965">
        <ele>336.18</ele>
        <time>2022-05-09T09:11:29Z</time>
      </trkpt>
      <trkpt lat="47.79238" lon="5.05962">
        <ele>336.25</ele>
        <time>2022-05-09T09:11:32Z</time>
      </trkpt>
      <trkpt lat="47.7924" lon="5.05959">
        <ele>336.3</ele>
        <time>2022-05-09T09:11:34Z</time>
      </trkpt>
      <trkpt lat="47.79241" lon="5.05954">
        <ele>336.25</ele>
        <time>2022-05-09T09:11:37Z</time>
      </trkpt>
      <trkpt lat="47.79241" lon="5.0595">
        <ele>336.16</ele>
        <time>2022-05-09T09:11:39Z</time>
      </trkpt>
      <trkpt lat="47.79242" lon="5.05945">
        <ele>336.15</ele>
        <time>2022-05-09T09:11:42Z</time>
      </trkpt>
      <trkpt lat="47.79243" lon="5.05941">
        <ele>336.15</ele>
        <time>2022-05-09T09:11:44Z</time>
      </trkpt>
      <trkpt lat="47.79243" lon="5.05936">
        <ele>336.02</ele>
        <time>2022-05-09T09:11:47Z</time>
      </trkpt>
      <trkpt lat="47.79243" lon="5.05932">
        <ele>335.91</ele>
        <time>2022-05-09T09:11:49Z</time>
      </trkpt>
      <trkpt lat="47.79244" lon="5.05927">
        <ele>335.86</ele>
        <time>2022-05-09T09:11:51Z</time>
      </trkpt>
      <trkpt lat="47.79245" lon="5.05923">
        <ele>335.83</ele>
        <time>2022-05-09T09:11:54Z</time>
      </trkpt>
      <trkpt lat="47.79246" lon="5.05918">
        <ele>335.75</ele>
        <time>2022-05-09T09:11:56Z</time>
      </trkpt>
      <trkpt lat="47.79246" lon="5.05913">
        <ele>335.45</ele>
        <time>2022-05-09T09:11:59Z</time>
      </trkpt>
      <trkpt lat="47.79247" lon="5.05909">
        <ele>335.23</ele>
        <time>2022-05-09T09:12:01Z</time>
      </trkpt>
      <trkpt lat="47.79246" lon="5.05903">
        <ele>334.73</ele>
        <time>2022-05-09T09:12:04Z</time>
      </trkpt>
      <trkpt lat="47.79246" lon="5.05899">
        <ele>334.44</ele>
        <time>2022-05-09T09:12:06Z</time>
      </trkpt>
      <trkpt lat="47.79246" lon="5.05894">
        <ele>334.08</ele>
        <time>2022-05-09T09:12:09Z</time>
      </trkpt>
      <trkpt lat="47.79245" lon="5.05889">
        <ele>333.65</ele>
        <time>2022-05-09T09:12:11Z</time>
      </trkpt>
      <trkpt lat="47.79245" lon="5.05885">
        <ele>333.39</ele>
        <time>2022-05-09T09:12:13Z</time>
      </trkpt>
      <trkpt lat="47.79245" lon="5.0588">
        <ele>333.06</ele>
        <time>2022-05-09T09:12:16Z</time>
      </trkpt>
      <trkpt lat="47.79244" lon="5.05876">
        <ele>332.74</ele>
        <time>2022-05-09T09:12:18Z</time>
      </trkpt>
      <trkpt lat="47.79244" lon="5.05872">
        <ele>332.48</ele>
        <time>2022-05-09T09:12:20Z</time>
      </trkpt>
      <trkpt lat="47.79243" lon="5.05868">
        <ele>332.18</ele>
        <time>2022-05-09T09:12:22Z</time>
      </trkpt>
      <trkpt lat="47.79243" lon="5.05864">
        <ele>331.93</ele>
        <time>2022-05-09T09:12:24Z</time>
      </trkpt>
      <trkpt lat="47.79242" lon="5.05859">
        <ele>331.41</ele>
        <time>2022-05-09T09:12:26Z</time>
      </trkpt>
      <trkpt lat="47.7924" lon="5.05855">
        <ele>330.76</ele>
        <time>2022-05-09T09:12:28Z</time>
      </trkpt>
      <trkpt lat="47.79239" lon="5.05851">
        <ele>330.15</ele>
        <time>2022-05-09T09:12:30Z</time>
      </trkpt>
      <trkpt lat="47.79237" lon="5.05847">
        <ele>329.5</ele>
        <time>2022-05-09T09:12:33Z</time>
      </trkpt>
      <trkpt lat="47.79235" lon="5.05844">
        <ele>329</ele>
        <time>2022-05-09T09:12:35Z</time>
      </trkpt>
      <trkpt lat="47.79234" lon="5.05841">
        <ele>328.53</ele>
        <time>2022-05-09T09:12:38Z</time>
      </trkpt>
      <trkpt lat="47.79232" lon="5.05838">
        <ele>328.02</ele>
        <time>2022-05-09T09:12:41Z</time>
      </trkpt>
      <trkpt lat="47.79229" lon="5.05835">
        <ele>327.48</ele>
        <time>2022-05-09T09:12:43Z</time>
      </trkpt>
      <trkpt lat="47.79227" lon="5.05832">
        <ele>327.04</ele>
        <time>2022-05-09T09:12:47Z</time>
      </trkpt>
      <trkpt lat="47.79224" lon="5.0583">
        <ele>326.71</ele>
        <time>2022-05-09T09:12:49Z</time>
      </trkpt>
      <trkpt lat="47.79221" lon="5.05829">
        <ele>326.56</ele>
        <time>2022-05-09T09:12:52Z</time>
      </trkpt>
      <trkpt lat="47.79218" lon="5.05828">
        <ele>326.52</ele>
        <time>2022-05-09T09:12:55Z</time>
      </trkpt>
      <trkpt lat="47.79216" lon="5.05826">
        <ele>326.31</ele>
        <time>2022-05-09T09:12:58Z</time>
      </trkpt>
      <trkpt lat="47.79213" lon="5.05825">
        <ele>326.23</ele>
        <time>2022-05-09T09:13:01Z</time>
      </trkpt>
      <trkpt lat="47.7921" lon="5.05824">
        <ele>326.14</ele>
        <time>2022-05-09T09:13:04Z</time>
      </trkpt>
      <trkpt lat="47.79207" lon="5.05823">
        <ele>326.02</ele>
        <time>2022-05-09T09:13:07Z</time>
      </trkpt>
      <trkpt lat="47.79204" lon="5.05822">
        <ele>325.9</ele>
        <time>2022-05-09T09:13:11Z</time>
      </trkpt>
      <trkpt lat="47.79201" lon="5.05821">
        <ele>325.75</ele>
        <time>2022-05-09T09:13:13Z</time>
      </trkpt>
      <trkpt lat="47.79198" lon="5.05819">
        <ele>325.42</ele>
        <time>2022-05-09T09:13:15Z</time>
      </trkpt>
      <trkpt lat="47.79196" lon="5.05816">
        <ele>324.89</ele>
        <time>2022-05-09T09:13:18Z</time>
      </trkpt>
      <trkpt lat="47.79193" lon="5.05813">
        <ele>324.59</ele>
        <time>2022-05-09T09:13:20Z</time>
      </trkpt>
      <trkpt lat="47.79191" lon="5.05809">
        <ele>324.22</ele>
        <time>2022-05-09T09:13:22Z</time>
      </trkpt>
      <trkpt lat="47.7919" lon="5.05805">
        <ele>323.74</ele>
        <time>2022-05-09T09:13:25Z</time>
      </trkpt>
      <trkpt lat="47.79188" lon="5.05801">
        <ele>323.67</ele>
        <time>2022-05-09T09:13:28Z</time>
      </trkpt>
      <trkpt lat="47.79187" lon="5.05797">
        <ele>323.42</ele>
        <time>2022-05-09T09:13:31Z</time>
      </trkpt>
      <trkpt lat="47.79185" lon="5.05793">
        <ele>323.34</ele>
        <time>2022-05-09T09:13:35Z</time>
      </trkpt>
      <trkpt lat="47.79184" lon="5.05789">
        <ele>323.09</ele>
        <time>2022-05-09T09:13:37Z</time>
      </trkpt>
      <trkpt lat="47.79183" lon="5.05785">
        <ele>322.84</ele>
        <time>2022-05-09T09:13:39Z</time>
      </trkpt>
      <trkpt lat="47.79182" lon="5.05781">
        <ele>322.59</ele>
        <time>2022-05-09T09:13:42Z</time>
      </trkpt>
      <trkpt lat="47.79181" lon="5.05776">
        <ele>322.39</ele>
        <time>2022-05-09T09:13:45Z</time>
      </trkpt>
      <trkpt lat="47.79179" lon="5.05772">
        <ele>322.66</ele>
        <time>2022-05-09T09:13:48Z</time>
      </trkpt>
      <trkpt lat="47.79177" lon="5.05768">
        <ele>322.92</ele>
        <time>2022-05-09T09:13:50Z</time>
      </trkpt>
      <trkpt lat="47.79175" lon="5.05764">
        <ele>323.15</ele>
        <time>2022-05-09T09:13:53Z</time>
      </trkpt>
      <trkpt lat="47.79174" lon="5.05759">
        <ele>323.18</ele>
        <time>2022-05-09T09:13:56Z</time>
      </trkpt>
      <trkpt lat="47.79173" lon="5.05754">
        <ele>323.2</ele>
        <time>2022-05-09T09:13:58Z</time>
      </trkpt>
      <trkpt lat="47.79172" lon="5.05748">
        <ele>323.12</ele>
        <time>2022-05-09T09:14:01Z</time>
      </trkpt>
      <trkpt lat="47.79171" lon="5.05743">
        <ele>322.95</ele>
        <time>2022-05-09T09:14:03Z</time>
      </trkpt>
      <trkpt lat="47.7917" lon="5.0574">
        <ele>322.89</ele>
        <time>2022-05-09T09:14:05Z</time>
      </trkpt>
      <trkpt lat="47.79169" lon="5.05735">
        <ele>322.67</ele>
        <time>2022-05-09T09:14:07Z</time>
      </trkpt>
      <trkpt lat="47.79167" lon="5.05731">
        <ele>322.6</ele>
        <time>2022-05-09T09:14:10Z</time>
      </trkpt>
      <trkpt lat="47.79165" lon="5.05728">
        <ele>322.34</ele>
        <time>2022-05-09T09:14:12Z</time>
      </trkpt>
      <trkpt lat="47.79163" lon="5.05725">
        <ele>322.05</ele>
        <time>2022-05-09T09:14:15Z</time>
      </trkpt>
      <trkpt lat="47.79161" lon="5.05721">
        <ele>321.8</ele>
        <time>2022-05-09T09:14:18Z</time>
      </trkpt>
      <trkpt lat="47.7916" lon="5.05715">
        <ele>321.82</ele>
        <time>2022-05-09T09:14:21Z</time>
      </trkpt>
      <trkpt lat="47.7916" lon="5.05711">
        <ele>321.86</ele>
        <time>2022-05-09T09:14:22Z</time>
      </trkpt>
      <trkpt lat="47.79159" lon="5.05707">
        <ele>321.88</ele>
        <time>2022-05-09T09:14:25Z</time>
      </trkpt>
      <trkpt lat="47.79158" lon="5.05702">
        <ele>321.92</ele>
        <time>2022-05-09T09:14:27Z</time>
      </trkpt>
      <trkpt lat="47.79157" lon="5.05698">
        <ele>321.96</ele>
        <time>2022-05-09T09:14:29Z</time>
      </trkpt>
      <trkpt lat="47.79156" lon="5.05693">
        <ele>322.03</ele>
        <time>2022-05-09T09:14:31Z</time>
      </trkpt>
      <trkpt lat="47.79155" lon="5.05689">
        <ele>322.11</ele>
        <time>2022-05-09T09:14:34Z</time>
      </trkpt>
      <trkpt lat="47.79154" lon="5.05685">
        <ele>322.18</ele>
        <time>2022-05-09T09:14:38Z</time>
      </trkpt>
      <trkpt lat="47.79154" lon="5.0568">
        <ele>322.28</ele>
        <time>2022-05-09T09:14:40Z</time>
      </trkpt>
      <trkpt lat="47.79152" lon="5.05677">
        <ele>322.3</ele>
        <time>2022-05-09T09:14:43Z</time>
      </trkpt>
      <trkpt lat="47.7915" lon="5.05674">
        <ele>322.29</ele>
        <time>2022-05-09T09:14:45Z</time>
      </trkpt>
      <trkpt lat="47.79148" lon="5.0567">
        <ele>322.29</ele>
        <time>2022-05-09T09:14:48Z</time>
      </trkpt>
      <trkpt lat="47.79146" lon="5.05667">
        <ele>322.25</ele>
        <time>2022-05-09T09:14:50Z</time>
      </trkpt>
      <trkpt lat="47.79144" lon="5.05665">
        <ele>322.3</ele>
        <time>2022-05-09T09:14:53Z</time>
      </trkpt>
      <trkpt lat="47.79142" lon="5.05662">
        <ele>322.45</ele>
        <time>2022-05-09T09:14:56Z</time>
      </trkpt>
      <trkpt lat="47.7914" lon="5.05659">
        <ele>322.59</ele>
        <time>2022-05-09T09:14:59Z</time>
      </trkpt>
      <trkpt lat="47.79138" lon="5.05655">
        <ele>322.86</ele>
        <time>2022-05-09T09:15:02Z</time>
      </trkpt>
      <trkpt lat="47.79135" lon="5.05652">
        <ele>323.12</ele>
        <time>2022-05-09T09:15:05Z</time>
      </trkpt>
      <trkpt lat="47.79132" lon="5.0565">
        <ele>323.3</ele>
        <time>2022-05-09T09:15:07Z</time>
      </trkpt>
      <trkpt lat="47.7913" lon="5.05649">
        <ele>323.39</ele>
        <time>2022-05-09T09:15:10Z</time>
      </trkpt>
      <trkpt lat="47.79127" lon="5.05648">
        <ele>323.48</ele>
        <time>2022-05-09T09:15:13Z</time>
      </trkpt>
      <trkpt lat="47.79124" lon="5.05647">
        <ele>323.57</ele>
        <time>2022-05-09T09:15:16Z</time>
      </trkpt>
      <trkpt lat="47.79121" lon="5.05645">
        <ele>323.7</ele>
        <time>2022-05-09T09:15:19Z</time>
      </trkpt>
      <trkpt lat="47.79118" lon="5.05642">
        <ele>323.86</ele>
        <time>2022-05-09T09:15:22Z</time>
      </trkpt>
      <trkpt lat="47.79115" lon="5.05639">
        <ele>324</ele>
        <time>2022-05-09T09:15:23Z</time>
      </trkpt>
      <trkpt lat="47.79113" lon="5.05638">
        <ele>324.1</ele>
        <time>2022-05-09T09:15:26Z</time>
      </trkpt>
      <trkpt lat="47.7911" lon="5.05636">
        <ele>324.32</ele>
        <time>2022-05-09T09:15:28Z</time>
      </trkpt>
      <trkpt lat="47.79107" lon="5.05635">
        <ele>324.46</ele>
        <time>2022-05-09T09:15:31Z</time>
      </trkpt>
      <trkpt lat="47.79105" lon="5.05632">
        <ele>324.85</ele>
        <time>2022-05-09T09:15:34Z</time>
      </trkpt>
      <trkpt lat="47.79102" lon="5.0563">
        <ele>325.17</ele>
        <time>2022-05-09T09:15:36Z</time>
      </trkpt>
      <trkpt lat="47.79099" lon="5.05629">
        <ele>325.38</ele>
        <time>2022-05-09T09:15:38Z</time>
      </trkpt>
      <trkpt lat="47.79096" lon="5.05628">
        <ele>325.6</ele>
        <time>2022-05-09T09:15:40Z</time>
      </trkpt>
      <trkpt lat="47.79093" lon="5.05628">
        <ele>325.69</ele>
        <time>2022-05-09T09:15:42Z</time>
      </trkpt>
      <trkpt lat="47.7909" lon="5.05629">
        <ele>325.61</ele>
        <time>2022-05-09T09:15:44Z</time>
      </trkpt>
      <trkpt lat="47.79087" lon="5.05629">
        <ele>325.69</ele>
        <time>2022-05-09T09:15:47Z</time>
      </trkpt>
      <trkpt lat="47.79085" lon="5.0563">
        <ele>325.56</ele>
        <time>2022-05-09T09:15:49Z</time>
      </trkpt>
      <trkpt lat="47.79082" lon="5.05631">
        <ele>325.52</ele>
        <time>2022-05-09T09:15:51Z</time>
      </trkpt>
      <trkpt lat="47.79079" lon="5.05633">
        <ele>325.43</ele>
        <time>2022-05-09T09:15:54Z</time>
      </trkpt>
      <trkpt lat="47.79076" lon="5.05633">
        <ele>325.68</ele>
        <time>2022-05-09T09:15:57Z</time>
      </trkpt>
      <trkpt lat="47.79073" lon="5.05633">
        <ele>325.94</ele>
        <time>2022-05-09T09:16:01Z</time>
      </trkpt>
      <trkpt lat="47.7907" lon="5.05635">
        <ele>325.94</ele>
        <time>2022-05-09T09:16:04Z</time>
      </trkpt>
      <trkpt lat="47.79067" lon="5.05637">
        <ele>325.98</ele>
        <time>2022-05-09T09:16:05Z</time>
      </trkpt>
      <trkpt lat="47.79064" lon="5.05638">
        <ele>326.18</ele>
        <time>2022-05-09T09:16:07Z</time>
      </trkpt>
      <trkpt lat="47.79061" lon="5.0564">
        <ele>326.37</ele>
        <time>2022-05-09T09:16:10Z</time>
      </trkpt>
      <trkpt lat="47.79058" lon="5.05641">
        <ele>326.66</ele>
        <time>2022-05-09T09:16:14Z</time>
      </trkpt>
      <trkpt lat="47.79055" lon="5.05643">
        <ele>326.89</ele>
        <time>2022-05-09T09:16:16Z</time>
      </trkpt>
      <trkpt lat="47.79052" lon="5.05644">
        <ele>327.05</ele>
        <time>2022-05-09T09:16:18Z</time>
      </trkpt>
      <trkpt lat="47.79049" lon="5.05646">
        <ele>327.16</ele>
        <time>2022-05-09T09:16:21Z</time>
      </trkpt>
      <trkpt lat="47.79046" lon="5.05647">
        <ele>327.3</ele>
        <time>2022-05-09T09:16:24Z</time>
      </trkpt>
      <trkpt lat="47.79043" lon="5.05649">
        <ele>327.38</ele>
        <time>2022-05-09T09:16:26Z</time>
      </trkpt>
      <trkpt lat="47.7904" lon="5.0565">
        <ele>327.5</ele>
        <time>2022-05-09T09:16:29Z</time>
      </trkpt>
      <trkpt lat="47.79037" lon="5.05653">
        <ele>327.49</ele>
        <time>2022-05-09T09:16:32Z</time>
      </trkpt>
      <trkpt lat="47.79034" lon="5.05656">
        <ele>327.46</ele>
        <time>2022-05-09T09:16:33Z</time>
      </trkpt>
      <trkpt lat="47.79032" lon="5.05659">
        <ele>327.36</ele>
        <time>2022-05-09T09:16:36Z</time>
      </trkpt>
      <trkpt lat="47.7903" lon="5.05661">
        <ele>327.31</ele>
        <time>2022-05-09T09:16:37Z</time>
      </trkpt>
      <trkpt lat="47.79027" lon="5.05663">
        <ele>327.38</ele>
        <time>2022-05-09T09:16:39Z</time>
      </trkpt>
      <trkpt lat="47.79025" lon="5.05666">
        <ele>327.45</ele>
        <time>2022-05-09T09:16:42Z</time>
      </trkpt>
      <trkpt lat="47.79022" lon="5.05668">
        <ele>327.85</ele>
        <time>2022-05-09T09:16:45Z</time>
      </trkpt>
      <trkpt lat="47.7902" lon="5.0567">
        <ele>328.14</ele>
        <time>2022-05-09T09:16:47Z</time>
      </trkpt>
      <trkpt lat="47.79017" lon="5.05673">
        <ele>328.51</ele>
        <time>2022-05-09T09:16:50Z</time>
      </trkpt>
      <trkpt lat="47.79014" lon="5.05676">
        <ele>328.82</ele>
        <time>2022-05-09T09:16:52Z</time>
      </trkpt>
      <trkpt lat="47.79012" lon="5.05678">
        <ele>328.98</ele>
        <time>2022-05-09T09:16:53Z</time>
      </trkpt>
      <trkpt lat="47.7901" lon="5.05681">
        <ele>329.09</ele>
        <time>2022-05-09T09:16:56Z</time>
      </trkpt>
      <trkpt lat="47.79007" lon="5.05684">
        <ele>329.22</ele>
        <time>2022-05-09T09:16:58Z</time>
      </trkpt>
      <trkpt lat="47.79005" lon="5.05686">
        <ele>329.26</ele>
        <time>2022-05-09T09:17:01Z</time>
      </trkpt>
      <trkpt lat="47.79002" lon="5.05689">
        <ele>329.28</ele>
        <time>2022-05-09T09:17:03Z</time>
      </trkpt>
      <trkpt lat="47.79" lon="5.05692">
        <ele>329.18</ele>
        <time>2022-05-09T09:17:05Z</time>
      </trkpt>
      <trkpt lat="47.78998" lon="5.05695">
        <ele>329.41</ele>
        <time>2022-05-09T09:17:08Z</time>
      </trkpt>
      <trkpt lat="47.78996" lon="5.05698">
        <ele>329.7</ele>
        <time>2022-05-09T09:17:12Z</time>
      </trkpt>
      <trkpt lat="47.78994" lon="5.05701">
        <ele>329.96</ele>
        <time>2022-05-09T09:17:14Z</time>
      </trkpt>
      <trkpt lat="47.78992" lon="5.05704">
        <ele>330.19</ele>
        <time>2022-05-09T09:17:16Z</time>
      </trkpt>
      <trkpt lat="47.7899" lon="5.05708">
        <ele>330.32</ele>
        <time>2022-05-09T09:17:19Z</time>
      </trkpt>
      <trkpt lat="47.78988" lon="5.05711">
        <ele>330.48</ele>
        <time>2022-05-09T09:17:23Z</time>
      </trkpt>
      <trkpt lat="47.78986" lon="5.05715">
        <ele>330.54</ele>
        <time>2022-05-09T09:17:25Z</time>
      </trkpt>
      <trkpt lat="47.78984" lon="5.0572">
        <ele>330.48</ele>
        <time>2022-05-09T09:17:29Z</time>
      </trkpt>
      <trkpt lat="47.78983" lon="5.05723">
        <ele>330.41</ele>
        <time>2022-05-09T09:17:31Z</time>
      </trkpt>
      <trkpt lat="47.78981" lon="5.05727">
        <ele>330.51</ele>
        <time>2022-05-09T09:17:34Z</time>
      </trkpt>
      <trkpt lat="47.78979" lon="5.05731">
        <ele>330.63</ele>
        <time>2022-05-09T09:17:36Z</time>
      </trkpt>
      <trkpt lat="47.78977" lon="5.05735">
        <ele>330.77</ele>
        <time>2022-05-09T09:17:38Z</time>
      </trkpt>
      <trkpt lat="47.78975" lon="5.05739">
        <ele>330.94</ele>
        <time>2022-05-09T09:17:41Z</time>
      </trkpt>
      <trkpt lat="47.78974" lon="5.05743">
        <ele>330.95</ele>
        <time>2022-05-09T09:17:43Z</time>
      </trkpt>
      <trkpt lat="47.78972" lon="5.05746">
        <ele>331.2</ele>
        <time>2022-05-09T09:17:46Z</time>
      </trkpt>
      <trkpt lat="47.7897" lon="5.0575">
        <ele>331.56</ele>
        <time>2022-05-09T09:17:48Z</time>
      </trkpt>
      <trkpt lat="47.78968" lon="5.05753">
        <ele>331.81</ele>
        <time>2022-05-09T09:17:51Z</time>
      </trkpt>
      <trkpt lat="47.78965" lon="5.05757">
        <ele>332.33</ele>
        <time>2022-05-09T09:17:53Z</time>
      </trkpt>
      <trkpt lat="47.78963" lon="5.0576">
        <ele>332.72</ele>
        <time>2022-05-09T09:17:56Z</time>
      </trkpt>
      <trkpt lat="47.78961" lon="5.05764">
        <ele>333.13</ele>
        <time>2022-05-09T09:17:58Z</time>
      </trkpt>
      <trkpt lat="47.78959" lon="5.05768">
        <ele>333.62</ele>
        <time>2022-05-09T09:18:01Z</time>
      </trkpt>
      <trkpt lat="47.78957" lon="5.05772">
        <ele>334.2</ele>
        <time>2022-05-09T09:18:03Z</time>
      </trkpt>
      <trkpt lat="47.78955" lon="5.05776">
        <ele>334.85</ele>
        <time>2022-05-09T09:18:05Z</time>
      </trkpt>
      <trkpt lat="47.78953" lon="5.05779">
        <ele>335.51</ele>
        <time>2022-05-09T09:18:08Z</time>
      </trkpt>
      <trkpt lat="47.78951" lon="5.05782">
        <ele>336.02</ele>
        <time>2022-05-09T09:18:11Z</time>
      </trkpt>
      <trkpt lat="47.78949" lon="5.05787">
        <ele>336.31</ele>
        <time>2022-05-09T09:18:15Z</time>
      </trkpt>
      <trkpt lat="47.78948" lon="5.0579">
        <ele>336.38</ele>
        <time>2022-05-09T09:18:17Z</time>
      </trkpt>
      <trkpt lat="47.78947" lon="5.05795">
        <ele>336.24</ele>
        <time>2022-05-09T09:18:20Z</time>
      </trkpt>
      <trkpt lat="47.78947" lon="5.05799">
        <ele>335.84</ele>
        <time>2022-05-09T09:18:22Z</time>
      </trkpt>
      <trkpt lat="47.78946" lon="5.05804">
        <ele>335.66</ele>
        <time>2022-05-09T09:18:25Z</time>
      </trkpt>
      <trkpt lat="47.78945" lon="5.05807">
        <ele>335.56</ele>
        <time>2022-05-09T09:18:27Z</time>
      </trkpt>
      <trkpt lat="47.78945" lon="5.05812">
        <ele>334.67</ele>
        <time>2022-05-09T09:18:29Z</time>
      </trkpt>
      <trkpt lat="47.78944" lon="5.05816">
        <ele>334.19</ele>
        <time>2022-05-09T09:18:32Z</time>
      </trkpt>
      <trkpt lat="47.78943" lon="5.0582">
        <ele>333.64</ele>
        <time>2022-05-09T09:18:34Z</time>
      </trkpt>
      <trkpt lat="47.78941" lon="5.05824">
        <ele>333.26</ele>
        <time>2022-05-09T09:18:37Z</time>
      </trkpt>
      <trkpt lat="47.7894" lon="5.05828">
        <ele>332.73</ele>
        <time>2022-05-09T09:18:39Z</time>
      </trkpt>
      <trkpt lat="47.78939" lon="5.05832">
        <ele>332.21</ele>
        <time>2022-05-09T09:18:42Z</time>
      </trkpt>
      <trkpt lat="47.78938" lon="5.05836">
        <ele>331.83</ele>
        <time>2022-05-09T09:18:44Z</time>
      </trkpt>
      <trkpt lat="47.78937" lon="5.0584">
        <ele>331.49</ele>
        <time>2022-05-09T09:18:46Z</time>
      </trkpt>
      <trkpt lat="47.78935" lon="5.05844">
        <ele>331.29</ele>
        <time>2022-05-09T09:18:49Z</time>
      </trkpt>
      <trkpt lat="47.78933" lon="5.05847">
        <ele>331.18</ele>
        <time>2022-05-09T09:18:50Z</time>
      </trkpt>
      <trkpt lat="47.78932" lon="5.05851">
        <ele>330.76</ele>
        <time>2022-05-09T09:18:52Z</time>
      </trkpt>
      <trkpt lat="47.7893" lon="5.05855">
        <ele>330.45</ele>
        <time>2022-05-09T09:18:55Z</time>
      </trkpt>
      <trkpt lat="47.78927" lon="5.05858">
        <ele>330.36</ele>
        <time>2022-05-09T09:18:58Z</time>
      </trkpt>
      <trkpt lat="47.78925" lon="5.05861">
        <ele>330.12</ele>
        <time>2022-05-09T09:18:59Z</time>
      </trkpt>
      <trkpt lat="47.78923" lon="5.05865">
        <ele>330.25</ele>
        <time>2022-05-09T09:19:02Z</time>
      </trkpt>
      <trkpt lat="47.78921" lon="5.05868">
        <ele>330.45</ele>
        <time>2022-05-09T09:19:04Z</time>
      </trkpt>
      <trkpt lat="47.78918" lon="5.0587">
        <ele>330.83</ele>
        <time>2022-05-09T09:19:05Z</time>
      </trkpt>
      <trkpt lat="47.78915" lon="5.05871">
        <ele>331.16</ele>
        <time>2022-05-09T09:19:07Z</time>
      </trkpt>
      <trkpt lat="47.78912" lon="5.05874">
        <ele>331.43</ele>
        <time>2022-05-09T09:19:11Z</time>
      </trkpt>
      <trkpt lat="47.7891" lon="5.05878">
        <ele>331.57</ele>
        <time>2022-05-09T09:19:12Z</time>
      </trkpt>
      <trkpt lat="47.78908" lon="5.05881">
        <ele>331.71</ele>
        <time>2022-05-09T09:19:14Z</time>
      </trkpt>
      <trkpt lat="47.78905" lon="5.05884">
        <ele>331.91</ele>
        <time>2022-05-09T09:19:16Z</time>
      </trkpt>
      <trkpt lat="47.78902" lon="5.05885">
        <ele>332.13</ele>
        <time>2022-05-09T09:19:18Z</time>
      </trkpt>
      <trkpt lat="47.78899" lon="5.05888">
        <ele>332.29</ele>
        <time>2022-05-09T09:19:20Z</time>
      </trkpt>
      <trkpt lat="47.78896" lon="5.05889">
        <ele>332.48</ele>
        <time>2022-05-09T09:19:23Z</time>
      </trkpt>
      <trkpt lat="47.78893" lon="5.0589">
        <ele>332.66</ele>
        <time>2022-05-09T09:19:26Z</time>
      </trkpt>
      <trkpt lat="47.78891" lon="5.05893">
        <ele>332.69</ele>
        <time>2022-05-09T09:19:27Z</time>
      </trkpt>
      <trkpt lat="47.78888" lon="5.05896">
        <ele>332.7</ele>
        <time>2022-05-09T09:19:29Z</time>
      </trkpt>
      <trkpt lat="47.78886" lon="5.05898">
        <ele>332.53</ele>
        <time>2022-05-09T09:19:32Z</time>
      </trkpt>
      <trkpt lat="47.78883" lon="5.05898">
        <ele>332.39</ele>
        <time>2022-05-09T09:19:36Z</time>
      </trkpt>
      <trkpt lat="47.78881" lon="5.05901">
        <ele>332.16</ele>
        <time>2022-05-09T09:19:38Z</time>
      </trkpt>
      <trkpt lat="47.78879" lon="5.05905">
        <ele>331.86</ele>
        <time>2022-05-09T09:19:39Z</time>
      </trkpt>
      <trkpt lat="47.78877" lon="5.05908">
        <ele>331.59</ele>
        <time>2022-05-09T09:19:42Z</time>
      </trkpt>
      <trkpt lat="47.78874" lon="5.05911">
        <ele>331.24</ele>
        <time>2022-05-09T09:19:43Z</time>
      </trkpt>
      <trkpt lat="47.78872" lon="5.05914">
        <ele>330.94</ele>
        <time>2022-05-09T09:19:46Z</time>
      </trkpt>
      <trkpt lat="47.7887" lon="5.05918">
        <ele>330.56</ele>
        <time>2022-05-09T09:19:48Z</time>
      </trkpt>
      <trkpt lat="47.78869" lon="5.05922">
        <ele>330.24</ele>
        <time>2022-05-09T09:19:50Z</time>
      </trkpt>
      <trkpt lat="47.78868" lon="5.05926">
        <ele>329.91</ele>
        <time>2022-05-09T09:19:52Z</time>
      </trkpt>
      <trkpt lat="47.78866" lon="5.05929">
        <ele>329.54</ele>
        <time>2022-05-09T09:19:54Z</time>
      </trkpt>
      <trkpt lat="47.78863" lon="5.05932">
        <ele>329.07</ele>
        <time>2022-05-09T09:19:57Z</time>
      </trkpt>
      <trkpt lat="47.78861" lon="5.05934">
        <ele>328.76</ele>
        <time>2022-05-09T09:19:59Z</time>
      </trkpt>
      <trkpt lat="47.78857" lon="5.05936">
        <ele>328.8</ele>
        <time>2022-05-09T09:20:02Z</time>
      </trkpt>
      <trkpt lat="47.78855" lon="5.05938">
        <ele>328.74</ele>
        <time>2022-05-09T09:20:04Z</time>
      </trkpt>
      <trkpt lat="47.78853" lon="5.05941">
        <ele>328.58</ele>
        <time>2022-05-09T09:20:07Z</time>
      </trkpt>
      <trkpt lat="47.78851" lon="5.05945">
        <ele>328.34</ele>
        <time>2022-05-09T09:20:09Z</time>
      </trkpt>
      <trkpt lat="47.7885" lon="5.05949">
        <ele>328.17</ele>
        <time>2022-05-09T09:20:11Z</time>
      </trkpt>
      <trkpt lat="47.78848" lon="5.05953">
        <ele>328.02</ele>
        <time>2022-05-09T09:20:15Z</time>
      </trkpt>
      <trkpt lat="47.78845" lon="5.05955">
        <ele>327.98</ele>
        <time>2022-05-09T09:20:18Z</time>
      </trkpt>
      <trkpt lat="47.78842" lon="5.05957">
        <ele>327.93</ele>
        <time>2022-05-09T09:20:21Z</time>
      </trkpt>
      <trkpt lat="47.78839" lon="5.05959">
        <ele>327.85</ele>
        <time>2022-05-09T09:20:22Z</time>
      </trkpt>
      <trkpt lat="47.78837" lon="5.05961">
        <ele>327.75</ele>
        <time>2022-05-09T09:20:24Z</time>
      </trkpt>
      <trkpt lat="47.78834" lon="5.05962">
        <ele>327.73</ele>
        <time>2022-05-09T09:20:26Z</time>
      </trkpt>
      <trkpt lat="47.78831" lon="5.05964">
        <ele>327.7</ele>
        <time>2022-05-09T09:20:30Z</time>
      </trkpt>
      <trkpt lat="47.78828" lon="5.05966">
        <ele>327.68</ele>
        <time>2022-05-09T09:20:32Z</time>
      </trkpt>
      <trkpt lat="47.78825" lon="5.05968">
        <ele>327.65</ele>
        <time>2022-05-09T09:20:35Z</time>
      </trkpt>
      <trkpt lat="47.78822" lon="5.0597">
        <ele>327.6</ele>
        <time>2022-05-09T09:20:38Z</time>
      </trkpt>
      <trkpt lat="47.78819" lon="5.05973">
        <ele>327.5</ele>
        <time>2022-05-09T09:20:40Z</time>
      </trkpt>
      <trkpt lat="47.78818" lon="5.05976">
        <ele>327.49</ele>
        <time>2022-05-09T09:20:46Z</time>
      </trkpt>
      <trkpt lat="47.78815" lon="5.05978">
        <ele>327.59</ele>
        <time>2022-05-09T09:20:53Z</time>
      </trkpt>
      <trkpt lat="47.78812" lon="5.05978">
        <ele>327.72</ele>
        <time>2022-05-09T09:20:57Z</time>
      </trkpt>
      <trkpt lat="47.7881" lon="5.05976">
        <ele>327.82</ele>
        <time>2022-05-09T09:21:05Z</time>
      </trkpt>
      <trkpt lat="47.78807" lon="5.05975">
        <ele>327.94</ele>
        <time>2022-05-09T09:21:13Z</time>
      </trkpt>
      <trkpt lat="47.78809" lon="5.05979">
        <ele>327.85</ele>
        <time>2022-05-09T09:23:01Z</time>
      </trkpt>
      <trkpt lat="47.7881" lon="5.05983">
        <ele>327.78</ele>
        <time>2022-05-09T09:23:04Z</time>
      </trkpt>
      <trkpt lat="47.78811" lon="5.05987">
        <ele>327.7</ele>
        <time>2022-05-09T09:23:06Z</time>
      </trkpt>
      <trkpt lat="47.78812" lon="5.05992">
        <ele>327.6</ele>
        <time>2022-05-09T09:23:10Z</time>
      </trkpt>
      <trkpt lat="47.78814" lon="5.05995">
        <ele>327.45</ele>
        <time>2022-05-09T09:23:14Z</time>
      </trkpt>
      <trkpt lat="47.78815" lon="5.05999">
        <ele>327.33</ele>
        <time>2022-05-09T09:23:17Z</time>
      </trkpt>
      <trkpt lat="47.78816" lon="5.06004">
        <ele>327.48</ele>
        <time>2022-05-09T09:23:23Z</time>
      </trkpt>
      <trkpt lat="47.78817" lon="5.06008">
        <ele>327.63</ele>
        <time>2022-05-09T09:23:26Z</time>
      </trkpt>
      <trkpt lat="47.78819" lon="5.06011">
        <ele>327.63</ele>
        <time>2022-05-09T09:23:34Z</time>
      </trkpt>
      <trkpt lat="47.78821" lon="5.06015">
        <ele>327.67</ele>
        <time>2022-05-09T09:23:50Z</time>
      </trkpt>
      <trkpt lat="47.78823" lon="5.06017">
        <ele>327.58</ele>
        <time>2022-05-09T09:24:52Z</time>
      </trkpt>
      <trkpt lat="47.78823" lon="5.06021">
        <ele>327.78</ele>
        <time>2022-05-09T09:25:15Z</time>
      </trkpt>
      <trkpt lat="47.78821" lon="5.06025">
        <ele>328.19</ele>
        <time>2022-05-09T09:25:31Z</time>
      </trkpt>
      <trkpt lat="47.7882" lon="5.06028">
        <ele>328.44</ele>
        <time>2022-05-09T09:25:57Z</time>
      </trkpt>
      <trkpt lat="47.78818" lon="5.06025">
        <ele>328.5</ele>
        <time>2022-05-09T09:26:18Z</time>
      </trkpt>
      <trkpt lat="47.78816" lon="5.06028">
        <ele>328.87</ele>
        <time>2022-05-09T09:26:30Z</time>
      </trkpt>
      <trkpt lat="47.78815" lon="5.06031">
        <ele>328.94</ele>
        <time>2022-05-09T09:26:32Z</time>
      </trkpt>
      <trkpt lat="47.78812" lon="5.06034">
        <ele>329.18</ele>
        <time>2022-05-09T09:26:35Z</time>
      </trkpt>
      <trkpt lat="47.78809" lon="5.06035">
        <ele>329.43</ele>
        <time>2022-05-09T09:26:38Z</time>
      </trkpt>
      <trkpt lat="47.78807" lon="5.06036">
        <ele>329.58</ele>
        <time>2022-05-09T09:26:40Z</time>
      </trkpt>
      <trkpt lat="47.78804" lon="5.06038">
        <ele>329.69</ele>
        <time>2022-05-09T09:26:45Z</time>
      </trkpt>
      <trkpt lat="47.78801" lon="5.0604">
        <ele>329.72</ele>
        <time>2022-05-09T09:26:47Z</time>
      </trkpt>
      <trkpt lat="47.78798" lon="5.06042">
        <ele>329.76</ele>
        <time>2022-05-09T09:26:50Z</time>
      </trkpt>
      <trkpt lat="47.78796" lon="5.06043">
        <ele>329.8</ele>
        <time>2022-05-09T09:26:54Z</time>
      </trkpt>
      <trkpt lat="47.78794" lon="5.06046">
        <ele>329.76</ele>
        <time>2022-05-09T09:26:59Z</time>
      </trkpt>
      <trkpt lat="47.78792" lon="5.0605">
        <ele>329.69</ele>
        <time>2022-05-09T09:27:02Z</time>
      </trkpt>
      <trkpt lat="47.7879" lon="5.06054">
        <ele>329.62</ele>
        <time>2022-05-09T09:27:05Z</time>
      </trkpt>
      <trkpt lat="47.78787" lon="5.06057">
        <ele>329.58</ele>
        <time>2022-05-09T09:27:07Z</time>
      </trkpt>
      <trkpt lat="47.78785" lon="5.06059">
        <ele>329.52</ele>
        <time>2022-05-09T09:27:09Z</time>
      </trkpt>
      <trkpt lat="47.78783" lon="5.06062">
        <ele>329.39</ele>
        <time>2022-05-09T09:27:13Z</time>
      </trkpt>
      <trkpt lat="47.78781" lon="5.06065">
        <ele>329.24</ele>
        <time>2022-05-09T09:27:15Z</time>
      </trkpt>
      <trkpt lat="47.78778" lon="5.06068">
        <ele>329.1</ele>
        <time>2022-05-09T09:27:17Z</time>
      </trkpt>
      <trkpt lat="47.78776" lon="5.06071">
        <ele>329.22</ele>
        <time>2022-05-09T09:27:20Z</time>
      </trkpt>
      <trkpt lat="47.78774" lon="5.06075">
        <ele>329.33</ele>
        <time>2022-05-09T09:27:22Z</time>
      </trkpt>
      <trkpt lat="47.78773" lon="5.06079">
        <ele>329.29</ele>
        <time>2022-05-09T09:27:25Z</time>
      </trkpt>
      <trkpt lat="47.78771" lon="5.06083">
        <ele>329.48</ele>
        <time>2022-05-09T09:27:27Z</time>
      </trkpt>
      <trkpt lat="47.7877" lon="5.06087">
        <ele>329.28</ele>
        <time>2022-05-09T09:27:29Z</time>
      </trkpt>
      <trkpt lat="47.7877" lon="5.06091">
        <ele>328.85</ele>
        <time>2022-05-09T09:27:31Z</time>
      </trkpt>
      <trkpt lat="47.78769" lon="5.06096">
        <ele>328.53</ele>
        <time>2022-05-09T09:27:34Z</time>
      </trkpt>
      <trkpt lat="47.78769" lon="5.06101">
        <ele>327.99</ele>
        <time>2022-05-09T09:27:36Z</time>
      </trkpt>
      <trkpt lat="47.78767" lon="5.06107">
        <ele>327.77</ele>
        <time>2022-05-09T09:27:39Z</time>
      </trkpt>
      <trkpt lat="47.78765" lon="5.0611">
        <ele>327.88</ele>
        <time>2022-05-09T09:27:40Z</time>
      </trkpt>
      <trkpt lat="47.78765" lon="5.06115">
        <ele>327.7</ele>
        <time>2022-05-09T09:27:42Z</time>
      </trkpt>
      <trkpt lat="47.78764" lon="5.0612">
        <ele>327.82</ele>
        <time>2022-05-09T09:27:45Z</time>
      </trkpt>
      <trkpt lat="47.78763" lon="5.06125">
        <ele>327.93</ele>
        <time>2022-05-09T09:27:48Z</time>
      </trkpt>
      <trkpt lat="47.78762" lon="5.06129">
        <ele>328.04</ele>
        <time>2022-05-09T09:27:50Z</time>
      </trkpt>
      <trkpt lat="47.7876" lon="5.06133">
        <ele>328.34</ele>
        <time>2022-05-09T09:27:53Z</time>
      </trkpt>
      <trkpt lat="47.78759" lon="5.06137">
        <ele>328.43</ele>
        <time>2022-05-09T09:27:55Z</time>
      </trkpt>
      <trkpt lat="47.78758" lon="5.06143">
        <ele>328.6</ele>
        <time>2022-05-09T09:27:59Z</time>
      </trkpt>
      <trkpt lat="47.78757" lon="5.06148">
        <ele>328.82</ele>
        <time>2022-05-09T09:28:01Z</time>
      </trkpt>
      <trkpt lat="47.78756" lon="5.06152">
        <ele>329.02</ele>
        <time>2022-05-09T09:28:03Z</time>
      </trkpt>
      <trkpt lat="47.78756" lon="5.06156">
        <ele>329.05</ele>
        <time>2022-05-09T09:28:05Z</time>
      </trkpt>
      <trkpt lat="47.78756" lon="5.06161">
        <ele>329.09</ele>
        <time>2022-05-09T09:28:08Z</time>
      </trkpt>
      <trkpt lat="47.78756" lon="5.06165">
        <ele>329.12</ele>
        <time>2022-05-09T09:28:12Z</time>
      </trkpt>
      <trkpt lat="47.78755" lon="5.06169">
        <ele>329.39</ele>
        <time>2022-05-09T09:28:14Z</time>
      </trkpt>
      <trkpt lat="47.78754" lon="5.06173">
        <ele>329.72</ele>
        <time>2022-05-09T09:28:17Z</time>
      </trkpt>
      <trkpt lat="47.78754" lon="5.06179">
        <ele>330</ele>
        <time>2022-05-09T09:28:21Z</time>
      </trkpt>
      <trkpt lat="47.78753" lon="5.06183">
        <ele>330.28</ele>
        <time>2022-05-09T09:28:23Z</time>
      </trkpt>
      <trkpt lat="47.78753" lon="5.06188">
        <ele>330.5</ele>
        <time>2022-05-09T09:28:25Z</time>
      </trkpt>
      <trkpt lat="47.78753" lon="5.06192">
        <ele>330.68</ele>
        <time>2022-05-09T09:28:27Z</time>
      </trkpt>
      <trkpt lat="47.78753" lon="5.06196">
        <ele>330.9</ele>
        <time>2022-05-09T09:28:30Z</time>
      </trkpt>
      <trkpt lat="47.78753" lon="5.06201">
        <ele>331.26</ele>
        <time>2022-05-09T09:28:32Z</time>
      </trkpt>
      <trkpt lat="47.78753" lon="5.06205">
        <ele>331.54</ele>
        <time>2022-05-09T09:28:34Z</time>
      </trkpt>
      <trkpt lat="47.78753" lon="5.06209">
        <ele>331.83</ele>
        <time>2022-05-09T09:28:37Z</time>
      </trkpt>
      <trkpt lat="47.78753" lon="5.06214">
        <ele>332.19</ele>
        <time>2022-05-09T09:28:39Z</time>
      </trkpt>
      <trkpt lat="47.78754" lon="5.06218">
        <ele>332.41</ele>
        <time>2022-05-09T09:28:42Z</time>
      </trkpt>
      <trkpt lat="47.78754" lon="5.06224">
        <ele>332.74</ele>
        <time>2022-05-09T09:28:46Z</time>
      </trkpt>
      <trkpt lat="47.78754" lon="5.06229">
        <ele>332.82</ele>
        <time>2022-05-09T09:28:49Z</time>
      </trkpt>
      <trkpt lat="47.78755" lon="5.06234">
        <ele>332.87</ele>
        <time>2022-05-09T09:28:51Z</time>
      </trkpt>
      <trkpt lat="47.78756" lon="5.06238">
        <ele>332.94</ele>
        <time>2022-05-09T09:28:54Z</time>
      </trkpt>
      <trkpt lat="47.78759" lon="5.0624">
        <ele>332.97</ele>
        <time>2022-05-09T09:28:56Z</time>
      </trkpt>
      <trkpt lat="47.78762" lon="5.06241">
        <ele>333.01</ele>
        <time>2022-05-09T09:29:00Z</time>
      </trkpt>
      <trkpt lat="47.78765" lon="5.06242">
        <ele>333.07</ele>
        <time>2022-05-09T09:29:03Z</time>
      </trkpt>
      <trkpt lat="47.78767" lon="5.06241">
        <ele>333.02</ele>
        <time>2022-05-09T09:29:06Z</time>
      </trkpt>
      <trkpt lat="47.78769" lon="5.06238">
        <ele>332.8</ele>
        <time>2022-05-09T09:29:10Z</time>
      </trkpt>
      <trkpt lat="47.78771" lon="5.06235">
        <ele>332.53</ele>
        <time>2022-05-09T09:29:12Z</time>
      </trkpt>
      <trkpt lat="47.78773" lon="5.06232">
        <ele>332.22</ele>
        <time>2022-05-09T09:29:15Z</time>
      </trkpt>
      <trkpt lat="47.78775" lon="5.06229">
        <ele>331.86</ele>
        <time>2022-05-09T09:29:17Z</time>
      </trkpt>
      <trkpt lat="47.78778" lon="5.06226">
        <ele>331.43</ele>
        <time>2022-05-09T09:29:20Z</time>
      </trkpt>
      <trkpt lat="47.7878" lon="5.06223">
        <ele>331.25</ele>
        <time>2022-05-09T09:29:22Z</time>
      </trkpt>
      <trkpt lat="47.78781" lon="5.06219">
        <ele>331</ele>
        <time>2022-05-09T09:29:25Z</time>
      </trkpt>
      <trkpt lat="47.78783" lon="5.06215">
        <ele>330.86</ele>
        <time>2022-05-09T09:29:27Z</time>
      </trkpt>
      <trkpt lat="47.78785" lon="5.06211">
        <ele>330.71</ele>
        <time>2022-05-09T09:29:30Z</time>
      </trkpt>
      <trkpt lat="47.78788" lon="5.06208">
        <ele>330.71</ele>
        <time>2022-05-09T09:29:33Z</time>
      </trkpt>
      <trkpt lat="47.7879" lon="5.06206">
        <ele>330.71</ele>
        <time>2022-05-09T09:29:34Z</time>
      </trkpt>
      <trkpt lat="47.78793" lon="5.06203">
        <ele>330.71</ele>
        <time>2022-05-09T09:29:36Z</time>
      </trkpt>
      <trkpt lat="47.78795" lon="5.062">
        <ele>330.64</ele>
        <time>2022-05-09T09:29:39Z</time>
      </trkpt>
      <trkpt lat="47.78798" lon="5.06197">
        <ele>330.64</ele>
        <time>2022-05-09T09:29:42Z</time>
      </trkpt>
      <trkpt lat="47.788" lon="5.06194">
        <ele>330.55</ele>
        <time>2022-05-09T09:29:44Z</time>
      </trkpt>
      <trkpt lat="47.78803" lon="5.06192">
        <ele>330.55</ele>
        <time>2022-05-09T09:29:45Z</time>
      </trkpt>
      <trkpt lat="47.78805" lon="5.06189">
        <ele>330.37</ele>
        <time>2022-05-09T09:29:48Z</time>
      </trkpt>
      <trkpt lat="47.78808" lon="5.06186">
        <ele>330</ele>
        <time>2022-05-09T09:29:50Z</time>
      </trkpt>
      <trkpt lat="47.7881" lon="5.06183">
        <ele>329.6</ele>
        <time>2022-05-09T09:29:52Z</time>
      </trkpt>
      <trkpt lat="47.78812" lon="5.06179">
        <ele>329.1</ele>
        <time>2022-05-09T09:29:54Z</time>
      </trkpt>
      <trkpt lat="47.78813" lon="5.06176">
        <ele>328.74</ele>
        <time>2022-05-09T09:29:56Z</time>
      </trkpt>
      <trkpt lat="47.78816" lon="5.06172">
        <ele>328.2</ele>
        <time>2022-05-09T09:30:00Z</time>
      </trkpt>
      <trkpt lat="47.78819" lon="5.06169">
        <ele>327.77</ele>
        <time>2022-05-09T09:30:02Z</time>
      </trkpt>
      <trkpt lat="47.78821" lon="5.06166">
        <ele>327.41</ele>
        <time>2022-05-09T09:30:03Z</time>
      </trkpt>
      <trkpt lat="47.78823" lon="5.06162">
        <ele>327.1</ele>
        <time>2022-05-09T09:30:07Z</time>
      </trkpt>
      <trkpt lat="47.78824" lon="5.06158">
        <ele>326.82</ele>
        <time>2022-05-09T09:30:22Z</time>
      </trkpt>
      <trkpt lat="47.78824" lon="5.06154">
        <ele>326.58</ele>
        <time>2022-05-09T09:30:37Z</time>
      </trkpt>
    </trkseg>
  </trk>
</gpx>